<?xml version="1.0" encoding="UTF-8" standalone="no" ?>
<gpx xmlns="http://www.topografix.com/GPX/1/1" xmlns:xsi="http://www.w3.org/2001/XMLSchema-instance" xsi:schemaLocation="http://www.topografix.com/GPX/1/1 http://www.topografix.com/GPX/1/1/gpx.xsd" version="1.1" creator="VisuGPX - https://www.visugpx.com">
  <metadata>
    <name>N-E-Procé Chapelle Erdre Sucé Erdre Thouaré St Julien de Concelles Basse Goulaine Pirmil</name>
    <desc><![CDATA[N-E-Procé Chapelle Erdre Sucé Erdre Thouaré St Julien de Concelles Basse Goulaine Pirmil]]></desc>
  </metadata>
  <trk>
    <name><![CDATA[2020-12-24 13:02 +01:00]]></name>
    <trkseg>
      <trkpt lat="47.16776" lon="-1.62657">
        <ele>70</ele>
        <time>2020-12-24T12:02:09.000Z</time>
      </trkpt>
      <trkpt lat="47.16787" lon="-1.6265">
        <ele>73</ele>
        <time>2020-12-24T12:04:44.000Z</time>
      </trkpt>
      <trkpt lat="47.16793" lon="-1.6264">
        <ele>74</ele>
        <time>2020-12-24T12:04:46.000Z</time>
      </trkpt>
      <trkpt lat="47.168" lon="-1.62629">
        <ele>74</ele>
        <time>2020-12-24T12:04:48.000Z</time>
      </trkpt>
      <trkpt lat="47.16807" lon="-1.62617">
        <ele>74</ele>
        <time>2020-12-24T12:04:50.000Z</time>
      </trkpt>
      <trkpt lat="47.16814" lon="-1.62605">
        <ele>73</ele>
        <time>2020-12-24T12:04:52.000Z</time>
      </trkpt>
      <trkpt lat="47.16822" lon="-1.62593">
        <ele>74</ele>
        <time>2020-12-24T12:04:54.000Z</time>
      </trkpt>
      <trkpt lat="47.16828" lon="-1.62581">
        <ele>73</ele>
        <time>2020-12-24T12:04:56.000Z</time>
      </trkpt>
      <trkpt lat="47.16826" lon="-1.62566">
        <ele>72</ele>
        <time>2020-12-24T12:04:58.000Z</time>
      </trkpt>
      <trkpt lat="47.16818" lon="-1.62557">
        <ele>72</ele>
        <time>2020-12-24T12:05:00.000Z</time>
      </trkpt>
      <trkpt lat="47.16809" lon="-1.62547">
        <ele>72</ele>
        <time>2020-12-24T12:05:02.000Z</time>
      </trkpt>
      <trkpt lat="47.16799" lon="-1.6254">
        <ele>71</ele>
        <time>2020-12-24T12:05:04.000Z</time>
      </trkpt>
      <trkpt lat="47.16788" lon="-1.62533">
        <ele>70</ele>
        <time>2020-12-24T12:05:06.000Z</time>
      </trkpt>
      <trkpt lat="47.16776" lon="-1.62527">
        <ele>70</ele>
        <time>2020-12-24T12:05:08.000Z</time>
      </trkpt>
      <trkpt lat="47.16764" lon="-1.62521">
        <ele>69</ele>
        <time>2020-12-24T12:05:10.000Z</time>
      </trkpt>
      <trkpt lat="47.16753" lon="-1.62515">
        <ele>69</ele>
        <time>2020-12-24T12:05:12.000Z</time>
      </trkpt>
      <trkpt lat="47.16742" lon="-1.62509">
        <ele>70</ele>
        <time>2020-12-24T12:05:14.000Z</time>
      </trkpt>
      <trkpt lat="47.1673" lon="-1.62503">
        <ele>69</ele>
        <time>2020-12-24T12:05:16.000Z</time>
      </trkpt>
      <trkpt lat="47.1672" lon="-1.62499">
        <ele>69</ele>
        <time>2020-12-24T12:05:18.000Z</time>
      </trkpt>
      <trkpt lat="47.16712" lon="-1.6249">
        <ele>69</ele>
        <time>2020-12-24T12:05:20.000Z</time>
      </trkpt>
      <trkpt lat="47.16711" lon="-1.62473">
        <ele>69</ele>
        <time>2020-12-24T12:05:22.000Z</time>
      </trkpt>
      <trkpt lat="47.16713" lon="-1.62455">
        <ele>69</ele>
        <time>2020-12-24T12:05:24.000Z</time>
      </trkpt>
      <trkpt lat="47.16715" lon="-1.62436">
        <ele>69</ele>
        <time>2020-12-24T12:05:26.000Z</time>
      </trkpt>
      <trkpt lat="47.1672" lon="-1.62418">
        <ele>69</ele>
        <time>2020-12-24T12:05:28.000Z</time>
      </trkpt>
      <trkpt lat="47.16726" lon="-1.62399">
        <ele>68</ele>
        <time>2020-12-24T12:05:30.000Z</time>
      </trkpt>
      <trkpt lat="47.16731" lon="-1.62381">
        <ele>69</ele>
        <time>2020-12-24T12:05:32.000Z</time>
      </trkpt>
      <trkpt lat="47.16739" lon="-1.62365">
        <ele>69</ele>
        <time>2020-12-24T12:05:34.000Z</time>
      </trkpt>
      <trkpt lat="47.16749" lon="-1.62353">
        <ele>69</ele>
        <time>2020-12-24T12:05:36.000Z</time>
      </trkpt>
      <trkpt lat="47.16759" lon="-1.62344">
        <ele>69</ele>
        <time>2020-12-24T12:05:38.000Z</time>
      </trkpt>
      <trkpt lat="47.16769" lon="-1.62337">
        <ele>70</ele>
        <time>2020-12-24T12:05:40.000Z</time>
      </trkpt>
      <trkpt lat="47.1678" lon="-1.62331">
        <ele>70</ele>
        <time>2020-12-24T12:05:42.000Z</time>
      </trkpt>
      <trkpt lat="47.16792" lon="-1.62325">
        <ele>70</ele>
        <time>2020-12-24T12:05:44.000Z</time>
      </trkpt>
      <trkpt lat="47.16803" lon="-1.62319">
        <ele>70</ele>
        <time>2020-12-24T12:05:46.000Z</time>
      </trkpt>
      <trkpt lat="47.16813" lon="-1.62311">
        <ele>70</ele>
        <time>2020-12-24T12:05:48.000Z</time>
      </trkpt>
      <trkpt lat="47.16824" lon="-1.62303">
        <ele>70</ele>
        <time>2020-12-24T12:05:50.000Z</time>
      </trkpt>
      <trkpt lat="47.16833" lon="-1.62295">
        <ele>71</ele>
        <time>2020-12-24T12:05:52.000Z</time>
      </trkpt>
      <trkpt lat="47.16842" lon="-1.62283">
        <ele>71</ele>
        <time>2020-12-24T12:05:54.000Z</time>
      </trkpt>
      <trkpt lat="47.16851" lon="-1.62272">
        <ele>71</ele>
        <time>2020-12-24T12:05:56.000Z</time>
      </trkpt>
      <trkpt lat="47.16861" lon="-1.6226">
        <ele>71</ele>
        <time>2020-12-24T12:05:58.000Z</time>
      </trkpt>
      <trkpt lat="47.16871" lon="-1.62249">
        <ele>70</ele>
        <time>2020-12-24T12:06:00.000Z</time>
      </trkpt>
      <trkpt lat="47.1688" lon="-1.62237">
        <ele>71</ele>
        <time>2020-12-24T12:06:02.000Z</time>
      </trkpt>
      <trkpt lat="47.16889" lon="-1.62225">
        <ele>71</ele>
        <time>2020-12-24T12:06:04.000Z</time>
      </trkpt>
      <trkpt lat="47.16898" lon="-1.62212">
        <ele>70</ele>
        <time>2020-12-24T12:06:06.000Z</time>
      </trkpt>
      <trkpt lat="47.16907" lon="-1.622">
        <ele>70</ele>
        <time>2020-12-24T12:06:08.000Z</time>
      </trkpt>
      <trkpt lat="47.16915" lon="-1.62187">
        <ele>71</ele>
        <time>2020-12-24T12:06:10.000Z</time>
      </trkpt>
      <trkpt lat="47.16923" lon="-1.62172">
        <ele>70</ele>
        <time>2020-12-24T12:06:12.000Z</time>
      </trkpt>
      <trkpt lat="47.1693" lon="-1.62157">
        <ele>70</ele>
        <time>2020-12-24T12:06:14.000Z</time>
      </trkpt>
      <trkpt lat="47.16938" lon="-1.62143">
        <ele>70</ele>
        <time>2020-12-24T12:06:16.000Z</time>
      </trkpt>
      <trkpt lat="47.16945" lon="-1.62128">
        <ele>70</ele>
        <time>2020-12-24T12:06:18.000Z</time>
      </trkpt>
      <trkpt lat="47.16953" lon="-1.62114">
        <ele>71</ele>
        <time>2020-12-24T12:06:20.000Z</time>
      </trkpt>
      <trkpt lat="47.1696" lon="-1.62099">
        <ele>70</ele>
        <time>2020-12-24T12:06:22.000Z</time>
      </trkpt>
      <trkpt lat="47.16968" lon="-1.62085">
        <ele>70</ele>
        <time>2020-12-24T12:06:24.000Z</time>
      </trkpt>
      <trkpt lat="47.16975" lon="-1.6207">
        <ele>70</ele>
        <time>2020-12-24T12:06:26.000Z</time>
      </trkpt>
      <trkpt lat="47.16983" lon="-1.62056">
        <ele>69</ele>
        <time>2020-12-24T12:06:28.000Z</time>
      </trkpt>
      <trkpt lat="47.16992" lon="-1.62041">
        <ele>70</ele>
        <time>2020-12-24T12:06:30.000Z</time>
      </trkpt>
      <trkpt lat="47.17001" lon="-1.62027">
        <ele>69</ele>
        <time>2020-12-24T12:06:32.000Z</time>
      </trkpt>
      <trkpt lat="47.17009" lon="-1.62014">
        <ele>70</ele>
        <time>2020-12-24T12:06:34.000Z</time>
      </trkpt>
      <trkpt lat="47.17017" lon="-1.62001">
        <ele>70</ele>
        <time>2020-12-24T12:06:36.000Z</time>
      </trkpt>
      <trkpt lat="47.17026" lon="-1.61989">
        <ele>70</ele>
        <time>2020-12-24T12:06:38.000Z</time>
      </trkpt>
      <trkpt lat="47.17034" lon="-1.61977">
        <ele>70</ele>
        <time>2020-12-24T12:06:40.000Z</time>
      </trkpt>
      <trkpt lat="47.17043" lon="-1.61965">
        <ele>70</ele>
        <time>2020-12-24T12:06:42.000Z</time>
      </trkpt>
      <trkpt lat="47.17051" lon="-1.61953">
        <ele>71</ele>
        <time>2020-12-24T12:06:44.000Z</time>
      </trkpt>
      <trkpt lat="47.1706" lon="-1.61941">
        <ele>71</ele>
        <time>2020-12-24T12:06:46.000Z</time>
      </trkpt>
      <trkpt lat="47.17069" lon="-1.6193">
        <ele>71</ele>
        <time>2020-12-24T12:06:48.000Z</time>
      </trkpt>
      <trkpt lat="47.17078" lon="-1.6192">
        <ele>71</ele>
        <time>2020-12-24T12:06:50.000Z</time>
      </trkpt>
      <trkpt lat="47.17087" lon="-1.6191">
        <ele>71</ele>
        <time>2020-12-24T12:06:52.000Z</time>
      </trkpt>
      <trkpt lat="47.17098" lon="-1.61901">
        <ele>71</ele>
        <time>2020-12-24T12:06:54.000Z</time>
      </trkpt>
      <trkpt lat="47.17108" lon="-1.61891">
        <ele>71</ele>
        <time>2020-12-24T12:06:56.000Z</time>
      </trkpt>
      <trkpt lat="47.17118" lon="-1.61882">
        <ele>71</ele>
        <time>2020-12-24T12:06:58.000Z</time>
      </trkpt>
      <trkpt lat="47.17128" lon="-1.61872">
        <ele>71</ele>
        <time>2020-12-24T12:07:00.000Z</time>
      </trkpt>
      <trkpt lat="47.17138" lon="-1.61862">
        <ele>71</ele>
        <time>2020-12-24T12:07:02.000Z</time>
      </trkpt>
      <trkpt lat="47.17148" lon="-1.61853">
        <ele>72</ele>
        <time>2020-12-24T12:07:04.000Z</time>
      </trkpt>
      <trkpt lat="47.17158" lon="-1.61843">
        <ele>72</ele>
        <time>2020-12-24T12:07:06.000Z</time>
      </trkpt>
      <trkpt lat="47.17168" lon="-1.61834">
        <ele>72</ele>
        <time>2020-12-24T12:07:08.000Z</time>
      </trkpt>
      <trkpt lat="47.17178" lon="-1.61824">
        <ele>71</ele>
        <time>2020-12-24T12:07:10.000Z</time>
      </trkpt>
      <trkpt lat="47.17188" lon="-1.61815">
        <ele>72</ele>
        <time>2020-12-24T12:07:12.000Z</time>
      </trkpt>
      <trkpt lat="47.17198" lon="-1.61806">
        <ele>71</ele>
        <time>2020-12-24T12:07:14.000Z</time>
      </trkpt>
      <trkpt lat="47.17208" lon="-1.61796">
        <ele>71</ele>
        <time>2020-12-24T12:07:16.000Z</time>
      </trkpt>
      <trkpt lat="47.17217" lon="-1.61784">
        <ele>70</ele>
        <time>2020-12-24T12:07:18.000Z</time>
      </trkpt>
      <trkpt lat="47.17222" lon="-1.61768">
        <ele>70</ele>
        <time>2020-12-24T12:07:20.000Z</time>
      </trkpt>
      <trkpt lat="47.17228" lon="-1.61753">
        <ele>70</ele>
        <time>2020-12-24T12:07:22.000Z</time>
      </trkpt>
      <trkpt lat="47.17237" lon="-1.61741">
        <ele>70</ele>
        <time>2020-12-24T12:07:24.000Z</time>
      </trkpt>
      <trkpt lat="47.17246" lon="-1.61729">
        <ele>70</ele>
        <time>2020-12-24T12:07:26.000Z</time>
      </trkpt>
      <trkpt lat="47.17253" lon="-1.61714">
        <ele>70</ele>
        <time>2020-12-24T12:07:28.000Z</time>
      </trkpt>
      <trkpt lat="47.1726" lon="-1.61699">
        <ele>70</ele>
        <time>2020-12-24T12:07:30.000Z</time>
      </trkpt>
      <trkpt lat="47.17266" lon="-1.61685">
        <ele>70</ele>
        <time>2020-12-24T12:07:32.000Z</time>
      </trkpt>
      <trkpt lat="47.17273" lon="-1.61671">
        <ele>71</ele>
        <time>2020-12-24T12:07:34.000Z</time>
      </trkpt>
      <trkpt lat="47.1728" lon="-1.61657">
        <ele>71</ele>
        <time>2020-12-24T12:07:36.000Z</time>
      </trkpt>
      <trkpt lat="47.17287" lon="-1.61644">
        <ele>71</ele>
        <time>2020-12-24T12:07:38.000Z</time>
      </trkpt>
      <trkpt lat="47.17294" lon="-1.61632">
        <ele>72</ele>
        <time>2020-12-24T12:07:40.000Z</time>
      </trkpt>
      <trkpt lat="47.17302" lon="-1.61618">
        <ele>72</ele>
        <time>2020-12-24T12:07:42.000Z</time>
      </trkpt>
      <trkpt lat="47.17311" lon="-1.61606">
        <ele>73</ele>
        <time>2020-12-24T12:07:44.000Z</time>
      </trkpt>
      <trkpt lat="47.17319" lon="-1.61594">
        <ele>73</ele>
        <time>2020-12-24T12:07:46.000Z</time>
      </trkpt>
      <trkpt lat="47.17327" lon="-1.61581">
        <ele>73</ele>
        <time>2020-12-24T12:07:48.000Z</time>
      </trkpt>
      <trkpt lat="47.17335" lon="-1.6157">
        <ele>74</ele>
        <time>2020-12-24T12:07:50.000Z</time>
      </trkpt>
      <trkpt lat="47.17344" lon="-1.6156">
        <ele>74</ele>
        <time>2020-12-24T12:07:52.000Z</time>
      </trkpt>
      <trkpt lat="47.17353" lon="-1.6155">
        <ele>74</ele>
        <time>2020-12-24T12:07:54.000Z</time>
      </trkpt>
      <trkpt lat="47.17362" lon="-1.61541">
        <ele>73</ele>
        <time>2020-12-24T12:07:56.000Z</time>
      </trkpt>
      <trkpt lat="47.17372" lon="-1.61531">
        <ele>73</ele>
        <time>2020-12-24T12:07:58.000Z</time>
      </trkpt>
      <trkpt lat="47.17382" lon="-1.61522">
        <ele>73</ele>
        <time>2020-12-24T12:08:00.000Z</time>
      </trkpt>
      <trkpt lat="47.17393" lon="-1.61513">
        <ele>72</ele>
        <time>2020-12-24T12:08:02.000Z</time>
      </trkpt>
      <trkpt lat="47.17404" lon="-1.61504">
        <ele>72</ele>
        <time>2020-12-24T12:08:04.000Z</time>
      </trkpt>
      <trkpt lat="47.17416" lon="-1.61495">
        <ele>72</ele>
        <time>2020-12-24T12:08:06.000Z</time>
      </trkpt>
      <trkpt lat="47.17428" lon="-1.61486">
        <ele>73</ele>
        <time>2020-12-24T12:08:08.000Z</time>
      </trkpt>
      <trkpt lat="47.17441" lon="-1.61479">
        <ele>72</ele>
        <time>2020-12-24T12:08:10.000Z</time>
      </trkpt>
      <trkpt lat="47.17453" lon="-1.61473">
        <ele>72</ele>
        <time>2020-12-24T12:08:12.000Z</time>
      </trkpt>
      <trkpt lat="47.17465" lon="-1.61467">
        <ele>71</ele>
        <time>2020-12-24T12:08:14.000Z</time>
      </trkpt>
      <trkpt lat="47.17477" lon="-1.61462">
        <ele>71</ele>
        <time>2020-12-24T12:08:16.000Z</time>
      </trkpt>
      <trkpt lat="47.17489" lon="-1.61457">
        <ele>70</ele>
        <time>2020-12-24T12:08:18.000Z</time>
      </trkpt>
      <trkpt lat="47.175" lon="-1.61452">
        <ele>70</ele>
        <time>2020-12-24T12:08:20.000Z</time>
      </trkpt>
      <trkpt lat="47.17508" lon="-1.61445">
        <ele>69</ele>
        <time>2020-12-24T12:08:22.000Z</time>
      </trkpt>
      <trkpt lat="47.17512" lon="-1.6143">
        <ele>68</ele>
        <time>2020-12-24T12:08:24.000Z</time>
      </trkpt>
      <trkpt lat="47.17516" lon="-1.61411">
        <ele>66</ele>
        <time>2020-12-24T12:08:26.000Z</time>
      </trkpt>
      <trkpt lat="47.1752" lon="-1.61391">
        <ele>64</ele>
        <time>2020-12-24T12:08:28.000Z</time>
      </trkpt>
      <trkpt lat="47.17526" lon="-1.61371">
        <ele>63</ele>
        <time>2020-12-24T12:08:30.000Z</time>
      </trkpt>
      <trkpt lat="47.17527" lon="-1.61353">
        <ele>64</ele>
        <time>2020-12-24T12:08:32.000Z</time>
      </trkpt>
      <trkpt lat="47.17523" lon="-1.61335">
        <ele>64</ele>
        <time>2020-12-24T12:08:34.000Z</time>
      </trkpt>
      <trkpt lat="47.1752" lon="-1.61316">
        <ele>63</ele>
        <time>2020-12-24T12:08:36.000Z</time>
      </trkpt>
      <trkpt lat="47.17519" lon="-1.61297">
        <ele>63</ele>
        <time>2020-12-24T12:08:38.000Z</time>
      </trkpt>
      <trkpt lat="47.17512" lon="-1.6128">
        <ele>63</ele>
        <time>2020-12-24T12:08:40.000Z</time>
      </trkpt>
      <trkpt lat="47.17504" lon="-1.61264">
        <ele>63</ele>
        <time>2020-12-24T12:08:42.000Z</time>
      </trkpt>
      <trkpt lat="47.17496" lon="-1.61247">
        <ele>63</ele>
        <time>2020-12-24T12:08:44.000Z</time>
      </trkpt>
      <trkpt lat="47.17489" lon="-1.6123">
        <ele>62</ele>
        <time>2020-12-24T12:08:46.000Z</time>
      </trkpt>
      <trkpt lat="47.17482" lon="-1.61212">
        <ele>63</ele>
        <time>2020-12-24T12:08:48.000Z</time>
      </trkpt>
      <trkpt lat="47.17475" lon="-1.61194">
        <ele>62</ele>
        <time>2020-12-24T12:08:50.000Z</time>
      </trkpt>
      <trkpt lat="47.17468" lon="-1.61177">
        <ele>62</ele>
        <time>2020-12-24T12:08:52.000Z</time>
      </trkpt>
      <trkpt lat="47.17461" lon="-1.6116">
        <ele>61</ele>
        <time>2020-12-24T12:08:54.000Z</time>
      </trkpt>
      <trkpt lat="47.17455" lon="-1.61143">
        <ele>61</ele>
        <time>2020-12-24T12:08:56.000Z</time>
      </trkpt>
      <trkpt lat="47.17447" lon="-1.61126">
        <ele>61</ele>
        <time>2020-12-24T12:08:58.000Z</time>
      </trkpt>
      <trkpt lat="47.17441" lon="-1.61107">
        <ele>60</ele>
        <time>2020-12-24T12:09:00.000Z</time>
      </trkpt>
      <trkpt lat="47.17437" lon="-1.61086">
        <ele>60</ele>
        <time>2020-12-24T12:09:02.000Z</time>
      </trkpt>
      <trkpt lat="47.17431" lon="-1.61066">
        <ele>59</ele>
        <time>2020-12-24T12:09:04.000Z</time>
      </trkpt>
      <trkpt lat="47.17426" lon="-1.6105">
        <ele>59</ele>
        <time>2020-12-24T12:09:06.000Z</time>
      </trkpt>
      <trkpt lat="47.17422" lon="-1.61034">
        <ele>58</ele>
        <time>2020-12-24T12:09:08.000Z</time>
      </trkpt>
      <trkpt lat="47.17424" lon="-1.61018">
        <ele>58</ele>
        <time>2020-12-24T12:09:11.000Z</time>
      </trkpt>
      <trkpt lat="47.17432" lon="-1.61027">
        <ele>57</ele>
        <time>2020-12-24T12:09:14.000Z</time>
      </trkpt>
      <trkpt lat="47.17436" lon="-1.61041">
        <ele>57</ele>
        <time>2020-12-24T12:09:16.000Z</time>
      </trkpt>
      <trkpt lat="47.17442" lon="-1.61055">
        <ele>57</ele>
        <time>2020-12-24T12:09:18.000Z</time>
      </trkpt>
      <trkpt lat="47.17448" lon="-1.61071">
        <ele>56</ele>
        <time>2020-12-24T12:09:20.000Z</time>
      </trkpt>
      <trkpt lat="47.17457" lon="-1.61084">
        <ele>55</ele>
        <time>2020-12-24T12:09:22.000Z</time>
      </trkpt>
      <trkpt lat="47.17468" lon="-1.61094">
        <ele>55</ele>
        <time>2020-12-24T12:09:24.000Z</time>
      </trkpt>
      <trkpt lat="47.1748" lon="-1.61103">
        <ele>55</ele>
        <time>2020-12-24T12:09:26.000Z</time>
      </trkpt>
      <trkpt lat="47.17495" lon="-1.61104">
        <ele>54</ele>
        <time>2020-12-24T12:09:28.000Z</time>
      </trkpt>
      <trkpt lat="47.17508" lon="-1.61101">
        <ele>54</ele>
        <time>2020-12-24T12:09:30.000Z</time>
      </trkpt>
      <trkpt lat="47.17521" lon="-1.61092">
        <ele>54</ele>
        <time>2020-12-24T12:09:32.000Z</time>
      </trkpt>
      <trkpt lat="47.17533" lon="-1.61082">
        <ele>54</ele>
        <time>2020-12-24T12:09:34.000Z</time>
      </trkpt>
      <trkpt lat="47.17545" lon="-1.61071">
        <ele>54</ele>
        <time>2020-12-24T12:09:36.000Z</time>
      </trkpt>
      <trkpt lat="47.17556" lon="-1.6106">
        <ele>54</ele>
        <time>2020-12-24T12:09:38.000Z</time>
      </trkpt>
      <trkpt lat="47.17568" lon="-1.6105">
        <ele>55</ele>
        <time>2020-12-24T12:09:40.000Z</time>
      </trkpt>
      <trkpt lat="47.17579" lon="-1.61041">
        <ele>55</ele>
        <time>2020-12-24T12:09:42.000Z</time>
      </trkpt>
      <trkpt lat="47.17591" lon="-1.61031">
        <ele>55</ele>
        <time>2020-12-24T12:09:44.000Z</time>
      </trkpt>
      <trkpt lat="47.17602" lon="-1.61021">
        <ele>55</ele>
        <time>2020-12-24T12:09:46.000Z</time>
      </trkpt>
      <trkpt lat="47.17613" lon="-1.61011">
        <ele>55</ele>
        <time>2020-12-24T12:09:48.000Z</time>
      </trkpt>
      <trkpt lat="47.17625" lon="-1.61001">
        <ele>55</ele>
        <time>2020-12-24T12:09:50.000Z</time>
      </trkpt>
      <trkpt lat="47.17636" lon="-1.60991">
        <ele>54</ele>
        <time>2020-12-24T12:09:52.000Z</time>
      </trkpt>
      <trkpt lat="47.17647" lon="-1.60981">
        <ele>54</ele>
        <time>2020-12-24T12:09:54.000Z</time>
      </trkpt>
      <trkpt lat="47.17659" lon="-1.60973">
        <ele>55</ele>
        <time>2020-12-24T12:09:56.000Z</time>
      </trkpt>
      <trkpt lat="47.17672" lon="-1.60969">
        <ele>55</ele>
        <time>2020-12-24T12:09:58.000Z</time>
      </trkpt>
      <trkpt lat="47.17684" lon="-1.60969">
        <ele>56</ele>
        <time>2020-12-24T12:10:00.000Z</time>
      </trkpt>
      <trkpt lat="47.17695" lon="-1.6097">
        <ele>56</ele>
        <time>2020-12-24T12:10:02.000Z</time>
      </trkpt>
      <trkpt lat="47.17707" lon="-1.60964">
        <ele>56</ele>
        <time>2020-12-24T12:10:04.000Z</time>
      </trkpt>
      <trkpt lat="47.17718" lon="-1.60958">
        <ele>56</ele>
        <time>2020-12-24T12:10:06.000Z</time>
      </trkpt>
      <trkpt lat="47.1773" lon="-1.6095">
        <ele>56</ele>
        <time>2020-12-24T12:10:08.000Z</time>
      </trkpt>
      <trkpt lat="47.17741" lon="-1.60942">
        <ele>56</ele>
        <time>2020-12-24T12:10:10.000Z</time>
      </trkpt>
      <trkpt lat="47.17752" lon="-1.60933">
        <ele>56</ele>
        <time>2020-12-24T12:10:12.000Z</time>
      </trkpt>
      <trkpt lat="47.17763" lon="-1.60925">
        <ele>56</ele>
        <time>2020-12-24T12:10:14.000Z</time>
      </trkpt>
      <trkpt lat="47.17774" lon="-1.60916">
        <ele>56</ele>
        <time>2020-12-24T12:10:16.000Z</time>
      </trkpt>
      <trkpt lat="47.17785" lon="-1.60907">
        <ele>56</ele>
        <time>2020-12-24T12:10:18.000Z</time>
      </trkpt>
      <trkpt lat="47.17796" lon="-1.60899">
        <ele>56</ele>
        <time>2020-12-24T12:10:20.000Z</time>
      </trkpt>
      <trkpt lat="47.17807" lon="-1.6089">
        <ele>56</ele>
        <time>2020-12-24T12:10:22.000Z</time>
      </trkpt>
      <trkpt lat="47.17817" lon="-1.60879">
        <ele>56</ele>
        <time>2020-12-24T12:10:24.000Z</time>
      </trkpt>
      <trkpt lat="47.17827" lon="-1.60865">
        <ele>56</ele>
        <time>2020-12-24T12:10:26.000Z</time>
      </trkpt>
      <trkpt lat="47.17834" lon="-1.6085">
        <ele>55</ele>
        <time>2020-12-24T12:10:28.000Z</time>
      </trkpt>
      <trkpt lat="47.17841" lon="-1.60835">
        <ele>54</ele>
        <time>2020-12-24T12:10:30.000Z</time>
      </trkpt>
      <trkpt lat="47.17846" lon="-1.60816">
        <ele>54</ele>
        <time>2020-12-24T12:10:32.000Z</time>
      </trkpt>
      <trkpt lat="47.17851" lon="-1.60798">
        <ele>54</ele>
        <time>2020-12-24T12:10:34.000Z</time>
      </trkpt>
      <trkpt lat="47.17856" lon="-1.60779">
        <ele>54</ele>
        <time>2020-12-24T12:10:36.000Z</time>
      </trkpt>
      <trkpt lat="47.1786" lon="-1.6076">
        <ele>54</ele>
        <time>2020-12-24T12:10:38.000Z</time>
      </trkpt>
      <trkpt lat="47.17864" lon="-1.60741">
        <ele>54</ele>
        <time>2020-12-24T12:10:40.000Z</time>
      </trkpt>
      <trkpt lat="47.17868" lon="-1.60723">
        <ele>54</ele>
        <time>2020-12-24T12:10:42.000Z</time>
      </trkpt>
      <trkpt lat="47.17873" lon="-1.60704">
        <ele>54</ele>
        <time>2020-12-24T12:10:44.000Z</time>
      </trkpt>
      <trkpt lat="47.17877" lon="-1.60686">
        <ele>54</ele>
        <time>2020-12-24T12:10:46.000Z</time>
      </trkpt>
      <trkpt lat="47.17882" lon="-1.60668">
        <ele>54</ele>
        <time>2020-12-24T12:10:48.000Z</time>
      </trkpt>
      <trkpt lat="47.17888" lon="-1.60652">
        <ele>54</ele>
        <time>2020-12-24T12:10:50.000Z</time>
      </trkpt>
      <trkpt lat="47.17893" lon="-1.60638">
        <ele>54</ele>
        <time>2020-12-24T12:10:52.000Z</time>
      </trkpt>
      <trkpt lat="47.17897" lon="-1.60623">
        <ele>54</ele>
        <time>2020-12-24T12:10:54.000Z</time>
      </trkpt>
      <trkpt lat="47.17901" lon="-1.6061">
        <ele>55</ele>
        <time>2020-12-24T12:10:56.000Z</time>
      </trkpt>
      <trkpt lat="47.17905" lon="-1.60596">
        <ele>55</ele>
        <time>2020-12-24T12:10:58.000Z</time>
      </trkpt>
      <trkpt lat="47.17914" lon="-1.60584">
        <ele>56</ele>
        <time>2020-12-24T12:11:01.000Z</time>
      </trkpt>
      <trkpt lat="47.17923" lon="-1.60584">
        <ele>56</ele>
        <time>2020-12-24T12:11:03.000Z</time>
      </trkpt>
      <trkpt lat="47.17933" lon="-1.60584">
        <ele>57</ele>
        <time>2020-12-24T12:11:05.000Z</time>
      </trkpt>
      <trkpt lat="47.17945" lon="-1.6058">
        <ele>57</ele>
        <time>2020-12-24T12:11:07.000Z</time>
      </trkpt>
      <trkpt lat="47.17957" lon="-1.60573">
        <ele>57</ele>
        <time>2020-12-24T12:11:09.000Z</time>
      </trkpt>
      <trkpt lat="47.17967" lon="-1.60566">
        <ele>57</ele>
        <time>2020-12-24T12:11:11.000Z</time>
      </trkpt>
      <trkpt lat="47.17976" lon="-1.60558">
        <ele>57</ele>
        <time>2020-12-24T12:11:13.000Z</time>
      </trkpt>
      <trkpt lat="47.17988" lon="-1.60554">
        <ele>57</ele>
        <time>2020-12-24T12:11:15.000Z</time>
      </trkpt>
      <trkpt lat="47.18001" lon="-1.60552">
        <ele>56</ele>
        <time>2020-12-24T12:11:17.000Z</time>
      </trkpt>
      <trkpt lat="47.18013" lon="-1.6055">
        <ele>57</ele>
        <time>2020-12-24T12:11:19.000Z</time>
      </trkpt>
      <trkpt lat="47.18025" lon="-1.60549">
        <ele>56</ele>
        <time>2020-12-24T12:11:21.000Z</time>
      </trkpt>
      <trkpt lat="47.18037" lon="-1.60554">
        <ele>56</ele>
        <time>2020-12-24T12:11:23.000Z</time>
      </trkpt>
      <trkpt lat="47.18049" lon="-1.6056">
        <ele>56</ele>
        <time>2020-12-24T12:11:25.000Z</time>
      </trkpt>
      <trkpt lat="47.18061" lon="-1.60566">
        <ele>56</ele>
        <time>2020-12-24T12:11:27.000Z</time>
      </trkpt>
      <trkpt lat="47.18072" lon="-1.60572">
        <ele>55</ele>
        <time>2020-12-24T12:11:29.000Z</time>
      </trkpt>
      <trkpt lat="47.18083" lon="-1.60578">
        <ele>55</ele>
        <time>2020-12-24T12:11:31.000Z</time>
      </trkpt>
      <trkpt lat="47.18094" lon="-1.60584">
        <ele>55</ele>
        <time>2020-12-24T12:11:33.000Z</time>
      </trkpt>
      <trkpt lat="47.18106" lon="-1.60589">
        <ele>55</ele>
        <time>2020-12-24T12:11:35.000Z</time>
      </trkpt>
      <trkpt lat="47.18118" lon="-1.60594">
        <ele>55</ele>
        <time>2020-12-24T12:11:37.000Z</time>
      </trkpt>
      <trkpt lat="47.18128" lon="-1.60598">
        <ele>55</ele>
        <time>2020-12-24T12:11:39.000Z</time>
      </trkpt>
      <trkpt lat="47.18138" lon="-1.606">
        <ele>55</ele>
        <time>2020-12-24T12:11:41.000Z</time>
      </trkpt>
      <trkpt lat="47.18148" lon="-1.606">
        <ele>55</ele>
        <time>2020-12-24T12:11:43.000Z</time>
      </trkpt>
      <trkpt lat="47.18159" lon="-1.60601">
        <ele>55</ele>
        <time>2020-12-24T12:11:45.000Z</time>
      </trkpt>
      <trkpt lat="47.1817" lon="-1.606">
        <ele>55</ele>
        <time>2020-12-24T12:11:47.000Z</time>
      </trkpt>
      <trkpt lat="47.1818" lon="-1.60599">
        <ele>55</ele>
        <time>2020-12-24T12:11:49.000Z</time>
      </trkpt>
      <trkpt lat="47.18189" lon="-1.60588">
        <ele>56</ele>
        <time>2020-12-24T12:11:52.000Z</time>
      </trkpt>
      <trkpt lat="47.18193" lon="-1.60575">
        <ele>56</ele>
        <time>2020-12-24T12:11:54.000Z</time>
      </trkpt>
      <trkpt lat="47.18202" lon="-1.60569">
        <ele>56</ele>
        <time>2020-12-24T12:11:56.000Z</time>
      </trkpt>
      <trkpt lat="47.18213" lon="-1.60565">
        <ele>56</ele>
        <time>2020-12-24T12:11:58.000Z</time>
      </trkpt>
      <trkpt lat="47.18223" lon="-1.60561">
        <ele>57</ele>
        <time>2020-12-24T12:12:00.000Z</time>
      </trkpt>
      <trkpt lat="47.18233" lon="-1.60554">
        <ele>58</ele>
        <time>2020-12-24T12:12:02.000Z</time>
      </trkpt>
      <trkpt lat="47.18244" lon="-1.60547">
        <ele>58</ele>
        <time>2020-12-24T12:12:04.000Z</time>
      </trkpt>
      <trkpt lat="47.18254" lon="-1.60539">
        <ele>59</ele>
        <time>2020-12-24T12:12:06.000Z</time>
      </trkpt>
      <trkpt lat="47.18264" lon="-1.6053">
        <ele>59</ele>
        <time>2020-12-24T12:12:08.000Z</time>
      </trkpt>
      <trkpt lat="47.18274" lon="-1.6052">
        <ele>59</ele>
        <time>2020-12-24T12:12:10.000Z</time>
      </trkpt>
      <trkpt lat="47.18284" lon="-1.6051">
        <ele>58</ele>
        <time>2020-12-24T12:12:12.000Z</time>
      </trkpt>
      <trkpt lat="47.18294" lon="-1.60499">
        <ele>59</ele>
        <time>2020-12-24T12:12:14.000Z</time>
      </trkpt>
      <trkpt lat="47.18303" lon="-1.60489">
        <ele>59</ele>
        <time>2020-12-24T12:12:16.000Z</time>
      </trkpt>
      <trkpt lat="47.18312" lon="-1.60478">
        <ele>58</ele>
        <time>2020-12-24T12:12:18.000Z</time>
      </trkpt>
      <trkpt lat="47.18321" lon="-1.60468">
        <ele>58</ele>
        <time>2020-12-24T12:12:20.000Z</time>
      </trkpt>
      <trkpt lat="47.18331" lon="-1.60457">
        <ele>59</ele>
        <time>2020-12-24T12:12:22.000Z</time>
      </trkpt>
      <trkpt lat="47.1834" lon="-1.60446">
        <ele>58</ele>
        <time>2020-12-24T12:12:24.000Z</time>
      </trkpt>
      <trkpt lat="47.1835" lon="-1.60435">
        <ele>58</ele>
        <time>2020-12-24T12:12:26.000Z</time>
      </trkpt>
      <trkpt lat="47.1836" lon="-1.60423">
        <ele>58</ele>
        <time>2020-12-24T12:12:28.000Z</time>
      </trkpt>
      <trkpt lat="47.18369" lon="-1.60411">
        <ele>58</ele>
        <time>2020-12-24T12:12:30.000Z</time>
      </trkpt>
      <trkpt lat="47.18377" lon="-1.604">
        <ele>58</ele>
        <time>2020-12-24T12:12:32.000Z</time>
      </trkpt>
      <trkpt lat="47.18386" lon="-1.60389">
        <ele>58</ele>
        <time>2020-12-24T12:12:34.000Z</time>
      </trkpt>
      <trkpt lat="47.18394" lon="-1.60377">
        <ele>58</ele>
        <time>2020-12-24T12:12:36.000Z</time>
      </trkpt>
      <trkpt lat="47.18403" lon="-1.60366">
        <ele>57</ele>
        <time>2020-12-24T12:12:38.000Z</time>
      </trkpt>
      <trkpt lat="47.18412" lon="-1.60353">
        <ele>57</ele>
        <time>2020-12-24T12:12:40.000Z</time>
      </trkpt>
      <trkpt lat="47.1842" lon="-1.60341">
        <ele>57</ele>
        <time>2020-12-24T12:12:42.000Z</time>
      </trkpt>
      <trkpt lat="47.18429" lon="-1.60329">
        <ele>57</ele>
        <time>2020-12-24T12:12:44.000Z</time>
      </trkpt>
      <trkpt lat="47.18437" lon="-1.60316">
        <ele>56</ele>
        <time>2020-12-24T12:12:46.000Z</time>
      </trkpt>
      <trkpt lat="47.18445" lon="-1.60303">
        <ele>57</ele>
        <time>2020-12-24T12:12:48.000Z</time>
      </trkpt>
      <trkpt lat="47.18452" lon="-1.6029">
        <ele>57</ele>
        <time>2020-12-24T12:12:50.000Z</time>
      </trkpt>
      <trkpt lat="47.1846" lon="-1.60276">
        <ele>57</ele>
        <time>2020-12-24T12:12:52.000Z</time>
      </trkpt>
      <trkpt lat="47.18468" lon="-1.60263">
        <ele>56</ele>
        <time>2020-12-24T12:12:54.000Z</time>
      </trkpt>
      <trkpt lat="47.18475" lon="-1.6025">
        <ele>56</ele>
        <time>2020-12-24T12:12:56.000Z</time>
      </trkpt>
      <trkpt lat="47.18482" lon="-1.60236">
        <ele>56</ele>
        <time>2020-12-24T12:12:58.000Z</time>
      </trkpt>
      <trkpt lat="47.1849" lon="-1.60222">
        <ele>56</ele>
        <time>2020-12-24T12:13:00.000Z</time>
      </trkpt>
      <trkpt lat="47.18497" lon="-1.60208">
        <ele>57</ele>
        <time>2020-12-24T12:13:02.000Z</time>
      </trkpt>
      <trkpt lat="47.18504" lon="-1.60194">
        <ele>56</ele>
        <time>2020-12-24T12:13:04.000Z</time>
      </trkpt>
      <trkpt lat="47.18511" lon="-1.6018">
        <ele>56</ele>
        <time>2020-12-24T12:13:06.000Z</time>
      </trkpt>
      <trkpt lat="47.18518" lon="-1.60166">
        <ele>56</ele>
        <time>2020-12-24T12:13:08.000Z</time>
      </trkpt>
      <trkpt lat="47.18525" lon="-1.60151">
        <ele>56</ele>
        <time>2020-12-24T12:13:10.000Z</time>
      </trkpt>
      <trkpt lat="47.18532" lon="-1.60137">
        <ele>56</ele>
        <time>2020-12-24T12:13:12.000Z</time>
      </trkpt>
      <trkpt lat="47.18538" lon="-1.60122">
        <ele>56</ele>
        <time>2020-12-24T12:13:14.000Z</time>
      </trkpt>
      <trkpt lat="47.18545" lon="-1.60108">
        <ele>56</ele>
        <time>2020-12-24T12:13:16.000Z</time>
      </trkpt>
      <trkpt lat="47.18551" lon="-1.60093">
        <ele>56</ele>
        <time>2020-12-24T12:13:18.000Z</time>
      </trkpt>
      <trkpt lat="47.18557" lon="-1.60078">
        <ele>56</ele>
        <time>2020-12-24T12:13:20.000Z</time>
      </trkpt>
      <trkpt lat="47.18563" lon="-1.60063">
        <ele>56</ele>
        <time>2020-12-24T12:13:22.000Z</time>
      </trkpt>
      <trkpt lat="47.18569" lon="-1.60048">
        <ele>56</ele>
        <time>2020-12-24T12:13:24.000Z</time>
      </trkpt>
      <trkpt lat="47.18574" lon="-1.60033">
        <ele>56</ele>
        <time>2020-12-24T12:13:26.000Z</time>
      </trkpt>
      <trkpt lat="47.18579" lon="-1.60018">
        <ele>57</ele>
        <time>2020-12-24T12:13:28.000Z</time>
      </trkpt>
      <trkpt lat="47.18584" lon="-1.60003">
        <ele>57</ele>
        <time>2020-12-24T12:13:30.000Z</time>
      </trkpt>
      <trkpt lat="47.1859" lon="-1.59986">
        <ele>57</ele>
        <time>2020-12-24T12:13:32.000Z</time>
      </trkpt>
      <trkpt lat="47.18594" lon="-1.59971">
        <ele>57</ele>
        <time>2020-12-24T12:13:34.000Z</time>
      </trkpt>
      <trkpt lat="47.18599" lon="-1.59955">
        <ele>56</ele>
        <time>2020-12-24T12:13:36.000Z</time>
      </trkpt>
      <trkpt lat="47.18604" lon="-1.59939">
        <ele>56</ele>
        <time>2020-12-24T12:13:38.000Z</time>
      </trkpt>
      <trkpt lat="47.18608" lon="-1.59923">
        <ele>56</ele>
        <time>2020-12-24T12:13:40.000Z</time>
      </trkpt>
      <trkpt lat="47.18613" lon="-1.59907">
        <ele>56</ele>
        <time>2020-12-24T12:13:42.000Z</time>
      </trkpt>
      <trkpt lat="47.18617" lon="-1.59891">
        <ele>56</ele>
        <time>2020-12-24T12:13:44.000Z</time>
      </trkpt>
      <trkpt lat="47.18621" lon="-1.59877">
        <ele>56</ele>
        <time>2020-12-24T12:13:46.000Z</time>
      </trkpt>
      <trkpt lat="47.18622" lon="-1.59862">
        <ele>56</ele>
        <time>2020-12-24T12:13:48.000Z</time>
      </trkpt>
      <trkpt lat="47.18619" lon="-1.59848">
        <ele>55</ele>
        <time>2020-12-24T12:13:50.000Z</time>
      </trkpt>
      <trkpt lat="47.18617" lon="-1.59833">
        <ele>55</ele>
        <time>2020-12-24T12:13:52.000Z</time>
      </trkpt>
      <trkpt lat="47.18622" lon="-1.59821">
        <ele>55</ele>
        <time>2020-12-24T12:13:54.000Z</time>
      </trkpt>
      <trkpt lat="47.18629" lon="-1.59805">
        <ele>55</ele>
        <time>2020-12-24T12:13:57.000Z</time>
      </trkpt>
      <trkpt lat="47.18632" lon="-1.59788">
        <ele>54</ele>
        <time>2020-12-24T12:13:59.000Z</time>
      </trkpt>
      <trkpt lat="47.18637" lon="-1.59772">
        <ele>55</ele>
        <time>2020-12-24T12:14:01.000Z</time>
      </trkpt>
      <trkpt lat="47.18645" lon="-1.59759">
        <ele>55</ele>
        <time>2020-12-24T12:14:03.000Z</time>
      </trkpt>
      <trkpt lat="47.18653" lon="-1.59744">
        <ele>55</ele>
        <time>2020-12-24T12:14:05.000Z</time>
      </trkpt>
      <trkpt lat="47.18656" lon="-1.59726">
        <ele>55</ele>
        <time>2020-12-24T12:14:07.000Z</time>
      </trkpt>
      <trkpt lat="47.18659" lon="-1.59708">
        <ele>55</ele>
        <time>2020-12-24T12:14:09.000Z</time>
      </trkpt>
      <trkpt lat="47.18663" lon="-1.59691">
        <ele>55</ele>
        <time>2020-12-24T12:14:11.000Z</time>
      </trkpt>
      <trkpt lat="47.18666" lon="-1.59673">
        <ele>55</ele>
        <time>2020-12-24T12:14:13.000Z</time>
      </trkpt>
      <trkpt lat="47.18671" lon="-1.59656">
        <ele>55</ele>
        <time>2020-12-24T12:14:15.000Z</time>
      </trkpt>
      <trkpt lat="47.18675" lon="-1.59638">
        <ele>56</ele>
        <time>2020-12-24T12:14:17.000Z</time>
      </trkpt>
      <trkpt lat="47.18677" lon="-1.59621">
        <ele>56</ele>
        <time>2020-12-24T12:14:19.000Z</time>
      </trkpt>
      <trkpt lat="47.18679" lon="-1.59602">
        <ele>56</ele>
        <time>2020-12-24T12:14:21.000Z</time>
      </trkpt>
      <trkpt lat="47.18681" lon="-1.59584">
        <ele>57</ele>
        <time>2020-12-24T12:14:23.000Z</time>
      </trkpt>
      <trkpt lat="47.18683" lon="-1.59567">
        <ele>57</ele>
        <time>2020-12-24T12:14:25.000Z</time>
      </trkpt>
      <trkpt lat="47.18685" lon="-1.59549">
        <ele>57</ele>
        <time>2020-12-24T12:14:27.000Z</time>
      </trkpt>
      <trkpt lat="47.18687" lon="-1.59532">
        <ele>57</ele>
        <time>2020-12-24T12:14:29.000Z</time>
      </trkpt>
      <trkpt lat="47.18689" lon="-1.59514">
        <ele>57</ele>
        <time>2020-12-24T12:14:31.000Z</time>
      </trkpt>
      <trkpt lat="47.1869" lon="-1.59496">
        <ele>57</ele>
        <time>2020-12-24T12:14:33.000Z</time>
      </trkpt>
      <trkpt lat="47.18693" lon="-1.59478">
        <ele>57</ele>
        <time>2020-12-24T12:14:35.000Z</time>
      </trkpt>
      <trkpt lat="47.18695" lon="-1.59461">
        <ele>57</ele>
        <time>2020-12-24T12:14:37.000Z</time>
      </trkpt>
      <trkpt lat="47.18697" lon="-1.59444">
        <ele>57</ele>
        <time>2020-12-24T12:14:39.000Z</time>
      </trkpt>
      <trkpt lat="47.18699" lon="-1.59427">
        <ele>56</ele>
        <time>2020-12-24T12:14:41.000Z</time>
      </trkpt>
      <trkpt lat="47.18701" lon="-1.59409">
        <ele>56</ele>
        <time>2020-12-24T12:14:43.000Z</time>
      </trkpt>
      <trkpt lat="47.18703" lon="-1.59391">
        <ele>56</ele>
        <time>2020-12-24T12:14:45.000Z</time>
      </trkpt>
      <trkpt lat="47.18705" lon="-1.59374">
        <ele>57</ele>
        <time>2020-12-24T12:14:47.000Z</time>
      </trkpt>
      <trkpt lat="47.18706" lon="-1.59356">
        <ele>57</ele>
        <time>2020-12-24T12:14:49.000Z</time>
      </trkpt>
      <trkpt lat="47.18708" lon="-1.59339">
        <ele>57</ele>
        <time>2020-12-24T12:14:51.000Z</time>
      </trkpt>
      <trkpt lat="47.1871" lon="-1.59322">
        <ele>56</ele>
        <time>2020-12-24T12:14:53.000Z</time>
      </trkpt>
      <trkpt lat="47.18712" lon="-1.59304">
        <ele>56</ele>
        <time>2020-12-24T12:14:55.000Z</time>
      </trkpt>
      <trkpt lat="47.18714" lon="-1.59287">
        <ele>56</ele>
        <time>2020-12-24T12:14:57.000Z</time>
      </trkpt>
      <trkpt lat="47.18716" lon="-1.59269">
        <ele>56</ele>
        <time>2020-12-24T12:14:59.000Z</time>
      </trkpt>
      <trkpt lat="47.18718" lon="-1.59251">
        <ele>56</ele>
        <time>2020-12-24T12:15:01.000Z</time>
      </trkpt>
      <trkpt lat="47.1872" lon="-1.59233">
        <ele>56</ele>
        <time>2020-12-24T12:15:03.000Z</time>
      </trkpt>
      <trkpt lat="47.18722" lon="-1.59215">
        <ele>56</ele>
        <time>2020-12-24T12:15:05.000Z</time>
      </trkpt>
      <trkpt lat="47.18723" lon="-1.59197">
        <ele>56</ele>
        <time>2020-12-24T12:15:07.000Z</time>
      </trkpt>
      <trkpt lat="47.18726" lon="-1.5918">
        <ele>56</ele>
        <time>2020-12-24T12:15:09.000Z</time>
      </trkpt>
      <trkpt lat="47.18728" lon="-1.59162">
        <ele>55</ele>
        <time>2020-12-24T12:15:11.000Z</time>
      </trkpt>
      <trkpt lat="47.1873" lon="-1.59144">
        <ele>55</ele>
        <time>2020-12-24T12:15:13.000Z</time>
      </trkpt>
      <trkpt lat="47.18732" lon="-1.59126">
        <ele>55</ele>
        <time>2020-12-24T12:15:15.000Z</time>
      </trkpt>
      <trkpt lat="47.18734" lon="-1.59108">
        <ele>55</ele>
        <time>2020-12-24T12:15:17.000Z</time>
      </trkpt>
      <trkpt lat="47.18736" lon="-1.5909">
        <ele>55</ele>
        <time>2020-12-24T12:15:19.000Z</time>
      </trkpt>
      <trkpt lat="47.18738" lon="-1.59071">
        <ele>55</ele>
        <time>2020-12-24T12:15:21.000Z</time>
      </trkpt>
      <trkpt lat="47.1874" lon="-1.59054">
        <ele>56</ele>
        <time>2020-12-24T12:15:23.000Z</time>
      </trkpt>
      <trkpt lat="47.18742" lon="-1.59036">
        <ele>56</ele>
        <time>2020-12-24T12:15:25.000Z</time>
      </trkpt>
      <trkpt lat="47.18744" lon="-1.59017">
        <ele>55</ele>
        <time>2020-12-24T12:15:27.000Z</time>
      </trkpt>
      <trkpt lat="47.18746" lon="-1.59">
        <ele>55</ele>
        <time>2020-12-24T12:15:29.000Z</time>
      </trkpt>
      <trkpt lat="47.18747" lon="-1.58983">
        <ele>56</ele>
        <time>2020-12-24T12:15:31.000Z</time>
      </trkpt>
      <trkpt lat="47.18749" lon="-1.58966">
        <ele>56</ele>
        <time>2020-12-24T12:15:33.000Z</time>
      </trkpt>
      <trkpt lat="47.18751" lon="-1.58948">
        <ele>57</ele>
        <time>2020-12-24T12:15:35.000Z</time>
      </trkpt>
      <trkpt lat="47.18753" lon="-1.5893">
        <ele>57</ele>
        <time>2020-12-24T12:15:37.000Z</time>
      </trkpt>
      <trkpt lat="47.18755" lon="-1.58912">
        <ele>57</ele>
        <time>2020-12-24T12:15:39.000Z</time>
      </trkpt>
      <trkpt lat="47.18757" lon="-1.58894">
        <ele>57</ele>
        <time>2020-12-24T12:15:41.000Z</time>
      </trkpt>
      <trkpt lat="47.1876" lon="-1.58877">
        <ele>57</ele>
        <time>2020-12-24T12:15:43.000Z</time>
      </trkpt>
      <trkpt lat="47.18761" lon="-1.58859">
        <ele>58</ele>
        <time>2020-12-24T12:15:45.000Z</time>
      </trkpt>
      <trkpt lat="47.18764" lon="-1.58841">
        <ele>58</ele>
        <time>2020-12-24T12:15:47.000Z</time>
      </trkpt>
      <trkpt lat="47.18765" lon="-1.58824">
        <ele>57</ele>
        <time>2020-12-24T12:15:49.000Z</time>
      </trkpt>
      <trkpt lat="47.18766" lon="-1.58807">
        <ele>57</ele>
        <time>2020-12-24T12:15:51.000Z</time>
      </trkpt>
      <trkpt lat="47.18765" lon="-1.58789">
        <ele>57</ele>
        <time>2020-12-24T12:15:53.000Z</time>
      </trkpt>
      <trkpt lat="47.1876" lon="-1.58772">
        <ele>57</ele>
        <time>2020-12-24T12:15:55.000Z</time>
      </trkpt>
      <trkpt lat="47.18757" lon="-1.58755">
        <ele>58</ele>
        <time>2020-12-24T12:15:57.000Z</time>
      </trkpt>
      <trkpt lat="47.18759" lon="-1.58735">
        <ele>57</ele>
        <time>2020-12-24T12:15:59.000Z</time>
      </trkpt>
      <trkpt lat="47.18766" lon="-1.58719">
        <ele>57</ele>
        <time>2020-12-24T12:16:01.000Z</time>
      </trkpt>
      <trkpt lat="47.18775" lon="-1.58706">
        <ele>58</ele>
        <time>2020-12-24T12:16:03.000Z</time>
      </trkpt>
      <trkpt lat="47.18784" lon="-1.58691">
        <ele>58</ele>
        <time>2020-12-24T12:16:05.000Z</time>
      </trkpt>
      <trkpt lat="47.18788" lon="-1.58673">
        <ele>58</ele>
        <time>2020-12-24T12:16:07.000Z</time>
      </trkpt>
      <trkpt lat="47.18792" lon="-1.58654">
        <ele>57</ele>
        <time>2020-12-24T12:16:09.000Z</time>
      </trkpt>
      <trkpt lat="47.18797" lon="-1.58636">
        <ele>57</ele>
        <time>2020-12-24T12:16:11.000Z</time>
      </trkpt>
      <trkpt lat="47.18802" lon="-1.58618">
        <ele>57</ele>
        <time>2020-12-24T12:16:13.000Z</time>
      </trkpt>
      <trkpt lat="47.18807" lon="-1.586">
        <ele>57</ele>
        <time>2020-12-24T12:16:15.000Z</time>
      </trkpt>
      <trkpt lat="47.18812" lon="-1.58583">
        <ele>57</ele>
        <time>2020-12-24T12:16:17.000Z</time>
      </trkpt>
      <trkpt lat="47.18817" lon="-1.58566">
        <ele>57</ele>
        <time>2020-12-24T12:16:19.000Z</time>
      </trkpt>
      <trkpt lat="47.18821" lon="-1.58548">
        <ele>58</ele>
        <time>2020-12-24T12:16:21.000Z</time>
      </trkpt>
      <trkpt lat="47.18825" lon="-1.58531">
        <ele>58</ele>
        <time>2020-12-24T12:16:23.000Z</time>
      </trkpt>
      <trkpt lat="47.1883" lon="-1.58514">
        <ele>57</ele>
        <time>2020-12-24T12:16:25.000Z</time>
      </trkpt>
      <trkpt lat="47.18835" lon="-1.58499">
        <ele>58</ele>
        <time>2020-12-24T12:16:27.000Z</time>
      </trkpt>
      <trkpt lat="47.18839" lon="-1.58483">
        <ele>58</ele>
        <time>2020-12-24T12:16:29.000Z</time>
      </trkpt>
      <trkpt lat="47.18844" lon="-1.58466">
        <ele>58</ele>
        <time>2020-12-24T12:16:31.000Z</time>
      </trkpt>
      <trkpt lat="47.18849" lon="-1.5845">
        <ele>58</ele>
        <time>2020-12-24T12:16:33.000Z</time>
      </trkpt>
      <trkpt lat="47.18854" lon="-1.58434">
        <ele>58</ele>
        <time>2020-12-24T12:16:35.000Z</time>
      </trkpt>
      <trkpt lat="47.18859" lon="-1.58418">
        <ele>58</ele>
        <time>2020-12-24T12:16:37.000Z</time>
      </trkpt>
      <trkpt lat="47.18864" lon="-1.58402">
        <ele>58</ele>
        <time>2020-12-24T12:16:39.000Z</time>
      </trkpt>
      <trkpt lat="47.18869" lon="-1.58384">
        <ele>58</ele>
        <time>2020-12-24T12:16:41.000Z</time>
      </trkpt>
      <trkpt lat="47.18875" lon="-1.58368">
        <ele>58</ele>
        <time>2020-12-24T12:16:43.000Z</time>
      </trkpt>
      <trkpt lat="47.1888" lon="-1.58351">
        <ele>58</ele>
        <time>2020-12-24T12:16:45.000Z</time>
      </trkpt>
      <trkpt lat="47.18885" lon="-1.58335">
        <ele>58</ele>
        <time>2020-12-24T12:16:47.000Z</time>
      </trkpt>
      <trkpt lat="47.18891" lon="-1.5832">
        <ele>58</ele>
        <time>2020-12-24T12:16:49.000Z</time>
      </trkpt>
      <trkpt lat="47.18896" lon="-1.58304">
        <ele>57</ele>
        <time>2020-12-24T12:16:51.000Z</time>
      </trkpt>
      <trkpt lat="47.18901" lon="-1.58289">
        <ele>57</ele>
        <time>2020-12-24T12:16:53.000Z</time>
      </trkpt>
      <trkpt lat="47.18907" lon="-1.58272">
        <ele>57</ele>
        <time>2020-12-24T12:16:55.000Z</time>
      </trkpt>
      <trkpt lat="47.18913" lon="-1.58256">
        <ele>57</ele>
        <time>2020-12-24T12:16:57.000Z</time>
      </trkpt>
      <trkpt lat="47.18919" lon="-1.5824">
        <ele>58</ele>
        <time>2020-12-24T12:16:59.000Z</time>
      </trkpt>
      <trkpt lat="47.18925" lon="-1.58225">
        <ele>58</ele>
        <time>2020-12-24T12:17:01.000Z</time>
      </trkpt>
      <trkpt lat="47.1893" lon="-1.58209">
        <ele>58</ele>
        <time>2020-12-24T12:17:03.000Z</time>
      </trkpt>
      <trkpt lat="47.18936" lon="-1.58192">
        <ele>58</ele>
        <time>2020-12-24T12:17:05.000Z</time>
      </trkpt>
      <trkpt lat="47.18942" lon="-1.58176">
        <ele>58</ele>
        <time>2020-12-24T12:17:07.000Z</time>
      </trkpt>
      <trkpt lat="47.18948" lon="-1.5816">
        <ele>58</ele>
        <time>2020-12-24T12:17:09.000Z</time>
      </trkpt>
      <trkpt lat="47.18954" lon="-1.58144">
        <ele>58</ele>
        <time>2020-12-24T12:17:11.000Z</time>
      </trkpt>
      <trkpt lat="47.18959" lon="-1.58128">
        <ele>58</ele>
        <time>2020-12-24T12:17:13.000Z</time>
      </trkpt>
      <trkpt lat="47.18964" lon="-1.58113">
        <ele>59</ele>
        <time>2020-12-24T12:17:15.000Z</time>
      </trkpt>
      <trkpt lat="47.1897" lon="-1.58097">
        <ele>58</ele>
        <time>2020-12-24T12:17:17.000Z</time>
      </trkpt>
      <trkpt lat="47.18975" lon="-1.58083">
        <ele>58</ele>
        <time>2020-12-24T12:17:19.000Z</time>
      </trkpt>
      <trkpt lat="47.18981" lon="-1.58067">
        <ele>58</ele>
        <time>2020-12-24T12:17:21.000Z</time>
      </trkpt>
      <trkpt lat="47.18986" lon="-1.5805">
        <ele>58</ele>
        <time>2020-12-24T12:17:23.000Z</time>
      </trkpt>
      <trkpt lat="47.18992" lon="-1.58034">
        <ele>58</ele>
        <time>2020-12-24T12:17:25.000Z</time>
      </trkpt>
      <trkpt lat="47.18998" lon="-1.58019">
        <ele>59</ele>
        <time>2020-12-24T12:17:27.000Z</time>
      </trkpt>
      <trkpt lat="47.19003" lon="-1.58003">
        <ele>59</ele>
        <time>2020-12-24T12:17:29.000Z</time>
      </trkpt>
      <trkpt lat="47.19009" lon="-1.57988">
        <ele>59</ele>
        <time>2020-12-24T12:17:31.000Z</time>
      </trkpt>
      <trkpt lat="47.19015" lon="-1.57971">
        <ele>59</ele>
        <time>2020-12-24T12:17:33.000Z</time>
      </trkpt>
      <trkpt lat="47.1902" lon="-1.57955">
        <ele>59</ele>
        <time>2020-12-24T12:17:35.000Z</time>
      </trkpt>
      <trkpt lat="47.19026" lon="-1.5794">
        <ele>59</ele>
        <time>2020-12-24T12:17:37.000Z</time>
      </trkpt>
      <trkpt lat="47.19032" lon="-1.57924">
        <ele>60</ele>
        <time>2020-12-24T12:17:39.000Z</time>
      </trkpt>
      <trkpt lat="47.19038" lon="-1.57909">
        <ele>60</ele>
        <time>2020-12-24T12:17:41.000Z</time>
      </trkpt>
      <trkpt lat="47.19044" lon="-1.57892">
        <ele>60</ele>
        <time>2020-12-24T12:17:43.000Z</time>
      </trkpt>
      <trkpt lat="47.1905" lon="-1.57876">
        <ele>60</ele>
        <time>2020-12-24T12:17:45.000Z</time>
      </trkpt>
      <trkpt lat="47.19056" lon="-1.57859">
        <ele>60</ele>
        <time>2020-12-24T12:17:47.000Z</time>
      </trkpt>
      <trkpt lat="47.19061" lon="-1.57844">
        <ele>60</ele>
        <time>2020-12-24T12:17:49.000Z</time>
      </trkpt>
      <trkpt lat="47.19067" lon="-1.57827">
        <ele>59</ele>
        <time>2020-12-24T12:17:51.000Z</time>
      </trkpt>
      <trkpt lat="47.19073" lon="-1.5781">
        <ele>59</ele>
        <time>2020-12-24T12:17:53.000Z</time>
      </trkpt>
      <trkpt lat="47.19078" lon="-1.57793">
        <ele>58</ele>
        <time>2020-12-24T12:17:55.000Z</time>
      </trkpt>
      <trkpt lat="47.19084" lon="-1.57776">
        <ele>58</ele>
        <time>2020-12-24T12:17:57.000Z</time>
      </trkpt>
      <trkpt lat="47.1909" lon="-1.5776">
        <ele>57</ele>
        <time>2020-12-24T12:17:59.000Z</time>
      </trkpt>
      <trkpt lat="47.19096" lon="-1.57743">
        <ele>58</ele>
        <time>2020-12-24T12:18:01.000Z</time>
      </trkpt>
      <trkpt lat="47.19101" lon="-1.57727">
        <ele>58</ele>
        <time>2020-12-24T12:18:03.000Z</time>
      </trkpt>
      <trkpt lat="47.19107" lon="-1.57711">
        <ele>58</ele>
        <time>2020-12-24T12:18:05.000Z</time>
      </trkpt>
      <trkpt lat="47.19113" lon="-1.57694">
        <ele>57</ele>
        <time>2020-12-24T12:18:07.000Z</time>
      </trkpt>
      <trkpt lat="47.19119" lon="-1.57679">
        <ele>58</ele>
        <time>2020-12-24T12:18:09.000Z</time>
      </trkpt>
      <trkpt lat="47.19124" lon="-1.57663">
        <ele>57</ele>
        <time>2020-12-24T12:18:11.000Z</time>
      </trkpt>
      <trkpt lat="47.1913" lon="-1.57647">
        <ele>57</ele>
        <time>2020-12-24T12:18:13.000Z</time>
      </trkpt>
      <trkpt lat="47.19136" lon="-1.57631">
        <ele>57</ele>
        <time>2020-12-24T12:18:15.000Z</time>
      </trkpt>
      <trkpt lat="47.19141" lon="-1.57615">
        <ele>57</ele>
        <time>2020-12-24T12:18:17.000Z</time>
      </trkpt>
      <trkpt lat="47.19147" lon="-1.57599">
        <ele>57</ele>
        <time>2020-12-24T12:18:19.000Z</time>
      </trkpt>
      <trkpt lat="47.19153" lon="-1.57583">
        <ele>57</ele>
        <time>2020-12-24T12:18:21.000Z</time>
      </trkpt>
      <trkpt lat="47.19158" lon="-1.57568">
        <ele>57</ele>
        <time>2020-12-24T12:18:23.000Z</time>
      </trkpt>
      <trkpt lat="47.19163" lon="-1.57552">
        <ele>58</ele>
        <time>2020-12-24T12:18:25.000Z</time>
      </trkpt>
      <trkpt lat="47.19169" lon="-1.57535">
        <ele>58</ele>
        <time>2020-12-24T12:18:27.000Z</time>
      </trkpt>
      <trkpt lat="47.19175" lon="-1.57519">
        <ele>57</ele>
        <time>2020-12-24T12:18:29.000Z</time>
      </trkpt>
      <trkpt lat="47.1918" lon="-1.57503">
        <ele>57</ele>
        <time>2020-12-24T12:18:31.000Z</time>
      </trkpt>
      <trkpt lat="47.19185" lon="-1.57487">
        <ele>57</ele>
        <time>2020-12-24T12:18:33.000Z</time>
      </trkpt>
      <trkpt lat="47.1919" lon="-1.57471">
        <ele>56</ele>
        <time>2020-12-24T12:18:35.000Z</time>
      </trkpt>
      <trkpt lat="47.19194" lon="-1.57455">
        <ele>57</ele>
        <time>2020-12-24T12:18:37.000Z</time>
      </trkpt>
      <trkpt lat="47.19199" lon="-1.57439">
        <ele>56</ele>
        <time>2020-12-24T12:18:39.000Z</time>
      </trkpt>
      <trkpt lat="47.19204" lon="-1.57422">
        <ele>56</ele>
        <time>2020-12-24T12:18:41.000Z</time>
      </trkpt>
      <trkpt lat="47.19209" lon="-1.57405">
        <ele>56</ele>
        <time>2020-12-24T12:18:43.000Z</time>
      </trkpt>
      <trkpt lat="47.19214" lon="-1.57389">
        <ele>56</ele>
        <time>2020-12-24T12:18:45.000Z</time>
      </trkpt>
      <trkpt lat="47.19218" lon="-1.57371">
        <ele>55</ele>
        <time>2020-12-24T12:18:47.000Z</time>
      </trkpt>
      <trkpt lat="47.19222" lon="-1.57353">
        <ele>55</ele>
        <time>2020-12-24T12:18:49.000Z</time>
      </trkpt>
      <trkpt lat="47.19226" lon="-1.57337">
        <ele>56</ele>
        <time>2020-12-24T12:18:51.000Z</time>
      </trkpt>
      <trkpt lat="47.1923" lon="-1.5732">
        <ele>56</ele>
        <time>2020-12-24T12:18:53.000Z</time>
      </trkpt>
      <trkpt lat="47.19233" lon="-1.57303">
        <ele>57</ele>
        <time>2020-12-24T12:18:55.000Z</time>
      </trkpt>
      <trkpt lat="47.19236" lon="-1.57285">
        <ele>57</ele>
        <time>2020-12-24T12:18:57.000Z</time>
      </trkpt>
      <trkpt lat="47.19239" lon="-1.57268">
        <ele>57</ele>
        <time>2020-12-24T12:18:59.000Z</time>
      </trkpt>
      <trkpt lat="47.19241" lon="-1.57251">
        <ele>57</ele>
        <time>2020-12-24T12:19:01.000Z</time>
      </trkpt>
      <trkpt lat="47.19243" lon="-1.57233">
        <ele>56</ele>
        <time>2020-12-24T12:19:03.000Z</time>
      </trkpt>
      <trkpt lat="47.19246" lon="-1.57215">
        <ele>56</ele>
        <time>2020-12-24T12:19:05.000Z</time>
      </trkpt>
      <trkpt lat="47.19248" lon="-1.57197">
        <ele>56</ele>
        <time>2020-12-24T12:19:07.000Z</time>
      </trkpt>
      <trkpt lat="47.1925" lon="-1.57179">
        <ele>56</ele>
        <time>2020-12-24T12:19:09.000Z</time>
      </trkpt>
      <trkpt lat="47.19252" lon="-1.5716">
        <ele>56</ele>
        <time>2020-12-24T12:19:11.000Z</time>
      </trkpt>
      <trkpt lat="47.19254" lon="-1.57142">
        <ele>56</ele>
        <time>2020-12-24T12:19:13.000Z</time>
      </trkpt>
      <trkpt lat="47.19257" lon="-1.57124">
        <ele>56</ele>
        <time>2020-12-24T12:19:15.000Z</time>
      </trkpt>
      <trkpt lat="47.19259" lon="-1.57107">
        <ele>56</ele>
        <time>2020-12-24T12:19:17.000Z</time>
      </trkpt>
      <trkpt lat="47.19261" lon="-1.5709">
        <ele>56</ele>
        <time>2020-12-24T12:19:19.000Z</time>
      </trkpt>
      <trkpt lat="47.19262" lon="-1.57076">
        <ele>56</ele>
        <time>2020-12-24T12:19:21.000Z</time>
      </trkpt>
      <trkpt lat="47.19255" lon="-1.5706">
        <ele>56</ele>
        <time>2020-12-24T12:19:25.000Z</time>
      </trkpt>
      <trkpt lat="47.19256" lon="-1.57044">
        <ele>56</ele>
        <time>2020-12-24T12:19:27.000Z</time>
      </trkpt>
      <trkpt lat="47.19266" lon="-1.57034">
        <ele>56</ele>
        <time>2020-12-24T12:19:29.000Z</time>
      </trkpt>
      <trkpt lat="47.19278" lon="-1.57038">
        <ele>56</ele>
        <time>2020-12-24T12:19:31.000Z</time>
      </trkpt>
      <trkpt lat="47.1929" lon="-1.57047">
        <ele>56</ele>
        <time>2020-12-24T12:19:33.000Z</time>
      </trkpt>
      <trkpt lat="47.19303" lon="-1.57048">
        <ele>56</ele>
        <time>2020-12-24T12:19:35.000Z</time>
      </trkpt>
      <trkpt lat="47.19316" lon="-1.57047">
        <ele>56</ele>
        <time>2020-12-24T12:19:37.000Z</time>
      </trkpt>
      <trkpt lat="47.19328" lon="-1.57042">
        <ele>56</ele>
        <time>2020-12-24T12:19:39.000Z</time>
      </trkpt>
      <trkpt lat="47.19341" lon="-1.57047">
        <ele>56</ele>
        <time>2020-12-24T12:19:41.000Z</time>
      </trkpt>
      <trkpt lat="47.19352" lon="-1.57057">
        <ele>56</ele>
        <time>2020-12-24T12:19:43.000Z</time>
      </trkpt>
      <trkpt lat="47.19364" lon="-1.57061">
        <ele>57</ele>
        <time>2020-12-24T12:19:45.000Z</time>
      </trkpt>
      <trkpt lat="47.19378" lon="-1.57064">
        <ele>57</ele>
        <time>2020-12-24T12:19:47.000Z</time>
      </trkpt>
      <trkpt lat="47.1939" lon="-1.57067">
        <ele>57</ele>
        <time>2020-12-24T12:19:49.000Z</time>
      </trkpt>
      <trkpt lat="47.19403" lon="-1.5707">
        <ele>58</ele>
        <time>2020-12-24T12:19:51.000Z</time>
      </trkpt>
      <trkpt lat="47.19415" lon="-1.57071">
        <ele>59</ele>
        <time>2020-12-24T12:19:53.000Z</time>
      </trkpt>
      <trkpt lat="47.19427" lon="-1.57072">
        <ele>60</ele>
        <time>2020-12-24T12:19:55.000Z</time>
      </trkpt>
      <trkpt lat="47.19438" lon="-1.57075">
        <ele>60</ele>
        <time>2020-12-24T12:19:57.000Z</time>
      </trkpt>
      <trkpt lat="47.1945" lon="-1.57071">
        <ele>60</ele>
        <time>2020-12-24T12:19:59.000Z</time>
      </trkpt>
      <trkpt lat="47.19463" lon="-1.57072">
        <ele>59</ele>
        <time>2020-12-24T12:20:01.000Z</time>
      </trkpt>
      <trkpt lat="47.19474" lon="-1.57082">
        <ele>59</ele>
        <time>2020-12-24T12:20:03.000Z</time>
      </trkpt>
      <trkpt lat="47.19486" lon="-1.57094">
        <ele>58</ele>
        <time>2020-12-24T12:20:05.000Z</time>
      </trkpt>
      <trkpt lat="47.195" lon="-1.57099">
        <ele>58</ele>
        <time>2020-12-24T12:20:07.000Z</time>
      </trkpt>
      <trkpt lat="47.19515" lon="-1.57101">
        <ele>57</ele>
        <time>2020-12-24T12:20:09.000Z</time>
      </trkpt>
      <trkpt lat="47.19528" lon="-1.57104">
        <ele>57</ele>
        <time>2020-12-24T12:20:11.000Z</time>
      </trkpt>
      <trkpt lat="47.19541" lon="-1.57106">
        <ele>57</ele>
        <time>2020-12-24T12:20:13.000Z</time>
      </trkpt>
      <trkpt lat="47.19554" lon="-1.57109">
        <ele>57</ele>
        <time>2020-12-24T12:20:15.000Z</time>
      </trkpt>
      <trkpt lat="47.19567" lon="-1.57112">
        <ele>56</ele>
        <time>2020-12-24T12:20:17.000Z</time>
      </trkpt>
      <trkpt lat="47.19579" lon="-1.57115">
        <ele>56</ele>
        <time>2020-12-24T12:20:19.000Z</time>
      </trkpt>
      <trkpt lat="47.1959" lon="-1.57117">
        <ele>56</ele>
        <time>2020-12-24T12:20:21.000Z</time>
      </trkpt>
      <trkpt lat="47.19597" lon="-1.57108">
        <ele>56</ele>
        <time>2020-12-24T12:20:23.000Z</time>
      </trkpt>
      <trkpt lat="47.196" lon="-1.57094">
        <ele>56</ele>
        <time>2020-12-24T12:20:25.000Z</time>
      </trkpt>
      <trkpt lat="47.19601" lon="-1.57075">
        <ele>56</ele>
        <time>2020-12-24T12:20:27.000Z</time>
      </trkpt>
      <trkpt lat="47.19602" lon="-1.57056">
        <ele>56</ele>
        <time>2020-12-24T12:20:29.000Z</time>
      </trkpt>
      <trkpt lat="47.19602" lon="-1.57036">
        <ele>56</ele>
        <time>2020-12-24T12:20:31.000Z</time>
      </trkpt>
      <trkpt lat="47.19602" lon="-1.57016">
        <ele>56</ele>
        <time>2020-12-24T12:20:33.000Z</time>
      </trkpt>
      <trkpt lat="47.19603" lon="-1.56996">
        <ele>56</ele>
        <time>2020-12-24T12:20:35.000Z</time>
      </trkpt>
      <trkpt lat="47.19604" lon="-1.56977">
        <ele>55</ele>
        <time>2020-12-24T12:20:37.000Z</time>
      </trkpt>
      <trkpt lat="47.19606" lon="-1.56958">
        <ele>55</ele>
        <time>2020-12-24T12:20:39.000Z</time>
      </trkpt>
      <trkpt lat="47.19607" lon="-1.5694">
        <ele>55</ele>
        <time>2020-12-24T12:20:41.000Z</time>
      </trkpt>
      <trkpt lat="47.19608" lon="-1.56922">
        <ele>55</ele>
        <time>2020-12-24T12:20:43.000Z</time>
      </trkpt>
      <trkpt lat="47.19609" lon="-1.56903">
        <ele>54</ele>
        <time>2020-12-24T12:20:45.000Z</time>
      </trkpt>
      <trkpt lat="47.1961" lon="-1.56885">
        <ele>54</ele>
        <time>2020-12-24T12:20:47.000Z</time>
      </trkpt>
      <trkpt lat="47.1961" lon="-1.56867">
        <ele>54</ele>
        <time>2020-12-24T12:20:49.000Z</time>
      </trkpt>
      <trkpt lat="47.19611" lon="-1.56848">
        <ele>55</ele>
        <time>2020-12-24T12:20:51.000Z</time>
      </trkpt>
      <trkpt lat="47.19612" lon="-1.5683">
        <ele>54</ele>
        <time>2020-12-24T12:20:53.000Z</time>
      </trkpt>
      <trkpt lat="47.19613" lon="-1.56812">
        <ele>54</ele>
        <time>2020-12-24T12:20:55.000Z</time>
      </trkpt>
      <trkpt lat="47.19614" lon="-1.56793">
        <ele>55</ele>
        <time>2020-12-24T12:20:57.000Z</time>
      </trkpt>
      <trkpt lat="47.19615" lon="-1.56775">
        <ele>55</ele>
        <time>2020-12-24T12:20:59.000Z</time>
      </trkpt>
      <trkpt lat="47.19617" lon="-1.56756">
        <ele>55</ele>
        <time>2020-12-24T12:21:01.000Z</time>
      </trkpt>
      <trkpt lat="47.19617" lon="-1.56737">
        <ele>55</ele>
        <time>2020-12-24T12:21:03.000Z</time>
      </trkpt>
      <trkpt lat="47.19618" lon="-1.56719">
        <ele>54</ele>
        <time>2020-12-24T12:21:05.000Z</time>
      </trkpt>
      <trkpt lat="47.1962" lon="-1.567">
        <ele>55</ele>
        <time>2020-12-24T12:21:07.000Z</time>
      </trkpt>
      <trkpt lat="47.19621" lon="-1.56682">
        <ele>55</ele>
        <time>2020-12-24T12:21:09.000Z</time>
      </trkpt>
      <trkpt lat="47.19623" lon="-1.56664">
        <ele>56</ele>
        <time>2020-12-24T12:21:11.000Z</time>
      </trkpt>
      <trkpt lat="47.19624" lon="-1.56645">
        <ele>56</ele>
        <time>2020-12-24T12:21:13.000Z</time>
      </trkpt>
      <trkpt lat="47.19624" lon="-1.56626">
        <ele>56</ele>
        <time>2020-12-24T12:21:15.000Z</time>
      </trkpt>
      <trkpt lat="47.19626" lon="-1.56608">
        <ele>56</ele>
        <time>2020-12-24T12:21:17.000Z</time>
      </trkpt>
      <trkpt lat="47.19627" lon="-1.5659">
        <ele>57</ele>
        <time>2020-12-24T12:21:19.000Z</time>
      </trkpt>
      <trkpt lat="47.19628" lon="-1.56572">
        <ele>57</ele>
        <time>2020-12-24T12:21:21.000Z</time>
      </trkpt>
      <trkpt lat="47.19629" lon="-1.56555">
        <ele>56</ele>
        <time>2020-12-24T12:21:23.000Z</time>
      </trkpt>
      <trkpt lat="47.1963" lon="-1.56537">
        <ele>57</ele>
        <time>2020-12-24T12:21:25.000Z</time>
      </trkpt>
      <trkpt lat="47.19631" lon="-1.56519">
        <ele>57</ele>
        <time>2020-12-24T12:21:27.000Z</time>
      </trkpt>
      <trkpt lat="47.19631" lon="-1.56501">
        <ele>57</ele>
        <time>2020-12-24T12:21:29.000Z</time>
      </trkpt>
      <trkpt lat="47.1963" lon="-1.56484">
        <ele>57</ele>
        <time>2020-12-24T12:21:31.000Z</time>
      </trkpt>
      <trkpt lat="47.19629" lon="-1.56465">
        <ele>56</ele>
        <time>2020-12-24T12:21:33.000Z</time>
      </trkpt>
      <trkpt lat="47.19629" lon="-1.56447">
        <ele>56</ele>
        <time>2020-12-24T12:21:35.000Z</time>
      </trkpt>
      <trkpt lat="47.19629" lon="-1.56429">
        <ele>56</ele>
        <time>2020-12-24T12:21:37.000Z</time>
      </trkpt>
      <trkpt lat="47.19628" lon="-1.5641">
        <ele>55</ele>
        <time>2020-12-24T12:21:39.000Z</time>
      </trkpt>
      <trkpt lat="47.19628" lon="-1.56393">
        <ele>55</ele>
        <time>2020-12-24T12:21:41.000Z</time>
      </trkpt>
      <trkpt lat="47.19627" lon="-1.56374">
        <ele>54</ele>
        <time>2020-12-24T12:21:43.000Z</time>
      </trkpt>
      <trkpt lat="47.19627" lon="-1.56355">
        <ele>54</ele>
        <time>2020-12-24T12:21:45.000Z</time>
      </trkpt>
      <trkpt lat="47.19628" lon="-1.56337">
        <ele>54</ele>
        <time>2020-12-24T12:21:47.000Z</time>
      </trkpt>
      <trkpt lat="47.19629" lon="-1.5632">
        <ele>54</ele>
        <time>2020-12-24T12:21:49.000Z</time>
      </trkpt>
      <trkpt lat="47.19629" lon="-1.56303">
        <ele>54</ele>
        <time>2020-12-24T12:21:51.000Z</time>
      </trkpt>
      <trkpt lat="47.1963" lon="-1.56286">
        <ele>55</ele>
        <time>2020-12-24T12:21:53.000Z</time>
      </trkpt>
      <trkpt lat="47.19632" lon="-1.5627">
        <ele>55</ele>
        <time>2020-12-24T12:21:55.000Z</time>
      </trkpt>
      <trkpt lat="47.19635" lon="-1.56255">
        <ele>55</ele>
        <time>2020-12-24T12:21:57.000Z</time>
      </trkpt>
      <trkpt lat="47.1964" lon="-1.5624">
        <ele>56</ele>
        <time>2020-12-24T12:21:59.000Z</time>
      </trkpt>
      <trkpt lat="47.19648" lon="-1.56229">
        <ele>56</ele>
        <time>2020-12-24T12:22:01.000Z</time>
      </trkpt>
      <trkpt lat="47.19659" lon="-1.56225">
        <ele>56</ele>
        <time>2020-12-24T12:22:03.000Z</time>
      </trkpt>
      <trkpt lat="47.19668" lon="-1.56221">
        <ele>56</ele>
        <time>2020-12-24T12:22:05.000Z</time>
      </trkpt>
      <trkpt lat="47.1968" lon="-1.56217">
        <ele>57</ele>
        <time>2020-12-24T12:22:08.000Z</time>
      </trkpt>
      <trkpt lat="47.19692" lon="-1.56213">
        <ele>58</ele>
        <time>2020-12-24T12:22:11.000Z</time>
      </trkpt>
      <trkpt lat="47.19701" lon="-1.56212">
        <ele>58</ele>
        <time>2020-12-24T12:22:13.000Z</time>
      </trkpt>
      <trkpt lat="47.19711" lon="-1.5621">
        <ele>59</ele>
        <time>2020-12-24T12:22:15.000Z</time>
      </trkpt>
      <trkpt lat="47.19721" lon="-1.56209">
        <ele>60</ele>
        <time>2020-12-24T12:22:17.000Z</time>
      </trkpt>
      <trkpt lat="47.1973" lon="-1.56207">
        <ele>60</ele>
        <time>2020-12-24T12:22:19.000Z</time>
      </trkpt>
      <trkpt lat="47.1974" lon="-1.56205">
        <ele>61</ele>
        <time>2020-12-24T12:22:21.000Z</time>
      </trkpt>
      <trkpt lat="47.1975" lon="-1.56203">
        <ele>61</ele>
        <time>2020-12-24T12:22:23.000Z</time>
      </trkpt>
      <trkpt lat="47.1976" lon="-1.56201">
        <ele>61</ele>
        <time>2020-12-24T12:22:25.000Z</time>
      </trkpt>
      <trkpt lat="47.19771" lon="-1.56199">
        <ele>62</ele>
        <time>2020-12-24T12:22:27.000Z</time>
      </trkpt>
      <trkpt lat="47.19782" lon="-1.56197">
        <ele>62</ele>
        <time>2020-12-24T12:22:29.000Z</time>
      </trkpt>
      <trkpt lat="47.19793" lon="-1.56195">
        <ele>62</ele>
        <time>2020-12-24T12:22:31.000Z</time>
      </trkpt>
      <trkpt lat="47.19805" lon="-1.56192">
        <ele>62</ele>
        <time>2020-12-24T12:22:33.000Z</time>
      </trkpt>
      <trkpt lat="47.19816" lon="-1.5619">
        <ele>62</ele>
        <time>2020-12-24T12:22:35.000Z</time>
      </trkpt>
      <trkpt lat="47.19827" lon="-1.56188">
        <ele>62</ele>
        <time>2020-12-24T12:22:37.000Z</time>
      </trkpt>
      <trkpt lat="47.19839" lon="-1.56186">
        <ele>62</ele>
        <time>2020-12-24T12:22:39.000Z</time>
      </trkpt>
      <trkpt lat="47.1985" lon="-1.56184">
        <ele>62</ele>
        <time>2020-12-24T12:22:41.000Z</time>
      </trkpt>
      <trkpt lat="47.1986" lon="-1.56182">
        <ele>61</ele>
        <time>2020-12-24T12:22:43.000Z</time>
      </trkpt>
      <trkpt lat="47.19871" lon="-1.5618">
        <ele>61</ele>
        <time>2020-12-24T12:22:45.000Z</time>
      </trkpt>
      <trkpt lat="47.19882" lon="-1.56178">
        <ele>61</ele>
        <time>2020-12-24T12:22:47.000Z</time>
      </trkpt>
      <trkpt lat="47.19893" lon="-1.56177">
        <ele>60</ele>
        <time>2020-12-24T12:22:49.000Z</time>
      </trkpt>
      <trkpt lat="47.19905" lon="-1.56174">
        <ele>60</ele>
        <time>2020-12-24T12:22:51.000Z</time>
      </trkpt>
      <trkpt lat="47.19917" lon="-1.56172">
        <ele>59</ele>
        <time>2020-12-24T12:22:53.000Z</time>
      </trkpt>
      <trkpt lat="47.19934" lon="-1.5617">
        <ele>58</ele>
        <time>2020-12-24T12:22:56.000Z</time>
      </trkpt>
      <trkpt lat="47.19946" lon="-1.56167">
        <ele>58</ele>
        <time>2020-12-24T12:22:58.000Z</time>
      </trkpt>
      <trkpt lat="47.19957" lon="-1.56164">
        <ele>57</ele>
        <time>2020-12-24T12:23:00.000Z</time>
      </trkpt>
      <trkpt lat="47.19969" lon="-1.56163">
        <ele>57</ele>
        <time>2020-12-24T12:23:02.000Z</time>
      </trkpt>
      <trkpt lat="47.19978" lon="-1.56173">
        <ele>57</ele>
        <time>2020-12-24T12:23:04.000Z</time>
      </trkpt>
      <trkpt lat="47.1998" lon="-1.56191">
        <ele>56</ele>
        <time>2020-12-24T12:23:06.000Z</time>
      </trkpt>
      <trkpt lat="47.1998" lon="-1.5621">
        <ele>56</ele>
        <time>2020-12-24T12:23:08.000Z</time>
      </trkpt>
      <trkpt lat="47.19981" lon="-1.5623">
        <ele>56</ele>
        <time>2020-12-24T12:23:10.000Z</time>
      </trkpt>
      <trkpt lat="47.1998" lon="-1.56248">
        <ele>56</ele>
        <time>2020-12-24T12:23:12.000Z</time>
      </trkpt>
      <trkpt lat="47.1998" lon="-1.56267">
        <ele>56</ele>
        <time>2020-12-24T12:23:14.000Z</time>
      </trkpt>
      <trkpt lat="47.1998" lon="-1.56287">
        <ele>56</ele>
        <time>2020-12-24T12:23:16.000Z</time>
      </trkpt>
      <trkpt lat="47.1998" lon="-1.56306">
        <ele>56</ele>
        <time>2020-12-24T12:23:18.000Z</time>
      </trkpt>
      <trkpt lat="47.19978" lon="-1.56324">
        <ele>57</ele>
        <time>2020-12-24T12:23:20.000Z</time>
      </trkpt>
      <trkpt lat="47.19977" lon="-1.56343">
        <ele>57</ele>
        <time>2020-12-24T12:23:22.000Z</time>
      </trkpt>
      <trkpt lat="47.19976" lon="-1.56362">
        <ele>57</ele>
        <time>2020-12-24T12:23:24.000Z</time>
      </trkpt>
      <trkpt lat="47.19975" lon="-1.5638">
        <ele>57</ele>
        <time>2020-12-24T12:23:26.000Z</time>
      </trkpt>
      <trkpt lat="47.19973" lon="-1.56399">
        <ele>57</ele>
        <time>2020-12-24T12:23:28.000Z</time>
      </trkpt>
      <trkpt lat="47.19967" lon="-1.56428">
        <ele>57</ele>
        <time>2020-12-24T12:23:31.000Z</time>
      </trkpt>
      <trkpt lat="47.19962" lon="-1.56446">
        <ele>57</ele>
        <time>2020-12-24T12:23:33.000Z</time>
      </trkpt>
      <trkpt lat="47.19959" lon="-1.56464">
        <ele>57</ele>
        <time>2020-12-24T12:23:35.000Z</time>
      </trkpt>
      <trkpt lat="47.19958" lon="-1.56483">
        <ele>57</ele>
        <time>2020-12-24T12:23:37.000Z</time>
      </trkpt>
      <trkpt lat="47.19957" lon="-1.56503">
        <ele>57</ele>
        <time>2020-12-24T12:23:39.000Z</time>
      </trkpt>
      <trkpt lat="47.19956" lon="-1.56522">
        <ele>56</ele>
        <time>2020-12-24T12:23:41.000Z</time>
      </trkpt>
      <trkpt lat="47.19955" lon="-1.56542">
        <ele>56</ele>
        <time>2020-12-24T12:23:43.000Z</time>
      </trkpt>
      <trkpt lat="47.19955" lon="-1.56561">
        <ele>56</ele>
        <time>2020-12-24T12:23:45.000Z</time>
      </trkpt>
      <trkpt lat="47.19955" lon="-1.56581">
        <ele>56</ele>
        <time>2020-12-24T12:23:47.000Z</time>
      </trkpt>
      <trkpt lat="47.19955" lon="-1.566">
        <ele>56</ele>
        <time>2020-12-24T12:23:49.000Z</time>
      </trkpt>
      <trkpt lat="47.19955" lon="-1.5662">
        <ele>56</ele>
        <time>2020-12-24T12:23:51.000Z</time>
      </trkpt>
      <trkpt lat="47.19956" lon="-1.56639">
        <ele>56</ele>
        <time>2020-12-24T12:23:53.000Z</time>
      </trkpt>
      <trkpt lat="47.19955" lon="-1.56658">
        <ele>56</ele>
        <time>2020-12-24T12:23:55.000Z</time>
      </trkpt>
      <trkpt lat="47.19955" lon="-1.56677">
        <ele>56</ele>
        <time>2020-12-24T12:23:57.000Z</time>
      </trkpt>
      <trkpt lat="47.19955" lon="-1.56696">
        <ele>56</ele>
        <time>2020-12-24T12:23:59.000Z</time>
      </trkpt>
      <trkpt lat="47.19956" lon="-1.56715">
        <ele>56</ele>
        <time>2020-12-24T12:24:01.000Z</time>
      </trkpt>
      <trkpt lat="47.19955" lon="-1.56736">
        <ele>56</ele>
        <time>2020-12-24T12:24:03.000Z</time>
      </trkpt>
      <trkpt lat="47.19956" lon="-1.56764">
        <ele>56</ele>
        <time>2020-12-24T12:24:06.000Z</time>
      </trkpt>
      <trkpt lat="47.19956" lon="-1.56794">
        <ele>56</ele>
        <time>2020-12-24T12:24:09.000Z</time>
      </trkpt>
      <trkpt lat="47.19955" lon="-1.56813">
        <ele>56</ele>
        <time>2020-12-24T12:24:11.000Z</time>
      </trkpt>
      <trkpt lat="47.19955" lon="-1.56833">
        <ele>56</ele>
        <time>2020-12-24T12:24:13.000Z</time>
      </trkpt>
      <trkpt lat="47.19955" lon="-1.56862">
        <ele>57</ele>
        <time>2020-12-24T12:24:16.000Z</time>
      </trkpt>
      <trkpt lat="47.19955" lon="-1.56882">
        <ele>57</ele>
        <time>2020-12-24T12:24:18.000Z</time>
      </trkpt>
      <trkpt lat="47.19955" lon="-1.56901">
        <ele>57</ele>
        <time>2020-12-24T12:24:20.000Z</time>
      </trkpt>
      <trkpt lat="47.19955" lon="-1.56921">
        <ele>57</ele>
        <time>2020-12-24T12:24:22.000Z</time>
      </trkpt>
      <trkpt lat="47.19955" lon="-1.56941">
        <ele>57</ele>
        <time>2020-12-24T12:24:24.000Z</time>
      </trkpt>
      <trkpt lat="47.19955" lon="-1.56961">
        <ele>56</ele>
        <time>2020-12-24T12:24:26.000Z</time>
      </trkpt>
      <trkpt lat="47.19955" lon="-1.5698">
        <ele>56</ele>
        <time>2020-12-24T12:24:28.000Z</time>
      </trkpt>
      <trkpt lat="47.19954" lon="-1.57009">
        <ele>56</ele>
        <time>2020-12-24T12:24:31.000Z</time>
      </trkpt>
      <trkpt lat="47.19954" lon="-1.57028">
        <ele>57</ele>
        <time>2020-12-24T12:24:33.000Z</time>
      </trkpt>
      <trkpt lat="47.19956" lon="-1.57045">
        <ele>56</ele>
        <time>2020-12-24T12:24:35.000Z</time>
      </trkpt>
      <trkpt lat="47.19965" lon="-1.57071">
        <ele>56</ele>
        <time>2020-12-24T12:24:38.000Z</time>
      </trkpt>
      <trkpt lat="47.1997" lon="-1.57089">
        <ele>55</ele>
        <time>2020-12-24T12:24:40.000Z</time>
      </trkpt>
      <trkpt lat="47.19974" lon="-1.57107">
        <ele>55</ele>
        <time>2020-12-24T12:24:42.000Z</time>
      </trkpt>
      <trkpt lat="47.19977" lon="-1.57126">
        <ele>55</ele>
        <time>2020-12-24T12:24:44.000Z</time>
      </trkpt>
      <trkpt lat="47.1998" lon="-1.57145">
        <ele>55</ele>
        <time>2020-12-24T12:24:46.000Z</time>
      </trkpt>
      <trkpt lat="47.19981" lon="-1.57165">
        <ele>55</ele>
        <time>2020-12-24T12:24:48.000Z</time>
      </trkpt>
      <trkpt lat="47.19982" lon="-1.57194">
        <ele>55</ele>
        <time>2020-12-24T12:24:51.000Z</time>
      </trkpt>
      <trkpt lat="47.19982" lon="-1.57213">
        <ele>56</ele>
        <time>2020-12-24T12:24:53.000Z</time>
      </trkpt>
      <trkpt lat="47.19982" lon="-1.57231">
        <ele>56</ele>
        <time>2020-12-24T12:24:55.000Z</time>
      </trkpt>
      <trkpt lat="47.19985" lon="-1.57249">
        <ele>56</ele>
        <time>2020-12-24T12:24:57.000Z</time>
      </trkpt>
      <trkpt lat="47.19988" lon="-1.57267">
        <ele>55</ele>
        <time>2020-12-24T12:24:59.000Z</time>
      </trkpt>
      <trkpt lat="47.19988" lon="-1.57286">
        <ele>55</ele>
        <time>2020-12-24T12:25:01.000Z</time>
      </trkpt>
      <trkpt lat="47.19993" lon="-1.57304">
        <ele>55</ele>
        <time>2020-12-24T12:25:03.000Z</time>
      </trkpt>
      <trkpt lat="47.20004" lon="-1.57314">
        <ele>55</ele>
        <time>2020-12-24T12:25:05.000Z</time>
      </trkpt>
      <trkpt lat="47.20017" lon="-1.57311">
        <ele>55</ele>
        <time>2020-12-24T12:25:07.000Z</time>
      </trkpt>
      <trkpt lat="47.20028" lon="-1.57305">
        <ele>56</ele>
        <time>2020-12-24T12:25:09.000Z</time>
      </trkpt>
      <trkpt lat="47.20039" lon="-1.57298">
        <ele>56</ele>
        <time>2020-12-24T12:25:11.000Z</time>
      </trkpt>
      <trkpt lat="47.20051" lon="-1.57289">
        <ele>56</ele>
        <time>2020-12-24T12:25:13.000Z</time>
      </trkpt>
      <trkpt lat="47.20067" lon="-1.57272">
        <ele>58</ele>
        <time>2020-12-24T12:25:16.000Z</time>
      </trkpt>
      <trkpt lat="47.20079" lon="-1.57263">
        <ele>60</ele>
        <time>2020-12-24T12:25:18.000Z</time>
      </trkpt>
      <trkpt lat="47.2009" lon="-1.57255">
        <ele>60</ele>
        <time>2020-12-24T12:25:20.000Z</time>
      </trkpt>
      <trkpt lat="47.20102" lon="-1.57248">
        <ele>60</ele>
        <time>2020-12-24T12:25:22.000Z</time>
      </trkpt>
      <trkpt lat="47.20113" lon="-1.57241">
        <ele>60</ele>
        <time>2020-12-24T12:25:24.000Z</time>
      </trkpt>
      <trkpt lat="47.20125" lon="-1.57234">
        <ele>59</ele>
        <time>2020-12-24T12:25:26.000Z</time>
      </trkpt>
      <trkpt lat="47.20136" lon="-1.57226">
        <ele>59</ele>
        <time>2020-12-24T12:25:28.000Z</time>
      </trkpt>
      <trkpt lat="47.20148" lon="-1.57218">
        <ele>58</ele>
        <time>2020-12-24T12:25:30.000Z</time>
      </trkpt>
      <trkpt lat="47.2016" lon="-1.5721">
        <ele>58</ele>
        <time>2020-12-24T12:25:32.000Z</time>
      </trkpt>
      <trkpt lat="47.20171" lon="-1.57203">
        <ele>59</ele>
        <time>2020-12-24T12:25:34.000Z</time>
      </trkpt>
      <trkpt lat="47.20182" lon="-1.57194">
        <ele>59</ele>
        <time>2020-12-24T12:25:36.000Z</time>
      </trkpt>
      <trkpt lat="47.20194" lon="-1.57187">
        <ele>59</ele>
        <time>2020-12-24T12:25:38.000Z</time>
      </trkpt>
      <trkpt lat="47.20205" lon="-1.5718">
        <ele>59</ele>
        <time>2020-12-24T12:25:40.000Z</time>
      </trkpt>
      <trkpt lat="47.20216" lon="-1.57173">
        <ele>59</ele>
        <time>2020-12-24T12:25:42.000Z</time>
      </trkpt>
      <trkpt lat="47.20227" lon="-1.57165">
        <ele>58</ele>
        <time>2020-12-24T12:25:44.000Z</time>
      </trkpt>
      <trkpt lat="47.20244" lon="-1.57154">
        <ele>58</ele>
        <time>2020-12-24T12:25:47.000Z</time>
      </trkpt>
      <trkpt lat="47.20256" lon="-1.57148">
        <ele>59</ele>
        <time>2020-12-24T12:25:49.000Z</time>
      </trkpt>
      <trkpt lat="47.20267" lon="-1.5714">
        <ele>58</ele>
        <time>2020-12-24T12:25:51.000Z</time>
      </trkpt>
      <trkpt lat="47.20278" lon="-1.57132">
        <ele>58</ele>
        <time>2020-12-24T12:25:53.000Z</time>
      </trkpt>
      <trkpt lat="47.20289" lon="-1.57124">
        <ele>58</ele>
        <time>2020-12-24T12:25:55.000Z</time>
      </trkpt>
      <trkpt lat="47.20301" lon="-1.57117">
        <ele>58</ele>
        <time>2020-12-24T12:25:57.000Z</time>
      </trkpt>
      <trkpt lat="47.20312" lon="-1.5711">
        <ele>58</ele>
        <time>2020-12-24T12:25:59.000Z</time>
      </trkpt>
      <trkpt lat="47.20324" lon="-1.57102">
        <ele>57</ele>
        <time>2020-12-24T12:26:01.000Z</time>
      </trkpt>
      <trkpt lat="47.20335" lon="-1.57094">
        <ele>57</ele>
        <time>2020-12-24T12:26:03.000Z</time>
      </trkpt>
      <trkpt lat="47.20344" lon="-1.57082">
        <ele>57</ele>
        <time>2020-12-24T12:26:05.000Z</time>
      </trkpt>
      <trkpt lat="47.2035" lon="-1.57067">
        <ele>57</ele>
        <time>2020-12-24T12:26:07.000Z</time>
      </trkpt>
      <trkpt lat="47.20356" lon="-1.57051">
        <ele>57</ele>
        <time>2020-12-24T12:26:09.000Z</time>
      </trkpt>
      <trkpt lat="47.20362" lon="-1.57036">
        <ele>57</ele>
        <time>2020-12-24T12:26:11.000Z</time>
      </trkpt>
      <trkpt lat="47.20367" lon="-1.57018">
        <ele>57</ele>
        <time>2020-12-24T12:26:13.000Z</time>
      </trkpt>
      <trkpt lat="47.20369" lon="-1.57">
        <ele>57</ele>
        <time>2020-12-24T12:26:15.000Z</time>
      </trkpt>
      <trkpt lat="47.20371" lon="-1.56981">
        <ele>56</ele>
        <time>2020-12-24T12:26:17.000Z</time>
      </trkpt>
      <trkpt lat="47.20373" lon="-1.56962">
        <ele>56</ele>
        <time>2020-12-24T12:26:19.000Z</time>
      </trkpt>
      <trkpt lat="47.20374" lon="-1.56942">
        <ele>57</ele>
        <time>2020-12-24T12:26:21.000Z</time>
      </trkpt>
      <trkpt lat="47.20376" lon="-1.56922">
        <ele>56</ele>
        <time>2020-12-24T12:26:23.000Z</time>
      </trkpt>
      <trkpt lat="47.20378" lon="-1.56903">
        <ele>57</ele>
        <time>2020-12-24T12:26:25.000Z</time>
      </trkpt>
      <trkpt lat="47.20379" lon="-1.56886">
        <ele>57</ele>
        <time>2020-12-24T12:26:27.000Z</time>
      </trkpt>
      <trkpt lat="47.2038" lon="-1.5687">
        <ele>57</ele>
        <time>2020-12-24T12:26:29.000Z</time>
      </trkpt>
      <trkpt lat="47.2038" lon="-1.56852">
        <ele>56</ele>
        <time>2020-12-24T12:26:31.000Z</time>
      </trkpt>
      <trkpt lat="47.20385" lon="-1.56821">
        <ele>56</ele>
        <time>2020-12-24T12:26:34.000Z</time>
      </trkpt>
      <trkpt lat="47.20388" lon="-1.56801">
        <ele>56</ele>
        <time>2020-12-24T12:26:36.000Z</time>
      </trkpt>
      <trkpt lat="47.2039" lon="-1.56783">
        <ele>57</ele>
        <time>2020-12-24T12:26:38.000Z</time>
      </trkpt>
      <trkpt lat="47.20391" lon="-1.56766">
        <ele>57</ele>
        <time>2020-12-24T12:26:40.000Z</time>
      </trkpt>
      <trkpt lat="47.20394" lon="-1.56747">
        <ele>58</ele>
        <time>2020-12-24T12:26:42.000Z</time>
      </trkpt>
      <trkpt lat="47.20395" lon="-1.56729">
        <ele>58</ele>
        <time>2020-12-24T12:26:44.000Z</time>
      </trkpt>
      <trkpt lat="47.20397" lon="-1.56712">
        <ele>59</ele>
        <time>2020-12-24T12:26:46.000Z</time>
      </trkpt>
      <trkpt lat="47.204" lon="-1.56692">
        <ele>59</ele>
        <time>2020-12-24T12:26:48.000Z</time>
      </trkpt>
      <trkpt lat="47.20397" lon="-1.56674">
        <ele>62</ele>
        <time>2020-12-24T12:26:50.000Z</time>
      </trkpt>
      <trkpt lat="47.20401" lon="-1.56654">
        <ele>63</ele>
        <time>2020-12-24T12:26:52.000Z</time>
      </trkpt>
      <trkpt lat="47.20405" lon="-1.56636">
        <ele>63</ele>
        <time>2020-12-24T12:26:54.000Z</time>
      </trkpt>
      <trkpt lat="47.20407" lon="-1.56619">
        <ele>63</ele>
        <time>2020-12-24T12:26:56.000Z</time>
      </trkpt>
      <trkpt lat="47.20409" lon="-1.56602">
        <ele>64</ele>
        <time>2020-12-24T12:26:58.000Z</time>
      </trkpt>
      <trkpt lat="47.20413" lon="-1.56583">
        <ele>63</ele>
        <time>2020-12-24T12:27:00.000Z</time>
      </trkpt>
      <trkpt lat="47.20414" lon="-1.56562">
        <ele>63</ele>
        <time>2020-12-24T12:27:02.000Z</time>
      </trkpt>
      <trkpt lat="47.20415" lon="-1.56544">
        <ele>62</ele>
        <time>2020-12-24T12:27:04.000Z</time>
      </trkpt>
      <trkpt lat="47.20418" lon="-1.56525">
        <ele>63</ele>
        <time>2020-12-24T12:27:06.000Z</time>
      </trkpt>
      <trkpt lat="47.20421" lon="-1.56507">
        <ele>63</ele>
        <time>2020-12-24T12:27:08.000Z</time>
      </trkpt>
      <trkpt lat="47.20422" lon="-1.5649">
        <ele>63</ele>
        <time>2020-12-24T12:27:10.000Z</time>
      </trkpt>
      <trkpt lat="47.20424" lon="-1.56474">
        <ele>62</ele>
        <time>2020-12-24T12:27:12.000Z</time>
      </trkpt>
      <trkpt lat="47.20425" lon="-1.56455">
        <ele>60</ele>
        <time>2020-12-24T12:27:14.000Z</time>
      </trkpt>
      <trkpt lat="47.20426" lon="-1.56436">
        <ele>59</ele>
        <time>2020-12-24T12:27:16.000Z</time>
      </trkpt>
      <trkpt lat="47.20429" lon="-1.56416">
        <ele>58</ele>
        <time>2020-12-24T12:27:18.000Z</time>
      </trkpt>
      <trkpt lat="47.20431" lon="-1.56397">
        <ele>59</ele>
        <time>2020-12-24T12:27:20.000Z</time>
      </trkpt>
      <trkpt lat="47.20433" lon="-1.56378">
        <ele>58</ele>
        <time>2020-12-24T12:27:22.000Z</time>
      </trkpt>
      <trkpt lat="47.20435" lon="-1.56358">
        <ele>58</ele>
        <time>2020-12-24T12:27:24.000Z</time>
      </trkpt>
      <trkpt lat="47.20437" lon="-1.56337">
        <ele>59</ele>
        <time>2020-12-24T12:27:26.000Z</time>
      </trkpt>
      <trkpt lat="47.20438" lon="-1.56318">
        <ele>59</ele>
        <time>2020-12-24T12:27:28.000Z</time>
      </trkpt>
      <trkpt lat="47.20439" lon="-1.563">
        <ele>59</ele>
        <time>2020-12-24T12:27:30.000Z</time>
      </trkpt>
      <trkpt lat="47.20439" lon="-1.5628">
        <ele>59</ele>
        <time>2020-12-24T12:27:32.000Z</time>
      </trkpt>
      <trkpt lat="47.20439" lon="-1.56263">
        <ele>59</ele>
        <time>2020-12-24T12:27:34.000Z</time>
      </trkpt>
      <trkpt lat="47.20441" lon="-1.56246">
        <ele>59</ele>
        <time>2020-12-24T12:27:36.000Z</time>
      </trkpt>
      <trkpt lat="47.2045" lon="-1.56237">
        <ele>58</ele>
        <time>2020-12-24T12:27:38.000Z</time>
      </trkpt>
      <trkpt lat="47.20461" lon="-1.5624">
        <ele>58</ele>
        <time>2020-12-24T12:27:40.000Z</time>
      </trkpt>
      <trkpt lat="47.20472" lon="-1.56246">
        <ele>59</ele>
        <time>2020-12-24T12:27:42.000Z</time>
      </trkpt>
      <trkpt lat="47.20483" lon="-1.56255">
        <ele>59</ele>
        <time>2020-12-24T12:27:44.000Z</time>
      </trkpt>
      <trkpt lat="47.20494" lon="-1.56264">
        <ele>59</ele>
        <time>2020-12-24T12:27:46.000Z</time>
      </trkpt>
      <trkpt lat="47.20504" lon="-1.56274">
        <ele>59</ele>
        <time>2020-12-24T12:27:48.000Z</time>
      </trkpt>
      <trkpt lat="47.20514" lon="-1.56285">
        <ele>59</ele>
        <time>2020-12-24T12:27:50.000Z</time>
      </trkpt>
      <trkpt lat="47.20525" lon="-1.56294">
        <ele>59</ele>
        <time>2020-12-24T12:27:52.000Z</time>
      </trkpt>
      <trkpt lat="47.20535" lon="-1.56304">
        <ele>59</ele>
        <time>2020-12-24T12:27:54.000Z</time>
      </trkpt>
      <trkpt lat="47.20545" lon="-1.56314">
        <ele>60</ele>
        <time>2020-12-24T12:27:56.000Z</time>
      </trkpt>
      <trkpt lat="47.20556" lon="-1.56322">
        <ele>60</ele>
        <time>2020-12-24T12:27:58.000Z</time>
      </trkpt>
      <trkpt lat="47.20565" lon="-1.56331">
        <ele>61</ele>
        <time>2020-12-24T12:28:00.000Z</time>
      </trkpt>
      <trkpt lat="47.20575" lon="-1.5634">
        <ele>61</ele>
        <time>2020-12-24T12:28:02.000Z</time>
      </trkpt>
      <trkpt lat="47.20585" lon="-1.56351">
        <ele>62</ele>
        <time>2020-12-24T12:28:04.000Z</time>
      </trkpt>
      <trkpt lat="47.20593" lon="-1.56363">
        <ele>63</ele>
        <time>2020-12-24T12:28:06.000Z</time>
      </trkpt>
      <trkpt lat="47.20604" lon="-1.56373">
        <ele>63</ele>
        <time>2020-12-24T12:28:08.000Z</time>
      </trkpt>
      <trkpt lat="47.20615" lon="-1.56382">
        <ele>63</ele>
        <time>2020-12-24T12:28:10.000Z</time>
      </trkpt>
      <trkpt lat="47.20626" lon="-1.5639">
        <ele>61</ele>
        <time>2020-12-24T12:28:12.000Z</time>
      </trkpt>
      <trkpt lat="47.20636" lon="-1.564">
        <ele>61</ele>
        <time>2020-12-24T12:28:14.000Z</time>
      </trkpt>
      <trkpt lat="47.20645" lon="-1.56409">
        <ele>61</ele>
        <time>2020-12-24T12:28:16.000Z</time>
      </trkpt>
      <trkpt lat="47.20654" lon="-1.56418">
        <ele>61</ele>
        <time>2020-12-24T12:28:18.000Z</time>
      </trkpt>
      <trkpt lat="47.20664" lon="-1.56424">
        <ele>61</ele>
        <time>2020-12-24T12:28:20.000Z</time>
      </trkpt>
      <trkpt lat="47.20672" lon="-1.56433">
        <ele>62</ele>
        <time>2020-12-24T12:28:22.000Z</time>
      </trkpt>
      <trkpt lat="47.20683" lon="-1.56442">
        <ele>61</ele>
        <time>2020-12-24T12:28:24.000Z</time>
      </trkpt>
      <trkpt lat="47.20693" lon="-1.56453">
        <ele>61</ele>
        <time>2020-12-24T12:28:26.000Z</time>
      </trkpt>
      <trkpt lat="47.20703" lon="-1.56461">
        <ele>61</ele>
        <time>2020-12-24T12:28:28.000Z</time>
      </trkpt>
      <trkpt lat="47.20713" lon="-1.56469">
        <ele>61</ele>
        <time>2020-12-24T12:28:30.000Z</time>
      </trkpt>
      <trkpt lat="47.20722" lon="-1.56479">
        <ele>61</ele>
        <time>2020-12-24T12:28:32.000Z</time>
      </trkpt>
      <trkpt lat="47.20732" lon="-1.56488">
        <ele>61</ele>
        <time>2020-12-24T12:28:34.000Z</time>
      </trkpt>
      <trkpt lat="47.2074" lon="-1.56498">
        <ele>62</ele>
        <time>2020-12-24T12:28:36.000Z</time>
      </trkpt>
      <trkpt lat="47.2075" lon="-1.56506">
        <ele>63</ele>
        <time>2020-12-24T12:28:38.000Z</time>
      </trkpt>
      <trkpt lat="47.2076" lon="-1.56512">
        <ele>64</ele>
        <time>2020-12-24T12:28:40.000Z</time>
      </trkpt>
      <trkpt lat="47.2077" lon="-1.56519">
        <ele>63</ele>
        <time>2020-12-24T12:28:42.000Z</time>
      </trkpt>
      <trkpt lat="47.20779" lon="-1.56526">
        <ele>63</ele>
        <time>2020-12-24T12:28:44.000Z</time>
      </trkpt>
      <trkpt lat="47.20788" lon="-1.56537">
        <ele>62</ele>
        <time>2020-12-24T12:28:46.000Z</time>
      </trkpt>
      <trkpt lat="47.20798" lon="-1.56546">
        <ele>61</ele>
        <time>2020-12-24T12:28:48.000Z</time>
      </trkpt>
      <trkpt lat="47.20807" lon="-1.56555">
        <ele>61</ele>
        <time>2020-12-24T12:28:50.000Z</time>
      </trkpt>
      <trkpt lat="47.20816" lon="-1.56564">
        <ele>61</ele>
        <time>2020-12-24T12:28:52.000Z</time>
      </trkpt>
      <trkpt lat="47.20826" lon="-1.56574">
        <ele>60</ele>
        <time>2020-12-24T12:28:54.000Z</time>
      </trkpt>
      <trkpt lat="47.20835" lon="-1.56583">
        <ele>60</ele>
        <time>2020-12-24T12:28:56.000Z</time>
      </trkpt>
      <trkpt lat="47.20844" lon="-1.56592">
        <ele>60</ele>
        <time>2020-12-24T12:28:58.000Z</time>
      </trkpt>
      <trkpt lat="47.20852" lon="-1.566">
        <ele>60</ele>
        <time>2020-12-24T12:29:00.000Z</time>
      </trkpt>
      <trkpt lat="47.2086" lon="-1.56606">
        <ele>60</ele>
        <time>2020-12-24T12:29:02.000Z</time>
      </trkpt>
      <trkpt lat="47.2087" lon="-1.56616">
        <ele>59</ele>
        <time>2020-12-24T12:29:05.000Z</time>
      </trkpt>
      <trkpt lat="47.20878" lon="-1.56623">
        <ele>59</ele>
        <time>2020-12-24T12:29:08.000Z</time>
      </trkpt>
      <trkpt lat="47.20887" lon="-1.5663">
        <ele>58</ele>
        <time>2020-12-24T12:29:13.000Z</time>
      </trkpt>
      <trkpt lat="47.20895" lon="-1.56637">
        <ele>59</ele>
        <time>2020-12-24T12:29:21.000Z</time>
      </trkpt>
      <trkpt lat="47.20904" lon="-1.56641">
        <ele>59</ele>
        <time>2020-12-24T12:29:51.000Z</time>
      </trkpt>
      <trkpt lat="47.20915" lon="-1.56645">
        <ele>59</ele>
        <time>2020-12-24T12:29:53.000Z</time>
      </trkpt>
      <trkpt lat="47.20925" lon="-1.56654">
        <ele>59</ele>
        <time>2020-12-24T12:29:55.000Z</time>
      </trkpt>
      <trkpt lat="47.20927" lon="-1.56668">
        <ele>58</ele>
        <time>2020-12-24T12:29:57.000Z</time>
      </trkpt>
      <trkpt lat="47.20926" lon="-1.56682">
        <ele>59</ele>
        <time>2020-12-24T12:30:00.000Z</time>
      </trkpt>
      <trkpt lat="47.20924" lon="-1.56696">
        <ele>59</ele>
        <time>2020-12-24T12:30:09.000Z</time>
      </trkpt>
      <trkpt lat="47.20922" lon="-1.56709">
        <ele>59</ele>
        <time>2020-12-24T12:30:11.000Z</time>
      </trkpt>
      <trkpt lat="47.20917" lon="-1.56726">
        <ele>58</ele>
        <time>2020-12-24T12:30:13.000Z</time>
      </trkpt>
      <trkpt lat="47.20911" lon="-1.56744">
        <ele>58</ele>
        <time>2020-12-24T12:30:15.000Z</time>
      </trkpt>
      <trkpt lat="47.20905" lon="-1.56762">
        <ele>58</ele>
        <time>2020-12-24T12:30:17.000Z</time>
      </trkpt>
      <trkpt lat="47.209" lon="-1.56779">
        <ele>58</ele>
        <time>2020-12-24T12:30:19.000Z</time>
      </trkpt>
      <trkpt lat="47.20895" lon="-1.56796">
        <ele>58</ele>
        <time>2020-12-24T12:30:21.000Z</time>
      </trkpt>
      <trkpt lat="47.209" lon="-1.56812">
        <ele>58</ele>
        <time>2020-12-24T12:30:23.000Z</time>
      </trkpt>
      <trkpt lat="47.20906" lon="-1.56828">
        <ele>58</ele>
        <time>2020-12-24T12:30:25.000Z</time>
      </trkpt>
      <trkpt lat="47.20912" lon="-1.56846">
        <ele>58</ele>
        <time>2020-12-24T12:30:27.000Z</time>
      </trkpt>
      <trkpt lat="47.20916" lon="-1.56864">
        <ele>58</ele>
        <time>2020-12-24T12:30:29.000Z</time>
      </trkpt>
      <trkpt lat="47.2092" lon="-1.56881">
        <ele>58</ele>
        <time>2020-12-24T12:30:31.000Z</time>
      </trkpt>
      <trkpt lat="47.20925" lon="-1.56898">
        <ele>58</ele>
        <time>2020-12-24T12:30:33.000Z</time>
      </trkpt>
      <trkpt lat="47.2093" lon="-1.56915">
        <ele>58</ele>
        <time>2020-12-24T12:30:35.000Z</time>
      </trkpt>
      <trkpt lat="47.20935" lon="-1.56932">
        <ele>58</ele>
        <time>2020-12-24T12:30:37.000Z</time>
      </trkpt>
      <trkpt lat="47.2094" lon="-1.5695">
        <ele>57</ele>
        <time>2020-12-24T12:30:39.000Z</time>
      </trkpt>
      <trkpt lat="47.20945" lon="-1.56968">
        <ele>57</ele>
        <time>2020-12-24T12:30:41.000Z</time>
      </trkpt>
      <trkpt lat="47.20951" lon="-1.56985">
        <ele>57</ele>
        <time>2020-12-24T12:30:43.000Z</time>
      </trkpt>
      <trkpt lat="47.20956" lon="-1.57004">
        <ele>57</ele>
        <time>2020-12-24T12:30:45.000Z</time>
      </trkpt>
      <trkpt lat="47.20963" lon="-1.57022">
        <ele>57</ele>
        <time>2020-12-24T12:30:47.000Z</time>
      </trkpt>
      <trkpt lat="47.2097" lon="-1.5704">
        <ele>57</ele>
        <time>2020-12-24T12:30:49.000Z</time>
      </trkpt>
      <trkpt lat="47.20974" lon="-1.57058">
        <ele>56</ele>
        <time>2020-12-24T12:30:51.000Z</time>
      </trkpt>
      <trkpt lat="47.2098" lon="-1.57077">
        <ele>56</ele>
        <time>2020-12-24T12:30:53.000Z</time>
      </trkpt>
      <trkpt lat="47.20985" lon="-1.57095">
        <ele>55</ele>
        <time>2020-12-24T12:30:55.000Z</time>
      </trkpt>
      <trkpt lat="47.2099" lon="-1.57113">
        <ele>55</ele>
        <time>2020-12-24T12:30:57.000Z</time>
      </trkpt>
      <trkpt lat="47.20995" lon="-1.57131">
        <ele>56</ele>
        <time>2020-12-24T12:30:59.000Z</time>
      </trkpt>
      <trkpt lat="47.21" lon="-1.57149">
        <ele>56</ele>
        <time>2020-12-24T12:31:01.000Z</time>
      </trkpt>
      <trkpt lat="47.21006" lon="-1.57166">
        <ele>55</ele>
        <time>2020-12-24T12:31:03.000Z</time>
      </trkpt>
      <trkpt lat="47.21011" lon="-1.57182">
        <ele>55</ele>
        <time>2020-12-24T12:31:05.000Z</time>
      </trkpt>
      <trkpt lat="47.21016" lon="-1.57198">
        <ele>56</ele>
        <time>2020-12-24T12:31:07.000Z</time>
      </trkpt>
      <trkpt lat="47.21021" lon="-1.57214">
        <ele>56</ele>
        <time>2020-12-24T12:31:09.000Z</time>
      </trkpt>
      <trkpt lat="47.21025" lon="-1.57232">
        <ele>57</ele>
        <time>2020-12-24T12:31:11.000Z</time>
      </trkpt>
      <trkpt lat="47.21029" lon="-1.57248">
        <ele>57</ele>
        <time>2020-12-24T12:31:13.000Z</time>
      </trkpt>
      <trkpt lat="47.21035" lon="-1.57264">
        <ele>57</ele>
        <time>2020-12-24T12:31:15.000Z</time>
      </trkpt>
      <trkpt lat="47.21039" lon="-1.57281">
        <ele>57</ele>
        <time>2020-12-24T12:31:17.000Z</time>
      </trkpt>
      <trkpt lat="47.21045" lon="-1.57298">
        <ele>57</ele>
        <time>2020-12-24T12:31:19.000Z</time>
      </trkpt>
      <trkpt lat="47.21049" lon="-1.57314">
        <ele>58</ele>
        <time>2020-12-24T12:31:21.000Z</time>
      </trkpt>
      <trkpt lat="47.21053" lon="-1.57327">
        <ele>58</ele>
        <time>2020-12-24T12:31:23.000Z</time>
      </trkpt>
      <trkpt lat="47.21057" lon="-1.5734">
        <ele>58</ele>
        <time>2020-12-24T12:31:27.000Z</time>
      </trkpt>
      <trkpt lat="47.21061" lon="-1.57354">
        <ele>59</ele>
        <time>2020-12-24T12:31:54.000Z</time>
      </trkpt>
      <trkpt lat="47.21065" lon="-1.57367">
        <ele>60</ele>
        <time>2020-12-24T12:31:56.000Z</time>
      </trkpt>
      <trkpt lat="47.21069" lon="-1.57383">
        <ele>61</ele>
        <time>2020-12-24T12:31:58.000Z</time>
      </trkpt>
      <trkpt lat="47.21073" lon="-1.57398">
        <ele>61</ele>
        <time>2020-12-24T12:32:00.000Z</time>
      </trkpt>
      <trkpt lat="47.21078" lon="-1.57414">
        <ele>61</ele>
        <time>2020-12-24T12:32:02.000Z</time>
      </trkpt>
      <trkpt lat="47.21082" lon="-1.57431">
        <ele>62</ele>
        <time>2020-12-24T12:32:04.000Z</time>
      </trkpt>
      <trkpt lat="47.21087" lon="-1.57446">
        <ele>62</ele>
        <time>2020-12-24T12:32:06.000Z</time>
      </trkpt>
      <trkpt lat="47.21092" lon="-1.57463">
        <ele>61</ele>
        <time>2020-12-24T12:32:08.000Z</time>
      </trkpt>
      <trkpt lat="47.21096" lon="-1.57479">
        <ele>61</ele>
        <time>2020-12-24T12:32:10.000Z</time>
      </trkpt>
      <trkpt lat="47.21101" lon="-1.57494">
        <ele>62</ele>
        <time>2020-12-24T12:32:12.000Z</time>
      </trkpt>
      <trkpt lat="47.21106" lon="-1.5751">
        <ele>62</ele>
        <time>2020-12-24T12:32:14.000Z</time>
      </trkpt>
      <trkpt lat="47.2111" lon="-1.57526">
        <ele>62</ele>
        <time>2020-12-24T12:32:16.000Z</time>
      </trkpt>
      <trkpt lat="47.21114" lon="-1.57541">
        <ele>62</ele>
        <time>2020-12-24T12:32:18.000Z</time>
      </trkpt>
      <trkpt lat="47.21118" lon="-1.57557">
        <ele>63</ele>
        <time>2020-12-24T12:32:20.000Z</time>
      </trkpt>
      <trkpt lat="47.21122" lon="-1.57569">
        <ele>64</ele>
        <time>2020-12-24T12:32:22.000Z</time>
      </trkpt>
      <trkpt lat="47.21131" lon="-1.5758">
        <ele>66</ele>
        <time>2020-12-24T12:32:25.000Z</time>
      </trkpt>
      <trkpt lat="47.21141" lon="-1.57582">
        <ele>66</ele>
        <time>2020-12-24T12:32:27.000Z</time>
      </trkpt>
      <trkpt lat="47.21152" lon="-1.57585">
        <ele>67</ele>
        <time>2020-12-24T12:32:29.000Z</time>
      </trkpt>
      <trkpt lat="47.21162" lon="-1.57596">
        <ele>67</ele>
        <time>2020-12-24T12:32:31.000Z</time>
      </trkpt>
      <trkpt lat="47.2117" lon="-1.5761">
        <ele>67</ele>
        <time>2020-12-24T12:32:33.000Z</time>
      </trkpt>
      <trkpt lat="47.21175" lon="-1.57626">
        <ele>67</ele>
        <time>2020-12-24T12:32:35.000Z</time>
      </trkpt>
      <trkpt lat="47.21175" lon="-1.57645">
        <ele>67</ele>
        <time>2020-12-24T12:32:37.000Z</time>
      </trkpt>
      <trkpt lat="47.21172" lon="-1.57661">
        <ele>66</ele>
        <time>2020-12-24T12:32:39.000Z</time>
      </trkpt>
      <trkpt lat="47.21165" lon="-1.57675">
        <ele>67</ele>
        <time>2020-12-24T12:32:41.000Z</time>
      </trkpt>
      <trkpt lat="47.21159" lon="-1.57689">
        <ele>67</ele>
        <time>2020-12-24T12:32:43.000Z</time>
      </trkpt>
      <trkpt lat="47.2116" lon="-1.57704">
        <ele>67</ele>
        <time>2020-12-24T12:32:45.000Z</time>
      </trkpt>
      <trkpt lat="47.21164" lon="-1.57717">
        <ele>68</ele>
        <time>2020-12-24T12:32:47.000Z</time>
      </trkpt>
      <trkpt lat="47.21169" lon="-1.5773">
        <ele>69</ele>
        <time>2020-12-24T12:32:49.000Z</time>
      </trkpt>
      <trkpt lat="47.21173" lon="-1.57744">
        <ele>70</ele>
        <time>2020-12-24T12:32:51.000Z</time>
      </trkpt>
      <trkpt lat="47.21179" lon="-1.57763">
        <ele>71</ele>
        <time>2020-12-24T12:32:54.000Z</time>
      </trkpt>
      <trkpt lat="47.21182" lon="-1.57776">
        <ele>72</ele>
        <time>2020-12-24T12:32:56.000Z</time>
      </trkpt>
      <trkpt lat="47.21187" lon="-1.57793">
        <ele>73</ele>
        <time>2020-12-24T12:32:59.000Z</time>
      </trkpt>
      <trkpt lat="47.21193" lon="-1.5781">
        <ele>74</ele>
        <time>2020-12-24T12:33:02.000Z</time>
      </trkpt>
      <trkpt lat="47.21198" lon="-1.57825">
        <ele>74</ele>
        <time>2020-12-24T12:33:05.000Z</time>
      </trkpt>
      <trkpt lat="47.21203" lon="-1.5784">
        <ele>75</ele>
        <time>2020-12-24T12:33:09.000Z</time>
      </trkpt>
      <trkpt lat="47.21207" lon="-1.57854">
        <ele>76</ele>
        <time>2020-12-24T12:33:14.000Z</time>
      </trkpt>
      <trkpt lat="47.21211" lon="-1.5787">
        <ele>76</ele>
        <time>2020-12-24T12:33:19.000Z</time>
      </trkpt>
      <trkpt lat="47.21215" lon="-1.57884">
        <ele>76</ele>
        <time>2020-12-24T12:33:21.000Z</time>
      </trkpt>
      <trkpt lat="47.2122" lon="-1.57903">
        <ele>76</ele>
        <time>2020-12-24T12:33:23.000Z</time>
      </trkpt>
      <trkpt lat="47.21224" lon="-1.57917">
        <ele>76</ele>
        <time>2020-12-24T12:33:25.000Z</time>
      </trkpt>
      <trkpt lat="47.21228" lon="-1.57932">
        <ele>76</ele>
        <time>2020-12-24T12:33:27.000Z</time>
      </trkpt>
      <trkpt lat="47.21232" lon="-1.57947">
        <ele>76</ele>
        <time>2020-12-24T12:33:29.000Z</time>
      </trkpt>
      <trkpt lat="47.21236" lon="-1.5796">
        <ele>76</ele>
        <time>2020-12-24T12:33:31.000Z</time>
      </trkpt>
      <trkpt lat="47.21241" lon="-1.57973">
        <ele>76</ele>
        <time>2020-12-24T12:33:33.000Z</time>
      </trkpt>
      <trkpt lat="47.21245" lon="-1.57986">
        <ele>76</ele>
        <time>2020-12-24T12:33:35.000Z</time>
      </trkpt>
      <trkpt lat="47.2125" lon="-1.58">
        <ele>76</ele>
        <time>2020-12-24T12:33:37.000Z</time>
      </trkpt>
      <trkpt lat="47.21254" lon="-1.58012">
        <ele>77</ele>
        <time>2020-12-24T12:33:39.000Z</time>
      </trkpt>
      <trkpt lat="47.21257" lon="-1.58025">
        <ele>77</ele>
        <time>2020-12-24T12:33:41.000Z</time>
      </trkpt>
      <trkpt lat="47.21261" lon="-1.58043">
        <ele>78</ele>
        <time>2020-12-24T12:33:44.000Z</time>
      </trkpt>
      <trkpt lat="47.21267" lon="-1.58061">
        <ele>79</ele>
        <time>2020-12-24T12:33:47.000Z</time>
      </trkpt>
      <trkpt lat="47.2127" lon="-1.58074">
        <ele>81</ele>
        <time>2020-12-24T12:33:49.000Z</time>
      </trkpt>
      <trkpt lat="47.21274" lon="-1.58087">
        <ele>82</ele>
        <time>2020-12-24T12:33:51.000Z</time>
      </trkpt>
      <trkpt lat="47.21279" lon="-1.58099">
        <ele>83</ele>
        <time>2020-12-24T12:33:53.000Z</time>
      </trkpt>
      <trkpt lat="47.21282" lon="-1.58113">
        <ele>83</ele>
        <time>2020-12-24T12:33:55.000Z</time>
      </trkpt>
      <trkpt lat="47.21285" lon="-1.58126">
        <ele>84</ele>
        <time>2020-12-24T12:33:57.000Z</time>
      </trkpt>
      <trkpt lat="47.21288" lon="-1.58138">
        <ele>84</ele>
        <time>2020-12-24T12:33:59.000Z</time>
      </trkpt>
      <trkpt lat="47.21291" lon="-1.58151">
        <ele>84</ele>
        <time>2020-12-24T12:34:01.000Z</time>
      </trkpt>
      <trkpt lat="47.21296" lon="-1.58169">
        <ele>85</ele>
        <time>2020-12-24T12:34:04.000Z</time>
      </trkpt>
      <trkpt lat="47.21301" lon="-1.58186">
        <ele>85</ele>
        <time>2020-12-24T12:34:07.000Z</time>
      </trkpt>
      <trkpt lat="47.21305" lon="-1.58198">
        <ele>85</ele>
        <time>2020-12-24T12:34:09.000Z</time>
      </trkpt>
      <trkpt lat="47.21308" lon="-1.58211">
        <ele>85</ele>
        <time>2020-12-24T12:34:11.000Z</time>
      </trkpt>
      <trkpt lat="47.21313" lon="-1.58228">
        <ele>86</ele>
        <time>2020-12-24T12:34:14.000Z</time>
      </trkpt>
      <trkpt lat="47.21317" lon="-1.58246">
        <ele>87</ele>
        <time>2020-12-24T12:34:17.000Z</time>
      </trkpt>
      <trkpt lat="47.21322" lon="-1.58263">
        <ele>88</ele>
        <time>2020-12-24T12:34:20.000Z</time>
      </trkpt>
      <trkpt lat="47.21327" lon="-1.58277">
        <ele>88</ele>
        <time>2020-12-24T12:34:22.000Z</time>
      </trkpt>
      <trkpt lat="47.2133" lon="-1.5829">
        <ele>88</ele>
        <time>2020-12-24T12:34:24.000Z</time>
      </trkpt>
      <trkpt lat="47.21334" lon="-1.58302">
        <ele>89</ele>
        <time>2020-12-24T12:34:26.000Z</time>
      </trkpt>
      <trkpt lat="47.21337" lon="-1.58315">
        <ele>90</ele>
        <time>2020-12-24T12:34:28.000Z</time>
      </trkpt>
      <trkpt lat="47.21341" lon="-1.58328">
        <ele>90</ele>
        <time>2020-12-24T12:34:30.000Z</time>
      </trkpt>
      <trkpt lat="47.21346" lon="-1.58346">
        <ele>91</ele>
        <time>2020-12-24T12:34:33.000Z</time>
      </trkpt>
      <trkpt lat="47.21349" lon="-1.58358">
        <ele>91</ele>
        <time>2020-12-24T12:34:35.000Z</time>
      </trkpt>
      <trkpt lat="47.21353" lon="-1.5837">
        <ele>92</ele>
        <time>2020-12-24T12:34:37.000Z</time>
      </trkpt>
      <trkpt lat="47.21357" lon="-1.58383">
        <ele>92</ele>
        <time>2020-12-24T12:34:39.000Z</time>
      </trkpt>
      <trkpt lat="47.2136" lon="-1.58395">
        <ele>93</ele>
        <time>2020-12-24T12:34:41.000Z</time>
      </trkpt>
      <trkpt lat="47.21364" lon="-1.58408">
        <ele>93</ele>
        <time>2020-12-24T12:34:43.000Z</time>
      </trkpt>
      <trkpt lat="47.21368" lon="-1.58421">
        <ele>93</ele>
        <time>2020-12-24T12:34:45.000Z</time>
      </trkpt>
      <trkpt lat="47.21373" lon="-1.58437">
        <ele>92</ele>
        <time>2020-12-24T12:34:47.000Z</time>
      </trkpt>
      <trkpt lat="47.21377" lon="-1.58452">
        <ele>92</ele>
        <time>2020-12-24T12:34:49.000Z</time>
      </trkpt>
      <trkpt lat="47.21382" lon="-1.58466">
        <ele>92</ele>
        <time>2020-12-24T12:34:51.000Z</time>
      </trkpt>
      <trkpt lat="47.21386" lon="-1.58482">
        <ele>92</ele>
        <time>2020-12-24T12:34:53.000Z</time>
      </trkpt>
      <trkpt lat="47.21391" lon="-1.58495">
        <ele>92</ele>
        <time>2020-12-24T12:34:55.000Z</time>
      </trkpt>
      <trkpt lat="47.21396" lon="-1.58509">
        <ele>91</ele>
        <time>2020-12-24T12:34:57.000Z</time>
      </trkpt>
      <trkpt lat="47.214" lon="-1.58522">
        <ele>91</ele>
        <time>2020-12-24T12:34:59.000Z</time>
      </trkpt>
      <trkpt lat="47.21405" lon="-1.58534">
        <ele>90</ele>
        <time>2020-12-24T12:35:02.000Z</time>
      </trkpt>
      <trkpt lat="47.2141" lon="-1.58549">
        <ele>90</ele>
        <time>2020-12-24T12:35:05.000Z</time>
      </trkpt>
      <trkpt lat="47.21417" lon="-1.5856">
        <ele>91</ele>
        <time>2020-12-24T12:35:07.000Z</time>
      </trkpt>
      <trkpt lat="47.21426" lon="-1.58567">
        <ele>92</ele>
        <time>2020-12-24T12:35:09.000Z</time>
      </trkpt>
      <trkpt lat="47.21435" lon="-1.58577">
        <ele>92</ele>
        <time>2020-12-24T12:35:11.000Z</time>
      </trkpt>
      <trkpt lat="47.21445" lon="-1.58588">
        <ele>91</ele>
        <time>2020-12-24T12:35:13.000Z</time>
      </trkpt>
      <trkpt lat="47.21457" lon="-1.58597">
        <ele>90</ele>
        <time>2020-12-24T12:35:15.000Z</time>
      </trkpt>
      <trkpt lat="47.2147" lon="-1.58606">
        <ele>89</ele>
        <time>2020-12-24T12:35:17.000Z</time>
      </trkpt>
      <trkpt lat="47.21483" lon="-1.58613">
        <ele>89</ele>
        <time>2020-12-24T12:35:19.000Z</time>
      </trkpt>
      <trkpt lat="47.21495" lon="-1.5862">
        <ele>89</ele>
        <time>2020-12-24T12:35:21.000Z</time>
      </trkpt>
      <trkpt lat="47.21507" lon="-1.58627">
        <ele>90</ele>
        <time>2020-12-24T12:35:23.000Z</time>
      </trkpt>
      <trkpt lat="47.21519" lon="-1.58636">
        <ele>90</ele>
        <time>2020-12-24T12:35:25.000Z</time>
      </trkpt>
      <trkpt lat="47.21531" lon="-1.58643">
        <ele>90</ele>
        <time>2020-12-24T12:35:27.000Z</time>
      </trkpt>
      <trkpt lat="47.21543" lon="-1.58647">
        <ele>90</ele>
        <time>2020-12-24T12:35:29.000Z</time>
      </trkpt>
      <trkpt lat="47.21556" lon="-1.58654">
        <ele>90</ele>
        <time>2020-12-24T12:35:31.000Z</time>
      </trkpt>
      <trkpt lat="47.21568" lon="-1.5866">
        <ele>90</ele>
        <time>2020-12-24T12:35:33.000Z</time>
      </trkpt>
      <trkpt lat="47.2158" lon="-1.58665">
        <ele>90</ele>
        <time>2020-12-24T12:35:35.000Z</time>
      </trkpt>
      <trkpt lat="47.21592" lon="-1.58671">
        <ele>90</ele>
        <time>2020-12-24T12:35:37.000Z</time>
      </trkpt>
      <trkpt lat="47.21604" lon="-1.58677">
        <ele>91</ele>
        <time>2020-12-24T12:35:39.000Z</time>
      </trkpt>
      <trkpt lat="47.21615" lon="-1.58683">
        <ele>91</ele>
        <time>2020-12-24T12:35:41.000Z</time>
      </trkpt>
      <trkpt lat="47.21626" lon="-1.5869">
        <ele>91</ele>
        <time>2020-12-24T12:35:43.000Z</time>
      </trkpt>
      <trkpt lat="47.21637" lon="-1.58693">
        <ele>91</ele>
        <time>2020-12-24T12:35:45.000Z</time>
      </trkpt>
      <trkpt lat="47.21649" lon="-1.587">
        <ele>91</ele>
        <time>2020-12-24T12:35:47.000Z</time>
      </trkpt>
      <trkpt lat="47.21661" lon="-1.58707">
        <ele>90</ele>
        <time>2020-12-24T12:35:49.000Z</time>
      </trkpt>
      <trkpt lat="47.21673" lon="-1.58713">
        <ele>91</ele>
        <time>2020-12-24T12:35:51.000Z</time>
      </trkpt>
      <trkpt lat="47.21685" lon="-1.58719">
        <ele>90</ele>
        <time>2020-12-24T12:35:53.000Z</time>
      </trkpt>
      <trkpt lat="47.21697" lon="-1.58725">
        <ele>90</ele>
        <time>2020-12-24T12:35:55.000Z</time>
      </trkpt>
      <trkpt lat="47.2171" lon="-1.58731">
        <ele>89</ele>
        <time>2020-12-24T12:35:57.000Z</time>
      </trkpt>
      <trkpt lat="47.21722" lon="-1.58736">
        <ele>88</ele>
        <time>2020-12-24T12:35:59.000Z</time>
      </trkpt>
      <trkpt lat="47.21735" lon="-1.58743">
        <ele>88</ele>
        <time>2020-12-24T12:36:01.000Z</time>
      </trkpt>
      <trkpt lat="47.21749" lon="-1.58749">
        <ele>87</ele>
        <time>2020-12-24T12:36:03.000Z</time>
      </trkpt>
      <trkpt lat="47.21762" lon="-1.58756">
        <ele>87</ele>
        <time>2020-12-24T12:36:05.000Z</time>
      </trkpt>
      <trkpt lat="47.21777" lon="-1.58759">
        <ele>85</ele>
        <time>2020-12-24T12:36:07.000Z</time>
      </trkpt>
      <trkpt lat="47.21791" lon="-1.58761">
        <ele>84</ele>
        <time>2020-12-24T12:36:09.000Z</time>
      </trkpt>
      <trkpt lat="47.21807" lon="-1.5876">
        <ele>83</ele>
        <time>2020-12-24T12:36:11.000Z</time>
      </trkpt>
      <trkpt lat="47.21822" lon="-1.58759">
        <ele>83</ele>
        <time>2020-12-24T12:36:13.000Z</time>
      </trkpt>
      <trkpt lat="47.21838" lon="-1.58754">
        <ele>83</ele>
        <time>2020-12-24T12:36:15.000Z</time>
      </trkpt>
      <trkpt lat="47.21853" lon="-1.58748">
        <ele>82</ele>
        <time>2020-12-24T12:36:17.000Z</time>
      </trkpt>
      <trkpt lat="47.21867" lon="-1.58739">
        <ele>82</ele>
        <time>2020-12-24T12:36:19.000Z</time>
      </trkpt>
      <trkpt lat="47.21883" lon="-1.5873">
        <ele>82</ele>
        <time>2020-12-24T12:36:21.000Z</time>
      </trkpt>
      <trkpt lat="47.21899" lon="-1.58719">
        <ele>80</ele>
        <time>2020-12-24T12:36:23.000Z</time>
      </trkpt>
      <trkpt lat="47.21915" lon="-1.5871">
        <ele>78</ele>
        <time>2020-12-24T12:36:25.000Z</time>
      </trkpt>
      <trkpt lat="47.21931" lon="-1.58701">
        <ele>77</ele>
        <time>2020-12-24T12:36:27.000Z</time>
      </trkpt>
      <trkpt lat="47.21946" lon="-1.58692">
        <ele>77</ele>
        <time>2020-12-24T12:36:29.000Z</time>
      </trkpt>
      <trkpt lat="47.21961" lon="-1.58684">
        <ele>76</ele>
        <time>2020-12-24T12:36:31.000Z</time>
      </trkpt>
      <trkpt lat="47.21977" lon="-1.58675">
        <ele>75</ele>
        <time>2020-12-24T12:36:33.000Z</time>
      </trkpt>
      <trkpt lat="47.21992" lon="-1.58665">
        <ele>75</ele>
        <time>2020-12-24T12:36:35.000Z</time>
      </trkpt>
      <trkpt lat="47.22008" lon="-1.58657">
        <ele>73</ele>
        <time>2020-12-24T12:36:37.000Z</time>
      </trkpt>
      <trkpt lat="47.22023" lon="-1.58649">
        <ele>72</ele>
        <time>2020-12-24T12:36:39.000Z</time>
      </trkpt>
      <trkpt lat="47.22038" lon="-1.58641">
        <ele>71</ele>
        <time>2020-12-24T12:36:41.000Z</time>
      </trkpt>
      <trkpt lat="47.22052" lon="-1.58632">
        <ele>70</ele>
        <time>2020-12-24T12:36:43.000Z</time>
      </trkpt>
      <trkpt lat="47.22065" lon="-1.58624">
        <ele>70</ele>
        <time>2020-12-24T12:36:45.000Z</time>
      </trkpt>
      <trkpt lat="47.22079" lon="-1.58617">
        <ele>69</ele>
        <time>2020-12-24T12:36:47.000Z</time>
      </trkpt>
      <trkpt lat="47.22093" lon="-1.58609">
        <ele>69</ele>
        <time>2020-12-24T12:36:49.000Z</time>
      </trkpt>
      <trkpt lat="47.22107" lon="-1.58601">
        <ele>69</ele>
        <time>2020-12-24T12:36:51.000Z</time>
      </trkpt>
      <trkpt lat="47.2212" lon="-1.58594">
        <ele>69</ele>
        <time>2020-12-24T12:36:53.000Z</time>
      </trkpt>
      <trkpt lat="47.22133" lon="-1.58587">
        <ele>69</ele>
        <time>2020-12-24T12:36:55.000Z</time>
      </trkpt>
      <trkpt lat="47.22147" lon="-1.58581">
        <ele>69</ele>
        <time>2020-12-24T12:36:57.000Z</time>
      </trkpt>
      <trkpt lat="47.22159" lon="-1.58573">
        <ele>68</ele>
        <time>2020-12-24T12:36:59.000Z</time>
      </trkpt>
      <trkpt lat="47.22172" lon="-1.58567">
        <ele>67</ele>
        <time>2020-12-24T12:37:01.000Z</time>
      </trkpt>
      <trkpt lat="47.22184" lon="-1.5856">
        <ele>67</ele>
        <time>2020-12-24T12:37:03.000Z</time>
      </trkpt>
      <trkpt lat="47.22195" lon="-1.58553">
        <ele>67</ele>
        <time>2020-12-24T12:37:05.000Z</time>
      </trkpt>
      <trkpt lat="47.22207" lon="-1.58546">
        <ele>67</ele>
        <time>2020-12-24T12:37:07.000Z</time>
      </trkpt>
      <trkpt lat="47.22217" lon="-1.58534">
        <ele>68</ele>
        <time>2020-12-24T12:37:09.000Z</time>
      </trkpt>
      <trkpt lat="47.22226" lon="-1.5852">
        <ele>68</ele>
        <time>2020-12-24T12:37:11.000Z</time>
      </trkpt>
      <trkpt lat="47.2224" lon="-1.58514">
        <ele>67</ele>
        <time>2020-12-24T12:37:13.000Z</time>
      </trkpt>
      <trkpt lat="47.22254" lon="-1.58515">
        <ele>67</ele>
        <time>2020-12-24T12:37:15.000Z</time>
      </trkpt>
      <trkpt lat="47.22267" lon="-1.58512">
        <ele>67</ele>
        <time>2020-12-24T12:37:17.000Z</time>
      </trkpt>
      <trkpt lat="47.2228" lon="-1.58506">
        <ele>66</ele>
        <time>2020-12-24T12:37:19.000Z</time>
      </trkpt>
      <trkpt lat="47.22292" lon="-1.58499">
        <ele>66</ele>
        <time>2020-12-24T12:37:21.000Z</time>
      </trkpt>
      <trkpt lat="47.22305" lon="-1.58492">
        <ele>66</ele>
        <time>2020-12-24T12:37:23.000Z</time>
      </trkpt>
      <trkpt lat="47.22319" lon="-1.58486">
        <ele>65</ele>
        <time>2020-12-24T12:37:25.000Z</time>
      </trkpt>
      <trkpt lat="47.22331" lon="-1.58478">
        <ele>65</ele>
        <time>2020-12-24T12:37:27.000Z</time>
      </trkpt>
      <trkpt lat="47.22343" lon="-1.58471">
        <ele>65</ele>
        <time>2020-12-24T12:37:29.000Z</time>
      </trkpt>
      <trkpt lat="47.22356" lon="-1.58465">
        <ele>65</ele>
        <time>2020-12-24T12:37:31.000Z</time>
      </trkpt>
      <trkpt lat="47.22368" lon="-1.58457">
        <ele>66</ele>
        <time>2020-12-24T12:37:33.000Z</time>
      </trkpt>
      <trkpt lat="47.22379" lon="-1.5845">
        <ele>66</ele>
        <time>2020-12-24T12:37:35.000Z</time>
      </trkpt>
      <trkpt lat="47.2239" lon="-1.58444">
        <ele>67</ele>
        <time>2020-12-24T12:37:37.000Z</time>
      </trkpt>
      <trkpt lat="47.22399" lon="-1.58438">
        <ele>67</ele>
        <time>2020-12-24T12:37:39.000Z</time>
      </trkpt>
      <trkpt lat="47.22409" lon="-1.58427">
        <ele>67</ele>
        <time>2020-12-24T12:37:42.000Z</time>
      </trkpt>
      <trkpt lat="47.22422" lon="-1.58419">
        <ele>69</ele>
        <time>2020-12-24T12:37:45.000Z</time>
      </trkpt>
      <trkpt lat="47.2243" lon="-1.58414">
        <ele>69</ele>
        <time>2020-12-24T12:37:47.000Z</time>
      </trkpt>
      <trkpt lat="47.22442" lon="-1.58406">
        <ele>68</ele>
        <time>2020-12-24T12:37:50.000Z</time>
      </trkpt>
      <trkpt lat="47.22453" lon="-1.58399">
        <ele>70</ele>
        <time>2020-12-24T12:37:53.000Z</time>
      </trkpt>
      <trkpt lat="47.22464" lon="-1.58392">
        <ele>70</ele>
        <time>2020-12-24T12:37:56.000Z</time>
      </trkpt>
      <trkpt lat="47.22475" lon="-1.58388">
        <ele>72</ele>
        <time>2020-12-24T12:37:59.000Z</time>
      </trkpt>
      <trkpt lat="47.22487" lon="-1.58382">
        <ele>73</ele>
        <time>2020-12-24T12:38:02.000Z</time>
      </trkpt>
      <trkpt lat="47.22496" lon="-1.58378">
        <ele>74</ele>
        <time>2020-12-24T12:38:04.000Z</time>
      </trkpt>
      <trkpt lat="47.22508" lon="-1.58371">
        <ele>74</ele>
        <time>2020-12-24T12:38:07.000Z</time>
      </trkpt>
      <trkpt lat="47.22519" lon="-1.58364">
        <ele>74</ele>
        <time>2020-12-24T12:38:10.000Z</time>
      </trkpt>
      <trkpt lat="47.22531" lon="-1.58357">
        <ele>75</ele>
        <time>2020-12-24T12:38:13.000Z</time>
      </trkpt>
      <trkpt lat="47.22542" lon="-1.58351">
        <ele>75</ele>
        <time>2020-12-24T12:38:16.000Z</time>
      </trkpt>
      <trkpt lat="47.22553" lon="-1.58344">
        <ele>76</ele>
        <time>2020-12-24T12:38:19.000Z</time>
      </trkpt>
      <trkpt lat="47.22564" lon="-1.58338">
        <ele>77</ele>
        <time>2020-12-24T12:38:22.000Z</time>
      </trkpt>
      <trkpt lat="47.22575" lon="-1.58333">
        <ele>77</ele>
        <time>2020-12-24T12:38:25.000Z</time>
      </trkpt>
      <trkpt lat="47.22585" lon="-1.58328">
        <ele>79</ele>
        <time>2020-12-24T12:38:28.000Z</time>
      </trkpt>
      <trkpt lat="47.22594" lon="-1.58322">
        <ele>80</ele>
        <time>2020-12-24T12:38:31.000Z</time>
      </trkpt>
      <trkpt lat="47.22604" lon="-1.58316">
        <ele>81</ele>
        <time>2020-12-24T12:38:34.000Z</time>
      </trkpt>
      <trkpt lat="47.22615" lon="-1.5831">
        <ele>81</ele>
        <time>2020-12-24T12:38:37.000Z</time>
      </trkpt>
      <trkpt lat="47.22626" lon="-1.58305">
        <ele>82</ele>
        <time>2020-12-24T12:38:40.000Z</time>
      </trkpt>
      <trkpt lat="47.22637" lon="-1.58298">
        <ele>83</ele>
        <time>2020-12-24T12:38:44.000Z</time>
      </trkpt>
      <trkpt lat="47.22645" lon="-1.58294">
        <ele>83</ele>
        <time>2020-12-24T12:38:46.000Z</time>
      </trkpt>
      <trkpt lat="47.22657" lon="-1.58291">
        <ele>84</ele>
        <time>2020-12-24T12:38:49.000Z</time>
      </trkpt>
      <trkpt lat="47.22667" lon="-1.58284">
        <ele>85</ele>
        <time>2020-12-24T12:38:52.000Z</time>
      </trkpt>
      <trkpt lat="47.22676" lon="-1.58277">
        <ele>86</ele>
        <time>2020-12-24T12:38:55.000Z</time>
      </trkpt>
      <trkpt lat="47.22686" lon="-1.58269">
        <ele>87</ele>
        <time>2020-12-24T12:38:58.000Z</time>
      </trkpt>
      <trkpt lat="47.22696" lon="-1.58258">
        <ele>88</ele>
        <time>2020-12-24T12:39:01.000Z</time>
      </trkpt>
      <trkpt lat="47.22706" lon="-1.58247">
        <ele>89</ele>
        <time>2020-12-24T12:39:04.000Z</time>
      </trkpt>
      <trkpt lat="47.22717" lon="-1.58237">
        <ele>90</ele>
        <time>2020-12-24T12:39:07.000Z</time>
      </trkpt>
      <trkpt lat="47.22724" lon="-1.58227">
        <ele>90</ele>
        <time>2020-12-24T12:39:09.000Z</time>
      </trkpt>
      <trkpt lat="47.22733" lon="-1.58214">
        <ele>90</ele>
        <time>2020-12-24T12:39:12.000Z</time>
      </trkpt>
      <trkpt lat="47.22742" lon="-1.58201">
        <ele>91</ele>
        <time>2020-12-24T12:39:15.000Z</time>
      </trkpt>
      <trkpt lat="47.2275" lon="-1.58187">
        <ele>92</ele>
        <time>2020-12-24T12:39:18.000Z</time>
      </trkpt>
      <trkpt lat="47.22757" lon="-1.58172">
        <ele>93</ele>
        <time>2020-12-24T12:39:21.000Z</time>
      </trkpt>
      <trkpt lat="47.22765" lon="-1.58155">
        <ele>94</ele>
        <time>2020-12-24T12:39:24.000Z</time>
      </trkpt>
      <trkpt lat="47.22773" lon="-1.58141">
        <ele>95</ele>
        <time>2020-12-24T12:39:27.000Z</time>
      </trkpt>
      <trkpt lat="47.22779" lon="-1.58128">
        <ele>95</ele>
        <time>2020-12-24T12:39:30.000Z</time>
      </trkpt>
      <trkpt lat="47.2278" lon="-1.58115">
        <ele>95</ele>
        <time>2020-12-24T12:39:36.000Z</time>
      </trkpt>
      <trkpt lat="47.22789" lon="-1.58109">
        <ele>95</ele>
        <time>2020-12-24T12:42:04.000Z</time>
      </trkpt>
      <trkpt lat="47.22786" lon="-1.58095">
        <ele>94</ele>
        <time>2020-12-24T12:47:42.000Z</time>
      </trkpt>
      <trkpt lat="47.22791" lon="-1.58078">
        <ele>94</ele>
        <time>2020-12-24T12:47:45.000Z</time>
      </trkpt>
      <trkpt lat="47.22795" lon="-1.58065">
        <ele>95</ele>
        <time>2020-12-24T12:47:47.000Z</time>
      </trkpt>
      <trkpt lat="47.22798" lon="-1.5805">
        <ele>95</ele>
        <time>2020-12-24T12:47:49.000Z</time>
      </trkpt>
      <trkpt lat="47.22802" lon="-1.58031">
        <ele>95</ele>
        <time>2020-12-24T12:47:51.000Z</time>
      </trkpt>
      <trkpt lat="47.22805" lon="-1.58011">
        <ele>95</ele>
        <time>2020-12-24T12:47:53.000Z</time>
      </trkpt>
      <trkpt lat="47.22809" lon="-1.57992">
        <ele>95</ele>
        <time>2020-12-24T12:47:55.000Z</time>
      </trkpt>
      <trkpt lat="47.22813" lon="-1.57973">
        <ele>94</ele>
        <time>2020-12-24T12:47:57.000Z</time>
      </trkpt>
      <trkpt lat="47.22817" lon="-1.57952">
        <ele>93</ele>
        <time>2020-12-24T12:47:59.000Z</time>
      </trkpt>
      <trkpt lat="47.22821" lon="-1.57932">
        <ele>92</ele>
        <time>2020-12-24T12:48:01.000Z</time>
      </trkpt>
      <trkpt lat="47.22825" lon="-1.57911">
        <ele>91</ele>
        <time>2020-12-24T12:48:03.000Z</time>
      </trkpt>
      <trkpt lat="47.2283" lon="-1.5789">
        <ele>90</ele>
        <time>2020-12-24T12:48:05.000Z</time>
      </trkpt>
      <trkpt lat="47.22833" lon="-1.57868">
        <ele>89</ele>
        <time>2020-12-24T12:48:07.000Z</time>
      </trkpt>
      <trkpt lat="47.22837" lon="-1.57848">
        <ele>89</ele>
        <time>2020-12-24T12:48:09.000Z</time>
      </trkpt>
      <trkpt lat="47.22841" lon="-1.57828">
        <ele>88</ele>
        <time>2020-12-24T12:48:11.000Z</time>
      </trkpt>
      <trkpt lat="47.22845" lon="-1.57808">
        <ele>87</ele>
        <time>2020-12-24T12:48:13.000Z</time>
      </trkpt>
      <trkpt lat="47.22849" lon="-1.57789">
        <ele>86</ele>
        <time>2020-12-24T12:48:15.000Z</time>
      </trkpt>
      <trkpt lat="47.22853" lon="-1.5777">
        <ele>85</ele>
        <time>2020-12-24T12:48:17.000Z</time>
      </trkpt>
      <trkpt lat="47.22857" lon="-1.57749">
        <ele>84</ele>
        <time>2020-12-24T12:48:19.000Z</time>
      </trkpt>
      <trkpt lat="47.22861" lon="-1.57729">
        <ele>83</ele>
        <time>2020-12-24T12:48:21.000Z</time>
      </trkpt>
      <trkpt lat="47.22865" lon="-1.57708">
        <ele>83</ele>
        <time>2020-12-24T12:48:23.000Z</time>
      </trkpt>
      <trkpt lat="47.22869" lon="-1.57688">
        <ele>82</ele>
        <time>2020-12-24T12:48:25.000Z</time>
      </trkpt>
      <trkpt lat="47.22873" lon="-1.57668">
        <ele>82</ele>
        <time>2020-12-24T12:48:27.000Z</time>
      </trkpt>
      <trkpt lat="47.22877" lon="-1.57648">
        <ele>82</ele>
        <time>2020-12-24T12:48:29.000Z</time>
      </trkpt>
      <trkpt lat="47.2288" lon="-1.57627">
        <ele>81</ele>
        <time>2020-12-24T12:48:31.000Z</time>
      </trkpt>
      <trkpt lat="47.22883" lon="-1.57611">
        <ele>81</ele>
        <time>2020-12-24T12:48:33.000Z</time>
      </trkpt>
      <trkpt lat="47.22886" lon="-1.57594">
        <ele>81</ele>
        <time>2020-12-24T12:48:36.000Z</time>
      </trkpt>
      <trkpt lat="47.22888" lon="-1.57581">
        <ele>81</ele>
        <time>2020-12-24T12:48:40.000Z</time>
      </trkpt>
      <trkpt lat="47.2289" lon="-1.57566">
        <ele>83</ele>
        <time>2020-12-24T12:48:59.000Z</time>
      </trkpt>
      <trkpt lat="47.22892" lon="-1.57553">
        <ele>84</ele>
        <time>2020-12-24T12:49:01.000Z</time>
      </trkpt>
      <trkpt lat="47.22897" lon="-1.57532">
        <ele>85</ele>
        <time>2020-12-24T12:49:03.000Z</time>
      </trkpt>
      <trkpt lat="47.22901" lon="-1.57514">
        <ele>84</ele>
        <time>2020-12-24T12:49:05.000Z</time>
      </trkpt>
      <trkpt lat="47.22905" lon="-1.57496">
        <ele>84</ele>
        <time>2020-12-24T12:49:07.000Z</time>
      </trkpt>
      <trkpt lat="47.22908" lon="-1.57479">
        <ele>84</ele>
        <time>2020-12-24T12:49:09.000Z</time>
      </trkpt>
      <trkpt lat="47.2291" lon="-1.57463">
        <ele>84</ele>
        <time>2020-12-24T12:49:11.000Z</time>
      </trkpt>
      <trkpt lat="47.22913" lon="-1.57446">
        <ele>84</ele>
        <time>2020-12-24T12:49:13.000Z</time>
      </trkpt>
      <trkpt lat="47.22916" lon="-1.57431">
        <ele>85</ele>
        <time>2020-12-24T12:49:15.000Z</time>
      </trkpt>
      <trkpt lat="47.2292" lon="-1.57415">
        <ele>85</ele>
        <time>2020-12-24T12:49:17.000Z</time>
      </trkpt>
      <trkpt lat="47.22924" lon="-1.57399">
        <ele>85</ele>
        <time>2020-12-24T12:49:19.000Z</time>
      </trkpt>
      <trkpt lat="47.22927" lon="-1.57383">
        <ele>86</ele>
        <time>2020-12-24T12:49:21.000Z</time>
      </trkpt>
      <trkpt lat="47.2293" lon="-1.57366">
        <ele>86</ele>
        <time>2020-12-24T12:49:23.000Z</time>
      </trkpt>
      <trkpt lat="47.22934" lon="-1.57348">
        <ele>87</ele>
        <time>2020-12-24T12:49:25.000Z</time>
      </trkpt>
      <trkpt lat="47.22937" lon="-1.57332">
        <ele>88</ele>
        <time>2020-12-24T12:49:27.000Z</time>
      </trkpt>
      <trkpt lat="47.2294" lon="-1.57317">
        <ele>89</ele>
        <time>2020-12-24T12:49:29.000Z</time>
      </trkpt>
      <trkpt lat="47.22943" lon="-1.57303">
        <ele>90</ele>
        <time>2020-12-24T12:49:31.000Z</time>
      </trkpt>
      <trkpt lat="47.22946" lon="-1.5729">
        <ele>90</ele>
        <time>2020-12-24T12:49:33.000Z</time>
      </trkpt>
      <trkpt lat="47.22949" lon="-1.57273">
        <ele>90</ele>
        <time>2020-12-24T12:49:36.000Z</time>
      </trkpt>
      <trkpt lat="47.22951" lon="-1.57257">
        <ele>90</ele>
        <time>2020-12-24T12:49:39.000Z</time>
      </trkpt>
      <trkpt lat="47.22951" lon="-1.57243">
        <ele>90</ele>
        <time>2020-12-24T12:49:42.000Z</time>
      </trkpt>
      <trkpt lat="47.22956" lon="-1.57228">
        <ele>90</ele>
        <time>2020-12-24T12:49:45.000Z</time>
      </trkpt>
      <trkpt lat="47.22965" lon="-1.57216">
        <ele>89</ele>
        <time>2020-12-24T12:49:49.000Z</time>
      </trkpt>
      <trkpt lat="47.22974" lon="-1.57199">
        <ele>90</ele>
        <time>2020-12-24T12:49:52.000Z</time>
      </trkpt>
      <trkpt lat="47.22982" lon="-1.57185">
        <ele>90</ele>
        <time>2020-12-24T12:49:54.000Z</time>
      </trkpt>
      <trkpt lat="47.2299" lon="-1.5717">
        <ele>90</ele>
        <time>2020-12-24T12:49:56.000Z</time>
      </trkpt>
      <trkpt lat="47.22998" lon="-1.57156">
        <ele>90</ele>
        <time>2020-12-24T12:49:58.000Z</time>
      </trkpt>
      <trkpt lat="47.23006" lon="-1.57143">
        <ele>89</ele>
        <time>2020-12-24T12:50:00.000Z</time>
      </trkpt>
      <trkpt lat="47.23013" lon="-1.5713">
        <ele>89</ele>
        <time>2020-12-24T12:50:02.000Z</time>
      </trkpt>
      <trkpt lat="47.23021" lon="-1.57116">
        <ele>89</ele>
        <time>2020-12-24T12:50:04.000Z</time>
      </trkpt>
      <trkpt lat="47.23029" lon="-1.57102">
        <ele>89</ele>
        <time>2020-12-24T12:50:06.000Z</time>
      </trkpt>
      <trkpt lat="47.23038" lon="-1.57088">
        <ele>89</ele>
        <time>2020-12-24T12:50:08.000Z</time>
      </trkpt>
      <trkpt lat="47.23047" lon="-1.57073">
        <ele>88</ele>
        <time>2020-12-24T12:50:10.000Z</time>
      </trkpt>
      <trkpt lat="47.23055" lon="-1.57058">
        <ele>88</ele>
        <time>2020-12-24T12:50:12.000Z</time>
      </trkpt>
      <trkpt lat="47.23063" lon="-1.57041">
        <ele>87</ele>
        <time>2020-12-24T12:50:14.000Z</time>
      </trkpt>
      <trkpt lat="47.23072" lon="-1.57025">
        <ele>86</ele>
        <time>2020-12-24T12:50:16.000Z</time>
      </trkpt>
      <trkpt lat="47.23081" lon="-1.5701">
        <ele>86</ele>
        <time>2020-12-24T12:50:18.000Z</time>
      </trkpt>
      <trkpt lat="47.23089" lon="-1.56996">
        <ele>87</ele>
        <time>2020-12-24T12:50:20.000Z</time>
      </trkpt>
      <trkpt lat="47.23098" lon="-1.56981">
        <ele>87</ele>
        <time>2020-12-24T12:50:22.000Z</time>
      </trkpt>
      <trkpt lat="47.23107" lon="-1.56965">
        <ele>87</ele>
        <time>2020-12-24T12:50:24.000Z</time>
      </trkpt>
      <trkpt lat="47.23116" lon="-1.56948">
        <ele>87</ele>
        <time>2020-12-24T12:50:26.000Z</time>
      </trkpt>
      <trkpt lat="47.23125" lon="-1.56931">
        <ele>86</ele>
        <time>2020-12-24T12:50:28.000Z</time>
      </trkpt>
      <trkpt lat="47.23135" lon="-1.56915">
        <ele>85</ele>
        <time>2020-12-24T12:50:30.000Z</time>
      </trkpt>
      <trkpt lat="47.23144" lon="-1.56899">
        <ele>84</ele>
        <time>2020-12-24T12:50:32.000Z</time>
      </trkpt>
      <trkpt lat="47.23154" lon="-1.56882">
        <ele>84</ele>
        <time>2020-12-24T12:50:34.000Z</time>
      </trkpt>
      <trkpt lat="47.23162" lon="-1.56864">
        <ele>82</ele>
        <time>2020-12-24T12:50:36.000Z</time>
      </trkpt>
      <trkpt lat="47.23171" lon="-1.56846">
        <ele>80</ele>
        <time>2020-12-24T12:50:38.000Z</time>
      </trkpt>
      <trkpt lat="47.23184" lon="-1.56831">
        <ele>79</ele>
        <time>2020-12-24T12:50:40.000Z</time>
      </trkpt>
      <trkpt lat="47.23194" lon="-1.56812">
        <ele>78</ele>
        <time>2020-12-24T12:50:42.000Z</time>
      </trkpt>
      <trkpt lat="47.23205" lon="-1.56794">
        <ele>76</ele>
        <time>2020-12-24T12:50:44.000Z</time>
      </trkpt>
      <trkpt lat="47.23215" lon="-1.56775">
        <ele>75</ele>
        <time>2020-12-24T12:50:46.000Z</time>
      </trkpt>
      <trkpt lat="47.23226" lon="-1.56758">
        <ele>74</ele>
        <time>2020-12-24T12:50:48.000Z</time>
      </trkpt>
      <trkpt lat="47.23236" lon="-1.56739">
        <ele>74</ele>
        <time>2020-12-24T12:50:50.000Z</time>
      </trkpt>
      <trkpt lat="47.23246" lon="-1.56721">
        <ele>74</ele>
        <time>2020-12-24T12:50:52.000Z</time>
      </trkpt>
      <trkpt lat="47.23256" lon="-1.56703">
        <ele>74</ele>
        <time>2020-12-24T12:50:54.000Z</time>
      </trkpt>
      <trkpt lat="47.23266" lon="-1.56686">
        <ele>75</ele>
        <time>2020-12-24T12:50:56.000Z</time>
      </trkpt>
      <trkpt lat="47.23274" lon="-1.5667">
        <ele>75</ele>
        <time>2020-12-24T12:50:58.000Z</time>
      </trkpt>
      <trkpt lat="47.23282" lon="-1.56655">
        <ele>75</ele>
        <time>2020-12-24T12:51:00.000Z</time>
      </trkpt>
      <trkpt lat="47.23291" lon="-1.56639">
        <ele>75</ele>
        <time>2020-12-24T12:51:02.000Z</time>
      </trkpt>
      <trkpt lat="47.23299" lon="-1.56624">
        <ele>75</ele>
        <time>2020-12-24T12:51:04.000Z</time>
      </trkpt>
      <trkpt lat="47.23307" lon="-1.56611">
        <ele>76</ele>
        <time>2020-12-24T12:51:06.000Z</time>
      </trkpt>
      <trkpt lat="47.23314" lon="-1.56597">
        <ele>76</ele>
        <time>2020-12-24T12:51:08.000Z</time>
      </trkpt>
      <trkpt lat="47.23317" lon="-1.56581">
        <ele>76</ele>
        <time>2020-12-24T12:51:10.000Z</time>
      </trkpt>
      <trkpt lat="47.23321" lon="-1.56567">
        <ele>76</ele>
        <time>2020-12-24T12:51:12.000Z</time>
      </trkpt>
      <trkpt lat="47.23329" lon="-1.56557">
        <ele>77</ele>
        <time>2020-12-24T12:51:15.000Z</time>
      </trkpt>
      <trkpt lat="47.23337" lon="-1.56543">
        <ele>77</ele>
        <time>2020-12-24T12:51:18.000Z</time>
      </trkpt>
      <trkpt lat="47.23342" lon="-1.56525">
        <ele>77</ele>
        <time>2020-12-24T12:51:20.000Z</time>
      </trkpt>
      <trkpt lat="47.23348" lon="-1.56508">
        <ele>77</ele>
        <time>2020-12-24T12:51:22.000Z</time>
      </trkpt>
      <trkpt lat="47.23355" lon="-1.56492">
        <ele>77</ele>
        <time>2020-12-24T12:51:24.000Z</time>
      </trkpt>
      <trkpt lat="47.23362" lon="-1.56474">
        <ele>78</ele>
        <time>2020-12-24T12:51:26.000Z</time>
      </trkpt>
      <trkpt lat="47.23367" lon="-1.56457">
        <ele>77</ele>
        <time>2020-12-24T12:51:28.000Z</time>
      </trkpt>
      <trkpt lat="47.23373" lon="-1.5644">
        <ele>77</ele>
        <time>2020-12-24T12:51:30.000Z</time>
      </trkpt>
      <trkpt lat="47.23381" lon="-1.56424">
        <ele>78</ele>
        <time>2020-12-24T12:51:32.000Z</time>
      </trkpt>
      <trkpt lat="47.23388" lon="-1.56407">
        <ele>78</ele>
        <time>2020-12-24T12:51:34.000Z</time>
      </trkpt>
      <trkpt lat="47.23394" lon="-1.56391">
        <ele>77</ele>
        <time>2020-12-24T12:51:36.000Z</time>
      </trkpt>
      <trkpt lat="47.234" lon="-1.56375">
        <ele>77</ele>
        <time>2020-12-24T12:51:38.000Z</time>
      </trkpt>
      <trkpt lat="47.23406" lon="-1.56359">
        <ele>77</ele>
        <time>2020-12-24T12:51:40.000Z</time>
      </trkpt>
      <trkpt lat="47.23411" lon="-1.56344">
        <ele>78</ele>
        <time>2020-12-24T12:51:43.000Z</time>
      </trkpt>
      <trkpt lat="47.23415" lon="-1.56327">
        <ele>78</ele>
        <time>2020-12-24T12:51:48.000Z</time>
      </trkpt>
      <trkpt lat="47.23425" lon="-1.56323">
        <ele>78</ele>
        <time>2020-12-24T12:51:50.000Z</time>
      </trkpt>
      <trkpt lat="47.23438" lon="-1.56329">
        <ele>79</ele>
        <time>2020-12-24T12:51:52.000Z</time>
      </trkpt>
      <trkpt lat="47.23451" lon="-1.56331">
        <ele>79</ele>
        <time>2020-12-24T12:51:54.000Z</time>
      </trkpt>
      <trkpt lat="47.23463" lon="-1.56331">
        <ele>78</ele>
        <time>2020-12-24T12:51:56.000Z</time>
      </trkpt>
      <trkpt lat="47.23475" lon="-1.56331">
        <ele>79</ele>
        <time>2020-12-24T12:51:58.000Z</time>
      </trkpt>
      <trkpt lat="47.23487" lon="-1.5633">
        <ele>78</ele>
        <time>2020-12-24T12:52:00.000Z</time>
      </trkpt>
      <trkpt lat="47.23499" lon="-1.56329">
        <ele>78</ele>
        <time>2020-12-24T12:52:02.000Z</time>
      </trkpt>
      <trkpt lat="47.2351" lon="-1.56329">
        <ele>79</ele>
        <time>2020-12-24T12:52:04.000Z</time>
      </trkpt>
      <trkpt lat="47.23522" lon="-1.56329">
        <ele>79</ele>
        <time>2020-12-24T12:52:06.000Z</time>
      </trkpt>
      <trkpt lat="47.23533" lon="-1.5633">
        <ele>80</ele>
        <time>2020-12-24T12:52:08.000Z</time>
      </trkpt>
      <trkpt lat="47.23544" lon="-1.5633">
        <ele>79</ele>
        <time>2020-12-24T12:52:10.000Z</time>
      </trkpt>
      <trkpt lat="47.23554" lon="-1.56331">
        <ele>80</ele>
        <time>2020-12-24T12:52:12.000Z</time>
      </trkpt>
      <trkpt lat="47.23564" lon="-1.5633">
        <ele>80</ele>
        <time>2020-12-24T12:52:14.000Z</time>
      </trkpt>
      <trkpt lat="47.23576" lon="-1.56331">
        <ele>81</ele>
        <time>2020-12-24T12:52:17.000Z</time>
      </trkpt>
      <trkpt lat="47.23589" lon="-1.5633">
        <ele>81</ele>
        <time>2020-12-24T12:52:20.000Z</time>
      </trkpt>
      <trkpt lat="47.236" lon="-1.5633">
        <ele>82</ele>
        <time>2020-12-24T12:52:22.000Z</time>
      </trkpt>
      <trkpt lat="47.2361" lon="-1.5633">
        <ele>82</ele>
        <time>2020-12-24T12:52:24.000Z</time>
      </trkpt>
      <trkpt lat="47.23622" lon="-1.5633">
        <ele>82</ele>
        <time>2020-12-24T12:52:26.000Z</time>
      </trkpt>
      <trkpt lat="47.23633" lon="-1.5633">
        <ele>82</ele>
        <time>2020-12-24T12:52:28.000Z</time>
      </trkpt>
      <trkpt lat="47.23645" lon="-1.56331">
        <ele>82</ele>
        <time>2020-12-24T12:52:30.000Z</time>
      </trkpt>
      <trkpt lat="47.23657" lon="-1.56331">
        <ele>82</ele>
        <time>2020-12-24T12:52:32.000Z</time>
      </trkpt>
      <trkpt lat="47.23669" lon="-1.56331">
        <ele>82</ele>
        <time>2020-12-24T12:52:34.000Z</time>
      </trkpt>
      <trkpt lat="47.23681" lon="-1.56331">
        <ele>82</ele>
        <time>2020-12-24T12:52:36.000Z</time>
      </trkpt>
      <trkpt lat="47.23692" lon="-1.56328">
        <ele>82</ele>
        <time>2020-12-24T12:52:38.000Z</time>
      </trkpt>
      <trkpt lat="47.23703" lon="-1.56323">
        <ele>82</ele>
        <time>2020-12-24T12:52:40.000Z</time>
      </trkpt>
      <trkpt lat="47.23714" lon="-1.56318">
        <ele>81</ele>
        <time>2020-12-24T12:52:42.000Z</time>
      </trkpt>
      <trkpt lat="47.23724" lon="-1.56312">
        <ele>80</ele>
        <time>2020-12-24T12:52:44.000Z</time>
      </trkpt>
      <trkpt lat="47.23734" lon="-1.56305">
        <ele>80</ele>
        <time>2020-12-24T12:52:46.000Z</time>
      </trkpt>
      <trkpt lat="47.23743" lon="-1.56296">
        <ele>80</ele>
        <time>2020-12-24T12:52:48.000Z</time>
      </trkpt>
      <trkpt lat="47.23753" lon="-1.56288">
        <ele>80</ele>
        <time>2020-12-24T12:52:50.000Z</time>
      </trkpt>
      <trkpt lat="47.23762" lon="-1.56279">
        <ele>79</ele>
        <time>2020-12-24T12:52:52.000Z</time>
      </trkpt>
      <trkpt lat="47.23772" lon="-1.56269">
        <ele>79</ele>
        <time>2020-12-24T12:52:54.000Z</time>
      </trkpt>
      <trkpt lat="47.23782" lon="-1.5626">
        <ele>79</ele>
        <time>2020-12-24T12:52:56.000Z</time>
      </trkpt>
      <trkpt lat="47.23791" lon="-1.5625">
        <ele>78</ele>
        <time>2020-12-24T12:52:58.000Z</time>
      </trkpt>
      <trkpt lat="47.23801" lon="-1.5624">
        <ele>78</ele>
        <time>2020-12-24T12:53:00.000Z</time>
      </trkpt>
      <trkpt lat="47.23811" lon="-1.56229">
        <ele>78</ele>
        <time>2020-12-24T12:53:02.000Z</time>
      </trkpt>
      <trkpt lat="47.23822" lon="-1.56218">
        <ele>78</ele>
        <time>2020-12-24T12:53:04.000Z</time>
      </trkpt>
      <trkpt lat="47.23833" lon="-1.56207">
        <ele>78</ele>
        <time>2020-12-24T12:53:06.000Z</time>
      </trkpt>
      <trkpt lat="47.23845" lon="-1.56196">
        <ele>78</ele>
        <time>2020-12-24T12:53:08.000Z</time>
      </trkpt>
      <trkpt lat="47.23857" lon="-1.56185">
        <ele>78</ele>
        <time>2020-12-24T12:53:10.000Z</time>
      </trkpt>
      <trkpt lat="47.23869" lon="-1.56173">
        <ele>77</ele>
        <time>2020-12-24T12:53:12.000Z</time>
      </trkpt>
      <trkpt lat="47.23881" lon="-1.56162">
        <ele>77</ele>
        <time>2020-12-24T12:53:14.000Z</time>
      </trkpt>
      <trkpt lat="47.23894" lon="-1.56149">
        <ele>76</ele>
        <time>2020-12-24T12:53:16.000Z</time>
      </trkpt>
      <trkpt lat="47.23906" lon="-1.56138">
        <ele>76</ele>
        <time>2020-12-24T12:53:18.000Z</time>
      </trkpt>
      <trkpt lat="47.23918" lon="-1.56126">
        <ele>77</ele>
        <time>2020-12-24T12:53:20.000Z</time>
      </trkpt>
      <trkpt lat="47.2393" lon="-1.56115">
        <ele>77</ele>
        <time>2020-12-24T12:53:22.000Z</time>
      </trkpt>
      <trkpt lat="47.23941" lon="-1.56103">
        <ele>77</ele>
        <time>2020-12-24T12:53:24.000Z</time>
      </trkpt>
      <trkpt lat="47.23953" lon="-1.56092">
        <ele>76</ele>
        <time>2020-12-24T12:53:26.000Z</time>
      </trkpt>
      <trkpt lat="47.23963" lon="-1.56077">
        <ele>77</ele>
        <time>2020-12-24T12:53:28.000Z</time>
      </trkpt>
      <trkpt lat="47.23972" lon="-1.5606">
        <ele>75</ele>
        <time>2020-12-24T12:53:30.000Z</time>
      </trkpt>
      <trkpt lat="47.23981" lon="-1.56042">
        <ele>74</ele>
        <time>2020-12-24T12:53:32.000Z</time>
      </trkpt>
      <trkpt lat="47.23988" lon="-1.56025">
        <ele>74</ele>
        <time>2020-12-24T12:53:34.000Z</time>
      </trkpt>
      <trkpt lat="47.23995" lon="-1.56008">
        <ele>74</ele>
        <time>2020-12-24T12:53:36.000Z</time>
      </trkpt>
      <trkpt lat="47.24001" lon="-1.55989">
        <ele>73</ele>
        <time>2020-12-24T12:53:38.000Z</time>
      </trkpt>
      <trkpt lat="47.24007" lon="-1.55972">
        <ele>73</ele>
        <time>2020-12-24T12:53:40.000Z</time>
      </trkpt>
      <trkpt lat="47.24012" lon="-1.55955">
        <ele>73</ele>
        <time>2020-12-24T12:53:42.000Z</time>
      </trkpt>
      <trkpt lat="47.24018" lon="-1.55937">
        <ele>73</ele>
        <time>2020-12-24T12:53:44.000Z</time>
      </trkpt>
      <trkpt lat="47.24023" lon="-1.5592">
        <ele>73</ele>
        <time>2020-12-24T12:53:46.000Z</time>
      </trkpt>
      <trkpt lat="47.24028" lon="-1.55902">
        <ele>73</ele>
        <time>2020-12-24T12:53:48.000Z</time>
      </trkpt>
      <trkpt lat="47.24035" lon="-1.55883">
        <ele>73</ele>
        <time>2020-12-24T12:53:50.000Z</time>
      </trkpt>
      <trkpt lat="47.24041" lon="-1.55864">
        <ele>72</ele>
        <time>2020-12-24T12:53:52.000Z</time>
      </trkpt>
      <trkpt lat="47.24048" lon="-1.55845">
        <ele>72</ele>
        <time>2020-12-24T12:53:54.000Z</time>
      </trkpt>
      <trkpt lat="47.24055" lon="-1.55825">
        <ele>72</ele>
        <time>2020-12-24T12:53:56.000Z</time>
      </trkpt>
      <trkpt lat="47.24062" lon="-1.55806">
        <ele>71</ele>
        <time>2020-12-24T12:53:58.000Z</time>
      </trkpt>
      <trkpt lat="47.24069" lon="-1.55785">
        <ele>70</ele>
        <time>2020-12-24T12:54:00.000Z</time>
      </trkpt>
      <trkpt lat="47.24075" lon="-1.55765">
        <ele>70</ele>
        <time>2020-12-24T12:54:02.000Z</time>
      </trkpt>
      <trkpt lat="47.24082" lon="-1.55745">
        <ele>69</ele>
        <time>2020-12-24T12:54:04.000Z</time>
      </trkpt>
      <trkpt lat="47.24088" lon="-1.55728">
        <ele>69</ele>
        <time>2020-12-24T12:54:06.000Z</time>
      </trkpt>
      <trkpt lat="47.24092" lon="-1.5571">
        <ele>68</ele>
        <time>2020-12-24T12:54:08.000Z</time>
      </trkpt>
      <trkpt lat="47.24093" lon="-1.55691">
        <ele>67</ele>
        <time>2020-12-24T12:54:10.000Z</time>
      </trkpt>
      <trkpt lat="47.24092" lon="-1.55674">
        <ele>67</ele>
        <time>2020-12-24T12:54:12.000Z</time>
      </trkpt>
      <trkpt lat="47.24099" lon="-1.5566">
        <ele>67</ele>
        <time>2020-12-24T12:54:14.000Z</time>
      </trkpt>
      <trkpt lat="47.24112" lon="-1.55659">
        <ele>66</ele>
        <time>2020-12-24T12:54:16.000Z</time>
      </trkpt>
      <trkpt lat="47.24126" lon="-1.55659">
        <ele>65</ele>
        <time>2020-12-24T12:54:18.000Z</time>
      </trkpt>
      <trkpt lat="47.24142" lon="-1.55657">
        <ele>64</ele>
        <time>2020-12-24T12:54:20.000Z</time>
      </trkpt>
      <trkpt lat="47.24157" lon="-1.55654">
        <ele>64</ele>
        <time>2020-12-24T12:54:22.000Z</time>
      </trkpt>
      <trkpt lat="47.24173" lon="-1.55652">
        <ele>63</ele>
        <time>2020-12-24T12:54:24.000Z</time>
      </trkpt>
      <trkpt lat="47.2419" lon="-1.5565">
        <ele>63</ele>
        <time>2020-12-24T12:54:26.000Z</time>
      </trkpt>
      <trkpt lat="47.24206" lon="-1.55649">
        <ele>62</ele>
        <time>2020-12-24T12:54:28.000Z</time>
      </trkpt>
      <trkpt lat="47.24222" lon="-1.55648">
        <ele>62</ele>
        <time>2020-12-24T12:54:30.000Z</time>
      </trkpt>
      <trkpt lat="47.2424" lon="-1.55647">
        <ele>62</ele>
        <time>2020-12-24T12:54:32.000Z</time>
      </trkpt>
      <trkpt lat="47.24257" lon="-1.55645">
        <ele>63</ele>
        <time>2020-12-24T12:54:34.000Z</time>
      </trkpt>
      <trkpt lat="47.24274" lon="-1.55643">
        <ele>64</ele>
        <time>2020-12-24T12:54:36.000Z</time>
      </trkpt>
      <trkpt lat="47.24291" lon="-1.55641">
        <ele>64</ele>
        <time>2020-12-24T12:54:38.000Z</time>
      </trkpt>
      <trkpt lat="47.24306" lon="-1.55639">
        <ele>63</ele>
        <time>2020-12-24T12:54:40.000Z</time>
      </trkpt>
      <trkpt lat="47.24319" lon="-1.55637">
        <ele>62</ele>
        <time>2020-12-24T12:54:42.000Z</time>
      </trkpt>
      <trkpt lat="47.24334" lon="-1.55637">
        <ele>63</ele>
        <time>2020-12-24T12:54:44.000Z</time>
      </trkpt>
      <trkpt lat="47.24348" lon="-1.55636">
        <ele>63</ele>
        <time>2020-12-24T12:54:46.000Z</time>
      </trkpt>
      <trkpt lat="47.24361" lon="-1.55634">
        <ele>63</ele>
        <time>2020-12-24T12:54:48.000Z</time>
      </trkpt>
      <trkpt lat="47.24373" lon="-1.55629">
        <ele>63</ele>
        <time>2020-12-24T12:54:50.000Z</time>
      </trkpt>
      <trkpt lat="47.24389" lon="-1.55623">
        <ele>63</ele>
        <time>2020-12-24T12:54:52.000Z</time>
      </trkpt>
      <trkpt lat="47.24403" lon="-1.55622">
        <ele>63</ele>
        <time>2020-12-24T12:54:54.000Z</time>
      </trkpt>
      <trkpt lat="47.24418" lon="-1.55622">
        <ele>64</ele>
        <time>2020-12-24T12:54:56.000Z</time>
      </trkpt>
      <trkpt lat="47.24431" lon="-1.55621">
        <ele>64</ele>
        <time>2020-12-24T12:54:58.000Z</time>
      </trkpt>
      <trkpt lat="47.24443" lon="-1.55619">
        <ele>64</ele>
        <time>2020-12-24T12:55:00.000Z</time>
      </trkpt>
      <trkpt lat="47.24457" lon="-1.55616">
        <ele>65</ele>
        <time>2020-12-24T12:55:02.000Z</time>
      </trkpt>
      <trkpt lat="47.2447" lon="-1.55613">
        <ele>65</ele>
        <time>2020-12-24T12:55:04.000Z</time>
      </trkpt>
      <trkpt lat="47.24483" lon="-1.55609">
        <ele>65</ele>
        <time>2020-12-24T12:55:06.000Z</time>
      </trkpt>
      <trkpt lat="47.24496" lon="-1.55605">
        <ele>65</ele>
        <time>2020-12-24T12:55:08.000Z</time>
      </trkpt>
      <trkpt lat="47.24508" lon="-1.556">
        <ele>65</ele>
        <time>2020-12-24T12:55:10.000Z</time>
      </trkpt>
      <trkpt lat="47.2452" lon="-1.55595">
        <ele>66</ele>
        <time>2020-12-24T12:55:12.000Z</time>
      </trkpt>
      <trkpt lat="47.24532" lon="-1.55588">
        <ele>65</ele>
        <time>2020-12-24T12:55:14.000Z</time>
      </trkpt>
      <trkpt lat="47.24543" lon="-1.55581">
        <ele>65</ele>
        <time>2020-12-24T12:55:16.000Z</time>
      </trkpt>
      <trkpt lat="47.24553" lon="-1.55571">
        <ele>66</ele>
        <time>2020-12-24T12:55:18.000Z</time>
      </trkpt>
      <trkpt lat="47.24563" lon="-1.55563">
        <ele>65</ele>
        <time>2020-12-24T12:55:20.000Z</time>
      </trkpt>
      <trkpt lat="47.24575" lon="-1.55557">
        <ele>65</ele>
        <time>2020-12-24T12:55:22.000Z</time>
      </trkpt>
      <trkpt lat="47.24586" lon="-1.55552">
        <ele>65</ele>
        <time>2020-12-24T12:55:24.000Z</time>
      </trkpt>
      <trkpt lat="47.24597" lon="-1.55547">
        <ele>65</ele>
        <time>2020-12-24T12:55:26.000Z</time>
      </trkpt>
      <trkpt lat="47.2461" lon="-1.55544">
        <ele>65</ele>
        <time>2020-12-24T12:55:28.000Z</time>
      </trkpt>
      <trkpt lat="47.24624" lon="-1.55542">
        <ele>64</ele>
        <time>2020-12-24T12:55:30.000Z</time>
      </trkpt>
      <trkpt lat="47.24637" lon="-1.5554">
        <ele>64</ele>
        <time>2020-12-24T12:55:32.000Z</time>
      </trkpt>
      <trkpt lat="47.24649" lon="-1.55533">
        <ele>64</ele>
        <time>2020-12-24T12:55:34.000Z</time>
      </trkpt>
      <trkpt lat="47.24662" lon="-1.55531">
        <ele>64</ele>
        <time>2020-12-24T12:55:36.000Z</time>
      </trkpt>
      <trkpt lat="47.24675" lon="-1.55532">
        <ele>64</ele>
        <time>2020-12-24T12:55:38.000Z</time>
      </trkpt>
      <trkpt lat="47.24687" lon="-1.55529">
        <ele>64</ele>
        <time>2020-12-24T12:55:40.000Z</time>
      </trkpt>
      <trkpt lat="47.24699" lon="-1.55527">
        <ele>64</ele>
        <time>2020-12-24T12:55:42.000Z</time>
      </trkpt>
      <trkpt lat="47.2471" lon="-1.55523">
        <ele>64</ele>
        <time>2020-12-24T12:55:44.000Z</time>
      </trkpt>
      <trkpt lat="47.2472" lon="-1.55521">
        <ele>64</ele>
        <time>2020-12-24T12:55:46.000Z</time>
      </trkpt>
      <trkpt lat="47.2473" lon="-1.55517">
        <ele>65</ele>
        <time>2020-12-24T12:55:48.000Z</time>
      </trkpt>
      <trkpt lat="47.24739" lon="-1.55514">
        <ele>65</ele>
        <time>2020-12-24T12:55:50.000Z</time>
      </trkpt>
      <trkpt lat="47.24748" lon="-1.55511">
        <ele>65</ele>
        <time>2020-12-24T12:55:52.000Z</time>
      </trkpt>
      <trkpt lat="47.24758" lon="-1.55507">
        <ele>66</ele>
        <time>2020-12-24T12:55:54.000Z</time>
      </trkpt>
      <trkpt lat="47.24767" lon="-1.55503">
        <ele>67</ele>
        <time>2020-12-24T12:55:56.000Z</time>
      </trkpt>
      <trkpt lat="47.24779" lon="-1.55498">
        <ele>69</ele>
        <time>2020-12-24T12:55:59.000Z</time>
      </trkpt>
      <trkpt lat="47.24793" lon="-1.55492">
        <ele>70</ele>
        <time>2020-12-24T12:56:02.000Z</time>
      </trkpt>
      <trkpt lat="47.24805" lon="-1.55488">
        <ele>71</ele>
        <time>2020-12-24T12:56:05.000Z</time>
      </trkpt>
      <trkpt lat="47.24814" lon="-1.55484">
        <ele>72</ele>
        <time>2020-12-24T12:56:07.000Z</time>
      </trkpt>
      <trkpt lat="47.24823" lon="-1.55479">
        <ele>72</ele>
        <time>2020-12-24T12:56:09.000Z</time>
      </trkpt>
      <trkpt lat="47.24835" lon="-1.55474">
        <ele>73</ele>
        <time>2020-12-24T12:56:12.000Z</time>
      </trkpt>
      <trkpt lat="47.24844" lon="-1.55471">
        <ele>73</ele>
        <time>2020-12-24T12:56:14.000Z</time>
      </trkpt>
      <trkpt lat="47.24856" lon="-1.55467">
        <ele>74</ele>
        <time>2020-12-24T12:56:17.000Z</time>
      </trkpt>
      <trkpt lat="47.24869" lon="-1.55462">
        <ele>76</ele>
        <time>2020-12-24T12:56:20.000Z</time>
      </trkpt>
      <trkpt lat="47.24881" lon="-1.55458">
        <ele>77</ele>
        <time>2020-12-24T12:56:23.000Z</time>
      </trkpt>
      <trkpt lat="47.24893" lon="-1.55454">
        <ele>78</ele>
        <time>2020-12-24T12:56:26.000Z</time>
      </trkpt>
      <trkpt lat="47.24905" lon="-1.55449">
        <ele>79</ele>
        <time>2020-12-24T12:56:29.000Z</time>
      </trkpt>
      <trkpt lat="47.24916" lon="-1.5544">
        <ele>80</ele>
        <time>2020-12-24T12:56:32.000Z</time>
      </trkpt>
      <trkpt lat="47.24925" lon="-1.55433">
        <ele>80</ele>
        <time>2020-12-24T12:56:34.000Z</time>
      </trkpt>
      <trkpt lat="47.24935" lon="-1.55431">
        <ele>80</ele>
        <time>2020-12-24T12:56:36.000Z</time>
      </trkpt>
      <trkpt lat="47.24945" lon="-1.55431">
        <ele>81</ele>
        <time>2020-12-24T12:56:38.000Z</time>
      </trkpt>
      <trkpt lat="47.24955" lon="-1.55428">
        <ele>80</ele>
        <time>2020-12-24T12:56:40.000Z</time>
      </trkpt>
      <trkpt lat="47.24963" lon="-1.55424">
        <ele>80</ele>
        <time>2020-12-24T12:56:42.000Z</time>
      </trkpt>
      <trkpt lat="47.24973" lon="-1.5542">
        <ele>80</ele>
        <time>2020-12-24T12:56:44.000Z</time>
      </trkpt>
      <trkpt lat="47.24982" lon="-1.55416">
        <ele>80</ele>
        <time>2020-12-24T12:56:46.000Z</time>
      </trkpt>
      <trkpt lat="47.24992" lon="-1.55413">
        <ele>80</ele>
        <time>2020-12-24T12:56:48.000Z</time>
      </trkpt>
      <trkpt lat="47.25002" lon="-1.5541">
        <ele>81</ele>
        <time>2020-12-24T12:56:50.000Z</time>
      </trkpt>
      <trkpt lat="47.25012" lon="-1.55405">
        <ele>80</ele>
        <time>2020-12-24T12:56:52.000Z</time>
      </trkpt>
      <trkpt lat="47.25023" lon="-1.554">
        <ele>81</ele>
        <time>2020-12-24T12:56:54.000Z</time>
      </trkpt>
      <trkpt lat="47.25034" lon="-1.55397">
        <ele>80</ele>
        <time>2020-12-24T12:56:56.000Z</time>
      </trkpt>
      <trkpt lat="47.25046" lon="-1.55393">
        <ele>80</ele>
        <time>2020-12-24T12:56:58.000Z</time>
      </trkpt>
      <trkpt lat="47.25058" lon="-1.55388">
        <ele>79</ele>
        <time>2020-12-24T12:57:00.000Z</time>
      </trkpt>
      <trkpt lat="47.25071" lon="-1.55384">
        <ele>78</ele>
        <time>2020-12-24T12:57:02.000Z</time>
      </trkpt>
      <trkpt lat="47.25084" lon="-1.55378">
        <ele>76</ele>
        <time>2020-12-24T12:57:04.000Z</time>
      </trkpt>
      <trkpt lat="47.25098" lon="-1.55372">
        <ele>75</ele>
        <time>2020-12-24T12:57:06.000Z</time>
      </trkpt>
      <trkpt lat="47.25112" lon="-1.55368">
        <ele>74</ele>
        <time>2020-12-24T12:57:08.000Z</time>
      </trkpt>
      <trkpt lat="47.25126" lon="-1.55362">
        <ele>74</ele>
        <time>2020-12-24T12:57:10.000Z</time>
      </trkpt>
      <trkpt lat="47.25141" lon="-1.55357">
        <ele>72</ele>
        <time>2020-12-24T12:57:12.000Z</time>
      </trkpt>
      <trkpt lat="47.25155" lon="-1.55352">
        <ele>72</ele>
        <time>2020-12-24T12:57:14.000Z</time>
      </trkpt>
      <trkpt lat="47.2517" lon="-1.55345">
        <ele>71</ele>
        <time>2020-12-24T12:57:16.000Z</time>
      </trkpt>
      <trkpt lat="47.25185" lon="-1.5534">
        <ele>69</ele>
        <time>2020-12-24T12:57:18.000Z</time>
      </trkpt>
      <trkpt lat="47.25199" lon="-1.55334">
        <ele>68</ele>
        <time>2020-12-24T12:57:20.000Z</time>
      </trkpt>
      <trkpt lat="47.25213" lon="-1.5533">
        <ele>68</ele>
        <time>2020-12-24T12:57:22.000Z</time>
      </trkpt>
      <trkpt lat="47.25224" lon="-1.55324">
        <ele>68</ele>
        <time>2020-12-24T12:57:25.000Z</time>
      </trkpt>
      <trkpt lat="47.25232" lon="-1.55317">
        <ele>67</ele>
        <time>2020-12-24T12:57:27.000Z</time>
      </trkpt>
      <trkpt lat="47.25244" lon="-1.55313">
        <ele>67</ele>
        <time>2020-12-24T12:57:29.000Z</time>
      </trkpt>
      <trkpt lat="47.25256" lon="-1.55314">
        <ele>67</ele>
        <time>2020-12-24T12:57:31.000Z</time>
      </trkpt>
      <trkpt lat="47.25269" lon="-1.55308">
        <ele>68</ele>
        <time>2020-12-24T12:57:33.000Z</time>
      </trkpt>
      <trkpt lat="47.25282" lon="-1.55302">
        <ele>68</ele>
        <time>2020-12-24T12:57:35.000Z</time>
      </trkpt>
      <trkpt lat="47.25295" lon="-1.55296">
        <ele>69</ele>
        <time>2020-12-24T12:57:37.000Z</time>
      </trkpt>
      <trkpt lat="47.25308" lon="-1.5529">
        <ele>70</ele>
        <time>2020-12-24T12:57:39.000Z</time>
      </trkpt>
      <trkpt lat="47.2532" lon="-1.55285">
        <ele>71</ele>
        <time>2020-12-24T12:57:41.000Z</time>
      </trkpt>
      <trkpt lat="47.25333" lon="-1.55281">
        <ele>71</ele>
        <time>2020-12-24T12:57:43.000Z</time>
      </trkpt>
      <trkpt lat="47.25344" lon="-1.55278">
        <ele>70</ele>
        <time>2020-12-24T12:57:45.000Z</time>
      </trkpt>
      <trkpt lat="47.25356" lon="-1.55273">
        <ele>70</ele>
        <time>2020-12-24T12:57:47.000Z</time>
      </trkpt>
      <trkpt lat="47.25368" lon="-1.55268">
        <ele>71</ele>
        <time>2020-12-24T12:57:49.000Z</time>
      </trkpt>
      <trkpt lat="47.2538" lon="-1.55264">
        <ele>71</ele>
        <time>2020-12-24T12:57:51.000Z</time>
      </trkpt>
      <trkpt lat="47.25393" lon="-1.5526">
        <ele>71</ele>
        <time>2020-12-24T12:57:53.000Z</time>
      </trkpt>
      <trkpt lat="47.25405" lon="-1.55256">
        <ele>70</ele>
        <time>2020-12-24T12:57:55.000Z</time>
      </trkpt>
      <trkpt lat="47.25417" lon="-1.55253">
        <ele>70</ele>
        <time>2020-12-24T12:57:57.000Z</time>
      </trkpt>
      <trkpt lat="47.2543" lon="-1.55252">
        <ele>70</ele>
        <time>2020-12-24T12:57:59.000Z</time>
      </trkpt>
      <trkpt lat="47.25442" lon="-1.55253">
        <ele>70</ele>
        <time>2020-12-24T12:58:01.000Z</time>
      </trkpt>
      <trkpt lat="47.25455" lon="-1.55253">
        <ele>70</ele>
        <time>2020-12-24T12:58:03.000Z</time>
      </trkpt>
      <trkpt lat="47.25468" lon="-1.55254">
        <ele>70</ele>
        <time>2020-12-24T12:58:05.000Z</time>
      </trkpt>
      <trkpt lat="47.2548" lon="-1.55257">
        <ele>70</ele>
        <time>2020-12-24T12:58:07.000Z</time>
      </trkpt>
      <trkpt lat="47.25493" lon="-1.5526">
        <ele>70</ele>
        <time>2020-12-24T12:58:09.000Z</time>
      </trkpt>
      <trkpt lat="47.25507" lon="-1.55265">
        <ele>70</ele>
        <time>2020-12-24T12:58:11.000Z</time>
      </trkpt>
      <trkpt lat="47.2552" lon="-1.55271">
        <ele>69</ele>
        <time>2020-12-24T12:58:13.000Z</time>
      </trkpt>
      <trkpt lat="47.25534" lon="-1.55279">
        <ele>69</ele>
        <time>2020-12-24T12:58:15.000Z</time>
      </trkpt>
      <trkpt lat="47.25547" lon="-1.55289">
        <ele>69</ele>
        <time>2020-12-24T12:58:17.000Z</time>
      </trkpt>
      <trkpt lat="47.25568" lon="-1.55306">
        <ele>69</ele>
        <time>2020-12-24T12:58:20.000Z</time>
      </trkpt>
      <trkpt lat="47.2558" lon="-1.5532">
        <ele>68</ele>
        <time>2020-12-24T12:58:22.000Z</time>
      </trkpt>
      <trkpt lat="47.25593" lon="-1.55334">
        <ele>68</ele>
        <time>2020-12-24T12:58:24.000Z</time>
      </trkpt>
      <trkpt lat="47.25604" lon="-1.55349">
        <ele>68</ele>
        <time>2020-12-24T12:58:26.000Z</time>
      </trkpt>
      <trkpt lat="47.25615" lon="-1.55367">
        <ele>66</ele>
        <time>2020-12-24T12:58:28.000Z</time>
      </trkpt>
      <trkpt lat="47.2563" lon="-1.55396">
        <ele>66</ele>
        <time>2020-12-24T12:58:31.000Z</time>
      </trkpt>
      <trkpt lat="47.25639" lon="-1.55416">
        <ele>66</ele>
        <time>2020-12-24T12:58:33.000Z</time>
      </trkpt>
      <trkpt lat="47.25646" lon="-1.55436">
        <ele>65</ele>
        <time>2020-12-24T12:58:35.000Z</time>
      </trkpt>
      <trkpt lat="47.25653" lon="-1.55455">
        <ele>65</ele>
        <time>2020-12-24T12:58:37.000Z</time>
      </trkpt>
      <trkpt lat="47.25659" lon="-1.55473">
        <ele>65</ele>
        <time>2020-12-24T12:58:39.000Z</time>
      </trkpt>
      <trkpt lat="47.25665" lon="-1.55491">
        <ele>65</ele>
        <time>2020-12-24T12:58:41.000Z</time>
      </trkpt>
      <trkpt lat="47.25672" lon="-1.5551">
        <ele>65</ele>
        <time>2020-12-24T12:58:43.000Z</time>
      </trkpt>
      <trkpt lat="47.25679" lon="-1.55529">
        <ele>65</ele>
        <time>2020-12-24T12:58:45.000Z</time>
      </trkpt>
      <trkpt lat="47.25685" lon="-1.55547">
        <ele>65</ele>
        <time>2020-12-24T12:58:47.000Z</time>
      </trkpt>
      <trkpt lat="47.25692" lon="-1.55565">
        <ele>65</ele>
        <time>2020-12-24T12:58:49.000Z</time>
      </trkpt>
      <trkpt lat="47.25705" lon="-1.5559">
        <ele>65</ele>
        <time>2020-12-24T12:58:52.000Z</time>
      </trkpt>
      <trkpt lat="47.25713" lon="-1.55606">
        <ele>65</ele>
        <time>2020-12-24T12:58:54.000Z</time>
      </trkpt>
      <trkpt lat="47.25723" lon="-1.5562">
        <ele>65</ele>
        <time>2020-12-24T12:58:56.000Z</time>
      </trkpt>
      <trkpt lat="47.25733" lon="-1.55634">
        <ele>65</ele>
        <time>2020-12-24T12:58:58.000Z</time>
      </trkpt>
      <trkpt lat="47.25748" lon="-1.55652">
        <ele>65</ele>
        <time>2020-12-24T12:59:01.000Z</time>
      </trkpt>
      <trkpt lat="47.2576" lon="-1.55662">
        <ele>65</ele>
        <time>2020-12-24T12:59:03.000Z</time>
      </trkpt>
      <trkpt lat="47.25772" lon="-1.55672">
        <ele>65</ele>
        <time>2020-12-24T12:59:05.000Z</time>
      </trkpt>
      <trkpt lat="47.25785" lon="-1.55681">
        <ele>64</ele>
        <time>2020-12-24T12:59:07.000Z</time>
      </trkpt>
      <trkpt lat="47.25803" lon="-1.55693">
        <ele>64</ele>
        <time>2020-12-24T12:59:10.000Z</time>
      </trkpt>
      <trkpt lat="47.25817" lon="-1.557">
        <ele>64</ele>
        <time>2020-12-24T12:59:12.000Z</time>
      </trkpt>
      <trkpt lat="47.25831" lon="-1.55705">
        <ele>64</ele>
        <time>2020-12-24T12:59:14.000Z</time>
      </trkpt>
      <trkpt lat="47.25845" lon="-1.55709">
        <ele>63</ele>
        <time>2020-12-24T12:59:16.000Z</time>
      </trkpt>
      <trkpt lat="47.25859" lon="-1.55711">
        <ele>62</ele>
        <time>2020-12-24T12:59:18.000Z</time>
      </trkpt>
      <trkpt lat="47.25874" lon="-1.55713">
        <ele>61</ele>
        <time>2020-12-24T12:59:20.000Z</time>
      </trkpt>
      <trkpt lat="47.2589" lon="-1.55715">
        <ele>60</ele>
        <time>2020-12-24T12:59:22.000Z</time>
      </trkpt>
      <trkpt lat="47.25905" lon="-1.55718">
        <ele>60</ele>
        <time>2020-12-24T12:59:24.000Z</time>
      </trkpt>
      <trkpt lat="47.25918" lon="-1.5572">
        <ele>60</ele>
        <time>2020-12-24T12:59:26.000Z</time>
      </trkpt>
      <trkpt lat="47.25928" lon="-1.55721">
        <ele>60</ele>
        <time>2020-12-24T12:59:28.000Z</time>
      </trkpt>
      <trkpt lat="47.2594" lon="-1.55722">
        <ele>61</ele>
        <time>2020-12-24T12:59:31.000Z</time>
      </trkpt>
      <trkpt lat="47.25947" lon="-1.5571">
        <ele>61</ele>
        <time>2020-12-24T12:59:34.000Z</time>
      </trkpt>
      <trkpt lat="47.25945" lon="-1.55694">
        <ele>61</ele>
        <time>2020-12-24T12:59:37.000Z</time>
      </trkpt>
      <trkpt lat="47.25949" lon="-1.55673">
        <ele>61</ele>
        <time>2020-12-24T12:59:40.000Z</time>
      </trkpt>
      <trkpt lat="47.25954" lon="-1.55657">
        <ele>60</ele>
        <time>2020-12-24T12:59:42.000Z</time>
      </trkpt>
      <trkpt lat="47.25961" lon="-1.55642">
        <ele>60</ele>
        <time>2020-12-24T12:59:44.000Z</time>
      </trkpt>
      <trkpt lat="47.2597" lon="-1.55629">
        <ele>60</ele>
        <time>2020-12-24T12:59:46.000Z</time>
      </trkpt>
      <trkpt lat="47.25979" lon="-1.5562">
        <ele>60</ele>
        <time>2020-12-24T12:59:48.000Z</time>
      </trkpt>
      <trkpt lat="47.25986" lon="-1.55604">
        <ele>60</ele>
        <time>2020-12-24T12:59:52.000Z</time>
      </trkpt>
      <trkpt lat="47.25989" lon="-1.55587">
        <ele>60</ele>
        <time>2020-12-24T12:59:56.000Z</time>
      </trkpt>
      <trkpt lat="47.25993" lon="-1.55572">
        <ele>59</ele>
        <time>2020-12-24T12:59:58.000Z</time>
      </trkpt>
      <trkpt lat="47.25998" lon="-1.55556">
        <ele>59</ele>
        <time>2020-12-24T13:00:00.000Z</time>
      </trkpt>
      <trkpt lat="47.26003" lon="-1.5554">
        <ele>59</ele>
        <time>2020-12-24T13:00:02.000Z</time>
      </trkpt>
      <trkpt lat="47.26009" lon="-1.55523">
        <ele>59</ele>
        <time>2020-12-24T13:00:04.000Z</time>
      </trkpt>
      <trkpt lat="47.26015" lon="-1.55506">
        <ele>58</ele>
        <time>2020-12-24T13:00:06.000Z</time>
      </trkpt>
      <trkpt lat="47.26022" lon="-1.55482">
        <ele>57</ele>
        <time>2020-12-24T13:00:09.000Z</time>
      </trkpt>
      <trkpt lat="47.26028" lon="-1.55467">
        <ele>56</ele>
        <time>2020-12-24T13:00:11.000Z</time>
      </trkpt>
      <trkpt lat="47.26031" lon="-1.55451">
        <ele>55</ele>
        <time>2020-12-24T13:00:15.000Z</time>
      </trkpt>
      <trkpt lat="47.26035" lon="-1.55437">
        <ele>55</ele>
        <time>2020-12-24T13:00:21.000Z</time>
      </trkpt>
      <trkpt lat="47.26039" lon="-1.55425">
        <ele>55</ele>
        <time>2020-12-24T13:00:24.000Z</time>
      </trkpt>
      <trkpt lat="47.26043" lon="-1.55412">
        <ele>56</ele>
        <time>2020-12-24T13:00:26.000Z</time>
      </trkpt>
      <trkpt lat="47.26048" lon="-1.55398">
        <ele>56</ele>
        <time>2020-12-24T13:00:28.000Z</time>
      </trkpt>
      <trkpt lat="47.26053" lon="-1.55383">
        <ele>56</ele>
        <time>2020-12-24T13:00:30.000Z</time>
      </trkpt>
      <trkpt lat="47.26061" lon="-1.55363">
        <ele>57</ele>
        <time>2020-12-24T13:00:33.000Z</time>
      </trkpt>
      <trkpt lat="47.26066" lon="-1.55348">
        <ele>57</ele>
        <time>2020-12-24T13:00:35.000Z</time>
      </trkpt>
      <trkpt lat="47.26071" lon="-1.55334">
        <ele>57</ele>
        <time>2020-12-24T13:00:37.000Z</time>
      </trkpt>
      <trkpt lat="47.26076" lon="-1.55319">
        <ele>58</ele>
        <time>2020-12-24T13:00:39.000Z</time>
      </trkpt>
      <trkpt lat="47.2608" lon="-1.55305">
        <ele>58</ele>
        <time>2020-12-24T13:00:41.000Z</time>
      </trkpt>
      <trkpt lat="47.26084" lon="-1.55292">
        <ele>57</ele>
        <time>2020-12-24T13:00:43.000Z</time>
      </trkpt>
      <trkpt lat="47.26091" lon="-1.5528">
        <ele>57</ele>
        <time>2020-12-24T13:00:45.000Z</time>
      </trkpt>
      <trkpt lat="47.261" lon="-1.55278">
        <ele>57</ele>
        <time>2020-12-24T13:00:47.000Z</time>
      </trkpt>
      <trkpt lat="47.26108" lon="-1.55289">
        <ele>57</ele>
        <time>2020-12-24T13:00:49.000Z</time>
      </trkpt>
      <trkpt lat="47.26116" lon="-1.55279">
        <ele>57</ele>
        <time>2020-12-24T13:00:52.000Z</time>
      </trkpt>
      <trkpt lat="47.26119" lon="-1.55264">
        <ele>56</ele>
        <time>2020-12-24T13:00:54.000Z</time>
      </trkpt>
      <trkpt lat="47.26123" lon="-1.55247">
        <ele>56</ele>
        <time>2020-12-24T13:00:56.000Z</time>
      </trkpt>
      <trkpt lat="47.26128" lon="-1.5523">
        <ele>56</ele>
        <time>2020-12-24T13:00:58.000Z</time>
      </trkpt>
      <trkpt lat="47.26134" lon="-1.55212">
        <ele>55</ele>
        <time>2020-12-24T13:01:00.000Z</time>
      </trkpt>
      <trkpt lat="47.26139" lon="-1.55195">
        <ele>55</ele>
        <time>2020-12-24T13:01:02.000Z</time>
      </trkpt>
      <trkpt lat="47.26145" lon="-1.55176">
        <ele>55</ele>
        <time>2020-12-24T13:01:04.000Z</time>
      </trkpt>
      <trkpt lat="47.2615" lon="-1.55159">
        <ele>55</ele>
        <time>2020-12-24T13:01:06.000Z</time>
      </trkpt>
      <trkpt lat="47.26157" lon="-1.55142">
        <ele>56</ele>
        <time>2020-12-24T13:01:08.000Z</time>
      </trkpt>
      <trkpt lat="47.26164" lon="-1.55125">
        <ele>56</ele>
        <time>2020-12-24T13:01:10.000Z</time>
      </trkpt>
      <trkpt lat="47.2617" lon="-1.55108">
        <ele>56</ele>
        <time>2020-12-24T13:01:12.000Z</time>
      </trkpt>
      <trkpt lat="47.26177" lon="-1.55092">
        <ele>55</ele>
        <time>2020-12-24T13:01:14.000Z</time>
      </trkpt>
      <trkpt lat="47.26184" lon="-1.55076">
        <ele>55</ele>
        <time>2020-12-24T13:01:16.000Z</time>
      </trkpt>
      <trkpt lat="47.26192" lon="-1.55061">
        <ele>55</ele>
        <time>2020-12-24T13:01:18.000Z</time>
      </trkpt>
      <trkpt lat="47.262" lon="-1.55046">
        <ele>55</ele>
        <time>2020-12-24T13:01:20.000Z</time>
      </trkpt>
      <trkpt lat="47.26207" lon="-1.55029">
        <ele>56</ele>
        <time>2020-12-24T13:01:22.000Z</time>
      </trkpt>
      <trkpt lat="47.26216" lon="-1.55013">
        <ele>56</ele>
        <time>2020-12-24T13:01:24.000Z</time>
      </trkpt>
      <trkpt lat="47.26224" lon="-1.54997">
        <ele>56</ele>
        <time>2020-12-24T13:01:26.000Z</time>
      </trkpt>
      <trkpt lat="47.26233" lon="-1.54981">
        <ele>56</ele>
        <time>2020-12-24T13:01:28.000Z</time>
      </trkpt>
      <trkpt lat="47.26242" lon="-1.54966">
        <ele>57</ele>
        <time>2020-12-24T13:01:30.000Z</time>
      </trkpt>
      <trkpt lat="47.26251" lon="-1.54951">
        <ele>57</ele>
        <time>2020-12-24T13:01:32.000Z</time>
      </trkpt>
      <trkpt lat="47.26259" lon="-1.54937">
        <ele>57</ele>
        <time>2020-12-24T13:01:34.000Z</time>
      </trkpt>
      <trkpt lat="47.26268" lon="-1.54924">
        <ele>58</ele>
        <time>2020-12-24T13:01:36.000Z</time>
      </trkpt>
      <trkpt lat="47.26277" lon="-1.54911">
        <ele>58</ele>
        <time>2020-12-24T13:01:38.000Z</time>
      </trkpt>
      <trkpt lat="47.26286" lon="-1.549">
        <ele>58</ele>
        <time>2020-12-24T13:01:40.000Z</time>
      </trkpt>
      <trkpt lat="47.26296" lon="-1.5489">
        <ele>58</ele>
        <time>2020-12-24T13:01:42.000Z</time>
      </trkpt>
      <trkpt lat="47.26306" lon="-1.54879">
        <ele>59</ele>
        <time>2020-12-24T13:01:44.000Z</time>
      </trkpt>
      <trkpt lat="47.26316" lon="-1.54871">
        <ele>58</ele>
        <time>2020-12-24T13:01:46.000Z</time>
      </trkpt>
      <trkpt lat="47.26326" lon="-1.54867">
        <ele>59</ele>
        <time>2020-12-24T13:01:48.000Z</time>
      </trkpt>
      <trkpt lat="47.26335" lon="-1.54866">
        <ele>59</ele>
        <time>2020-12-24T13:01:50.000Z</time>
      </trkpt>
      <trkpt lat="47.26346" lon="-1.5486">
        <ele>59</ele>
        <time>2020-12-24T13:01:53.000Z</time>
      </trkpt>
      <trkpt lat="47.2635" lon="-1.54846">
        <ele>59</ele>
        <time>2020-12-24T13:01:55.000Z</time>
      </trkpt>
      <trkpt lat="47.26354" lon="-1.54831">
        <ele>59</ele>
        <time>2020-12-24T13:01:57.000Z</time>
      </trkpt>
      <trkpt lat="47.2636" lon="-1.54816">
        <ele>60</ele>
        <time>2020-12-24T13:01:59.000Z</time>
      </trkpt>
      <trkpt lat="47.26368" lon="-1.54805">
        <ele>60</ele>
        <time>2020-12-24T13:02:01.000Z</time>
      </trkpt>
      <trkpt lat="47.26376" lon="-1.54796">
        <ele>61</ele>
        <time>2020-12-24T13:02:03.000Z</time>
      </trkpt>
      <trkpt lat="47.26384" lon="-1.54786">
        <ele>61</ele>
        <time>2020-12-24T13:02:05.000Z</time>
      </trkpt>
      <trkpt lat="47.26392" lon="-1.54777">
        <ele>62</ele>
        <time>2020-12-24T13:02:07.000Z</time>
      </trkpt>
      <trkpt lat="47.264" lon="-1.54768">
        <ele>62</ele>
        <time>2020-12-24T13:02:09.000Z</time>
      </trkpt>
      <trkpt lat="47.26407" lon="-1.54758">
        <ele>61</ele>
        <time>2020-12-24T13:02:11.000Z</time>
      </trkpt>
      <trkpt lat="47.26415" lon="-1.54749">
        <ele>62</ele>
        <time>2020-12-24T13:02:13.000Z</time>
      </trkpt>
      <trkpt lat="47.26423" lon="-1.5474">
        <ele>62</ele>
        <time>2020-12-24T13:02:15.000Z</time>
      </trkpt>
      <trkpt lat="47.26431" lon="-1.54732">
        <ele>63</ele>
        <time>2020-12-24T13:02:17.000Z</time>
      </trkpt>
      <trkpt lat="47.26438" lon="-1.54724">
        <ele>64</ele>
        <time>2020-12-24T13:02:19.000Z</time>
      </trkpt>
      <trkpt lat="47.26446" lon="-1.54717">
        <ele>65</ele>
        <time>2020-12-24T13:02:21.000Z</time>
      </trkpt>
      <trkpt lat="47.26455" lon="-1.5471">
        <ele>65</ele>
        <time>2020-12-24T13:02:23.000Z</time>
      </trkpt>
      <trkpt lat="47.26463" lon="-1.54703">
        <ele>66</ele>
        <time>2020-12-24T13:02:25.000Z</time>
      </trkpt>
      <trkpt lat="47.26472" lon="-1.54697">
        <ele>67</ele>
        <time>2020-12-24T13:02:27.000Z</time>
      </trkpt>
      <trkpt lat="47.2648" lon="-1.54691">
        <ele>67</ele>
        <time>2020-12-24T13:02:29.000Z</time>
      </trkpt>
      <trkpt lat="47.26488" lon="-1.54686">
        <ele>67</ele>
        <time>2020-12-24T13:02:31.000Z</time>
      </trkpt>
      <trkpt lat="47.26497" lon="-1.54681">
        <ele>68</ele>
        <time>2020-12-24T13:02:33.000Z</time>
      </trkpt>
      <trkpt lat="47.26506" lon="-1.54676">
        <ele>68</ele>
        <time>2020-12-24T13:02:35.000Z</time>
      </trkpt>
      <trkpt lat="47.26518" lon="-1.54669">
        <ele>69</ele>
        <time>2020-12-24T13:02:38.000Z</time>
      </trkpt>
      <trkpt lat="47.26531" lon="-1.54662">
        <ele>69</ele>
        <time>2020-12-24T13:02:41.000Z</time>
      </trkpt>
      <trkpt lat="47.26543" lon="-1.54655">
        <ele>70</ele>
        <time>2020-12-24T13:02:44.000Z</time>
      </trkpt>
      <trkpt lat="47.26556" lon="-1.54649">
        <ele>71</ele>
        <time>2020-12-24T13:02:47.000Z</time>
      </trkpt>
      <trkpt lat="47.26569" lon="-1.54643">
        <ele>71</ele>
        <time>2020-12-24T13:02:50.000Z</time>
      </trkpt>
      <trkpt lat="47.26578" lon="-1.54639">
        <ele>71</ele>
        <time>2020-12-24T13:02:52.000Z</time>
      </trkpt>
      <trkpt lat="47.26591" lon="-1.54634">
        <ele>72</ele>
        <time>2020-12-24T13:02:55.000Z</time>
      </trkpt>
      <trkpt lat="47.26604" lon="-1.54629">
        <ele>72</ele>
        <time>2020-12-24T13:02:58.000Z</time>
      </trkpt>
      <trkpt lat="47.26613" lon="-1.54626">
        <ele>73</ele>
        <time>2020-12-24T13:03:00.000Z</time>
      </trkpt>
      <trkpt lat="47.26626" lon="-1.54621">
        <ele>73</ele>
        <time>2020-12-24T13:03:03.000Z</time>
      </trkpt>
      <trkpt lat="47.26635" lon="-1.54619">
        <ele>74</ele>
        <time>2020-12-24T13:03:05.000Z</time>
      </trkpt>
      <trkpt lat="47.26644" lon="-1.54616">
        <ele>74</ele>
        <time>2020-12-24T13:03:07.000Z</time>
      </trkpt>
      <trkpt lat="47.26657" lon="-1.54612">
        <ele>75</ele>
        <time>2020-12-24T13:03:10.000Z</time>
      </trkpt>
      <trkpt lat="47.26666" lon="-1.5461">
        <ele>75</ele>
        <time>2020-12-24T13:03:12.000Z</time>
      </trkpt>
      <trkpt lat="47.26679" lon="-1.54608">
        <ele>76</ele>
        <time>2020-12-24T13:03:15.000Z</time>
      </trkpt>
      <trkpt lat="47.26688" lon="-1.54606">
        <ele>76</ele>
        <time>2020-12-24T13:03:17.000Z</time>
      </trkpt>
      <trkpt lat="47.26698" lon="-1.54605">
        <ele>77</ele>
        <time>2020-12-24T13:03:19.000Z</time>
      </trkpt>
      <trkpt lat="47.26707" lon="-1.54604">
        <ele>77</ele>
        <time>2020-12-24T13:03:21.000Z</time>
      </trkpt>
      <trkpt lat="47.26716" lon="-1.54602">
        <ele>77</ele>
        <time>2020-12-24T13:03:23.000Z</time>
      </trkpt>
      <trkpt lat="47.26726" lon="-1.54602">
        <ele>78</ele>
        <time>2020-12-24T13:03:25.000Z</time>
      </trkpt>
      <trkpt lat="47.26735" lon="-1.54601">
        <ele>77</ele>
        <time>2020-12-24T13:03:27.000Z</time>
      </trkpt>
      <trkpt lat="47.26745" lon="-1.546">
        <ele>77</ele>
        <time>2020-12-24T13:03:29.000Z</time>
      </trkpt>
      <trkpt lat="47.26755" lon="-1.54599">
        <ele>77</ele>
        <time>2020-12-24T13:03:31.000Z</time>
      </trkpt>
      <trkpt lat="47.26765" lon="-1.546">
        <ele>77</ele>
        <time>2020-12-24T13:03:33.000Z</time>
      </trkpt>
      <trkpt lat="47.26775" lon="-1.546">
        <ele>78</ele>
        <time>2020-12-24T13:03:35.000Z</time>
      </trkpt>
      <trkpt lat="47.26784" lon="-1.546">
        <ele>78</ele>
        <time>2020-12-24T13:03:37.000Z</time>
      </trkpt>
      <trkpt lat="47.26794" lon="-1.54601">
        <ele>78</ele>
        <time>2020-12-24T13:03:39.000Z</time>
      </trkpt>
      <trkpt lat="47.26805" lon="-1.54601">
        <ele>79</ele>
        <time>2020-12-24T13:03:41.000Z</time>
      </trkpt>
      <trkpt lat="47.26815" lon="-1.54601">
        <ele>79</ele>
        <time>2020-12-24T13:03:43.000Z</time>
      </trkpt>
      <trkpt lat="47.26825" lon="-1.54602">
        <ele>80</ele>
        <time>2020-12-24T13:03:45.000Z</time>
      </trkpt>
      <trkpt lat="47.26835" lon="-1.54602">
        <ele>80</ele>
        <time>2020-12-24T13:03:47.000Z</time>
      </trkpt>
      <trkpt lat="47.26845" lon="-1.54603">
        <ele>80</ele>
        <time>2020-12-24T13:03:49.000Z</time>
      </trkpt>
      <trkpt lat="47.26855" lon="-1.54606">
        <ele>80</ele>
        <time>2020-12-24T13:03:51.000Z</time>
      </trkpt>
      <trkpt lat="47.26865" lon="-1.54611">
        <ele>80</ele>
        <time>2020-12-24T13:03:53.000Z</time>
      </trkpt>
      <trkpt lat="47.26875" lon="-1.54617">
        <ele>80</ele>
        <time>2020-12-24T13:03:55.000Z</time>
      </trkpt>
      <trkpt lat="47.26885" lon="-1.54622">
        <ele>80</ele>
        <time>2020-12-24T13:03:57.000Z</time>
      </trkpt>
      <trkpt lat="47.26896" lon="-1.54626">
        <ele>81</ele>
        <time>2020-12-24T13:03:59.000Z</time>
      </trkpt>
      <trkpt lat="47.26907" lon="-1.54629">
        <ele>81</ele>
        <time>2020-12-24T13:04:01.000Z</time>
      </trkpt>
      <trkpt lat="47.26918" lon="-1.54629">
        <ele>82</ele>
        <time>2020-12-24T13:04:03.000Z</time>
      </trkpt>
      <trkpt lat="47.2693" lon="-1.54627">
        <ele>83</ele>
        <time>2020-12-24T13:04:05.000Z</time>
      </trkpt>
      <trkpt lat="47.26942" lon="-1.54625">
        <ele>84</ele>
        <time>2020-12-24T13:04:07.000Z</time>
      </trkpt>
      <trkpt lat="47.26955" lon="-1.54623">
        <ele>85</ele>
        <time>2020-12-24T13:04:09.000Z</time>
      </trkpt>
      <trkpt lat="47.26968" lon="-1.54621">
        <ele>85</ele>
        <time>2020-12-24T13:04:11.000Z</time>
      </trkpt>
      <trkpt lat="47.26981" lon="-1.54619">
        <ele>84</ele>
        <time>2020-12-24T13:04:13.000Z</time>
      </trkpt>
      <trkpt lat="47.26994" lon="-1.54618">
        <ele>84</ele>
        <time>2020-12-24T13:04:15.000Z</time>
      </trkpt>
      <trkpt lat="47.27007" lon="-1.54616">
        <ele>84</ele>
        <time>2020-12-24T13:04:17.000Z</time>
      </trkpt>
      <trkpt lat="47.27021" lon="-1.54616">
        <ele>83</ele>
        <time>2020-12-24T13:04:19.000Z</time>
      </trkpt>
      <trkpt lat="47.27035" lon="-1.54618">
        <ele>82</ele>
        <time>2020-12-24T13:04:21.000Z</time>
      </trkpt>
      <trkpt lat="47.27048" lon="-1.54622">
        <ele>81</ele>
        <time>2020-12-24T13:04:23.000Z</time>
      </trkpt>
      <trkpt lat="47.27061" lon="-1.54625">
        <ele>81</ele>
        <time>2020-12-24T13:04:25.000Z</time>
      </trkpt>
      <trkpt lat="47.27075" lon="-1.54628">
        <ele>81</ele>
        <time>2020-12-24T13:04:27.000Z</time>
      </trkpt>
      <trkpt lat="47.27088" lon="-1.54631">
        <ele>81</ele>
        <time>2020-12-24T13:04:29.000Z</time>
      </trkpt>
      <trkpt lat="47.271" lon="-1.54635">
        <ele>81</ele>
        <time>2020-12-24T13:04:31.000Z</time>
      </trkpt>
      <trkpt lat="47.27113" lon="-1.54639">
        <ele>81</ele>
        <time>2020-12-24T13:04:33.000Z</time>
      </trkpt>
      <trkpt lat="47.27125" lon="-1.54643">
        <ele>81</ele>
        <time>2020-12-24T13:04:35.000Z</time>
      </trkpt>
      <trkpt lat="47.27138" lon="-1.54647">
        <ele>81</ele>
        <time>2020-12-24T13:04:37.000Z</time>
      </trkpt>
      <trkpt lat="47.27151" lon="-1.54651">
        <ele>80</ele>
        <time>2020-12-24T13:04:39.000Z</time>
      </trkpt>
      <trkpt lat="47.27164" lon="-1.54653">
        <ele>81</ele>
        <time>2020-12-24T13:04:41.000Z</time>
      </trkpt>
      <trkpt lat="47.27177" lon="-1.54658">
        <ele>80</ele>
        <time>2020-12-24T13:04:43.000Z</time>
      </trkpt>
      <trkpt lat="47.27189" lon="-1.54662">
        <ele>80</ele>
        <time>2020-12-24T13:04:45.000Z</time>
      </trkpt>
      <trkpt lat="47.27202" lon="-1.54665">
        <ele>80</ele>
        <time>2020-12-24T13:04:47.000Z</time>
      </trkpt>
      <trkpt lat="47.27215" lon="-1.54669">
        <ele>80</ele>
        <time>2020-12-24T13:04:49.000Z</time>
      </trkpt>
      <trkpt lat="47.27227" lon="-1.54673">
        <ele>80</ele>
        <time>2020-12-24T13:04:51.000Z</time>
      </trkpt>
      <trkpt lat="47.27239" lon="-1.54679">
        <ele>80</ele>
        <time>2020-12-24T13:04:53.000Z</time>
      </trkpt>
      <trkpt lat="47.27252" lon="-1.54683">
        <ele>79</ele>
        <time>2020-12-24T13:04:55.000Z</time>
      </trkpt>
      <trkpt lat="47.27265" lon="-1.54685">
        <ele>79</ele>
        <time>2020-12-24T13:04:57.000Z</time>
      </trkpt>
      <trkpt lat="47.27278" lon="-1.54689">
        <ele>79</ele>
        <time>2020-12-24T13:04:59.000Z</time>
      </trkpt>
      <trkpt lat="47.27291" lon="-1.54693">
        <ele>78</ele>
        <time>2020-12-24T13:05:01.000Z</time>
      </trkpt>
      <trkpt lat="47.27304" lon="-1.54697">
        <ele>78</ele>
        <time>2020-12-24T13:05:03.000Z</time>
      </trkpt>
      <trkpt lat="47.27317" lon="-1.547">
        <ele>79</ele>
        <time>2020-12-24T13:05:05.000Z</time>
      </trkpt>
      <trkpt lat="47.27329" lon="-1.54704">
        <ele>79</ele>
        <time>2020-12-24T13:05:07.000Z</time>
      </trkpt>
      <trkpt lat="47.27341" lon="-1.54708">
        <ele>80</ele>
        <time>2020-12-24T13:05:09.000Z</time>
      </trkpt>
      <trkpt lat="47.27352" lon="-1.54713">
        <ele>80</ele>
        <time>2020-12-24T13:05:11.000Z</time>
      </trkpt>
      <trkpt lat="47.27362" lon="-1.54718">
        <ele>80</ele>
        <time>2020-12-24T13:05:13.000Z</time>
      </trkpt>
      <trkpt lat="47.27371" lon="-1.54726">
        <ele>81</ele>
        <time>2020-12-24T13:05:15.000Z</time>
      </trkpt>
      <trkpt lat="47.27379" lon="-1.54735">
        <ele>81</ele>
        <time>2020-12-24T13:05:17.000Z</time>
      </trkpt>
      <trkpt lat="47.27387" lon="-1.54745">
        <ele>82</ele>
        <time>2020-12-24T13:05:19.000Z</time>
      </trkpt>
      <trkpt lat="47.27394" lon="-1.54756">
        <ele>82</ele>
        <time>2020-12-24T13:05:21.000Z</time>
      </trkpt>
      <trkpt lat="47.27404" lon="-1.54767">
        <ele>83</ele>
        <time>2020-12-24T13:05:24.000Z</time>
      </trkpt>
      <trkpt lat="47.27415" lon="-1.54775">
        <ele>84</ele>
        <time>2020-12-24T13:05:27.000Z</time>
      </trkpt>
      <trkpt lat="47.27425" lon="-1.54776">
        <ele>84</ele>
        <time>2020-12-24T13:05:29.000Z</time>
      </trkpt>
      <trkpt lat="47.27435" lon="-1.54772">
        <ele>84</ele>
        <time>2020-12-24T13:05:31.000Z</time>
      </trkpt>
      <trkpt lat="47.27443" lon="-1.54767">
        <ele>84</ele>
        <time>2020-12-24T13:05:34.000Z</time>
      </trkpt>
      <trkpt lat="47.27453" lon="-1.54756">
        <ele>85</ele>
        <time>2020-12-24T13:05:37.000Z</time>
      </trkpt>
      <trkpt lat="47.27462" lon="-1.5475">
        <ele>85</ele>
        <time>2020-12-24T13:05:39.000Z</time>
      </trkpt>
      <trkpt lat="47.27472" lon="-1.54747">
        <ele>86</ele>
        <time>2020-12-24T13:05:41.000Z</time>
      </trkpt>
      <trkpt lat="47.27481" lon="-1.54748">
        <ele>86</ele>
        <time>2020-12-24T13:05:43.000Z</time>
      </trkpt>
      <trkpt lat="47.27491" lon="-1.54749">
        <ele>86</ele>
        <time>2020-12-24T13:05:45.000Z</time>
      </trkpt>
      <trkpt lat="47.27501" lon="-1.54751">
        <ele>87</ele>
        <time>2020-12-24T13:05:47.000Z</time>
      </trkpt>
      <trkpt lat="47.2751" lon="-1.54753">
        <ele>87</ele>
        <time>2020-12-24T13:05:49.000Z</time>
      </trkpt>
      <trkpt lat="47.27519" lon="-1.54755">
        <ele>88</ele>
        <time>2020-12-24T13:05:51.000Z</time>
      </trkpt>
      <trkpt lat="47.27528" lon="-1.54757">
        <ele>88</ele>
        <time>2020-12-24T13:05:53.000Z</time>
      </trkpt>
      <trkpt lat="47.27537" lon="-1.54761">
        <ele>88</ele>
        <time>2020-12-24T13:05:55.000Z</time>
      </trkpt>
      <trkpt lat="47.2755" lon="-1.54765">
        <ele>88</ele>
        <time>2020-12-24T13:05:58.000Z</time>
      </trkpt>
      <trkpt lat="47.27562" lon="-1.54768">
        <ele>89</ele>
        <time>2020-12-24T13:06:01.000Z</time>
      </trkpt>
      <trkpt lat="47.27575" lon="-1.54772">
        <ele>89</ele>
        <time>2020-12-24T13:06:04.000Z</time>
      </trkpt>
      <trkpt lat="47.27583" lon="-1.54778">
        <ele>89</ele>
        <time>2020-12-24T13:06:06.000Z</time>
      </trkpt>
      <trkpt lat="47.27592" lon="-1.54791">
        <ele>89</ele>
        <time>2020-12-24T13:06:09.000Z</time>
      </trkpt>
      <trkpt lat="47.27597" lon="-1.54808">
        <ele>89</ele>
        <time>2020-12-24T13:06:13.000Z</time>
      </trkpt>
      <trkpt lat="47.27604" lon="-1.5482">
        <ele>90</ele>
        <time>2020-12-24T13:06:16.000Z</time>
      </trkpt>
      <trkpt lat="47.27614" lon="-1.54825">
        <ele>89</ele>
        <time>2020-12-24T13:06:18.000Z</time>
      </trkpt>
      <trkpt lat="47.27623" lon="-1.54828">
        <ele>89</ele>
        <time>2020-12-24T13:06:20.000Z</time>
      </trkpt>
      <trkpt lat="47.27633" lon="-1.54826">
        <ele>89</ele>
        <time>2020-12-24T13:06:23.000Z</time>
      </trkpt>
      <trkpt lat="47.27644" lon="-1.5482">
        <ele>89</ele>
        <time>2020-12-24T13:06:26.000Z</time>
      </trkpt>
      <trkpt lat="47.27653" lon="-1.54815">
        <ele>89</ele>
        <time>2020-12-24T13:06:28.000Z</time>
      </trkpt>
      <trkpt lat="47.27663" lon="-1.54813">
        <ele>89</ele>
        <time>2020-12-24T13:06:30.000Z</time>
      </trkpt>
      <trkpt lat="47.27674" lon="-1.54814">
        <ele>88</ele>
        <time>2020-12-24T13:06:32.000Z</time>
      </trkpt>
      <trkpt lat="47.27683" lon="-1.54815">
        <ele>88</ele>
        <time>2020-12-24T13:06:34.000Z</time>
      </trkpt>
      <trkpt lat="47.27693" lon="-1.54816">
        <ele>88</ele>
        <time>2020-12-24T13:06:36.000Z</time>
      </trkpt>
      <trkpt lat="47.27703" lon="-1.54818">
        <ele>88</ele>
        <time>2020-12-24T13:06:38.000Z</time>
      </trkpt>
      <trkpt lat="47.27713" lon="-1.5482">
        <ele>88</ele>
        <time>2020-12-24T13:06:40.000Z</time>
      </trkpt>
      <trkpt lat="47.27722" lon="-1.54822">
        <ele>87</ele>
        <time>2020-12-24T13:06:42.000Z</time>
      </trkpt>
      <trkpt lat="47.27733" lon="-1.54825">
        <ele>87</ele>
        <time>2020-12-24T13:06:44.000Z</time>
      </trkpt>
      <trkpt lat="47.27743" lon="-1.54828">
        <ele>87</ele>
        <time>2020-12-24T13:06:46.000Z</time>
      </trkpt>
      <trkpt lat="47.27754" lon="-1.54831">
        <ele>87</ele>
        <time>2020-12-24T13:06:48.000Z</time>
      </trkpt>
      <trkpt lat="47.27765" lon="-1.54833">
        <ele>86</ele>
        <time>2020-12-24T13:06:50.000Z</time>
      </trkpt>
      <trkpt lat="47.27776" lon="-1.54837">
        <ele>86</ele>
        <time>2020-12-24T13:06:52.000Z</time>
      </trkpt>
      <trkpt lat="47.27787" lon="-1.5484">
        <ele>85</ele>
        <time>2020-12-24T13:06:54.000Z</time>
      </trkpt>
      <trkpt lat="47.278" lon="-1.54843">
        <ele>85</ele>
        <time>2020-12-24T13:06:56.000Z</time>
      </trkpt>
      <trkpt lat="47.27812" lon="-1.54847">
        <ele>84</ele>
        <time>2020-12-24T13:06:58.000Z</time>
      </trkpt>
      <trkpt lat="47.27824" lon="-1.5485">
        <ele>83</ele>
        <time>2020-12-24T13:07:00.000Z</time>
      </trkpt>
      <trkpt lat="47.27837" lon="-1.54854">
        <ele>83</ele>
        <time>2020-12-24T13:07:02.000Z</time>
      </trkpt>
      <trkpt lat="47.2785" lon="-1.54858">
        <ele>82</ele>
        <time>2020-12-24T13:07:04.000Z</time>
      </trkpt>
      <trkpt lat="47.27863" lon="-1.54862">
        <ele>82</ele>
        <time>2020-12-24T13:07:06.000Z</time>
      </trkpt>
      <trkpt lat="47.27876" lon="-1.54866">
        <ele>81</ele>
        <time>2020-12-24T13:07:08.000Z</time>
      </trkpt>
      <trkpt lat="47.27889" lon="-1.5487">
        <ele>81</ele>
        <time>2020-12-24T13:07:10.000Z</time>
      </trkpt>
      <trkpt lat="47.27902" lon="-1.54873">
        <ele>80</ele>
        <time>2020-12-24T13:07:12.000Z</time>
      </trkpt>
      <trkpt lat="47.27915" lon="-1.54877">
        <ele>80</ele>
        <time>2020-12-24T13:07:14.000Z</time>
      </trkpt>
      <trkpt lat="47.27928" lon="-1.54881">
        <ele>79</ele>
        <time>2020-12-24T13:07:16.000Z</time>
      </trkpt>
      <trkpt lat="47.27941" lon="-1.54885">
        <ele>79</ele>
        <time>2020-12-24T13:07:18.000Z</time>
      </trkpt>
      <trkpt lat="47.27954" lon="-1.54889">
        <ele>78</ele>
        <time>2020-12-24T13:07:20.000Z</time>
      </trkpt>
      <trkpt lat="47.27966" lon="-1.54894">
        <ele>77</ele>
        <time>2020-12-24T13:07:22.000Z</time>
      </trkpt>
      <trkpt lat="47.27979" lon="-1.54897">
        <ele>77</ele>
        <time>2020-12-24T13:07:24.000Z</time>
      </trkpt>
      <trkpt lat="47.2799" lon="-1.549">
        <ele>77</ele>
        <time>2020-12-24T13:07:26.000Z</time>
      </trkpt>
      <trkpt lat="47.28002" lon="-1.54904">
        <ele>76</ele>
        <time>2020-12-24T13:07:28.000Z</time>
      </trkpt>
      <trkpt lat="47.28014" lon="-1.54907">
        <ele>76</ele>
        <time>2020-12-24T13:07:30.000Z</time>
      </trkpt>
      <trkpt lat="47.28025" lon="-1.5491">
        <ele>76</ele>
        <time>2020-12-24T13:07:32.000Z</time>
      </trkpt>
      <trkpt lat="47.28036" lon="-1.54914">
        <ele>75</ele>
        <time>2020-12-24T13:07:34.000Z</time>
      </trkpt>
      <trkpt lat="47.28048" lon="-1.54917">
        <ele>75</ele>
        <time>2020-12-24T13:07:36.000Z</time>
      </trkpt>
      <trkpt lat="47.2806" lon="-1.5492">
        <ele>75</ele>
        <time>2020-12-24T13:07:38.000Z</time>
      </trkpt>
      <trkpt lat="47.28071" lon="-1.54924">
        <ele>75</ele>
        <time>2020-12-24T13:07:40.000Z</time>
      </trkpt>
      <trkpt lat="47.28082" lon="-1.54928">
        <ele>74</ele>
        <time>2020-12-24T13:07:42.000Z</time>
      </trkpt>
      <trkpt lat="47.28093" lon="-1.54931">
        <ele>75</ele>
        <time>2020-12-24T13:07:44.000Z</time>
      </trkpt>
      <trkpt lat="47.28104" lon="-1.54935">
        <ele>75</ele>
        <time>2020-12-24T13:07:46.000Z</time>
      </trkpt>
      <trkpt lat="47.28114" lon="-1.54937">
        <ele>75</ele>
        <time>2020-12-24T13:07:48.000Z</time>
      </trkpt>
      <trkpt lat="47.28125" lon="-1.5494">
        <ele>75</ele>
        <time>2020-12-24T13:07:50.000Z</time>
      </trkpt>
      <trkpt lat="47.28135" lon="-1.54944">
        <ele>75</ele>
        <time>2020-12-24T13:07:52.000Z</time>
      </trkpt>
      <trkpt lat="47.28146" lon="-1.54947">
        <ele>75</ele>
        <time>2020-12-24T13:07:54.000Z</time>
      </trkpt>
      <trkpt lat="47.28157" lon="-1.5495">
        <ele>75</ele>
        <time>2020-12-24T13:07:56.000Z</time>
      </trkpt>
      <trkpt lat="47.28168" lon="-1.54952">
        <ele>75</ele>
        <time>2020-12-24T13:07:58.000Z</time>
      </trkpt>
      <trkpt lat="47.28179" lon="-1.54955">
        <ele>75</ele>
        <time>2020-12-24T13:08:00.000Z</time>
      </trkpt>
      <trkpt lat="47.2819" lon="-1.54958">
        <ele>75</ele>
        <time>2020-12-24T13:08:02.000Z</time>
      </trkpt>
      <trkpt lat="47.28201" lon="-1.5496">
        <ele>75</ele>
        <time>2020-12-24T13:08:04.000Z</time>
      </trkpt>
      <trkpt lat="47.28212" lon="-1.54962">
        <ele>75</ele>
        <time>2020-12-24T13:08:06.000Z</time>
      </trkpt>
      <trkpt lat="47.28222" lon="-1.54964">
        <ele>75</ele>
        <time>2020-12-24T13:08:08.000Z</time>
      </trkpt>
      <trkpt lat="47.28232" lon="-1.54966">
        <ele>75</ele>
        <time>2020-12-24T13:08:10.000Z</time>
      </trkpt>
      <trkpt lat="47.28242" lon="-1.54968">
        <ele>75</ele>
        <time>2020-12-24T13:08:12.000Z</time>
      </trkpt>
      <trkpt lat="47.28252" lon="-1.54969">
        <ele>76</ele>
        <time>2020-12-24T13:08:14.000Z</time>
      </trkpt>
      <trkpt lat="47.28263" lon="-1.54971">
        <ele>76</ele>
        <time>2020-12-24T13:08:16.000Z</time>
      </trkpt>
      <trkpt lat="47.28272" lon="-1.54972">
        <ele>76</ele>
        <time>2020-12-24T13:08:18.000Z</time>
      </trkpt>
      <trkpt lat="47.2828" lon="-1.54976">
        <ele>76</ele>
        <time>2020-12-24T13:08:20.000Z</time>
      </trkpt>
      <trkpt lat="47.2829" lon="-1.54985">
        <ele>76</ele>
        <time>2020-12-24T13:08:23.000Z</time>
      </trkpt>
      <trkpt lat="47.28304" lon="-1.54986">
        <ele>76</ele>
        <time>2020-12-24T13:08:26.000Z</time>
      </trkpt>
      <trkpt lat="47.28313" lon="-1.54979">
        <ele>76</ele>
        <time>2020-12-24T13:08:28.000Z</time>
      </trkpt>
      <trkpt lat="47.28323" lon="-1.54974">
        <ele>76</ele>
        <time>2020-12-24T13:08:30.000Z</time>
      </trkpt>
      <trkpt lat="47.28334" lon="-1.54974">
        <ele>76</ele>
        <time>2020-12-24T13:08:32.000Z</time>
      </trkpt>
      <trkpt lat="47.28345" lon="-1.54975">
        <ele>76</ele>
        <time>2020-12-24T13:08:34.000Z</time>
      </trkpt>
      <trkpt lat="47.28356" lon="-1.54976">
        <ele>75</ele>
        <time>2020-12-24T13:08:36.000Z</time>
      </trkpt>
      <trkpt lat="47.28367" lon="-1.54977">
        <ele>75</ele>
        <time>2020-12-24T13:08:38.000Z</time>
      </trkpt>
      <trkpt lat="47.28377" lon="-1.54978">
        <ele>76</ele>
        <time>2020-12-24T13:08:40.000Z</time>
      </trkpt>
      <trkpt lat="47.28388" lon="-1.54979">
        <ele>76</ele>
        <time>2020-12-24T13:08:42.000Z</time>
      </trkpt>
      <trkpt lat="47.28399" lon="-1.5498">
        <ele>75</ele>
        <time>2020-12-24T13:08:44.000Z</time>
      </trkpt>
      <trkpt lat="47.2841" lon="-1.54981">
        <ele>75</ele>
        <time>2020-12-24T13:08:46.000Z</time>
      </trkpt>
      <trkpt lat="47.28421" lon="-1.54982">
        <ele>75</ele>
        <time>2020-12-24T13:08:48.000Z</time>
      </trkpt>
      <trkpt lat="47.28432" lon="-1.54983">
        <ele>75</ele>
        <time>2020-12-24T13:08:50.000Z</time>
      </trkpt>
      <trkpt lat="47.28443" lon="-1.54983">
        <ele>74</ele>
        <time>2020-12-24T13:08:52.000Z</time>
      </trkpt>
      <trkpt lat="47.28454" lon="-1.54984">
        <ele>74</ele>
        <time>2020-12-24T13:08:54.000Z</time>
      </trkpt>
      <trkpt lat="47.28465" lon="-1.54983">
        <ele>74</ele>
        <time>2020-12-24T13:08:56.000Z</time>
      </trkpt>
      <trkpt lat="47.28476" lon="-1.54983">
        <ele>74</ele>
        <time>2020-12-24T13:08:58.000Z</time>
      </trkpt>
      <trkpt lat="47.28486" lon="-1.54982">
        <ele>74</ele>
        <time>2020-12-24T13:09:00.000Z</time>
      </trkpt>
      <trkpt lat="47.28497" lon="-1.54982">
        <ele>74</ele>
        <time>2020-12-24T13:09:02.000Z</time>
      </trkpt>
      <trkpt lat="47.28507" lon="-1.54982">
        <ele>74</ele>
        <time>2020-12-24T13:09:04.000Z</time>
      </trkpt>
      <trkpt lat="47.28516" lon="-1.54986">
        <ele>74</ele>
        <time>2020-12-24T13:09:06.000Z</time>
      </trkpt>
      <trkpt lat="47.28523" lon="-1.54995">
        <ele>74</ele>
        <time>2020-12-24T13:09:08.000Z</time>
      </trkpt>
      <trkpt lat="47.28527" lon="-1.55008">
        <ele>74</ele>
        <time>2020-12-24T13:09:13.000Z</time>
      </trkpt>
      <trkpt lat="47.28535" lon="-1.5502">
        <ele>75</ele>
        <time>2020-12-24T13:09:16.000Z</time>
      </trkpt>
      <trkpt lat="47.28546" lon="-1.55032">
        <ele>75</ele>
        <time>2020-12-24T13:09:19.000Z</time>
      </trkpt>
      <trkpt lat="47.28551" lon="-1.55043">
        <ele>75</ele>
        <time>2020-12-24T13:09:22.000Z</time>
      </trkpt>
      <trkpt lat="47.2856" lon="-1.55044">
        <ele>75</ele>
        <time>2020-12-24T13:09:27.000Z</time>
      </trkpt>
      <trkpt lat="47.2857" lon="-1.55041">
        <ele>75</ele>
        <time>2020-12-24T13:09:29.000Z</time>
      </trkpt>
      <trkpt lat="47.28576" lon="-1.5503">
        <ele>74</ele>
        <time>2020-12-24T13:09:31.000Z</time>
      </trkpt>
      <trkpt lat="47.28581" lon="-1.55016">
        <ele>74</ele>
        <time>2020-12-24T13:09:33.000Z</time>
      </trkpt>
      <trkpt lat="47.28587" lon="-1.55002">
        <ele>74</ele>
        <time>2020-12-24T13:09:35.000Z</time>
      </trkpt>
      <trkpt lat="47.28595" lon="-1.54989">
        <ele>73</ele>
        <time>2020-12-24T13:09:37.000Z</time>
      </trkpt>
      <trkpt lat="47.28604" lon="-1.54978">
        <ele>74</ele>
        <time>2020-12-24T13:09:39.000Z</time>
      </trkpt>
      <trkpt lat="47.28616" lon="-1.54973">
        <ele>73</ele>
        <time>2020-12-24T13:09:41.000Z</time>
      </trkpt>
      <trkpt lat="47.28628" lon="-1.54971">
        <ele>74</ele>
        <time>2020-12-24T13:09:43.000Z</time>
      </trkpt>
      <trkpt lat="47.2864" lon="-1.54968">
        <ele>74</ele>
        <time>2020-12-24T13:09:45.000Z</time>
      </trkpt>
      <trkpt lat="47.28653" lon="-1.54966">
        <ele>74</ele>
        <time>2020-12-24T13:09:47.000Z</time>
      </trkpt>
      <trkpt lat="47.28667" lon="-1.54964">
        <ele>73</ele>
        <time>2020-12-24T13:09:49.000Z</time>
      </trkpt>
      <trkpt lat="47.2868" lon="-1.54962">
        <ele>74</ele>
        <time>2020-12-24T13:09:51.000Z</time>
      </trkpt>
      <trkpt lat="47.28694" lon="-1.5496">
        <ele>74</ele>
        <time>2020-12-24T13:09:53.000Z</time>
      </trkpt>
      <trkpt lat="47.28707" lon="-1.54959">
        <ele>75</ele>
        <time>2020-12-24T13:09:55.000Z</time>
      </trkpt>
      <trkpt lat="47.28719" lon="-1.54958">
        <ele>75</ele>
        <time>2020-12-24T13:09:57.000Z</time>
      </trkpt>
      <trkpt lat="47.28731" lon="-1.54956">
        <ele>75</ele>
        <time>2020-12-24T13:09:59.000Z</time>
      </trkpt>
      <trkpt lat="47.28744" lon="-1.54954">
        <ele>75</ele>
        <time>2020-12-24T13:10:01.000Z</time>
      </trkpt>
      <trkpt lat="47.28757" lon="-1.54952">
        <ele>75</ele>
        <time>2020-12-24T13:10:03.000Z</time>
      </trkpt>
      <trkpt lat="47.28769" lon="-1.54951">
        <ele>75</ele>
        <time>2020-12-24T13:10:05.000Z</time>
      </trkpt>
      <trkpt lat="47.28782" lon="-1.54949">
        <ele>75</ele>
        <time>2020-12-24T13:10:07.000Z</time>
      </trkpt>
      <trkpt lat="47.28794" lon="-1.54947">
        <ele>74</ele>
        <time>2020-12-24T13:10:09.000Z</time>
      </trkpt>
      <trkpt lat="47.28807" lon="-1.54945">
        <ele>74</ele>
        <time>2020-12-24T13:10:11.000Z</time>
      </trkpt>
      <trkpt lat="47.28819" lon="-1.54943">
        <ele>74</ele>
        <time>2020-12-24T13:10:13.000Z</time>
      </trkpt>
      <trkpt lat="47.28831" lon="-1.54941">
        <ele>74</ele>
        <time>2020-12-24T13:10:15.000Z</time>
      </trkpt>
      <trkpt lat="47.28844" lon="-1.5494">
        <ele>74</ele>
        <time>2020-12-24T13:10:17.000Z</time>
      </trkpt>
      <trkpt lat="47.28856" lon="-1.54938">
        <ele>74</ele>
        <time>2020-12-24T13:10:19.000Z</time>
      </trkpt>
      <trkpt lat="47.28868" lon="-1.54936">
        <ele>74</ele>
        <time>2020-12-24T13:10:21.000Z</time>
      </trkpt>
      <trkpt lat="47.2888" lon="-1.54935">
        <ele>73</ele>
        <time>2020-12-24T13:10:23.000Z</time>
      </trkpt>
      <trkpt lat="47.28892" lon="-1.54932">
        <ele>73</ele>
        <time>2020-12-24T13:10:25.000Z</time>
      </trkpt>
      <trkpt lat="47.28904" lon="-1.5493">
        <ele>73</ele>
        <time>2020-12-24T13:10:27.000Z</time>
      </trkpt>
      <trkpt lat="47.28917" lon="-1.54928">
        <ele>73</ele>
        <time>2020-12-24T13:10:29.000Z</time>
      </trkpt>
      <trkpt lat="47.28929" lon="-1.54925">
        <ele>72</ele>
        <time>2020-12-24T13:10:31.000Z</time>
      </trkpt>
      <trkpt lat="47.2894" lon="-1.54923">
        <ele>72</ele>
        <time>2020-12-24T13:10:33.000Z</time>
      </trkpt>
      <trkpt lat="47.28952" lon="-1.54923">
        <ele>73</ele>
        <time>2020-12-24T13:10:35.000Z</time>
      </trkpt>
      <trkpt lat="47.28963" lon="-1.54925">
        <ele>73</ele>
        <time>2020-12-24T13:10:37.000Z</time>
      </trkpt>
      <trkpt lat="47.28974" lon="-1.54927">
        <ele>73</ele>
        <time>2020-12-24T13:10:39.000Z</time>
      </trkpt>
      <trkpt lat="47.28985" lon="-1.5493">
        <ele>73</ele>
        <time>2020-12-24T13:10:42.000Z</time>
      </trkpt>
      <trkpt lat="47.28994" lon="-1.54927">
        <ele>74</ele>
        <time>2020-12-24T13:10:44.000Z</time>
      </trkpt>
      <trkpt lat="47.29004" lon="-1.54924">
        <ele>74</ele>
        <time>2020-12-24T13:10:46.000Z</time>
      </trkpt>
      <trkpt lat="47.29016" lon="-1.54926">
        <ele>74</ele>
        <time>2020-12-24T13:10:48.000Z</time>
      </trkpt>
      <trkpt lat="47.29027" lon="-1.54928">
        <ele>74</ele>
        <time>2020-12-24T13:10:50.000Z</time>
      </trkpt>
      <trkpt lat="47.29037" lon="-1.54922">
        <ele>74</ele>
        <time>2020-12-24T13:10:53.000Z</time>
      </trkpt>
      <trkpt lat="47.29045" lon="-1.54912">
        <ele>75</ele>
        <time>2020-12-24T13:10:56.000Z</time>
      </trkpt>
      <trkpt lat="47.29054" lon="-1.54911">
        <ele>75</ele>
        <time>2020-12-24T13:10:58.000Z</time>
      </trkpt>
      <trkpt lat="47.29065" lon="-1.5491">
        <ele>76</ele>
        <time>2020-12-24T13:11:00.000Z</time>
      </trkpt>
      <trkpt lat="47.29077" lon="-1.54911">
        <ele>77</ele>
        <time>2020-12-24T13:11:02.000Z</time>
      </trkpt>
      <trkpt lat="47.29089" lon="-1.5491">
        <ele>77</ele>
        <time>2020-12-24T13:11:04.000Z</time>
      </trkpt>
      <trkpt lat="47.29101" lon="-1.5491">
        <ele>78</ele>
        <time>2020-12-24T13:11:06.000Z</time>
      </trkpt>
      <trkpt lat="47.29113" lon="-1.54909">
        <ele>78</ele>
        <time>2020-12-24T13:11:08.000Z</time>
      </trkpt>
      <trkpt lat="47.29125" lon="-1.54909">
        <ele>78</ele>
        <time>2020-12-24T13:11:10.000Z</time>
      </trkpt>
      <trkpt lat="47.29136" lon="-1.54908">
        <ele>78</ele>
        <time>2020-12-24T13:11:12.000Z</time>
      </trkpt>
      <trkpt lat="47.29147" lon="-1.54907">
        <ele>79</ele>
        <time>2020-12-24T13:11:14.000Z</time>
      </trkpt>
      <trkpt lat="47.29158" lon="-1.54906">
        <ele>80</ele>
        <time>2020-12-24T13:11:16.000Z</time>
      </trkpt>
      <trkpt lat="47.29169" lon="-1.54906">
        <ele>80</ele>
        <time>2020-12-24T13:11:18.000Z</time>
      </trkpt>
      <trkpt lat="47.2918" lon="-1.54906">
        <ele>80</ele>
        <time>2020-12-24T13:11:20.000Z</time>
      </trkpt>
      <trkpt lat="47.29191" lon="-1.54907">
        <ele>81</ele>
        <time>2020-12-24T13:11:22.000Z</time>
      </trkpt>
      <trkpt lat="47.29202" lon="-1.54905">
        <ele>81</ele>
        <time>2020-12-24T13:11:24.000Z</time>
      </trkpt>
      <trkpt lat="47.29213" lon="-1.54905">
        <ele>81</ele>
        <time>2020-12-24T13:11:26.000Z</time>
      </trkpt>
      <trkpt lat="47.29223" lon="-1.54904">
        <ele>81</ele>
        <time>2020-12-24T13:11:28.000Z</time>
      </trkpt>
      <trkpt lat="47.29233" lon="-1.54906">
        <ele>80</ele>
        <time>2020-12-24T13:11:30.000Z</time>
      </trkpt>
      <trkpt lat="47.29245" lon="-1.54913">
        <ele>80</ele>
        <time>2020-12-24T13:11:33.000Z</time>
      </trkpt>
      <trkpt lat="47.29258" lon="-1.54916">
        <ele>80</ele>
        <time>2020-12-24T13:11:36.000Z</time>
      </trkpt>
      <trkpt lat="47.29268" lon="-1.54915">
        <ele>80</ele>
        <time>2020-12-24T13:11:38.000Z</time>
      </trkpt>
      <trkpt lat="47.29277" lon="-1.54912">
        <ele>80</ele>
        <time>2020-12-24T13:11:40.000Z</time>
      </trkpt>
      <trkpt lat="47.29288" lon="-1.54911">
        <ele>80</ele>
        <time>2020-12-24T13:11:42.000Z</time>
      </trkpt>
      <trkpt lat="47.29299" lon="-1.54912">
        <ele>80</ele>
        <time>2020-12-24T13:11:44.000Z</time>
      </trkpt>
      <trkpt lat="47.2931" lon="-1.54914">
        <ele>80</ele>
        <time>2020-12-24T13:11:46.000Z</time>
      </trkpt>
      <trkpt lat="47.29321" lon="-1.54914">
        <ele>81</ele>
        <time>2020-12-24T13:11:48.000Z</time>
      </trkpt>
      <trkpt lat="47.29331" lon="-1.54913">
        <ele>80</ele>
        <time>2020-12-24T13:11:50.000Z</time>
      </trkpt>
      <trkpt lat="47.29341" lon="-1.5491">
        <ele>81</ele>
        <time>2020-12-24T13:11:52.000Z</time>
      </trkpt>
      <trkpt lat="47.29351" lon="-1.54903">
        <ele>81</ele>
        <time>2020-12-24T13:11:54.000Z</time>
      </trkpt>
      <trkpt lat="47.2936" lon="-1.54894">
        <ele>81</ele>
        <time>2020-12-24T13:11:56.000Z</time>
      </trkpt>
      <trkpt lat="47.2937" lon="-1.54893">
        <ele>81</ele>
        <time>2020-12-24T13:11:58.000Z</time>
      </trkpt>
      <trkpt lat="47.2938" lon="-1.54892">
        <ele>81</ele>
        <time>2020-12-24T13:12:00.000Z</time>
      </trkpt>
      <trkpt lat="47.2939" lon="-1.54892">
        <ele>80</ele>
        <time>2020-12-24T13:12:02.000Z</time>
      </trkpt>
      <trkpt lat="47.29401" lon="-1.54892">
        <ele>81</ele>
        <time>2020-12-24T13:12:04.000Z</time>
      </trkpt>
      <trkpt lat="47.29411" lon="-1.54891">
        <ele>81</ele>
        <time>2020-12-24T13:12:06.000Z</time>
      </trkpt>
      <trkpt lat="47.29422" lon="-1.5489">
        <ele>81</ele>
        <time>2020-12-24T13:12:08.000Z</time>
      </trkpt>
      <trkpt lat="47.29432" lon="-1.54889">
        <ele>80</ele>
        <time>2020-12-24T13:12:10.000Z</time>
      </trkpt>
      <trkpt lat="47.29443" lon="-1.54888">
        <ele>80</ele>
        <time>2020-12-24T13:12:12.000Z</time>
      </trkpt>
      <trkpt lat="47.29454" lon="-1.54888">
        <ele>80</ele>
        <time>2020-12-24T13:12:14.000Z</time>
      </trkpt>
      <trkpt lat="47.29466" lon="-1.54888">
        <ele>79</ele>
        <time>2020-12-24T13:12:16.000Z</time>
      </trkpt>
      <trkpt lat="47.29478" lon="-1.5489">
        <ele>79</ele>
        <time>2020-12-24T13:12:18.000Z</time>
      </trkpt>
      <trkpt lat="47.29491" lon="-1.54892">
        <ele>78</ele>
        <time>2020-12-24T13:12:20.000Z</time>
      </trkpt>
      <trkpt lat="47.29504" lon="-1.54892">
        <ele>78</ele>
        <time>2020-12-24T13:12:22.000Z</time>
      </trkpt>
      <trkpt lat="47.29517" lon="-1.54891">
        <ele>77</ele>
        <time>2020-12-24T13:12:24.000Z</time>
      </trkpt>
      <trkpt lat="47.29529" lon="-1.5489">
        <ele>77</ele>
        <time>2020-12-24T13:12:26.000Z</time>
      </trkpt>
      <trkpt lat="47.29542" lon="-1.54889">
        <ele>76</ele>
        <time>2020-12-24T13:12:28.000Z</time>
      </trkpt>
      <trkpt lat="47.29555" lon="-1.54889">
        <ele>76</ele>
        <time>2020-12-24T13:12:30.000Z</time>
      </trkpt>
      <trkpt lat="47.29567" lon="-1.54888">
        <ele>76</ele>
        <time>2020-12-24T13:12:32.000Z</time>
      </trkpt>
      <trkpt lat="47.29581" lon="-1.54887">
        <ele>76</ele>
        <time>2020-12-24T13:12:34.000Z</time>
      </trkpt>
      <trkpt lat="47.29594" lon="-1.54884">
        <ele>76</ele>
        <time>2020-12-24T13:12:36.000Z</time>
      </trkpt>
      <trkpt lat="47.29606" lon="-1.54881">
        <ele>76</ele>
        <time>2020-12-24T13:12:38.000Z</time>
      </trkpt>
      <trkpt lat="47.29617" lon="-1.54875">
        <ele>76</ele>
        <time>2020-12-24T13:12:40.000Z</time>
      </trkpt>
      <trkpt lat="47.2963" lon="-1.54872">
        <ele>76</ele>
        <time>2020-12-24T13:12:42.000Z</time>
      </trkpt>
      <trkpt lat="47.29641" lon="-1.54869">
        <ele>77</ele>
        <time>2020-12-24T13:12:44.000Z</time>
      </trkpt>
      <trkpt lat="47.29654" lon="-1.54867">
        <ele>77</ele>
        <time>2020-12-24T13:12:46.000Z</time>
      </trkpt>
      <trkpt lat="47.29666" lon="-1.54865">
        <ele>76</ele>
        <time>2020-12-24T13:12:48.000Z</time>
      </trkpt>
      <trkpt lat="47.29677" lon="-1.54862">
        <ele>76</ele>
        <time>2020-12-24T13:12:50.000Z</time>
      </trkpt>
      <trkpt lat="47.29688" lon="-1.54859">
        <ele>76</ele>
        <time>2020-12-24T13:12:52.000Z</time>
      </trkpt>
      <trkpt lat="47.297" lon="-1.54856">
        <ele>76</ele>
        <time>2020-12-24T13:12:54.000Z</time>
      </trkpt>
      <trkpt lat="47.2971" lon="-1.54855">
        <ele>76</ele>
        <time>2020-12-24T13:12:56.000Z</time>
      </trkpt>
      <trkpt lat="47.29722" lon="-1.54856">
        <ele>77</ele>
        <time>2020-12-24T13:12:59.000Z</time>
      </trkpt>
      <trkpt lat="47.29731" lon="-1.54853">
        <ele>77</ele>
        <time>2020-12-24T13:13:01.000Z</time>
      </trkpt>
      <trkpt lat="47.29742" lon="-1.54849">
        <ele>76</ele>
        <time>2020-12-24T13:13:03.000Z</time>
      </trkpt>
      <trkpt lat="47.29756" lon="-1.54844">
        <ele>75</ele>
        <time>2020-12-24T13:13:05.000Z</time>
      </trkpt>
      <trkpt lat="47.2977" lon="-1.54839">
        <ele>74</ele>
        <time>2020-12-24T13:13:07.000Z</time>
      </trkpt>
      <trkpt lat="47.29784" lon="-1.54836">
        <ele>75</ele>
        <time>2020-12-24T13:13:09.000Z</time>
      </trkpt>
      <trkpt lat="47.29797" lon="-1.54839">
        <ele>75</ele>
        <time>2020-12-24T13:13:11.000Z</time>
      </trkpt>
      <trkpt lat="47.29809" lon="-1.54841">
        <ele>75</ele>
        <time>2020-12-24T13:13:13.000Z</time>
      </trkpt>
      <trkpt lat="47.29822" lon="-1.54839">
        <ele>75</ele>
        <time>2020-12-24T13:13:15.000Z</time>
      </trkpt>
      <trkpt lat="47.29834" lon="-1.54837">
        <ele>76</ele>
        <time>2020-12-24T13:13:17.000Z</time>
      </trkpt>
      <trkpt lat="47.29847" lon="-1.54835">
        <ele>76</ele>
        <time>2020-12-24T13:13:19.000Z</time>
      </trkpt>
      <trkpt lat="47.29859" lon="-1.54831">
        <ele>75</ele>
        <time>2020-12-24T13:13:21.000Z</time>
      </trkpt>
      <trkpt lat="47.29873" lon="-1.54827">
        <ele>75</ele>
        <time>2020-12-24T13:13:23.000Z</time>
      </trkpt>
      <trkpt lat="47.29885" lon="-1.54823">
        <ele>76</ele>
        <time>2020-12-24T13:13:25.000Z</time>
      </trkpt>
      <trkpt lat="47.29897" lon="-1.5482">
        <ele>77</ele>
        <time>2020-12-24T13:13:27.000Z</time>
      </trkpt>
      <trkpt lat="47.29908" lon="-1.54817">
        <ele>77</ele>
        <time>2020-12-24T13:13:29.000Z</time>
      </trkpt>
      <trkpt lat="47.29919" lon="-1.54812">
        <ele>76</ele>
        <time>2020-12-24T13:13:31.000Z</time>
      </trkpt>
      <trkpt lat="47.29931" lon="-1.54809">
        <ele>77</ele>
        <time>2020-12-24T13:13:33.000Z</time>
      </trkpt>
      <trkpt lat="47.29943" lon="-1.54805">
        <ele>77</ele>
        <time>2020-12-24T13:13:35.000Z</time>
      </trkpt>
      <trkpt lat="47.29955" lon="-1.54801">
        <ele>77</ele>
        <time>2020-12-24T13:13:37.000Z</time>
      </trkpt>
      <trkpt lat="47.29968" lon="-1.54797">
        <ele>77</ele>
        <time>2020-12-24T13:13:39.000Z</time>
      </trkpt>
      <trkpt lat="47.2998" lon="-1.54792">
        <ele>76</ele>
        <time>2020-12-24T13:13:41.000Z</time>
      </trkpt>
      <trkpt lat="47.29993" lon="-1.54788">
        <ele>76</ele>
        <time>2020-12-24T13:13:43.000Z</time>
      </trkpt>
      <trkpt lat="47.30005" lon="-1.54783">
        <ele>76</ele>
        <time>2020-12-24T13:13:45.000Z</time>
      </trkpt>
      <trkpt lat="47.30018" lon="-1.54779">
        <ele>76</ele>
        <time>2020-12-24T13:13:47.000Z</time>
      </trkpt>
      <trkpt lat="47.3003" lon="-1.54774">
        <ele>76</ele>
        <time>2020-12-24T13:13:49.000Z</time>
      </trkpt>
      <trkpt lat="47.30042" lon="-1.54769">
        <ele>76</ele>
        <time>2020-12-24T13:13:51.000Z</time>
      </trkpt>
      <trkpt lat="47.30055" lon="-1.54765">
        <ele>76</ele>
        <time>2020-12-24T13:13:53.000Z</time>
      </trkpt>
      <trkpt lat="47.30067" lon="-1.5476">
        <ele>75</ele>
        <time>2020-12-24T13:13:55.000Z</time>
      </trkpt>
      <trkpt lat="47.3008" lon="-1.54754">
        <ele>75</ele>
        <time>2020-12-24T13:13:57.000Z</time>
      </trkpt>
      <trkpt lat="47.30092" lon="-1.54748">
        <ele>75</ele>
        <time>2020-12-24T13:13:59.000Z</time>
      </trkpt>
      <trkpt lat="47.30104" lon="-1.54743">
        <ele>75</ele>
        <time>2020-12-24T13:14:01.000Z</time>
      </trkpt>
      <trkpt lat="47.30117" lon="-1.54736">
        <ele>74</ele>
        <time>2020-12-24T13:14:03.000Z</time>
      </trkpt>
      <trkpt lat="47.30129" lon="-1.5473">
        <ele>74</ele>
        <time>2020-12-24T13:14:05.000Z</time>
      </trkpt>
      <trkpt lat="47.30141" lon="-1.54723">
        <ele>74</ele>
        <time>2020-12-24T13:14:07.000Z</time>
      </trkpt>
      <trkpt lat="47.30152" lon="-1.54716">
        <ele>74</ele>
        <time>2020-12-24T13:14:09.000Z</time>
      </trkpt>
      <trkpt lat="47.30164" lon="-1.5471">
        <ele>74</ele>
        <time>2020-12-24T13:14:11.000Z</time>
      </trkpt>
      <trkpt lat="47.30176" lon="-1.54704">
        <ele>74</ele>
        <time>2020-12-24T13:14:13.000Z</time>
      </trkpt>
      <trkpt lat="47.30189" lon="-1.54696">
        <ele>75</ele>
        <time>2020-12-24T13:14:15.000Z</time>
      </trkpt>
      <trkpt lat="47.302" lon="-1.5469">
        <ele>74</ele>
        <time>2020-12-24T13:14:17.000Z</time>
      </trkpt>
      <trkpt lat="47.30212" lon="-1.54683">
        <ele>74</ele>
        <time>2020-12-24T13:14:19.000Z</time>
      </trkpt>
      <trkpt lat="47.30224" lon="-1.54677">
        <ele>74</ele>
        <time>2020-12-24T13:14:21.000Z</time>
      </trkpt>
      <trkpt lat="47.30235" lon="-1.5467">
        <ele>74</ele>
        <time>2020-12-24T13:14:23.000Z</time>
      </trkpt>
      <trkpt lat="47.30247" lon="-1.54664">
        <ele>74</ele>
        <time>2020-12-24T13:14:25.000Z</time>
      </trkpt>
      <trkpt lat="47.30259" lon="-1.54657">
        <ele>74</ele>
        <time>2020-12-24T13:14:27.000Z</time>
      </trkpt>
      <trkpt lat="47.30271" lon="-1.54651">
        <ele>74</ele>
        <time>2020-12-24T13:14:29.000Z</time>
      </trkpt>
      <trkpt lat="47.30285" lon="-1.54649">
        <ele>73</ele>
        <time>2020-12-24T13:14:31.000Z</time>
      </trkpt>
      <trkpt lat="47.30297" lon="-1.54655">
        <ele>72</ele>
        <time>2020-12-24T13:14:33.000Z</time>
      </trkpt>
      <trkpt lat="47.30306" lon="-1.54661">
        <ele>71</ele>
        <time>2020-12-24T13:14:35.000Z</time>
      </trkpt>
      <trkpt lat="47.30318" lon="-1.54667">
        <ele>71</ele>
        <time>2020-12-24T13:14:38.000Z</time>
      </trkpt>
      <trkpt lat="47.30328" lon="-1.54668">
        <ele>71</ele>
        <time>2020-12-24T13:14:40.000Z</time>
      </trkpt>
      <trkpt lat="47.30337" lon="-1.54666">
        <ele>70</ele>
        <time>2020-12-24T13:14:42.000Z</time>
      </trkpt>
      <trkpt lat="47.30346" lon="-1.5466">
        <ele>70</ele>
        <time>2020-12-24T13:14:46.000Z</time>
      </trkpt>
      <trkpt lat="47.30359" lon="-1.54655">
        <ele>69</ele>
        <time>2020-12-24T13:14:49.000Z</time>
      </trkpt>
      <trkpt lat="47.30368" lon="-1.54646">
        <ele>69</ele>
        <time>2020-12-24T13:14:51.000Z</time>
      </trkpt>
      <trkpt lat="47.30377" lon="-1.54631">
        <ele>69</ele>
        <time>2020-12-24T13:14:53.000Z</time>
      </trkpt>
      <trkpt lat="47.30386" lon="-1.54618">
        <ele>69</ele>
        <time>2020-12-24T13:14:55.000Z</time>
      </trkpt>
      <trkpt lat="47.30394" lon="-1.54605">
        <ele>70</ele>
        <time>2020-12-24T13:14:57.000Z</time>
      </trkpt>
      <trkpt lat="47.30404" lon="-1.54594">
        <ele>70</ele>
        <time>2020-12-24T13:14:59.000Z</time>
      </trkpt>
      <trkpt lat="47.30411" lon="-1.54584">
        <ele>71</ele>
        <time>2020-12-24T13:15:01.000Z</time>
      </trkpt>
      <trkpt lat="47.3042" lon="-1.54576">
        <ele>71</ele>
        <time>2020-12-24T13:15:03.000Z</time>
      </trkpt>
      <trkpt lat="47.30429" lon="-1.5457">
        <ele>72</ele>
        <time>2020-12-24T13:15:05.000Z</time>
      </trkpt>
      <trkpt lat="47.30438" lon="-1.54563">
        <ele>72</ele>
        <time>2020-12-24T13:15:07.000Z</time>
      </trkpt>
      <trkpt lat="47.30448" lon="-1.54555">
        <ele>71</ele>
        <time>2020-12-24T13:15:09.000Z</time>
      </trkpt>
      <trkpt lat="47.30457" lon="-1.54547">
        <ele>71</ele>
        <time>2020-12-24T13:15:11.000Z</time>
      </trkpt>
      <trkpt lat="47.30467" lon="-1.5454">
        <ele>72</ele>
        <time>2020-12-24T13:15:13.000Z</time>
      </trkpt>
      <trkpt lat="47.30476" lon="-1.54534">
        <ele>72</ele>
        <time>2020-12-24T13:15:15.000Z</time>
      </trkpt>
      <trkpt lat="47.30485" lon="-1.54527">
        <ele>72</ele>
        <time>2020-12-24T13:15:17.000Z</time>
      </trkpt>
      <trkpt lat="47.30494" lon="-1.5452">
        <ele>72</ele>
        <time>2020-12-24T13:15:19.000Z</time>
      </trkpt>
      <trkpt lat="47.30502" lon="-1.54513">
        <ele>72</ele>
        <time>2020-12-24T13:15:21.000Z</time>
      </trkpt>
      <trkpt lat="47.30511" lon="-1.54507">
        <ele>72</ele>
        <time>2020-12-24T13:15:23.000Z</time>
      </trkpt>
      <trkpt lat="47.30519" lon="-1.545">
        <ele>73</ele>
        <time>2020-12-24T13:15:25.000Z</time>
      </trkpt>
      <trkpt lat="47.30527" lon="-1.54494">
        <ele>73</ele>
        <time>2020-12-24T13:15:27.000Z</time>
      </trkpt>
      <trkpt lat="47.30536" lon="-1.54487">
        <ele>74</ele>
        <time>2020-12-24T13:15:29.000Z</time>
      </trkpt>
      <trkpt lat="47.30545" lon="-1.5448">
        <ele>74</ele>
        <time>2020-12-24T13:15:31.000Z</time>
      </trkpt>
      <trkpt lat="47.30553" lon="-1.54473">
        <ele>74</ele>
        <time>2020-12-24T13:15:33.000Z</time>
      </trkpt>
      <trkpt lat="47.30561" lon="-1.54467">
        <ele>74</ele>
        <time>2020-12-24T13:15:35.000Z</time>
      </trkpt>
      <trkpt lat="47.30571" lon="-1.54457">
        <ele>75</ele>
        <time>2020-12-24T13:15:38.000Z</time>
      </trkpt>
      <trkpt lat="47.30579" lon="-1.5445">
        <ele>75</ele>
        <time>2020-12-24T13:15:40.000Z</time>
      </trkpt>
      <trkpt lat="47.30588" lon="-1.54443">
        <ele>75</ele>
        <time>2020-12-24T13:15:42.000Z</time>
      </trkpt>
      <trkpt lat="47.30597" lon="-1.54434">
        <ele>74</ele>
        <time>2020-12-24T13:15:44.000Z</time>
      </trkpt>
      <trkpt lat="47.30606" lon="-1.54426">
        <ele>75</ele>
        <time>2020-12-24T13:15:46.000Z</time>
      </trkpt>
      <trkpt lat="47.30614" lon="-1.54418">
        <ele>75</ele>
        <time>2020-12-24T13:15:48.000Z</time>
      </trkpt>
      <trkpt lat="47.30623" lon="-1.5441">
        <ele>76</ele>
        <time>2020-12-24T13:15:50.000Z</time>
      </trkpt>
      <trkpt lat="47.30632" lon="-1.54401">
        <ele>76</ele>
        <time>2020-12-24T13:15:52.000Z</time>
      </trkpt>
      <trkpt lat="47.30641" lon="-1.54394">
        <ele>76</ele>
        <time>2020-12-24T13:15:54.000Z</time>
      </trkpt>
      <trkpt lat="47.3065" lon="-1.54386">
        <ele>75</ele>
        <time>2020-12-24T13:15:56.000Z</time>
      </trkpt>
      <trkpt lat="47.30658" lon="-1.54377">
        <ele>75</ele>
        <time>2020-12-24T13:15:58.000Z</time>
      </trkpt>
      <trkpt lat="47.30667" lon="-1.5437">
        <ele>75</ele>
        <time>2020-12-24T13:16:00.000Z</time>
      </trkpt>
      <trkpt lat="47.30676" lon="-1.54362">
        <ele>74</ele>
        <time>2020-12-24T13:16:02.000Z</time>
      </trkpt>
      <trkpt lat="47.30685" lon="-1.54353">
        <ele>74</ele>
        <time>2020-12-24T13:16:04.000Z</time>
      </trkpt>
      <trkpt lat="47.30694" lon="-1.54345">
        <ele>73</ele>
        <time>2020-12-24T13:16:06.000Z</time>
      </trkpt>
      <trkpt lat="47.30704" lon="-1.54337">
        <ele>73</ele>
        <time>2020-12-24T13:16:08.000Z</time>
      </trkpt>
      <trkpt lat="47.30715" lon="-1.54328">
        <ele>72</ele>
        <time>2020-12-24T13:16:10.000Z</time>
      </trkpt>
      <trkpt lat="47.30726" lon="-1.54319">
        <ele>72</ele>
        <time>2020-12-24T13:16:12.000Z</time>
      </trkpt>
      <trkpt lat="47.30738" lon="-1.5431">
        <ele>72</ele>
        <time>2020-12-24T13:16:14.000Z</time>
      </trkpt>
      <trkpt lat="47.3075" lon="-1.54302">
        <ele>71</ele>
        <time>2020-12-24T13:16:16.000Z</time>
      </trkpt>
      <trkpt lat="47.30763" lon="-1.54298">
        <ele>70</ele>
        <time>2020-12-24T13:16:18.000Z</time>
      </trkpt>
      <trkpt lat="47.30776" lon="-1.543">
        <ele>70</ele>
        <time>2020-12-24T13:16:20.000Z</time>
      </trkpt>
      <trkpt lat="47.30789" lon="-1.54303">
        <ele>69</ele>
        <time>2020-12-24T13:16:22.000Z</time>
      </trkpt>
      <trkpt lat="47.30803" lon="-1.54301">
        <ele>68</ele>
        <time>2020-12-24T13:16:24.000Z</time>
      </trkpt>
      <trkpt lat="47.30815" lon="-1.54297">
        <ele>67</ele>
        <time>2020-12-24T13:16:26.000Z</time>
      </trkpt>
      <trkpt lat="47.30827" lon="-1.54293">
        <ele>67</ele>
        <time>2020-12-24T13:16:28.000Z</time>
      </trkpt>
      <trkpt lat="47.30838" lon="-1.54288">
        <ele>67</ele>
        <time>2020-12-24T13:16:30.000Z</time>
      </trkpt>
      <trkpt lat="47.3085" lon="-1.54282">
        <ele>67</ele>
        <time>2020-12-24T13:16:32.000Z</time>
      </trkpt>
      <trkpt lat="47.30863" lon="-1.54274">
        <ele>67</ele>
        <time>2020-12-24T13:16:34.000Z</time>
      </trkpt>
      <trkpt lat="47.30878" lon="-1.5427">
        <ele>66</ele>
        <time>2020-12-24T13:16:36.000Z</time>
      </trkpt>
      <trkpt lat="47.30892" lon="-1.54268">
        <ele>66</ele>
        <time>2020-12-24T13:16:38.000Z</time>
      </trkpt>
      <trkpt lat="47.30907" lon="-1.5427">
        <ele>66</ele>
        <time>2020-12-24T13:16:40.000Z</time>
      </trkpt>
      <trkpt lat="47.30922" lon="-1.54272">
        <ele>65</ele>
        <time>2020-12-24T13:16:42.000Z</time>
      </trkpt>
      <trkpt lat="47.30936" lon="-1.54275">
        <ele>65</ele>
        <time>2020-12-24T13:16:44.000Z</time>
      </trkpt>
      <trkpt lat="47.30949" lon="-1.54282">
        <ele>64</ele>
        <time>2020-12-24T13:16:46.000Z</time>
      </trkpt>
      <trkpt lat="47.30962" lon="-1.54289">
        <ele>64</ele>
        <time>2020-12-24T13:16:48.000Z</time>
      </trkpt>
      <trkpt lat="47.30974" lon="-1.54291">
        <ele>63</ele>
        <time>2020-12-24T13:16:50.000Z</time>
      </trkpt>
      <trkpt lat="47.30986" lon="-1.54286">
        <ele>63</ele>
        <time>2020-12-24T13:16:52.000Z</time>
      </trkpt>
      <trkpt lat="47.30999" lon="-1.54282">
        <ele>62</ele>
        <time>2020-12-24T13:16:54.000Z</time>
      </trkpt>
      <trkpt lat="47.31013" lon="-1.54282">
        <ele>61</ele>
        <time>2020-12-24T13:16:56.000Z</time>
      </trkpt>
      <trkpt lat="47.31026" lon="-1.54282">
        <ele>61</ele>
        <time>2020-12-24T13:16:58.000Z</time>
      </trkpt>
      <trkpt lat="47.3104" lon="-1.54284">
        <ele>61</ele>
        <time>2020-12-24T13:17:00.000Z</time>
      </trkpt>
      <trkpt lat="47.31053" lon="-1.54286">
        <ele>60</ele>
        <time>2020-12-24T13:17:02.000Z</time>
      </trkpt>
      <trkpt lat="47.31065" lon="-1.54288">
        <ele>60</ele>
        <time>2020-12-24T13:17:04.000Z</time>
      </trkpt>
      <trkpt lat="47.31078" lon="-1.54288">
        <ele>59</ele>
        <time>2020-12-24T13:17:06.000Z</time>
      </trkpt>
      <trkpt lat="47.31091" lon="-1.5429">
        <ele>59</ele>
        <time>2020-12-24T13:17:08.000Z</time>
      </trkpt>
      <trkpt lat="47.31104" lon="-1.5429">
        <ele>59</ele>
        <time>2020-12-24T13:17:10.000Z</time>
      </trkpt>
      <trkpt lat="47.31118" lon="-1.54291">
        <ele>58</ele>
        <time>2020-12-24T13:17:12.000Z</time>
      </trkpt>
      <trkpt lat="47.31131" lon="-1.54291">
        <ele>58</ele>
        <time>2020-12-24T13:17:14.000Z</time>
      </trkpt>
      <trkpt lat="47.31145" lon="-1.5429">
        <ele>58</ele>
        <time>2020-12-24T13:17:16.000Z</time>
      </trkpt>
      <trkpt lat="47.31158" lon="-1.5429">
        <ele>57</ele>
        <time>2020-12-24T13:17:18.000Z</time>
      </trkpt>
      <trkpt lat="47.31169" lon="-1.54291">
        <ele>57</ele>
        <time>2020-12-24T13:17:20.000Z</time>
      </trkpt>
      <trkpt lat="47.31181" lon="-1.54294">
        <ele>57</ele>
        <time>2020-12-24T13:17:22.000Z</time>
      </trkpt>
      <trkpt lat="47.31192" lon="-1.54298">
        <ele>57</ele>
        <time>2020-12-24T13:17:24.000Z</time>
      </trkpt>
      <trkpt lat="47.31203" lon="-1.54305">
        <ele>57</ele>
        <time>2020-12-24T13:17:26.000Z</time>
      </trkpt>
      <trkpt lat="47.31211" lon="-1.54317">
        <ele>57</ele>
        <time>2020-12-24T13:17:28.000Z</time>
      </trkpt>
      <trkpt lat="47.3122" lon="-1.54325">
        <ele>57</ele>
        <time>2020-12-24T13:17:30.000Z</time>
      </trkpt>
      <trkpt lat="47.31231" lon="-1.54329">
        <ele>57</ele>
        <time>2020-12-24T13:17:32.000Z</time>
      </trkpt>
      <trkpt lat="47.31242" lon="-1.54323">
        <ele>57</ele>
        <time>2020-12-24T13:17:34.000Z</time>
      </trkpt>
      <trkpt lat="47.31251" lon="-1.54311">
        <ele>57</ele>
        <time>2020-12-24T13:17:36.000Z</time>
      </trkpt>
      <trkpt lat="47.31263" lon="-1.54305">
        <ele>56</ele>
        <time>2020-12-24T13:17:38.000Z</time>
      </trkpt>
      <trkpt lat="47.31274" lon="-1.54303">
        <ele>56</ele>
        <time>2020-12-24T13:17:40.000Z</time>
      </trkpt>
      <trkpt lat="47.31286" lon="-1.54302">
        <ele>56</ele>
        <time>2020-12-24T13:17:42.000Z</time>
      </trkpt>
      <trkpt lat="47.31298" lon="-1.54303">
        <ele>55</ele>
        <time>2020-12-24T13:17:44.000Z</time>
      </trkpt>
      <trkpt lat="47.3131" lon="-1.54304">
        <ele>55</ele>
        <time>2020-12-24T13:17:46.000Z</time>
      </trkpt>
      <trkpt lat="47.31321" lon="-1.54305">
        <ele>55</ele>
        <time>2020-12-24T13:17:48.000Z</time>
      </trkpt>
      <trkpt lat="47.31332" lon="-1.54306">
        <ele>55</ele>
        <time>2020-12-24T13:17:50.000Z</time>
      </trkpt>
      <trkpt lat="47.31342" lon="-1.54309">
        <ele>56</ele>
        <time>2020-12-24T13:17:52.000Z</time>
      </trkpt>
      <trkpt lat="47.31352" lon="-1.54314">
        <ele>56</ele>
        <time>2020-12-24T13:17:54.000Z</time>
      </trkpt>
      <trkpt lat="47.31363" lon="-1.54316">
        <ele>56</ele>
        <time>2020-12-24T13:17:56.000Z</time>
      </trkpt>
      <trkpt lat="47.31375" lon="-1.54317">
        <ele>57</ele>
        <time>2020-12-24T13:17:58.000Z</time>
      </trkpt>
      <trkpt lat="47.31387" lon="-1.54319">
        <ele>56</ele>
        <time>2020-12-24T13:18:00.000Z</time>
      </trkpt>
      <trkpt lat="47.31399" lon="-1.54319">
        <ele>57</ele>
        <time>2020-12-24T13:18:02.000Z</time>
      </trkpt>
      <trkpt lat="47.3141" lon="-1.54319">
        <ele>57</ele>
        <time>2020-12-24T13:18:04.000Z</time>
      </trkpt>
      <trkpt lat="47.31421" lon="-1.54319">
        <ele>57</ele>
        <time>2020-12-24T13:18:06.000Z</time>
      </trkpt>
      <trkpt lat="47.31432" lon="-1.54321">
        <ele>58</ele>
        <time>2020-12-24T13:18:08.000Z</time>
      </trkpt>
      <trkpt lat="47.31442" lon="-1.54325">
        <ele>58</ele>
        <time>2020-12-24T13:18:10.000Z</time>
      </trkpt>
      <trkpt lat="47.31452" lon="-1.54329">
        <ele>59</ele>
        <time>2020-12-24T13:18:12.000Z</time>
      </trkpt>
      <trkpt lat="47.31463" lon="-1.54331">
        <ele>58</ele>
        <time>2020-12-24T13:18:14.000Z</time>
      </trkpt>
      <trkpt lat="47.31475" lon="-1.54333">
        <ele>57</ele>
        <time>2020-12-24T13:18:16.000Z</time>
      </trkpt>
      <trkpt lat="47.31487" lon="-1.54335">
        <ele>57</ele>
        <time>2020-12-24T13:18:18.000Z</time>
      </trkpt>
      <trkpt lat="47.31498" lon="-1.54335">
        <ele>57</ele>
        <time>2020-12-24T13:18:20.000Z</time>
      </trkpt>
      <trkpt lat="47.31509" lon="-1.54333">
        <ele>56</ele>
        <time>2020-12-24T13:18:22.000Z</time>
      </trkpt>
      <trkpt lat="47.31518" lon="-1.54327">
        <ele>56</ele>
        <time>2020-12-24T13:18:24.000Z</time>
      </trkpt>
      <trkpt lat="47.31529" lon="-1.54326">
        <ele>55</ele>
        <time>2020-12-24T13:18:26.000Z</time>
      </trkpt>
      <trkpt lat="47.3154" lon="-1.54327">
        <ele>56</ele>
        <time>2020-12-24T13:18:28.000Z</time>
      </trkpt>
      <trkpt lat="47.31551" lon="-1.54328">
        <ele>56</ele>
        <time>2020-12-24T13:18:30.000Z</time>
      </trkpt>
      <trkpt lat="47.31563" lon="-1.54327">
        <ele>55</ele>
        <time>2020-12-24T13:18:32.000Z</time>
      </trkpt>
      <trkpt lat="47.31574" lon="-1.54327">
        <ele>55</ele>
        <time>2020-12-24T13:18:34.000Z</time>
      </trkpt>
      <trkpt lat="47.31585" lon="-1.54328">
        <ele>55</ele>
        <time>2020-12-24T13:18:36.000Z</time>
      </trkpt>
      <trkpt lat="47.31595" lon="-1.54329">
        <ele>55</ele>
        <time>2020-12-24T13:18:38.000Z</time>
      </trkpt>
      <trkpt lat="47.31607" lon="-1.54329">
        <ele>56</ele>
        <time>2020-12-24T13:18:41.000Z</time>
      </trkpt>
      <trkpt lat="47.31619" lon="-1.54323">
        <ele>55</ele>
        <time>2020-12-24T13:18:44.000Z</time>
      </trkpt>
      <trkpt lat="47.31627" lon="-1.54319">
        <ele>55</ele>
        <time>2020-12-24T13:18:46.000Z</time>
      </trkpt>
      <trkpt lat="47.31637" lon="-1.54308">
        <ele>55</ele>
        <time>2020-12-24T13:18:49.000Z</time>
      </trkpt>
      <trkpt lat="47.31644" lon="-1.54298">
        <ele>55</ele>
        <time>2020-12-24T13:18:51.000Z</time>
      </trkpt>
      <trkpt lat="47.31654" lon="-1.5429">
        <ele>55</ele>
        <time>2020-12-24T13:18:53.000Z</time>
      </trkpt>
      <trkpt lat="47.31664" lon="-1.54284">
        <ele>55</ele>
        <time>2020-12-24T13:18:55.000Z</time>
      </trkpt>
      <trkpt lat="47.31674" lon="-1.54277">
        <ele>54</ele>
        <time>2020-12-24T13:18:57.000Z</time>
      </trkpt>
      <trkpt lat="47.31683" lon="-1.54268">
        <ele>54</ele>
        <time>2020-12-24T13:18:59.000Z</time>
      </trkpt>
      <trkpt lat="47.31692" lon="-1.54261">
        <ele>55</ele>
        <time>2020-12-24T13:19:01.000Z</time>
      </trkpt>
      <trkpt lat="47.31702" lon="-1.54252">
        <ele>55</ele>
        <time>2020-12-24T13:19:03.000Z</time>
      </trkpt>
      <trkpt lat="47.31711" lon="-1.54243">
        <ele>54</ele>
        <time>2020-12-24T13:19:05.000Z</time>
      </trkpt>
      <trkpt lat="47.3172" lon="-1.54234">
        <ele>54</ele>
        <time>2020-12-24T13:19:07.000Z</time>
      </trkpt>
      <trkpt lat="47.31729" lon="-1.54225">
        <ele>54</ele>
        <time>2020-12-24T13:19:09.000Z</time>
      </trkpt>
      <trkpt lat="47.31738" lon="-1.54214">
        <ele>54</ele>
        <time>2020-12-24T13:19:11.000Z</time>
      </trkpt>
      <trkpt lat="47.31747" lon="-1.54204">
        <ele>55</ele>
        <time>2020-12-24T13:19:13.000Z</time>
      </trkpt>
      <trkpt lat="47.31756" lon="-1.54196">
        <ele>56</ele>
        <time>2020-12-24T13:19:15.000Z</time>
      </trkpt>
      <trkpt lat="47.31764" lon="-1.54185">
        <ele>56</ele>
        <time>2020-12-24T13:19:17.000Z</time>
      </trkpt>
      <trkpt lat="47.31771" lon="-1.54172">
        <ele>56</ele>
        <time>2020-12-24T13:19:19.000Z</time>
      </trkpt>
      <trkpt lat="47.31778" lon="-1.5416">
        <ele>56</ele>
        <time>2020-12-24T13:19:21.000Z</time>
      </trkpt>
      <trkpt lat="47.31785" lon="-1.54147">
        <ele>56</ele>
        <time>2020-12-24T13:19:23.000Z</time>
      </trkpt>
      <trkpt lat="47.31792" lon="-1.54135">
        <ele>55</ele>
        <time>2020-12-24T13:19:25.000Z</time>
      </trkpt>
      <trkpt lat="47.31798" lon="-1.54122">
        <ele>56</ele>
        <time>2020-12-24T13:19:27.000Z</time>
      </trkpt>
      <trkpt lat="47.31805" lon="-1.54109">
        <ele>56</ele>
        <time>2020-12-24T13:19:29.000Z</time>
      </trkpt>
      <trkpt lat="47.31813" lon="-1.54097">
        <ele>56</ele>
        <time>2020-12-24T13:19:31.000Z</time>
      </trkpt>
      <trkpt lat="47.3182" lon="-1.54084">
        <ele>55</ele>
        <time>2020-12-24T13:19:33.000Z</time>
      </trkpt>
      <trkpt lat="47.31826" lon="-1.54071">
        <ele>55</ele>
        <time>2020-12-24T13:19:35.000Z</time>
      </trkpt>
      <trkpt lat="47.31832" lon="-1.54057">
        <ele>56</ele>
        <time>2020-12-24T13:19:37.000Z</time>
      </trkpt>
      <trkpt lat="47.31839" lon="-1.54043">
        <ele>56</ele>
        <time>2020-12-24T13:19:39.000Z</time>
      </trkpt>
      <trkpt lat="47.31846" lon="-1.54029">
        <ele>56</ele>
        <time>2020-12-24T13:19:41.000Z</time>
      </trkpt>
      <trkpt lat="47.31853" lon="-1.54016">
        <ele>56</ele>
        <time>2020-12-24T13:19:43.000Z</time>
      </trkpt>
      <trkpt lat="47.31859" lon="-1.54002">
        <ele>55</ele>
        <time>2020-12-24T13:19:45.000Z</time>
      </trkpt>
      <trkpt lat="47.31866" lon="-1.53989">
        <ele>55</ele>
        <time>2020-12-24T13:19:47.000Z</time>
      </trkpt>
      <trkpt lat="47.31872" lon="-1.53975">
        <ele>56</ele>
        <time>2020-12-24T13:19:49.000Z</time>
      </trkpt>
      <trkpt lat="47.31879" lon="-1.53961">
        <ele>56</ele>
        <time>2020-12-24T13:19:51.000Z</time>
      </trkpt>
      <trkpt lat="47.31886" lon="-1.53947">
        <ele>56</ele>
        <time>2020-12-24T13:19:53.000Z</time>
      </trkpt>
      <trkpt lat="47.31893" lon="-1.53934">
        <ele>57</ele>
        <time>2020-12-24T13:19:55.000Z</time>
      </trkpt>
      <trkpt lat="47.319" lon="-1.5392">
        <ele>57</ele>
        <time>2020-12-24T13:19:57.000Z</time>
      </trkpt>
      <trkpt lat="47.31906" lon="-1.53906">
        <ele>57</ele>
        <time>2020-12-24T13:19:59.000Z</time>
      </trkpt>
      <trkpt lat="47.31913" lon="-1.53892">
        <ele>57</ele>
        <time>2020-12-24T13:20:01.000Z</time>
      </trkpt>
      <trkpt lat="47.3192" lon="-1.53878">
        <ele>57</ele>
        <time>2020-12-24T13:20:03.000Z</time>
      </trkpt>
      <trkpt lat="47.31928" lon="-1.53865">
        <ele>57</ele>
        <time>2020-12-24T13:20:05.000Z</time>
      </trkpt>
      <trkpt lat="47.31935" lon="-1.53853">
        <ele>58</ele>
        <time>2020-12-24T13:20:07.000Z</time>
      </trkpt>
      <trkpt lat="47.31942" lon="-1.53838">
        <ele>58</ele>
        <time>2020-12-24T13:20:09.000Z</time>
      </trkpt>
      <trkpt lat="47.31949" lon="-1.53824">
        <ele>58</ele>
        <time>2020-12-24T13:20:11.000Z</time>
      </trkpt>
      <trkpt lat="47.31955" lon="-1.53811">
        <ele>58</ele>
        <time>2020-12-24T13:20:13.000Z</time>
      </trkpt>
      <trkpt lat="47.31961" lon="-1.53797">
        <ele>58</ele>
        <time>2020-12-24T13:20:15.000Z</time>
      </trkpt>
      <trkpt lat="47.31968" lon="-1.53784">
        <ele>58</ele>
        <time>2020-12-24T13:20:17.000Z</time>
      </trkpt>
      <trkpt lat="47.31976" lon="-1.53774">
        <ele>58</ele>
        <time>2020-12-24T13:20:19.000Z</time>
      </trkpt>
      <trkpt lat="47.31986" lon="-1.53765">
        <ele>58</ele>
        <time>2020-12-24T13:20:21.000Z</time>
      </trkpt>
      <trkpt lat="47.31993" lon="-1.53756">
        <ele>58</ele>
        <time>2020-12-24T13:20:23.000Z</time>
      </trkpt>
      <trkpt lat="47.32" lon="-1.53745">
        <ele>59</ele>
        <time>2020-12-24T13:20:25.000Z</time>
      </trkpt>
      <trkpt lat="47.32009" lon="-1.53736">
        <ele>60</ele>
        <time>2020-12-24T13:20:27.000Z</time>
      </trkpt>
      <trkpt lat="47.32018" lon="-1.5373">
        <ele>61</ele>
        <time>2020-12-24T13:20:29.000Z</time>
      </trkpt>
      <trkpt lat="47.32028" lon="-1.53724">
        <ele>61</ele>
        <time>2020-12-24T13:20:31.000Z</time>
      </trkpt>
      <trkpt lat="47.32037" lon="-1.53716">
        <ele>61</ele>
        <time>2020-12-24T13:20:33.000Z</time>
      </trkpt>
      <trkpt lat="47.32045" lon="-1.53707">
        <ele>62</ele>
        <time>2020-12-24T13:20:35.000Z</time>
      </trkpt>
      <trkpt lat="47.32053" lon="-1.53696">
        <ele>61</ele>
        <time>2020-12-24T13:20:37.000Z</time>
      </trkpt>
      <trkpt lat="47.32059" lon="-1.53682">
        <ele>61</ele>
        <time>2020-12-24T13:20:39.000Z</time>
      </trkpt>
      <trkpt lat="47.32062" lon="-1.53667">
        <ele>61</ele>
        <time>2020-12-24T13:20:41.000Z</time>
      </trkpt>
      <trkpt lat="47.32064" lon="-1.53651">
        <ele>61</ele>
        <time>2020-12-24T13:20:43.000Z</time>
      </trkpt>
      <trkpt lat="47.32066" lon="-1.53635">
        <ele>62</ele>
        <time>2020-12-24T13:20:45.000Z</time>
      </trkpt>
      <trkpt lat="47.32072" lon="-1.53621">
        <ele>61</ele>
        <time>2020-12-24T13:20:47.000Z</time>
      </trkpt>
      <trkpt lat="47.32081" lon="-1.53611">
        <ele>62</ele>
        <time>2020-12-24T13:20:49.000Z</time>
      </trkpt>
      <trkpt lat="47.3209" lon="-1.53603">
        <ele>62</ele>
        <time>2020-12-24T13:20:51.000Z</time>
      </trkpt>
      <trkpt lat="47.321" lon="-1.53596">
        <ele>61</ele>
        <time>2020-12-24T13:20:53.000Z</time>
      </trkpt>
      <trkpt lat="47.32111" lon="-1.53591">
        <ele>61</ele>
        <time>2020-12-24T13:20:55.000Z</time>
      </trkpt>
      <trkpt lat="47.32122" lon="-1.53588">
        <ele>61</ele>
        <time>2020-12-24T13:20:57.000Z</time>
      </trkpt>
      <trkpt lat="47.32132" lon="-1.53586">
        <ele>61</ele>
        <time>2020-12-24T13:20:59.000Z</time>
      </trkpt>
      <trkpt lat="47.32143" lon="-1.53585">
        <ele>61</ele>
        <time>2020-12-24T13:21:01.000Z</time>
      </trkpt>
      <trkpt lat="47.32154" lon="-1.53584">
        <ele>61</ele>
        <time>2020-12-24T13:21:03.000Z</time>
      </trkpt>
      <trkpt lat="47.32165" lon="-1.53584">
        <ele>61</ele>
        <time>2020-12-24T13:21:05.000Z</time>
      </trkpt>
      <trkpt lat="47.32176" lon="-1.53584">
        <ele>61</ele>
        <time>2020-12-24T13:21:07.000Z</time>
      </trkpt>
      <trkpt lat="47.32186" lon="-1.53584">
        <ele>61</ele>
        <time>2020-12-24T13:21:09.000Z</time>
      </trkpt>
      <trkpt lat="47.32197" lon="-1.53584">
        <ele>61</ele>
        <time>2020-12-24T13:21:11.000Z</time>
      </trkpt>
      <trkpt lat="47.32207" lon="-1.53584">
        <ele>62</ele>
        <time>2020-12-24T13:21:13.000Z</time>
      </trkpt>
      <trkpt lat="47.32216" lon="-1.53583">
        <ele>62</ele>
        <time>2020-12-24T13:21:15.000Z</time>
      </trkpt>
      <trkpt lat="47.32226" lon="-1.53583">
        <ele>62</ele>
        <time>2020-12-24T13:21:17.000Z</time>
      </trkpt>
      <trkpt lat="47.32236" lon="-1.53582">
        <ele>61</ele>
        <time>2020-12-24T13:21:19.000Z</time>
      </trkpt>
      <trkpt lat="47.32245" lon="-1.53575">
        <ele>61</ele>
        <time>2020-12-24T13:21:21.000Z</time>
      </trkpt>
      <trkpt lat="47.32249" lon="-1.5356">
        <ele>60</ele>
        <time>2020-12-24T13:21:23.000Z</time>
      </trkpt>
      <trkpt lat="47.32249" lon="-1.53543">
        <ele>60</ele>
        <time>2020-12-24T13:21:25.000Z</time>
      </trkpt>
      <trkpt lat="47.3225" lon="-1.53529">
        <ele>60</ele>
        <time>2020-12-24T13:21:27.000Z</time>
      </trkpt>
      <trkpt lat="47.32249" lon="-1.53513">
        <ele>60</ele>
        <time>2020-12-24T13:21:30.000Z</time>
      </trkpt>
      <trkpt lat="47.32258" lon="-1.53508">
        <ele>60</ele>
        <time>2020-12-24T13:21:33.000Z</time>
      </trkpt>
      <trkpt lat="47.3227" lon="-1.53516">
        <ele>61</ele>
        <time>2020-12-24T13:21:36.000Z</time>
      </trkpt>
      <trkpt lat="47.32282" lon="-1.53524">
        <ele>62</ele>
        <time>2020-12-24T13:21:39.000Z</time>
      </trkpt>
      <trkpt lat="47.32294" lon="-1.53532">
        <ele>62</ele>
        <time>2020-12-24T13:21:42.000Z</time>
      </trkpt>
      <trkpt lat="47.32307" lon="-1.53537">
        <ele>63</ele>
        <time>2020-12-24T13:21:45.000Z</time>
      </trkpt>
      <trkpt lat="47.32318" lon="-1.53543">
        <ele>64</ele>
        <time>2020-12-24T13:21:48.000Z</time>
      </trkpt>
      <trkpt lat="47.32328" lon="-1.5355">
        <ele>66</ele>
        <time>2020-12-24T13:21:51.000Z</time>
      </trkpt>
      <trkpt lat="47.32338" lon="-1.53557">
        <ele>67</ele>
        <time>2020-12-24T13:21:54.000Z</time>
      </trkpt>
      <trkpt lat="47.3235" lon="-1.53561">
        <ele>67</ele>
        <time>2020-12-24T13:21:57.000Z</time>
      </trkpt>
      <trkpt lat="47.32361" lon="-1.53566">
        <ele>68</ele>
        <time>2020-12-24T13:22:00.000Z</time>
      </trkpt>
      <trkpt lat="47.32372" lon="-1.53572">
        <ele>68</ele>
        <time>2020-12-24T13:22:03.000Z</time>
      </trkpt>
      <trkpt lat="47.32383" lon="-1.53578">
        <ele>68</ele>
        <time>2020-12-24T13:22:06.000Z</time>
      </trkpt>
      <trkpt lat="47.32394" lon="-1.53583">
        <ele>68</ele>
        <time>2020-12-24T13:22:09.000Z</time>
      </trkpt>
      <trkpt lat="47.32405" lon="-1.53588">
        <ele>69</ele>
        <time>2020-12-24T13:22:12.000Z</time>
      </trkpt>
      <trkpt lat="47.32415" lon="-1.53593">
        <ele>70</ele>
        <time>2020-12-24T13:22:15.000Z</time>
      </trkpt>
      <trkpt lat="47.32426" lon="-1.53598">
        <ele>70</ele>
        <time>2020-12-24T13:22:18.000Z</time>
      </trkpt>
      <trkpt lat="47.32437" lon="-1.53603">
        <ele>71</ele>
        <time>2020-12-24T13:22:21.000Z</time>
      </trkpt>
      <trkpt lat="47.32447" lon="-1.53609">
        <ele>71</ele>
        <time>2020-12-24T13:22:24.000Z</time>
      </trkpt>
      <trkpt lat="47.32458" lon="-1.53614">
        <ele>71</ele>
        <time>2020-12-24T13:22:27.000Z</time>
      </trkpt>
      <trkpt lat="47.32469" lon="-1.53619">
        <ele>71</ele>
        <time>2020-12-24T13:22:30.000Z</time>
      </trkpt>
      <trkpt lat="47.32479" lon="-1.53624">
        <ele>71</ele>
        <time>2020-12-24T13:22:33.000Z</time>
      </trkpt>
      <trkpt lat="47.3249" lon="-1.53629">
        <ele>71</ele>
        <time>2020-12-24T13:22:36.000Z</time>
      </trkpt>
      <trkpt lat="47.32501" lon="-1.53634">
        <ele>71</ele>
        <time>2020-12-24T13:22:39.000Z</time>
      </trkpt>
      <trkpt lat="47.32512" lon="-1.53639">
        <ele>71</ele>
        <time>2020-12-24T13:22:42.000Z</time>
      </trkpt>
      <trkpt lat="47.32523" lon="-1.53645">
        <ele>71</ele>
        <time>2020-12-24T13:22:45.000Z</time>
      </trkpt>
      <trkpt lat="47.32535" lon="-1.5365">
        <ele>71</ele>
        <time>2020-12-24T13:22:48.000Z</time>
      </trkpt>
      <trkpt lat="47.32546" lon="-1.53656">
        <ele>71</ele>
        <time>2020-12-24T13:22:51.000Z</time>
      </trkpt>
      <trkpt lat="47.32557" lon="-1.53662">
        <ele>71</ele>
        <time>2020-12-24T13:22:54.000Z</time>
      </trkpt>
      <trkpt lat="47.3257" lon="-1.53668">
        <ele>71</ele>
        <time>2020-12-24T13:22:57.000Z</time>
      </trkpt>
      <trkpt lat="47.32581" lon="-1.53673">
        <ele>71</ele>
        <time>2020-12-24T13:23:00.000Z</time>
      </trkpt>
      <trkpt lat="47.32594" lon="-1.53679">
        <ele>72</ele>
        <time>2020-12-24T13:23:03.000Z</time>
      </trkpt>
      <trkpt lat="47.32606" lon="-1.53684">
        <ele>72</ele>
        <time>2020-12-24T13:23:06.000Z</time>
      </trkpt>
      <trkpt lat="47.32618" lon="-1.53689">
        <ele>72</ele>
        <time>2020-12-24T13:23:09.000Z</time>
      </trkpt>
      <trkpt lat="47.32631" lon="-1.53693">
        <ele>72</ele>
        <time>2020-12-24T13:23:12.000Z</time>
      </trkpt>
      <trkpt lat="47.32639" lon="-1.53696">
        <ele>72</ele>
        <time>2020-12-24T13:23:14.000Z</time>
      </trkpt>
      <trkpt lat="47.32649" lon="-1.53698">
        <ele>71</ele>
        <time>2020-12-24T13:23:16.000Z</time>
      </trkpt>
      <trkpt lat="47.32658" lon="-1.53699">
        <ele>71</ele>
        <time>2020-12-24T13:23:18.000Z</time>
      </trkpt>
      <trkpt lat="47.32668" lon="-1.53699">
        <ele>71</ele>
        <time>2020-12-24T13:23:20.000Z</time>
      </trkpt>
      <trkpt lat="47.32678" lon="-1.53698">
        <ele>71</ele>
        <time>2020-12-24T13:23:22.000Z</time>
      </trkpt>
      <trkpt lat="47.3269" lon="-1.53699">
        <ele>71</ele>
        <time>2020-12-24T13:23:24.000Z</time>
      </trkpt>
      <trkpt lat="47.32701" lon="-1.53701">
        <ele>70</ele>
        <time>2020-12-24T13:23:26.000Z</time>
      </trkpt>
      <trkpt lat="47.32712" lon="-1.53702">
        <ele>70</ele>
        <time>2020-12-24T13:23:28.000Z</time>
      </trkpt>
      <trkpt lat="47.32723" lon="-1.53701">
        <ele>70</ele>
        <time>2020-12-24T13:23:30.000Z</time>
      </trkpt>
      <trkpt lat="47.32735" lon="-1.537">
        <ele>70</ele>
        <time>2020-12-24T13:23:32.000Z</time>
      </trkpt>
      <trkpt lat="47.32747" lon="-1.53696">
        <ele>69</ele>
        <time>2020-12-24T13:23:34.000Z</time>
      </trkpt>
      <trkpt lat="47.32759" lon="-1.53691">
        <ele>69</ele>
        <time>2020-12-24T13:23:36.000Z</time>
      </trkpt>
      <trkpt lat="47.32771" lon="-1.53688">
        <ele>68</ele>
        <time>2020-12-24T13:23:38.000Z</time>
      </trkpt>
      <trkpt lat="47.32784" lon="-1.53687">
        <ele>67</ele>
        <time>2020-12-24T13:23:40.000Z</time>
      </trkpt>
      <trkpt lat="47.32797" lon="-1.53685">
        <ele>66</ele>
        <time>2020-12-24T13:23:42.000Z</time>
      </trkpt>
      <trkpt lat="47.32809" lon="-1.53684">
        <ele>65</ele>
        <time>2020-12-24T13:23:44.000Z</time>
      </trkpt>
      <trkpt lat="47.32822" lon="-1.53682">
        <ele>65</ele>
        <time>2020-12-24T13:23:46.000Z</time>
      </trkpt>
      <trkpt lat="47.32834" lon="-1.5368">
        <ele>64</ele>
        <time>2020-12-24T13:23:48.000Z</time>
      </trkpt>
      <trkpt lat="47.32846" lon="-1.53677">
        <ele>64</ele>
        <time>2020-12-24T13:23:50.000Z</time>
      </trkpt>
      <trkpt lat="47.32857" lon="-1.53681">
        <ele>64</ele>
        <time>2020-12-24T13:23:52.000Z</time>
      </trkpt>
      <trkpt lat="47.32868" lon="-1.53684">
        <ele>64</ele>
        <time>2020-12-24T13:23:54.000Z</time>
      </trkpt>
      <trkpt lat="47.3288" lon="-1.53683">
        <ele>64</ele>
        <time>2020-12-24T13:23:56.000Z</time>
      </trkpt>
      <trkpt lat="47.32892" lon="-1.53681">
        <ele>64</ele>
        <time>2020-12-24T13:23:58.000Z</time>
      </trkpt>
      <trkpt lat="47.32905" lon="-1.53678">
        <ele>63</ele>
        <time>2020-12-24T13:24:00.000Z</time>
      </trkpt>
      <trkpt lat="47.32918" lon="-1.53675">
        <ele>62</ele>
        <time>2020-12-24T13:24:02.000Z</time>
      </trkpt>
      <trkpt lat="47.32931" lon="-1.53672">
        <ele>62</ele>
        <time>2020-12-24T13:24:04.000Z</time>
      </trkpt>
      <trkpt lat="47.32945" lon="-1.53668">
        <ele>61</ele>
        <time>2020-12-24T13:24:06.000Z</time>
      </trkpt>
      <trkpt lat="47.32958" lon="-1.53663">
        <ele>61</ele>
        <time>2020-12-24T13:24:08.000Z</time>
      </trkpt>
      <trkpt lat="47.32972" lon="-1.53659">
        <ele>61</ele>
        <time>2020-12-24T13:24:10.000Z</time>
      </trkpt>
      <trkpt lat="47.32986" lon="-1.53654">
        <ele>60</ele>
        <time>2020-12-24T13:24:12.000Z</time>
      </trkpt>
      <trkpt lat="47.33" lon="-1.53648">
        <ele>60</ele>
        <time>2020-12-24T13:24:14.000Z</time>
      </trkpt>
      <trkpt lat="47.33013" lon="-1.53644">
        <ele>60</ele>
        <time>2020-12-24T13:24:16.000Z</time>
      </trkpt>
      <trkpt lat="47.33027" lon="-1.53638">
        <ele>60</ele>
        <time>2020-12-24T13:24:18.000Z</time>
      </trkpt>
      <trkpt lat="47.3304" lon="-1.53634">
        <ele>60</ele>
        <time>2020-12-24T13:24:20.000Z</time>
      </trkpt>
      <trkpt lat="47.33053" lon="-1.53629">
        <ele>60</ele>
        <time>2020-12-24T13:24:22.000Z</time>
      </trkpt>
      <trkpt lat="47.33065" lon="-1.53625">
        <ele>61</ele>
        <time>2020-12-24T13:24:24.000Z</time>
      </trkpt>
      <trkpt lat="47.33077" lon="-1.53622">
        <ele>61</ele>
        <time>2020-12-24T13:24:26.000Z</time>
      </trkpt>
      <trkpt lat="47.33088" lon="-1.53618">
        <ele>62</ele>
        <time>2020-12-24T13:24:28.000Z</time>
      </trkpt>
      <trkpt lat="47.33099" lon="-1.53614">
        <ele>62</ele>
        <time>2020-12-24T13:24:30.000Z</time>
      </trkpt>
      <trkpt lat="47.33109" lon="-1.53609">
        <ele>62</ele>
        <time>2020-12-24T13:24:32.000Z</time>
      </trkpt>
      <trkpt lat="47.3312" lon="-1.53605">
        <ele>63</ele>
        <time>2020-12-24T13:24:34.000Z</time>
      </trkpt>
      <trkpt lat="47.3313" lon="-1.53603">
        <ele>63</ele>
        <time>2020-12-24T13:24:36.000Z</time>
      </trkpt>
      <trkpt lat="47.3314" lon="-1.536">
        <ele>64</ele>
        <time>2020-12-24T13:24:38.000Z</time>
      </trkpt>
      <trkpt lat="47.3315" lon="-1.53598">
        <ele>65</ele>
        <time>2020-12-24T13:24:40.000Z</time>
      </trkpt>
      <trkpt lat="47.3316" lon="-1.53594">
        <ele>65</ele>
        <time>2020-12-24T13:24:42.000Z</time>
      </trkpt>
      <trkpt lat="47.33169" lon="-1.5359">
        <ele>66</ele>
        <time>2020-12-24T13:24:44.000Z</time>
      </trkpt>
      <trkpt lat="47.33179" lon="-1.53586">
        <ele>67</ele>
        <time>2020-12-24T13:24:46.000Z</time>
      </trkpt>
      <trkpt lat="47.33189" lon="-1.53583">
        <ele>67</ele>
        <time>2020-12-24T13:24:48.000Z</time>
      </trkpt>
      <trkpt lat="47.33199" lon="-1.5358">
        <ele>68</ele>
        <time>2020-12-24T13:24:50.000Z</time>
      </trkpt>
      <trkpt lat="47.33208" lon="-1.53576">
        <ele>68</ele>
        <time>2020-12-24T13:24:52.000Z</time>
      </trkpt>
      <trkpt lat="47.33218" lon="-1.53572">
        <ele>68</ele>
        <time>2020-12-24T13:24:54.000Z</time>
      </trkpt>
      <trkpt lat="47.33227" lon="-1.53568">
        <ele>69</ele>
        <time>2020-12-24T13:24:56.000Z</time>
      </trkpt>
      <trkpt lat="47.33237" lon="-1.53565">
        <ele>69</ele>
        <time>2020-12-24T13:24:58.000Z</time>
      </trkpt>
      <trkpt lat="47.33247" lon="-1.53561">
        <ele>70</ele>
        <time>2020-12-24T13:25:00.000Z</time>
      </trkpt>
      <trkpt lat="47.33256" lon="-1.53552">
        <ele>70</ele>
        <time>2020-12-24T13:25:03.000Z</time>
      </trkpt>
      <trkpt lat="47.33265" lon="-1.53547">
        <ele>71</ele>
        <time>2020-12-24T13:25:06.000Z</time>
      </trkpt>
      <trkpt lat="47.33278" lon="-1.53542">
        <ele>71</ele>
        <time>2020-12-24T13:25:09.000Z</time>
      </trkpt>
      <trkpt lat="47.33288" lon="-1.53538">
        <ele>71</ele>
        <time>2020-12-24T13:25:11.000Z</time>
      </trkpt>
      <trkpt lat="47.33297" lon="-1.53535">
        <ele>71</ele>
        <time>2020-12-24T13:25:13.000Z</time>
      </trkpt>
      <trkpt lat="47.33307" lon="-1.53532">
        <ele>71</ele>
        <time>2020-12-24T13:25:15.000Z</time>
      </trkpt>
      <trkpt lat="47.33316" lon="-1.53528">
        <ele>71</ele>
        <time>2020-12-24T13:25:17.000Z</time>
      </trkpt>
      <trkpt lat="47.33326" lon="-1.53524">
        <ele>71</ele>
        <time>2020-12-24T13:25:19.000Z</time>
      </trkpt>
      <trkpt lat="47.33336" lon="-1.5352">
        <ele>70</ele>
        <time>2020-12-24T13:25:21.000Z</time>
      </trkpt>
      <trkpt lat="47.33345" lon="-1.53516">
        <ele>70</ele>
        <time>2020-12-24T13:25:23.000Z</time>
      </trkpt>
      <trkpt lat="47.33355" lon="-1.53512">
        <ele>70</ele>
        <time>2020-12-24T13:25:25.000Z</time>
      </trkpt>
      <trkpt lat="47.33365" lon="-1.53508">
        <ele>70</ele>
        <time>2020-12-24T13:25:27.000Z</time>
      </trkpt>
      <trkpt lat="47.33375" lon="-1.53505">
        <ele>70</ele>
        <time>2020-12-24T13:25:29.000Z</time>
      </trkpt>
      <trkpt lat="47.33386" lon="-1.53503">
        <ele>69</ele>
        <time>2020-12-24T13:25:31.000Z</time>
      </trkpt>
      <trkpt lat="47.33396" lon="-1.53502">
        <ele>69</ele>
        <time>2020-12-24T13:25:33.000Z</time>
      </trkpt>
      <trkpt lat="47.33407" lon="-1.535">
        <ele>68</ele>
        <time>2020-12-24T13:25:35.000Z</time>
      </trkpt>
      <trkpt lat="47.33417" lon="-1.53496">
        <ele>68</ele>
        <time>2020-12-24T13:25:37.000Z</time>
      </trkpt>
      <trkpt lat="47.33428" lon="-1.53493">
        <ele>68</ele>
        <time>2020-12-24T13:25:39.000Z</time>
      </trkpt>
      <trkpt lat="47.3344" lon="-1.53491">
        <ele>67</ele>
        <time>2020-12-24T13:25:41.000Z</time>
      </trkpt>
      <trkpt lat="47.33452" lon="-1.53489">
        <ele>67</ele>
        <time>2020-12-24T13:25:43.000Z</time>
      </trkpt>
      <trkpt lat="47.33465" lon="-1.53487">
        <ele>66</ele>
        <time>2020-12-24T13:25:45.000Z</time>
      </trkpt>
      <trkpt lat="47.33478" lon="-1.53485">
        <ele>66</ele>
        <time>2020-12-24T13:25:47.000Z</time>
      </trkpt>
      <trkpt lat="47.33489" lon="-1.53482">
        <ele>65</ele>
        <time>2020-12-24T13:25:49.000Z</time>
      </trkpt>
      <trkpt lat="47.33497" lon="-1.53472">
        <ele>65</ele>
        <time>2020-12-24T13:25:51.000Z</time>
      </trkpt>
      <trkpt lat="47.33499" lon="-1.53455">
        <ele>64</ele>
        <time>2020-12-24T13:25:53.000Z</time>
      </trkpt>
      <trkpt lat="47.335" lon="-1.53439">
        <ele>64</ele>
        <time>2020-12-24T13:25:55.000Z</time>
      </trkpt>
      <trkpt lat="47.33502" lon="-1.53421">
        <ele>64</ele>
        <time>2020-12-24T13:25:57.000Z</time>
      </trkpt>
      <trkpt lat="47.33504" lon="-1.53403">
        <ele>64</ele>
        <time>2020-12-24T13:25:59.000Z</time>
      </trkpt>
      <trkpt lat="47.33506" lon="-1.53385">
        <ele>64</ele>
        <time>2020-12-24T13:26:01.000Z</time>
      </trkpt>
      <trkpt lat="47.33508" lon="-1.53367">
        <ele>64</ele>
        <time>2020-12-24T13:26:03.000Z</time>
      </trkpt>
      <trkpt lat="47.33511" lon="-1.5335">
        <ele>64</ele>
        <time>2020-12-24T13:26:05.000Z</time>
      </trkpt>
      <trkpt lat="47.33513" lon="-1.53333">
        <ele>64</ele>
        <time>2020-12-24T13:26:07.000Z</time>
      </trkpt>
      <trkpt lat="47.33515" lon="-1.53316">
        <ele>63</ele>
        <time>2020-12-24T13:26:09.000Z</time>
      </trkpt>
      <trkpt lat="47.3352" lon="-1.533">
        <ele>63</ele>
        <time>2020-12-24T13:26:11.000Z</time>
      </trkpt>
      <trkpt lat="47.33529" lon="-1.53288">
        <ele>63</ele>
        <time>2020-12-24T13:26:13.000Z</time>
      </trkpt>
      <trkpt lat="47.33538" lon="-1.53281">
        <ele>62</ele>
        <time>2020-12-24T13:26:15.000Z</time>
      </trkpt>
      <trkpt lat="47.33549" lon="-1.53274">
        <ele>62</ele>
        <time>2020-12-24T13:26:17.000Z</time>
      </trkpt>
      <trkpt lat="47.33561" lon="-1.53267">
        <ele>61</ele>
        <time>2020-12-24T13:26:19.000Z</time>
      </trkpt>
      <trkpt lat="47.33572" lon="-1.53262">
        <ele>61</ele>
        <time>2020-12-24T13:26:21.000Z</time>
      </trkpt>
      <trkpt lat="47.33583" lon="-1.53256">
        <ele>60</ele>
        <time>2020-12-24T13:26:23.000Z</time>
      </trkpt>
      <trkpt lat="47.33594" lon="-1.5325">
        <ele>60</ele>
        <time>2020-12-24T13:26:25.000Z</time>
      </trkpt>
      <trkpt lat="47.33605" lon="-1.53243">
        <ele>60</ele>
        <time>2020-12-24T13:26:27.000Z</time>
      </trkpt>
      <trkpt lat="47.33616" lon="-1.53237">
        <ele>59</ele>
        <time>2020-12-24T13:26:29.000Z</time>
      </trkpt>
      <trkpt lat="47.33626" lon="-1.5323">
        <ele>58</ele>
        <time>2020-12-24T13:26:31.000Z</time>
      </trkpt>
      <trkpt lat="47.33637" lon="-1.53223">
        <ele>58</ele>
        <time>2020-12-24T13:26:33.000Z</time>
      </trkpt>
      <trkpt lat="47.33648" lon="-1.53217">
        <ele>57</ele>
        <time>2020-12-24T13:26:35.000Z</time>
      </trkpt>
      <trkpt lat="47.33659" lon="-1.53211">
        <ele>56</ele>
        <time>2020-12-24T13:26:37.000Z</time>
      </trkpt>
      <trkpt lat="47.3367" lon="-1.53204">
        <ele>56</ele>
        <time>2020-12-24T13:26:39.000Z</time>
      </trkpt>
      <trkpt lat="47.33681" lon="-1.53199">
        <ele>56</ele>
        <time>2020-12-24T13:26:41.000Z</time>
      </trkpt>
      <trkpt lat="47.33692" lon="-1.53195">
        <ele>56</ele>
        <time>2020-12-24T13:26:43.000Z</time>
      </trkpt>
      <trkpt lat="47.33703" lon="-1.53191">
        <ele>55</ele>
        <time>2020-12-24T13:26:45.000Z</time>
      </trkpt>
      <trkpt lat="47.33715" lon="-1.53184">
        <ele>55</ele>
        <time>2020-12-24T13:26:47.000Z</time>
      </trkpt>
      <trkpt lat="47.33726" lon="-1.53178">
        <ele>54</ele>
        <time>2020-12-24T13:26:49.000Z</time>
      </trkpt>
      <trkpt lat="47.33738" lon="-1.53172">
        <ele>54</ele>
        <time>2020-12-24T13:26:51.000Z</time>
      </trkpt>
      <trkpt lat="47.3375" lon="-1.53166">
        <ele>54</ele>
        <time>2020-12-24T13:26:53.000Z</time>
      </trkpt>
      <trkpt lat="47.3376" lon="-1.53159">
        <ele>54</ele>
        <time>2020-12-24T13:26:55.000Z</time>
      </trkpt>
      <trkpt lat="47.33769" lon="-1.53152">
        <ele>54</ele>
        <time>2020-12-24T13:26:57.000Z</time>
      </trkpt>
      <trkpt lat="47.33779" lon="-1.53143">
        <ele>53</ele>
        <time>2020-12-24T13:27:00.000Z</time>
      </trkpt>
      <trkpt lat="47.33786" lon="-1.53129">
        <ele>52</ele>
        <time>2020-12-24T13:27:03.000Z</time>
      </trkpt>
      <trkpt lat="47.33791" lon="-1.53118">
        <ele>52</ele>
        <time>2020-12-24T13:27:05.000Z</time>
      </trkpt>
      <trkpt lat="47.33797" lon="-1.53106">
        <ele>52</ele>
        <time>2020-12-24T13:27:07.000Z</time>
      </trkpt>
      <trkpt lat="47.33804" lon="-1.53091">
        <ele>52</ele>
        <time>2020-12-24T13:27:10.000Z</time>
      </trkpt>
      <trkpt lat="47.3381" lon="-1.53077">
        <ele>53</ele>
        <time>2020-12-24T13:27:13.000Z</time>
      </trkpt>
      <trkpt lat="47.33815" lon="-1.53064">
        <ele>53</ele>
        <time>2020-12-24T13:27:16.000Z</time>
      </trkpt>
      <trkpt lat="47.33824" lon="-1.53056">
        <ele>53</ele>
        <time>2020-12-24T13:27:20.000Z</time>
      </trkpt>
      <trkpt lat="47.33831" lon="-1.53066">
        <ele>53</ele>
        <time>2020-12-24T13:27:22.000Z</time>
      </trkpt>
      <trkpt lat="47.33838" lon="-1.53076">
        <ele>53</ele>
        <time>2020-12-24T13:27:24.000Z</time>
      </trkpt>
      <trkpt lat="47.33845" lon="-1.53087">
        <ele>54</ele>
        <time>2020-12-24T13:27:26.000Z</time>
      </trkpt>
      <trkpt lat="47.33851" lon="-1.53097">
        <ele>54</ele>
        <time>2020-12-24T13:27:28.000Z</time>
      </trkpt>
      <trkpt lat="47.33858" lon="-1.53107">
        <ele>54</ele>
        <time>2020-12-24T13:27:30.000Z</time>
      </trkpt>
      <trkpt lat="47.33864" lon="-1.53117">
        <ele>55</ele>
        <time>2020-12-24T13:27:32.000Z</time>
      </trkpt>
      <trkpt lat="47.33873" lon="-1.53117">
        <ele>55</ele>
        <time>2020-12-24T13:27:35.000Z</time>
      </trkpt>
      <trkpt lat="47.3388" lon="-1.531">
        <ele>55</ele>
        <time>2020-12-24T13:27:38.000Z</time>
      </trkpt>
      <trkpt lat="47.33885" lon="-1.53088">
        <ele>55</ele>
        <time>2020-12-24T13:27:40.000Z</time>
      </trkpt>
      <trkpt lat="47.3389" lon="-1.53076">
        <ele>55</ele>
        <time>2020-12-24T13:27:42.000Z</time>
      </trkpt>
      <trkpt lat="47.33894" lon="-1.53062">
        <ele>55</ele>
        <time>2020-12-24T13:27:44.000Z</time>
      </trkpt>
      <trkpt lat="47.339" lon="-1.53047">
        <ele>54</ele>
        <time>2020-12-24T13:27:46.000Z</time>
      </trkpt>
      <trkpt lat="47.33906" lon="-1.53031">
        <ele>54</ele>
        <time>2020-12-24T13:27:48.000Z</time>
      </trkpt>
      <trkpt lat="47.33912" lon="-1.53015">
        <ele>55</ele>
        <time>2020-12-24T13:27:50.000Z</time>
      </trkpt>
      <trkpt lat="47.33917" lon="-1.53001">
        <ele>55</ele>
        <time>2020-12-24T13:27:52.000Z</time>
      </trkpt>
      <trkpt lat="47.33923" lon="-1.52986">
        <ele>55</ele>
        <time>2020-12-24T13:27:54.000Z</time>
      </trkpt>
      <trkpt lat="47.33928" lon="-1.52972">
        <ele>55</ele>
        <time>2020-12-24T13:27:56.000Z</time>
      </trkpt>
      <trkpt lat="47.33934" lon="-1.52957">
        <ele>55</ele>
        <time>2020-12-24T13:27:58.000Z</time>
      </trkpt>
      <trkpt lat="47.33939" lon="-1.52943">
        <ele>55</ele>
        <time>2020-12-24T13:28:00.000Z</time>
      </trkpt>
      <trkpt lat="47.33944" lon="-1.52929">
        <ele>55</ele>
        <time>2020-12-24T13:28:02.000Z</time>
      </trkpt>
      <trkpt lat="47.33949" lon="-1.52915">
        <ele>55</ele>
        <time>2020-12-24T13:28:04.000Z</time>
      </trkpt>
      <trkpt lat="47.33954" lon="-1.52901">
        <ele>55</ele>
        <time>2020-12-24T13:28:06.000Z</time>
      </trkpt>
      <trkpt lat="47.33959" lon="-1.52887">
        <ele>55</ele>
        <time>2020-12-24T13:28:08.000Z</time>
      </trkpt>
      <trkpt lat="47.33964" lon="-1.52875">
        <ele>55</ele>
        <time>2020-12-24T13:28:10.000Z</time>
      </trkpt>
      <trkpt lat="47.33969" lon="-1.52863">
        <ele>56</ele>
        <time>2020-12-24T13:28:13.000Z</time>
      </trkpt>
      <trkpt lat="47.33957" lon="-1.52851">
        <ele>56</ele>
        <time>2020-12-24T13:28:17.000Z</time>
      </trkpt>
      <trkpt lat="47.33945" lon="-1.52841">
        <ele>55</ele>
        <time>2020-12-24T13:28:19.000Z</time>
      </trkpt>
      <trkpt lat="47.33934" lon="-1.52832">
        <ele>55</ele>
        <time>2020-12-24T13:28:21.000Z</time>
      </trkpt>
      <trkpt lat="47.33921" lon="-1.52822">
        <ele>55</ele>
        <time>2020-12-24T13:28:23.000Z</time>
      </trkpt>
      <trkpt lat="47.3391" lon="-1.52809">
        <ele>55</ele>
        <time>2020-12-24T13:28:25.000Z</time>
      </trkpt>
      <trkpt lat="47.33907" lon="-1.5279">
        <ele>56</ele>
        <time>2020-12-24T13:28:27.000Z</time>
      </trkpt>
      <trkpt lat="47.3391" lon="-1.52771">
        <ele>56</ele>
        <time>2020-12-24T13:28:29.000Z</time>
      </trkpt>
      <trkpt lat="47.33913" lon="-1.52751">
        <ele>56</ele>
        <time>2020-12-24T13:28:31.000Z</time>
      </trkpt>
      <trkpt lat="47.33917" lon="-1.52731">
        <ele>55</ele>
        <time>2020-12-24T13:28:33.000Z</time>
      </trkpt>
      <trkpt lat="47.3392" lon="-1.52709">
        <ele>55</ele>
        <time>2020-12-24T13:28:35.000Z</time>
      </trkpt>
      <trkpt lat="47.33925" lon="-1.52688">
        <ele>55</ele>
        <time>2020-12-24T13:28:37.000Z</time>
      </trkpt>
      <trkpt lat="47.33929" lon="-1.52668">
        <ele>54</ele>
        <time>2020-12-24T13:28:39.000Z</time>
      </trkpt>
      <trkpt lat="47.33932" lon="-1.52649">
        <ele>54</ele>
        <time>2020-12-24T13:28:41.000Z</time>
      </trkpt>
      <trkpt lat="47.33935" lon="-1.52629">
        <ele>55</ele>
        <time>2020-12-24T13:28:43.000Z</time>
      </trkpt>
      <trkpt lat="47.33937" lon="-1.52614">
        <ele>55</ele>
        <time>2020-12-24T13:28:45.000Z</time>
      </trkpt>
      <trkpt lat="47.3393" lon="-1.52603">
        <ele>56</ele>
        <time>2020-12-24T13:28:47.000Z</time>
      </trkpt>
      <trkpt lat="47.33919" lon="-1.52598">
        <ele>55</ele>
        <time>2020-12-24T13:28:49.000Z</time>
      </trkpt>
      <trkpt lat="47.33907" lon="-1.52593">
        <ele>55</ele>
        <time>2020-12-24T13:28:51.000Z</time>
      </trkpt>
      <trkpt lat="47.33894" lon="-1.52588">
        <ele>55</ele>
        <time>2020-12-24T13:28:53.000Z</time>
      </trkpt>
      <trkpt lat="47.33882" lon="-1.52583">
        <ele>55</ele>
        <time>2020-12-24T13:28:55.000Z</time>
      </trkpt>
      <trkpt lat="47.33869" lon="-1.52578">
        <ele>55</ele>
        <time>2020-12-24T13:28:57.000Z</time>
      </trkpt>
      <trkpt lat="47.33856" lon="-1.52573">
        <ele>56</ele>
        <time>2020-12-24T13:28:59.000Z</time>
      </trkpt>
      <trkpt lat="47.33844" lon="-1.52568">
        <ele>56</ele>
        <time>2020-12-24T13:29:01.000Z</time>
      </trkpt>
      <trkpt lat="47.33832" lon="-1.52563">
        <ele>56</ele>
        <time>2020-12-24T13:29:03.000Z</time>
      </trkpt>
      <trkpt lat="47.3382" lon="-1.52558">
        <ele>57</ele>
        <time>2020-12-24T13:29:05.000Z</time>
      </trkpt>
      <trkpt lat="47.33808" lon="-1.52553">
        <ele>57</ele>
        <time>2020-12-24T13:29:07.000Z</time>
      </trkpt>
      <trkpt lat="47.33796" lon="-1.52549">
        <ele>58</ele>
        <time>2020-12-24T13:29:09.000Z</time>
      </trkpt>
      <trkpt lat="47.33784" lon="-1.52544">
        <ele>58</ele>
        <time>2020-12-24T13:29:11.000Z</time>
      </trkpt>
      <trkpt lat="47.33772" lon="-1.5254">
        <ele>58</ele>
        <time>2020-12-24T13:29:13.000Z</time>
      </trkpt>
      <trkpt lat="47.33759" lon="-1.52534">
        <ele>58</ele>
        <time>2020-12-24T13:29:15.000Z</time>
      </trkpt>
      <trkpt lat="47.33746" lon="-1.5253">
        <ele>57</ele>
        <time>2020-12-24T13:29:17.000Z</time>
      </trkpt>
      <trkpt lat="47.33733" lon="-1.52524">
        <ele>57</ele>
        <time>2020-12-24T13:29:19.000Z</time>
      </trkpt>
      <trkpt lat="47.3372" lon="-1.52515">
        <ele>56</ele>
        <time>2020-12-24T13:29:21.000Z</time>
      </trkpt>
      <trkpt lat="47.33708" lon="-1.52505">
        <ele>56</ele>
        <time>2020-12-24T13:29:23.000Z</time>
      </trkpt>
      <trkpt lat="47.33699" lon="-1.52493">
        <ele>56</ele>
        <time>2020-12-24T13:29:25.000Z</time>
      </trkpt>
      <trkpt lat="47.33692" lon="-1.5248">
        <ele>57</ele>
        <time>2020-12-24T13:29:27.000Z</time>
      </trkpt>
      <trkpt lat="47.33696" lon="-1.52466">
        <ele>58</ele>
        <time>2020-12-24T13:29:29.000Z</time>
      </trkpt>
      <trkpt lat="47.33701" lon="-1.52451">
        <ele>58</ele>
        <time>2020-12-24T13:29:31.000Z</time>
      </trkpt>
      <trkpt lat="47.33703" lon="-1.52436">
        <ele>58</ele>
        <time>2020-12-24T13:29:33.000Z</time>
      </trkpt>
      <trkpt lat="47.33706" lon="-1.52422">
        <ele>59</ele>
        <time>2020-12-24T13:29:35.000Z</time>
      </trkpt>
      <trkpt lat="47.33708" lon="-1.52407">
        <ele>59</ele>
        <time>2020-12-24T13:29:37.000Z</time>
      </trkpt>
      <trkpt lat="47.3371" lon="-1.52393">
        <ele>59</ele>
        <time>2020-12-24T13:29:39.000Z</time>
      </trkpt>
      <trkpt lat="47.33713" lon="-1.52379">
        <ele>60</ele>
        <time>2020-12-24T13:29:41.000Z</time>
      </trkpt>
      <trkpt lat="47.33716" lon="-1.52364">
        <ele>60</ele>
        <time>2020-12-24T13:29:43.000Z</time>
      </trkpt>
      <trkpt lat="47.33719" lon="-1.52348">
        <ele>60</ele>
        <time>2020-12-24T13:29:45.000Z</time>
      </trkpt>
      <trkpt lat="47.33722" lon="-1.52333">
        <ele>61</ele>
        <time>2020-12-24T13:29:47.000Z</time>
      </trkpt>
      <trkpt lat="47.33725" lon="-1.52318">
        <ele>62</ele>
        <time>2020-12-24T13:29:49.000Z</time>
      </trkpt>
      <trkpt lat="47.33727" lon="-1.52304">
        <ele>62</ele>
        <time>2020-12-24T13:29:51.000Z</time>
      </trkpt>
      <trkpt lat="47.3373" lon="-1.52289">
        <ele>63</ele>
        <time>2020-12-24T13:29:53.000Z</time>
      </trkpt>
      <trkpt lat="47.33733" lon="-1.52275">
        <ele>63</ele>
        <time>2020-12-24T13:29:55.000Z</time>
      </trkpt>
      <trkpt lat="47.33736" lon="-1.52261">
        <ele>63</ele>
        <time>2020-12-24T13:29:57.000Z</time>
      </trkpt>
      <trkpt lat="47.33739" lon="-1.52247">
        <ele>63</ele>
        <time>2020-12-24T13:29:59.000Z</time>
      </trkpt>
      <trkpt lat="47.33742" lon="-1.52233">
        <ele>64</ele>
        <time>2020-12-24T13:30:01.000Z</time>
      </trkpt>
      <trkpt lat="47.33745" lon="-1.52217">
        <ele>65</ele>
        <time>2020-12-24T13:30:03.000Z</time>
      </trkpt>
      <trkpt lat="47.33748" lon="-1.52202">
        <ele>65</ele>
        <time>2020-12-24T13:30:05.000Z</time>
      </trkpt>
      <trkpt lat="47.33749" lon="-1.52186">
        <ele>64</ele>
        <time>2020-12-24T13:30:07.000Z</time>
      </trkpt>
      <trkpt lat="47.3375" lon="-1.5217">
        <ele>64</ele>
        <time>2020-12-24T13:30:09.000Z</time>
      </trkpt>
      <trkpt lat="47.33751" lon="-1.52155">
        <ele>65</ele>
        <time>2020-12-24T13:30:11.000Z</time>
      </trkpt>
      <trkpt lat="47.33752" lon="-1.52139">
        <ele>65</ele>
        <time>2020-12-24T13:30:13.000Z</time>
      </trkpt>
      <trkpt lat="47.33753" lon="-1.52124">
        <ele>66</ele>
        <time>2020-12-24T13:30:15.000Z</time>
      </trkpt>
      <trkpt lat="47.33755" lon="-1.5211">
        <ele>66</ele>
        <time>2020-12-24T13:30:17.000Z</time>
      </trkpt>
      <trkpt lat="47.33757" lon="-1.52095">
        <ele>67</ele>
        <time>2020-12-24T13:30:19.000Z</time>
      </trkpt>
      <trkpt lat="47.33758" lon="-1.5208">
        <ele>68</ele>
        <time>2020-12-24T13:30:21.000Z</time>
      </trkpt>
      <trkpt lat="47.3376" lon="-1.52066">
        <ele>68</ele>
        <time>2020-12-24T13:30:23.000Z</time>
      </trkpt>
      <trkpt lat="47.33758" lon="-1.52052">
        <ele>68</ele>
        <time>2020-12-24T13:30:25.000Z</time>
      </trkpt>
      <trkpt lat="47.33757" lon="-1.52038">
        <ele>69</ele>
        <time>2020-12-24T13:30:27.000Z</time>
      </trkpt>
      <trkpt lat="47.33758" lon="-1.52024">
        <ele>70</ele>
        <time>2020-12-24T13:30:29.000Z</time>
      </trkpt>
      <trkpt lat="47.33757" lon="-1.52009">
        <ele>70</ele>
        <time>2020-12-24T13:30:31.000Z</time>
      </trkpt>
      <trkpt lat="47.33754" lon="-1.51995">
        <ele>70</ele>
        <time>2020-12-24T13:30:33.000Z</time>
      </trkpt>
      <trkpt lat="47.33751" lon="-1.5198">
        <ele>70</ele>
        <time>2020-12-24T13:30:35.000Z</time>
      </trkpt>
      <trkpt lat="47.33749" lon="-1.51966">
        <ele>71</ele>
        <time>2020-12-24T13:30:37.000Z</time>
      </trkpt>
      <trkpt lat="47.33747" lon="-1.51951">
        <ele>72</ele>
        <time>2020-12-24T13:30:39.000Z</time>
      </trkpt>
      <trkpt lat="47.33746" lon="-1.51936">
        <ele>73</ele>
        <time>2020-12-24T13:30:41.000Z</time>
      </trkpt>
      <trkpt lat="47.33745" lon="-1.51921">
        <ele>73</ele>
        <time>2020-12-24T13:30:43.000Z</time>
      </trkpt>
      <trkpt lat="47.33744" lon="-1.51906">
        <ele>73</ele>
        <time>2020-12-24T13:30:45.000Z</time>
      </trkpt>
      <trkpt lat="47.33743" lon="-1.5189">
        <ele>74</ele>
        <time>2020-12-24T13:30:47.000Z</time>
      </trkpt>
      <trkpt lat="47.33742" lon="-1.51875">
        <ele>74</ele>
        <time>2020-12-24T13:30:49.000Z</time>
      </trkpt>
      <trkpt lat="47.33742" lon="-1.5186">
        <ele>74</ele>
        <time>2020-12-24T13:30:51.000Z</time>
      </trkpt>
      <trkpt lat="47.33741" lon="-1.51846">
        <ele>75</ele>
        <time>2020-12-24T13:30:53.000Z</time>
      </trkpt>
      <trkpt lat="47.3374" lon="-1.51832">
        <ele>75</ele>
        <time>2020-12-24T13:30:55.000Z</time>
      </trkpt>
      <trkpt lat="47.3374" lon="-1.51816">
        <ele>75</ele>
        <time>2020-12-24T13:30:57.000Z</time>
      </trkpt>
      <trkpt lat="47.33739" lon="-1.51801">
        <ele>76</ele>
        <time>2020-12-24T13:30:59.000Z</time>
      </trkpt>
      <trkpt lat="47.33738" lon="-1.51786">
        <ele>76</ele>
        <time>2020-12-24T13:31:01.000Z</time>
      </trkpt>
      <trkpt lat="47.33738" lon="-1.5177">
        <ele>75</ele>
        <time>2020-12-24T13:31:03.000Z</time>
      </trkpt>
      <trkpt lat="47.33738" lon="-1.51754">
        <ele>75</ele>
        <time>2020-12-24T13:31:05.000Z</time>
      </trkpt>
      <trkpt lat="47.33737" lon="-1.51738">
        <ele>76</ele>
        <time>2020-12-24T13:31:07.000Z</time>
      </trkpt>
      <trkpt lat="47.33736" lon="-1.51723">
        <ele>76</ele>
        <time>2020-12-24T13:31:09.000Z</time>
      </trkpt>
      <trkpt lat="47.33735" lon="-1.51706">
        <ele>76</ele>
        <time>2020-12-24T13:31:11.000Z</time>
      </trkpt>
      <trkpt lat="47.33733" lon="-1.5169">
        <ele>76</ele>
        <time>2020-12-24T13:31:13.000Z</time>
      </trkpt>
      <trkpt lat="47.33731" lon="-1.51674">
        <ele>76</ele>
        <time>2020-12-24T13:31:15.000Z</time>
      </trkpt>
      <trkpt lat="47.33727" lon="-1.51657">
        <ele>75</ele>
        <time>2020-12-24T13:31:17.000Z</time>
      </trkpt>
      <trkpt lat="47.33724" lon="-1.51639">
        <ele>74</ele>
        <time>2020-12-24T13:31:19.000Z</time>
      </trkpt>
      <trkpt lat="47.33718" lon="-1.51621">
        <ele>73</ele>
        <time>2020-12-24T13:31:21.000Z</time>
      </trkpt>
      <trkpt lat="47.33713" lon="-1.51604">
        <ele>73</ele>
        <time>2020-12-24T13:31:23.000Z</time>
      </trkpt>
      <trkpt lat="47.33709" lon="-1.51583">
        <ele>72</ele>
        <time>2020-12-24T13:31:25.000Z</time>
      </trkpt>
      <trkpt lat="47.33704" lon="-1.51563">
        <ele>72</ele>
        <time>2020-12-24T13:31:27.000Z</time>
      </trkpt>
      <trkpt lat="47.33699" lon="-1.51542">
        <ele>72</ele>
        <time>2020-12-24T13:31:29.000Z</time>
      </trkpt>
      <trkpt lat="47.33695" lon="-1.5152">
        <ele>71</ele>
        <time>2020-12-24T13:31:31.000Z</time>
      </trkpt>
      <trkpt lat="47.33692" lon="-1.51498">
        <ele>71</ele>
        <time>2020-12-24T13:31:33.000Z</time>
      </trkpt>
      <trkpt lat="47.33691" lon="-1.51473">
        <ele>71</ele>
        <time>2020-12-24T13:31:35.000Z</time>
      </trkpt>
      <trkpt lat="47.33689" lon="-1.51449">
        <ele>70</ele>
        <time>2020-12-24T13:31:37.000Z</time>
      </trkpt>
      <trkpt lat="47.33686" lon="-1.51424">
        <ele>69</ele>
        <time>2020-12-24T13:31:39.000Z</time>
      </trkpt>
      <trkpt lat="47.3368" lon="-1.514">
        <ele>68</ele>
        <time>2020-12-24T13:31:41.000Z</time>
      </trkpt>
      <trkpt lat="47.33674" lon="-1.51376">
        <ele>68</ele>
        <time>2020-12-24T13:31:43.000Z</time>
      </trkpt>
      <trkpt lat="47.33669" lon="-1.51354">
        <ele>67</ele>
        <time>2020-12-24T13:31:45.000Z</time>
      </trkpt>
      <trkpt lat="47.33664" lon="-1.51331">
        <ele>67</ele>
        <time>2020-12-24T13:31:47.000Z</time>
      </trkpt>
      <trkpt lat="47.3366" lon="-1.51307">
        <ele>67</ele>
        <time>2020-12-24T13:31:49.000Z</time>
      </trkpt>
      <trkpt lat="47.33656" lon="-1.51284">
        <ele>67</ele>
        <time>2020-12-24T13:31:51.000Z</time>
      </trkpt>
      <trkpt lat="47.33654" lon="-1.51262">
        <ele>66</ele>
        <time>2020-12-24T13:31:53.000Z</time>
      </trkpt>
      <trkpt lat="47.33652" lon="-1.51239">
        <ele>66</ele>
        <time>2020-12-24T13:31:55.000Z</time>
      </trkpt>
      <trkpt lat="47.33651" lon="-1.51217">
        <ele>66</ele>
        <time>2020-12-24T13:31:57.000Z</time>
      </trkpt>
      <trkpt lat="47.33649" lon="-1.51194">
        <ele>66</ele>
        <time>2020-12-24T13:31:59.000Z</time>
      </trkpt>
      <trkpt lat="47.33649" lon="-1.51171">
        <ele>67</ele>
        <time>2020-12-24T13:32:01.000Z</time>
      </trkpt>
      <trkpt lat="47.33649" lon="-1.51149">
        <ele>66</ele>
        <time>2020-12-24T13:32:03.000Z</time>
      </trkpt>
      <trkpt lat="47.33649" lon="-1.51128">
        <ele>65</ele>
        <time>2020-12-24T13:32:05.000Z</time>
      </trkpt>
      <trkpt lat="47.33648" lon="-1.51107">
        <ele>65</ele>
        <time>2020-12-24T13:32:07.000Z</time>
      </trkpt>
      <trkpt lat="47.33649" lon="-1.51088">
        <ele>65</ele>
        <time>2020-12-24T13:32:09.000Z</time>
      </trkpt>
      <trkpt lat="47.33656" lon="-1.51067">
        <ele>64</ele>
        <time>2020-12-24T13:32:11.000Z</time>
      </trkpt>
      <trkpt lat="47.33662" lon="-1.51048">
        <ele>65</ele>
        <time>2020-12-24T13:32:13.000Z</time>
      </trkpt>
      <trkpt lat="47.33667" lon="-1.51026">
        <ele>65</ele>
        <time>2020-12-24T13:32:15.000Z</time>
      </trkpt>
      <trkpt lat="47.33671" lon="-1.51004">
        <ele>64</ele>
        <time>2020-12-24T13:32:17.000Z</time>
      </trkpt>
      <trkpt lat="47.33675" lon="-1.50984">
        <ele>64</ele>
        <time>2020-12-24T13:32:19.000Z</time>
      </trkpt>
      <trkpt lat="47.3368" lon="-1.50962">
        <ele>64</ele>
        <time>2020-12-24T13:32:21.000Z</time>
      </trkpt>
      <trkpt lat="47.33684" lon="-1.50939">
        <ele>63</ele>
        <time>2020-12-24T13:32:23.000Z</time>
      </trkpt>
      <trkpt lat="47.33688" lon="-1.50918">
        <ele>63</ele>
        <time>2020-12-24T13:32:25.000Z</time>
      </trkpt>
      <trkpt lat="47.33692" lon="-1.50897">
        <ele>62</ele>
        <time>2020-12-24T13:32:27.000Z</time>
      </trkpt>
      <trkpt lat="47.33696" lon="-1.50877">
        <ele>62</ele>
        <time>2020-12-24T13:32:29.000Z</time>
      </trkpt>
      <trkpt lat="47.33701" lon="-1.50856">
        <ele>61</ele>
        <time>2020-12-24T13:32:31.000Z</time>
      </trkpt>
      <trkpt lat="47.33705" lon="-1.50835">
        <ele>61</ele>
        <time>2020-12-24T13:32:33.000Z</time>
      </trkpt>
      <trkpt lat="47.33709" lon="-1.50814">
        <ele>60</ele>
        <time>2020-12-24T13:32:35.000Z</time>
      </trkpt>
      <trkpt lat="47.33713" lon="-1.50792">
        <ele>60</ele>
        <time>2020-12-24T13:32:37.000Z</time>
      </trkpt>
      <trkpt lat="47.33717" lon="-1.5077">
        <ele>60</ele>
        <time>2020-12-24T13:32:39.000Z</time>
      </trkpt>
      <trkpt lat="47.33721" lon="-1.50749">
        <ele>60</ele>
        <time>2020-12-24T13:32:41.000Z</time>
      </trkpt>
      <trkpt lat="47.33725" lon="-1.50728">
        <ele>59</ele>
        <time>2020-12-24T13:32:43.000Z</time>
      </trkpt>
      <trkpt lat="47.33729" lon="-1.50707">
        <ele>59</ele>
        <time>2020-12-24T13:32:45.000Z</time>
      </trkpt>
      <trkpt lat="47.33734" lon="-1.50685">
        <ele>59</ele>
        <time>2020-12-24T13:32:47.000Z</time>
      </trkpt>
      <trkpt lat="47.33738" lon="-1.50663">
        <ele>59</ele>
        <time>2020-12-24T13:32:49.000Z</time>
      </trkpt>
      <trkpt lat="47.33742" lon="-1.50642">
        <ele>59</ele>
        <time>2020-12-24T13:32:51.000Z</time>
      </trkpt>
      <trkpt lat="47.33746" lon="-1.50621">
        <ele>59</ele>
        <time>2020-12-24T13:32:53.000Z</time>
      </trkpt>
      <trkpt lat="47.3375" lon="-1.506">
        <ele>58</ele>
        <time>2020-12-24T13:32:55.000Z</time>
      </trkpt>
      <trkpt lat="47.33754" lon="-1.50579">
        <ele>58</ele>
        <time>2020-12-24T13:32:57.000Z</time>
      </trkpt>
      <trkpt lat="47.33758" lon="-1.50559">
        <ele>58</ele>
        <time>2020-12-24T13:32:59.000Z</time>
      </trkpt>
      <trkpt lat="47.33762" lon="-1.50539">
        <ele>57</ele>
        <time>2020-12-24T13:33:01.000Z</time>
      </trkpt>
      <trkpt lat="47.33766" lon="-1.50518">
        <ele>57</ele>
        <time>2020-12-24T13:33:03.000Z</time>
      </trkpt>
      <trkpt lat="47.33771" lon="-1.50497">
        <ele>57</ele>
        <time>2020-12-24T13:33:05.000Z</time>
      </trkpt>
      <trkpt lat="47.33774" lon="-1.50477">
        <ele>58</ele>
        <time>2020-12-24T13:33:07.000Z</time>
      </trkpt>
      <trkpt lat="47.33778" lon="-1.50457">
        <ele>58</ele>
        <time>2020-12-24T13:33:09.000Z</time>
      </trkpt>
      <trkpt lat="47.33782" lon="-1.50436">
        <ele>58</ele>
        <time>2020-12-24T13:33:11.000Z</time>
      </trkpt>
      <trkpt lat="47.33786" lon="-1.50416">
        <ele>58</ele>
        <time>2020-12-24T13:33:13.000Z</time>
      </trkpt>
      <trkpt lat="47.33789" lon="-1.50396">
        <ele>58</ele>
        <time>2020-12-24T13:33:15.000Z</time>
      </trkpt>
      <trkpt lat="47.3379" lon="-1.50376">
        <ele>58</ele>
        <time>2020-12-24T13:33:17.000Z</time>
      </trkpt>
      <trkpt lat="47.33788" lon="-1.50355">
        <ele>57</ele>
        <time>2020-12-24T13:33:19.000Z</time>
      </trkpt>
      <trkpt lat="47.33786" lon="-1.50335">
        <ele>57</ele>
        <time>2020-12-24T13:33:21.000Z</time>
      </trkpt>
      <trkpt lat="47.33782" lon="-1.50316">
        <ele>58</ele>
        <time>2020-12-24T13:33:23.000Z</time>
      </trkpt>
      <trkpt lat="47.3378" lon="-1.50297">
        <ele>58</ele>
        <time>2020-12-24T13:33:25.000Z</time>
      </trkpt>
      <trkpt lat="47.33777" lon="-1.50278">
        <ele>58</ele>
        <time>2020-12-24T13:33:27.000Z</time>
      </trkpt>
      <trkpt lat="47.33774" lon="-1.50259">
        <ele>59</ele>
        <time>2020-12-24T13:33:29.000Z</time>
      </trkpt>
      <trkpt lat="47.33771" lon="-1.50241">
        <ele>59</ele>
        <time>2020-12-24T13:33:31.000Z</time>
      </trkpt>
      <trkpt lat="47.33767" lon="-1.50224">
        <ele>59</ele>
        <time>2020-12-24T13:33:33.000Z</time>
      </trkpt>
      <trkpt lat="47.33765" lon="-1.50206">
        <ele>60</ele>
        <time>2020-12-24T13:33:35.000Z</time>
      </trkpt>
      <trkpt lat="47.33762" lon="-1.50189">
        <ele>61</ele>
        <time>2020-12-24T13:33:37.000Z</time>
      </trkpt>
      <trkpt lat="47.33759" lon="-1.50171">
        <ele>61</ele>
        <time>2020-12-24T13:33:39.000Z</time>
      </trkpt>
      <trkpt lat="47.33755" lon="-1.50155">
        <ele>61</ele>
        <time>2020-12-24T13:33:41.000Z</time>
      </trkpt>
      <trkpt lat="47.33752" lon="-1.50138">
        <ele>61</ele>
        <time>2020-12-24T13:33:43.000Z</time>
      </trkpt>
      <trkpt lat="47.33751" lon="-1.50121">
        <ele>62</ele>
        <time>2020-12-24T13:33:45.000Z</time>
      </trkpt>
      <trkpt lat="47.33749" lon="-1.50102">
        <ele>63</ele>
        <time>2020-12-24T13:33:47.000Z</time>
      </trkpt>
      <trkpt lat="47.33749" lon="-1.5008">
        <ele>63</ele>
        <time>2020-12-24T13:33:49.000Z</time>
      </trkpt>
      <trkpt lat="47.33748" lon="-1.50059">
        <ele>63</ele>
        <time>2020-12-24T13:33:51.000Z</time>
      </trkpt>
      <trkpt lat="47.33747" lon="-1.50041">
        <ele>64</ele>
        <time>2020-12-24T13:33:53.000Z</time>
      </trkpt>
      <trkpt lat="47.33744" lon="-1.50024">
        <ele>64</ele>
        <time>2020-12-24T13:33:55.000Z</time>
      </trkpt>
      <trkpt lat="47.3374" lon="-1.50007">
        <ele>64</ele>
        <time>2020-12-24T13:33:57.000Z</time>
      </trkpt>
      <trkpt lat="47.33737" lon="-1.49991">
        <ele>63</ele>
        <time>2020-12-24T13:33:59.000Z</time>
      </trkpt>
      <trkpt lat="47.33732" lon="-1.49975">
        <ele>63</ele>
        <time>2020-12-24T13:34:01.000Z</time>
      </trkpt>
      <trkpt lat="47.33728" lon="-1.49958">
        <ele>63</ele>
        <time>2020-12-24T13:34:03.000Z</time>
      </trkpt>
      <trkpt lat="47.33722" lon="-1.49941">
        <ele>62</ele>
        <time>2020-12-24T13:34:05.000Z</time>
      </trkpt>
      <trkpt lat="47.33713" lon="-1.49924">
        <ele>60</ele>
        <time>2020-12-24T13:34:07.000Z</time>
      </trkpt>
      <trkpt lat="47.337" lon="-1.4991">
        <ele>59</ele>
        <time>2020-12-24T13:34:09.000Z</time>
      </trkpt>
      <trkpt lat="47.33687" lon="-1.49895">
        <ele>58</ele>
        <time>2020-12-24T13:34:11.000Z</time>
      </trkpt>
      <trkpt lat="47.33675" lon="-1.49877">
        <ele>57</ele>
        <time>2020-12-24T13:34:13.000Z</time>
      </trkpt>
      <trkpt lat="47.33665" lon="-1.49856">
        <ele>57</ele>
        <time>2020-12-24T13:34:15.000Z</time>
      </trkpt>
      <trkpt lat="47.33657" lon="-1.49833">
        <ele>56</ele>
        <time>2020-12-24T13:34:17.000Z</time>
      </trkpt>
      <trkpt lat="47.33654" lon="-1.49809">
        <ele>55</ele>
        <time>2020-12-24T13:34:19.000Z</time>
      </trkpt>
      <trkpt lat="47.33652" lon="-1.49784">
        <ele>55</ele>
        <time>2020-12-24T13:34:21.000Z</time>
      </trkpt>
      <trkpt lat="47.3365" lon="-1.49762">
        <ele>55</ele>
        <time>2020-12-24T13:34:23.000Z</time>
      </trkpt>
      <trkpt lat="47.33646" lon="-1.49741">
        <ele>55</ele>
        <time>2020-12-24T13:34:25.000Z</time>
      </trkpt>
      <trkpt lat="47.33643" lon="-1.4972">
        <ele>56</ele>
        <time>2020-12-24T13:34:27.000Z</time>
      </trkpt>
      <trkpt lat="47.3364" lon="-1.49699">
        <ele>56</ele>
        <time>2020-12-24T13:34:29.000Z</time>
      </trkpt>
      <trkpt lat="47.33637" lon="-1.4968">
        <ele>57</ele>
        <time>2020-12-24T13:34:31.000Z</time>
      </trkpt>
      <trkpt lat="47.33635" lon="-1.49659">
        <ele>57</ele>
        <time>2020-12-24T13:34:33.000Z</time>
      </trkpt>
      <trkpt lat="47.33636" lon="-1.49639">
        <ele>58</ele>
        <time>2020-12-24T13:34:35.000Z</time>
      </trkpt>
      <trkpt lat="47.33636" lon="-1.49618">
        <ele>58</ele>
        <time>2020-12-24T13:34:37.000Z</time>
      </trkpt>
      <trkpt lat="47.33637" lon="-1.49598">
        <ele>58</ele>
        <time>2020-12-24T13:34:39.000Z</time>
      </trkpt>
      <trkpt lat="47.33637" lon="-1.49578">
        <ele>58</ele>
        <time>2020-12-24T13:34:41.000Z</time>
      </trkpt>
      <trkpt lat="47.33636" lon="-1.49558">
        <ele>58</ele>
        <time>2020-12-24T13:34:43.000Z</time>
      </trkpt>
      <trkpt lat="47.33633" lon="-1.49538">
        <ele>58</ele>
        <time>2020-12-24T13:34:45.000Z</time>
      </trkpt>
      <trkpt lat="47.33629" lon="-1.49518">
        <ele>58</ele>
        <time>2020-12-24T13:34:47.000Z</time>
      </trkpt>
      <trkpt lat="47.33624" lon="-1.49498">
        <ele>58</ele>
        <time>2020-12-24T13:34:49.000Z</time>
      </trkpt>
      <trkpt lat="47.33617" lon="-1.4948">
        <ele>58</ele>
        <time>2020-12-24T13:34:51.000Z</time>
      </trkpt>
      <trkpt lat="47.33605" lon="-1.49451">
        <ele>57</ele>
        <time>2020-12-24T13:34:54.000Z</time>
      </trkpt>
      <trkpt lat="47.33598" lon="-1.49433">
        <ele>57</ele>
        <time>2020-12-24T13:34:56.000Z</time>
      </trkpt>
      <trkpt lat="47.3359" lon="-1.49416">
        <ele>57</ele>
        <time>2020-12-24T13:34:58.000Z</time>
      </trkpt>
      <trkpt lat="47.33582" lon="-1.49399">
        <ele>57</ele>
        <time>2020-12-24T13:35:00.000Z</time>
      </trkpt>
      <trkpt lat="47.33575" lon="-1.49381">
        <ele>57</ele>
        <time>2020-12-24T13:35:02.000Z</time>
      </trkpt>
      <trkpt lat="47.33567" lon="-1.49364">
        <ele>57</ele>
        <time>2020-12-24T13:35:04.000Z</time>
      </trkpt>
      <trkpt lat="47.33559" lon="-1.49347">
        <ele>57</ele>
        <time>2020-12-24T13:35:06.000Z</time>
      </trkpt>
      <trkpt lat="47.33551" lon="-1.49331">
        <ele>57</ele>
        <time>2020-12-24T13:35:08.000Z</time>
      </trkpt>
      <trkpt lat="47.33544" lon="-1.49314">
        <ele>58</ele>
        <time>2020-12-24T13:35:10.000Z</time>
      </trkpt>
      <trkpt lat="47.33536" lon="-1.49298">
        <ele>58</ele>
        <time>2020-12-24T13:35:12.000Z</time>
      </trkpt>
      <trkpt lat="47.33528" lon="-1.4928">
        <ele>58</ele>
        <time>2020-12-24T13:35:14.000Z</time>
      </trkpt>
      <trkpt lat="47.33519" lon="-1.49262">
        <ele>57</ele>
        <time>2020-12-24T13:35:16.000Z</time>
      </trkpt>
      <trkpt lat="47.33511" lon="-1.49245">
        <ele>57</ele>
        <time>2020-12-24T13:35:18.000Z</time>
      </trkpt>
      <trkpt lat="47.33503" lon="-1.49228">
        <ele>57</ele>
        <time>2020-12-24T13:35:20.000Z</time>
      </trkpt>
      <trkpt lat="47.33494" lon="-1.49212">
        <ele>57</ele>
        <time>2020-12-24T13:35:22.000Z</time>
      </trkpt>
      <trkpt lat="47.33482" lon="-1.49185">
        <ele>57</ele>
        <time>2020-12-24T13:35:25.000Z</time>
      </trkpt>
      <trkpt lat="47.33474" lon="-1.49168">
        <ele>57</ele>
        <time>2020-12-24T13:35:27.000Z</time>
      </trkpt>
      <trkpt lat="47.33466" lon="-1.49151">
        <ele>57</ele>
        <time>2020-12-24T13:35:29.000Z</time>
      </trkpt>
      <trkpt lat="47.33458" lon="-1.49134">
        <ele>57</ele>
        <time>2020-12-24T13:35:31.000Z</time>
      </trkpt>
      <trkpt lat="47.33449" lon="-1.49116">
        <ele>57</ele>
        <time>2020-12-24T13:35:33.000Z</time>
      </trkpt>
      <trkpt lat="47.33441" lon="-1.49099">
        <ele>57</ele>
        <time>2020-12-24T13:35:35.000Z</time>
      </trkpt>
      <trkpt lat="47.33433" lon="-1.49082">
        <ele>57</ele>
        <time>2020-12-24T13:35:37.000Z</time>
      </trkpt>
      <trkpt lat="47.33425" lon="-1.49066">
        <ele>57</ele>
        <time>2020-12-24T13:35:39.000Z</time>
      </trkpt>
      <trkpt lat="47.33418" lon="-1.49047">
        <ele>57</ele>
        <time>2020-12-24T13:35:41.000Z</time>
      </trkpt>
      <trkpt lat="47.33412" lon="-1.49029">
        <ele>57</ele>
        <time>2020-12-24T13:35:43.000Z</time>
      </trkpt>
      <trkpt lat="47.33408" lon="-1.49009">
        <ele>58</ele>
        <time>2020-12-24T13:35:45.000Z</time>
      </trkpt>
      <trkpt lat="47.33405" lon="-1.48987">
        <ele>57</ele>
        <time>2020-12-24T13:35:47.000Z</time>
      </trkpt>
      <trkpt lat="47.33403" lon="-1.48967">
        <ele>57</ele>
        <time>2020-12-24T13:35:49.000Z</time>
      </trkpt>
      <trkpt lat="47.33402" lon="-1.48948">
        <ele>58</ele>
        <time>2020-12-24T13:35:51.000Z</time>
      </trkpt>
      <trkpt lat="47.33401" lon="-1.48929">
        <ele>58</ele>
        <time>2020-12-24T13:35:53.000Z</time>
      </trkpt>
      <trkpt lat="47.33399" lon="-1.48911">
        <ele>57</ele>
        <time>2020-12-24T13:35:55.000Z</time>
      </trkpt>
      <trkpt lat="47.33397" lon="-1.48893">
        <ele>58</ele>
        <time>2020-12-24T13:35:57.000Z</time>
      </trkpt>
      <trkpt lat="47.33395" lon="-1.48875">
        <ele>58</ele>
        <time>2020-12-24T13:35:59.000Z</time>
      </trkpt>
      <trkpt lat="47.33394" lon="-1.48858">
        <ele>59</ele>
        <time>2020-12-24T13:36:01.000Z</time>
      </trkpt>
      <trkpt lat="47.33392" lon="-1.4884">
        <ele>59</ele>
        <time>2020-12-24T13:36:03.000Z</time>
      </trkpt>
      <trkpt lat="47.3339" lon="-1.48823">
        <ele>59</ele>
        <time>2020-12-24T13:36:05.000Z</time>
      </trkpt>
      <trkpt lat="47.33389" lon="-1.48806">
        <ele>58</ele>
        <time>2020-12-24T13:36:07.000Z</time>
      </trkpt>
      <trkpt lat="47.33387" lon="-1.48787">
        <ele>58</ele>
        <time>2020-12-24T13:36:09.000Z</time>
      </trkpt>
      <trkpt lat="47.33386" lon="-1.48768">
        <ele>58</ele>
        <time>2020-12-24T13:36:11.000Z</time>
      </trkpt>
      <trkpt lat="47.33384" lon="-1.48748">
        <ele>57</ele>
        <time>2020-12-24T13:36:13.000Z</time>
      </trkpt>
      <trkpt lat="47.33381" lon="-1.48729">
        <ele>57</ele>
        <time>2020-12-24T13:36:15.000Z</time>
      </trkpt>
      <trkpt lat="47.33379" lon="-1.48708">
        <ele>57</ele>
        <time>2020-12-24T13:36:17.000Z</time>
      </trkpt>
      <trkpt lat="47.33378" lon="-1.48687">
        <ele>57</ele>
        <time>2020-12-24T13:36:19.000Z</time>
      </trkpt>
      <trkpt lat="47.33375" lon="-1.48667">
        <ele>57</ele>
        <time>2020-12-24T13:36:21.000Z</time>
      </trkpt>
      <trkpt lat="47.33371" lon="-1.48647">
        <ele>57</ele>
        <time>2020-12-24T13:36:23.000Z</time>
      </trkpt>
      <trkpt lat="47.33364" lon="-1.48628">
        <ele>57</ele>
        <time>2020-12-24T13:36:25.000Z</time>
      </trkpt>
      <trkpt lat="47.33356" lon="-1.4861">
        <ele>57</ele>
        <time>2020-12-24T13:36:27.000Z</time>
      </trkpt>
      <trkpt lat="47.33346" lon="-1.48595">
        <ele>57</ele>
        <time>2020-12-24T13:36:29.000Z</time>
      </trkpt>
      <trkpt lat="47.33337" lon="-1.48582">
        <ele>57</ele>
        <time>2020-12-24T13:36:31.000Z</time>
      </trkpt>
      <trkpt lat="47.33328" lon="-1.48568">
        <ele>57</ele>
        <time>2020-12-24T13:36:33.000Z</time>
      </trkpt>
      <trkpt lat="47.3332" lon="-1.48554">
        <ele>57</ele>
        <time>2020-12-24T13:36:35.000Z</time>
      </trkpt>
      <trkpt lat="47.33312" lon="-1.48538">
        <ele>57</ele>
        <time>2020-12-24T13:36:37.000Z</time>
      </trkpt>
      <trkpt lat="47.33304" lon="-1.48521">
        <ele>57</ele>
        <time>2020-12-24T13:36:39.000Z</time>
      </trkpt>
      <trkpt lat="47.33296" lon="-1.48504">
        <ele>57</ele>
        <time>2020-12-24T13:36:41.000Z</time>
      </trkpt>
      <trkpt lat="47.33288" lon="-1.48486">
        <ele>58</ele>
        <time>2020-12-24T13:36:43.000Z</time>
      </trkpt>
      <trkpt lat="47.33281" lon="-1.48469">
        <ele>58</ele>
        <time>2020-12-24T13:36:45.000Z</time>
      </trkpt>
      <trkpt lat="47.33273" lon="-1.48453">
        <ele>57</ele>
        <time>2020-12-24T13:36:47.000Z</time>
      </trkpt>
      <trkpt lat="47.33263" lon="-1.48424">
        <ele>57</ele>
        <time>2020-12-24T13:36:50.000Z</time>
      </trkpt>
      <trkpt lat="47.33257" lon="-1.48407">
        <ele>57</ele>
        <time>2020-12-24T13:36:52.000Z</time>
      </trkpt>
      <trkpt lat="47.33251" lon="-1.48389">
        <ele>57</ele>
        <time>2020-12-24T13:36:54.000Z</time>
      </trkpt>
      <trkpt lat="47.33245" lon="-1.48372">
        <ele>56</ele>
        <time>2020-12-24T13:36:56.000Z</time>
      </trkpt>
      <trkpt lat="47.33239" lon="-1.48355">
        <ele>56</ele>
        <time>2020-12-24T13:36:58.000Z</time>
      </trkpt>
      <trkpt lat="47.33233" lon="-1.48337">
        <ele>56</ele>
        <time>2020-12-24T13:37:00.000Z</time>
      </trkpt>
      <trkpt lat="47.33226" lon="-1.4832">
        <ele>56</ele>
        <time>2020-12-24T13:37:02.000Z</time>
      </trkpt>
      <trkpt lat="47.3322" lon="-1.48304">
        <ele>56</ele>
        <time>2020-12-24T13:37:04.000Z</time>
      </trkpt>
      <trkpt lat="47.33214" lon="-1.48288">
        <ele>56</ele>
        <time>2020-12-24T13:37:06.000Z</time>
      </trkpt>
      <trkpt lat="47.33208" lon="-1.48272">
        <ele>57</ele>
        <time>2020-12-24T13:37:08.000Z</time>
      </trkpt>
      <trkpt lat="47.33201" lon="-1.48255">
        <ele>56</ele>
        <time>2020-12-24T13:37:10.000Z</time>
      </trkpt>
      <trkpt lat="47.33195" lon="-1.48238">
        <ele>56</ele>
        <time>2020-12-24T13:37:12.000Z</time>
      </trkpt>
      <trkpt lat="47.33189" lon="-1.48221">
        <ele>56</ele>
        <time>2020-12-24T13:37:14.000Z</time>
      </trkpt>
      <trkpt lat="47.33183" lon="-1.48205">
        <ele>57</ele>
        <time>2020-12-24T13:37:16.000Z</time>
      </trkpt>
      <trkpt lat="47.33177" lon="-1.48187">
        <ele>57</ele>
        <time>2020-12-24T13:37:18.000Z</time>
      </trkpt>
      <trkpt lat="47.33171" lon="-1.48171">
        <ele>57</ele>
        <time>2020-12-24T13:37:20.000Z</time>
      </trkpt>
      <trkpt lat="47.33165" lon="-1.48154">
        <ele>57</ele>
        <time>2020-12-24T13:37:22.000Z</time>
      </trkpt>
      <trkpt lat="47.33159" lon="-1.48138">
        <ele>57</ele>
        <time>2020-12-24T13:37:24.000Z</time>
      </trkpt>
      <trkpt lat="47.33153" lon="-1.48121">
        <ele>57</ele>
        <time>2020-12-24T13:37:26.000Z</time>
      </trkpt>
      <trkpt lat="47.33146" lon="-1.48105">
        <ele>57</ele>
        <time>2020-12-24T13:37:28.000Z</time>
      </trkpt>
      <trkpt lat="47.33141" lon="-1.48087">
        <ele>57</ele>
        <time>2020-12-24T13:37:30.000Z</time>
      </trkpt>
      <trkpt lat="47.33137" lon="-1.48069">
        <ele>57</ele>
        <time>2020-12-24T13:37:32.000Z</time>
      </trkpt>
      <trkpt lat="47.33133" lon="-1.48052">
        <ele>57</ele>
        <time>2020-12-24T13:37:34.000Z</time>
      </trkpt>
      <trkpt lat="47.33129" lon="-1.48033">
        <ele>57</ele>
        <time>2020-12-24T13:37:36.000Z</time>
      </trkpt>
      <trkpt lat="47.33125" lon="-1.48014">
        <ele>56</ele>
        <time>2020-12-24T13:37:38.000Z</time>
      </trkpt>
      <trkpt lat="47.33121" lon="-1.47997">
        <ele>57</ele>
        <time>2020-12-24T13:37:40.000Z</time>
      </trkpt>
      <trkpt lat="47.33117" lon="-1.47979">
        <ele>57</ele>
        <time>2020-12-24T13:37:42.000Z</time>
      </trkpt>
      <trkpt lat="47.33114" lon="-1.47961">
        <ele>57</ele>
        <time>2020-12-24T13:37:44.000Z</time>
      </trkpt>
      <trkpt lat="47.33112" lon="-1.47942">
        <ele>57</ele>
        <time>2020-12-24T13:37:46.000Z</time>
      </trkpt>
      <trkpt lat="47.33109" lon="-1.47924">
        <ele>58</ele>
        <time>2020-12-24T13:37:48.000Z</time>
      </trkpt>
      <trkpt lat="47.33107" lon="-1.47907">
        <ele>58</ele>
        <time>2020-12-24T13:37:50.000Z</time>
      </trkpt>
      <trkpt lat="47.33105" lon="-1.47888">
        <ele>59</ele>
        <time>2020-12-24T13:37:52.000Z</time>
      </trkpt>
      <trkpt lat="47.33104" lon="-1.47869">
        <ele>59</ele>
        <time>2020-12-24T13:37:54.000Z</time>
      </trkpt>
      <trkpt lat="47.33103" lon="-1.4785">
        <ele>59</ele>
        <time>2020-12-24T13:37:56.000Z</time>
      </trkpt>
      <trkpt lat="47.33102" lon="-1.47832">
        <ele>59</ele>
        <time>2020-12-24T13:37:58.000Z</time>
      </trkpt>
      <trkpt lat="47.33101" lon="-1.47814">
        <ele>58</ele>
        <time>2020-12-24T13:38:00.000Z</time>
      </trkpt>
      <trkpt lat="47.331" lon="-1.47796">
        <ele>58</ele>
        <time>2020-12-24T13:38:02.000Z</time>
      </trkpt>
      <trkpt lat="47.33099" lon="-1.47778">
        <ele>58</ele>
        <time>2020-12-24T13:38:04.000Z</time>
      </trkpt>
      <trkpt lat="47.33097" lon="-1.47762">
        <ele>59</ele>
        <time>2020-12-24T13:38:06.000Z</time>
      </trkpt>
      <trkpt lat="47.33095" lon="-1.47746">
        <ele>59</ele>
        <time>2020-12-24T13:38:08.000Z</time>
      </trkpt>
      <trkpt lat="47.3309" lon="-1.47731">
        <ele>59</ele>
        <time>2020-12-24T13:38:10.000Z</time>
      </trkpt>
      <trkpt lat="47.33086" lon="-1.47716">
        <ele>59</ele>
        <time>2020-12-24T13:38:12.000Z</time>
      </trkpt>
      <trkpt lat="47.33087" lon="-1.47697">
        <ele>59</ele>
        <time>2020-12-24T13:38:14.000Z</time>
      </trkpt>
      <trkpt lat="47.33093" lon="-1.4768">
        <ele>58</ele>
        <time>2020-12-24T13:38:16.000Z</time>
      </trkpt>
      <trkpt lat="47.33097" lon="-1.47663">
        <ele>58</ele>
        <time>2020-12-24T13:38:18.000Z</time>
      </trkpt>
      <trkpt lat="47.33098" lon="-1.47645">
        <ele>58</ele>
        <time>2020-12-24T13:38:20.000Z</time>
      </trkpt>
      <trkpt lat="47.33098" lon="-1.47626">
        <ele>58</ele>
        <time>2020-12-24T13:38:22.000Z</time>
      </trkpt>
      <trkpt lat="47.33099" lon="-1.47607">
        <ele>57</ele>
        <time>2020-12-24T13:38:24.000Z</time>
      </trkpt>
      <trkpt lat="47.331" lon="-1.47588">
        <ele>57</ele>
        <time>2020-12-24T13:38:26.000Z</time>
      </trkpt>
      <trkpt lat="47.33101" lon="-1.4757">
        <ele>57</ele>
        <time>2020-12-24T13:38:28.000Z</time>
      </trkpt>
      <trkpt lat="47.33102" lon="-1.47552">
        <ele>57</ele>
        <time>2020-12-24T13:38:30.000Z</time>
      </trkpt>
      <trkpt lat="47.33102" lon="-1.47534">
        <ele>58</ele>
        <time>2020-12-24T13:38:32.000Z</time>
      </trkpt>
      <trkpt lat="47.33103" lon="-1.47516">
        <ele>58</ele>
        <time>2020-12-24T13:38:34.000Z</time>
      </trkpt>
      <trkpt lat="47.33103" lon="-1.47499">
        <ele>58</ele>
        <time>2020-12-24T13:38:36.000Z</time>
      </trkpt>
      <trkpt lat="47.33103" lon="-1.47482">
        <ele>59</ele>
        <time>2020-12-24T13:38:38.000Z</time>
      </trkpt>
      <trkpt lat="47.33102" lon="-1.47463">
        <ele>59</ele>
        <time>2020-12-24T13:38:40.000Z</time>
      </trkpt>
      <trkpt lat="47.331" lon="-1.47445">
        <ele>59</ele>
        <time>2020-12-24T13:38:42.000Z</time>
      </trkpt>
      <trkpt lat="47.33096" lon="-1.47427">
        <ele>59</ele>
        <time>2020-12-24T13:38:44.000Z</time>
      </trkpt>
      <trkpt lat="47.33091" lon="-1.4741">
        <ele>59</ele>
        <time>2020-12-24T13:38:46.000Z</time>
      </trkpt>
      <trkpt lat="47.33084" lon="-1.47395">
        <ele>59</ele>
        <time>2020-12-24T13:38:48.000Z</time>
      </trkpt>
      <trkpt lat="47.33076" lon="-1.47381">
        <ele>59</ele>
        <time>2020-12-24T13:38:50.000Z</time>
      </trkpt>
      <trkpt lat="47.33068" lon="-1.47368">
        <ele>59</ele>
        <time>2020-12-24T13:38:52.000Z</time>
      </trkpt>
      <trkpt lat="47.3306" lon="-1.47355">
        <ele>59</ele>
        <time>2020-12-24T13:38:54.000Z</time>
      </trkpt>
      <trkpt lat="47.33051" lon="-1.47341">
        <ele>59</ele>
        <time>2020-12-24T13:38:56.000Z</time>
      </trkpt>
      <trkpt lat="47.33043" lon="-1.47328">
        <ele>59</ele>
        <time>2020-12-24T13:38:58.000Z</time>
      </trkpt>
      <trkpt lat="47.33034" lon="-1.47315">
        <ele>59</ele>
        <time>2020-12-24T13:39:00.000Z</time>
      </trkpt>
      <trkpt lat="47.33025" lon="-1.47301">
        <ele>59</ele>
        <time>2020-12-24T13:39:02.000Z</time>
      </trkpt>
      <trkpt lat="47.33017" lon="-1.47287">
        <ele>59</ele>
        <time>2020-12-24T13:39:04.000Z</time>
      </trkpt>
      <trkpt lat="47.33008" lon="-1.47274">
        <ele>60</ele>
        <time>2020-12-24T13:39:06.000Z</time>
      </trkpt>
      <trkpt lat="47.32998" lon="-1.47261">
        <ele>60</ele>
        <time>2020-12-24T13:39:08.000Z</time>
      </trkpt>
      <trkpt lat="47.32989" lon="-1.4725">
        <ele>60</ele>
        <time>2020-12-24T13:39:10.000Z</time>
      </trkpt>
      <trkpt lat="47.32979" lon="-1.4724">
        <ele>60</ele>
        <time>2020-12-24T13:39:12.000Z</time>
      </trkpt>
      <trkpt lat="47.32968" lon="-1.4723">
        <ele>60</ele>
        <time>2020-12-24T13:39:14.000Z</time>
      </trkpt>
      <trkpt lat="47.32957" lon="-1.47222">
        <ele>60</ele>
        <time>2020-12-24T13:39:16.000Z</time>
      </trkpt>
      <trkpt lat="47.32946" lon="-1.47211">
        <ele>60</ele>
        <time>2020-12-24T13:39:18.000Z</time>
      </trkpt>
      <trkpt lat="47.32939" lon="-1.47197">
        <ele>60</ele>
        <time>2020-12-24T13:39:20.000Z</time>
      </trkpt>
      <trkpt lat="47.32934" lon="-1.4718">
        <ele>61</ele>
        <time>2020-12-24T13:39:22.000Z</time>
      </trkpt>
      <trkpt lat="47.3293" lon="-1.47164">
        <ele>61</ele>
        <time>2020-12-24T13:39:24.000Z</time>
      </trkpt>
      <trkpt lat="47.32927" lon="-1.47147">
        <ele>61</ele>
        <time>2020-12-24T13:39:26.000Z</time>
      </trkpt>
      <trkpt lat="47.32924" lon="-1.4713">
        <ele>62</ele>
        <time>2020-12-24T13:39:28.000Z</time>
      </trkpt>
      <trkpt lat="47.32921" lon="-1.47113">
        <ele>62</ele>
        <time>2020-12-24T13:39:30.000Z</time>
      </trkpt>
      <trkpt lat="47.32918" lon="-1.47096">
        <ele>62</ele>
        <time>2020-12-24T13:39:32.000Z</time>
      </trkpt>
      <trkpt lat="47.32915" lon="-1.47078">
        <ele>63</ele>
        <time>2020-12-24T13:39:34.000Z</time>
      </trkpt>
      <trkpt lat="47.32912" lon="-1.47061">
        <ele>63</ele>
        <time>2020-12-24T13:39:36.000Z</time>
      </trkpt>
      <trkpt lat="47.3291" lon="-1.47044">
        <ele>63</ele>
        <time>2020-12-24T13:39:38.000Z</time>
      </trkpt>
      <trkpt lat="47.32907" lon="-1.47028">
        <ele>64</ele>
        <time>2020-12-24T13:39:40.000Z</time>
      </trkpt>
      <trkpt lat="47.32905" lon="-1.47011">
        <ele>64</ele>
        <time>2020-12-24T13:39:42.000Z</time>
      </trkpt>
      <trkpt lat="47.32902" lon="-1.46994">
        <ele>64</ele>
        <time>2020-12-24T13:39:44.000Z</time>
      </trkpt>
      <trkpt lat="47.32899" lon="-1.46977">
        <ele>64</ele>
        <time>2020-12-24T13:39:46.000Z</time>
      </trkpt>
      <trkpt lat="47.32896" lon="-1.4696">
        <ele>65</ele>
        <time>2020-12-24T13:39:48.000Z</time>
      </trkpt>
      <trkpt lat="47.32894" lon="-1.46942">
        <ele>65</ele>
        <time>2020-12-24T13:39:50.000Z</time>
      </trkpt>
      <trkpt lat="47.3289" lon="-1.46927">
        <ele>65</ele>
        <time>2020-12-24T13:39:52.000Z</time>
      </trkpt>
      <trkpt lat="47.32885" lon="-1.4691">
        <ele>65</ele>
        <time>2020-12-24T13:39:54.000Z</time>
      </trkpt>
      <trkpt lat="47.32878" lon="-1.46896">
        <ele>65</ele>
        <time>2020-12-24T13:39:56.000Z</time>
      </trkpt>
      <trkpt lat="47.3287" lon="-1.46883">
        <ele>65</ele>
        <time>2020-12-24T13:39:58.000Z</time>
      </trkpt>
      <trkpt lat="47.3286" lon="-1.46874">
        <ele>65</ele>
        <time>2020-12-24T13:40:00.000Z</time>
      </trkpt>
      <trkpt lat="47.3285" lon="-1.46866">
        <ele>65</ele>
        <time>2020-12-24T13:40:02.000Z</time>
      </trkpt>
      <trkpt lat="47.32838" lon="-1.46861">
        <ele>66</ele>
        <time>2020-12-24T13:40:04.000Z</time>
      </trkpt>
      <trkpt lat="47.32827" lon="-1.46855">
        <ele>66</ele>
        <time>2020-12-24T13:40:06.000Z</time>
      </trkpt>
      <trkpt lat="47.32817" lon="-1.46849">
        <ele>67</ele>
        <time>2020-12-24T13:40:08.000Z</time>
      </trkpt>
      <trkpt lat="47.32806" lon="-1.4684">
        <ele>67</ele>
        <time>2020-12-24T13:40:10.000Z</time>
      </trkpt>
      <trkpt lat="47.32796" lon="-1.46827">
        <ele>67</ele>
        <time>2020-12-24T13:40:12.000Z</time>
      </trkpt>
      <trkpt lat="47.32788" lon="-1.46816">
        <ele>67</ele>
        <time>2020-12-24T13:40:14.000Z</time>
      </trkpt>
      <trkpt lat="47.3278" lon="-1.46804">
        <ele>67</ele>
        <time>2020-12-24T13:40:16.000Z</time>
      </trkpt>
      <trkpt lat="47.32773" lon="-1.46791">
        <ele>67</ele>
        <time>2020-12-24T13:40:18.000Z</time>
      </trkpt>
      <trkpt lat="47.32767" lon="-1.46776">
        <ele>68</ele>
        <time>2020-12-24T13:40:20.000Z</time>
      </trkpt>
      <trkpt lat="47.32762" lon="-1.46761">
        <ele>68</ele>
        <time>2020-12-24T13:40:22.000Z</time>
      </trkpt>
      <trkpt lat="47.32759" lon="-1.46746">
        <ele>69</ele>
        <time>2020-12-24T13:40:24.000Z</time>
      </trkpt>
      <trkpt lat="47.32757" lon="-1.4673">
        <ele>69</ele>
        <time>2020-12-24T13:40:26.000Z</time>
      </trkpt>
      <trkpt lat="47.32755" lon="-1.46712">
        <ele>69</ele>
        <time>2020-12-24T13:40:28.000Z</time>
      </trkpt>
      <trkpt lat="47.32754" lon="-1.46695">
        <ele>69</ele>
        <time>2020-12-24T13:40:30.000Z</time>
      </trkpt>
      <trkpt lat="47.32752" lon="-1.46679">
        <ele>70</ele>
        <time>2020-12-24T13:40:32.000Z</time>
      </trkpt>
      <trkpt lat="47.3275" lon="-1.46663">
        <ele>70</ele>
        <time>2020-12-24T13:40:34.000Z</time>
      </trkpt>
      <trkpt lat="47.32747" lon="-1.46648">
        <ele>70</ele>
        <time>2020-12-24T13:40:36.000Z</time>
      </trkpt>
      <trkpt lat="47.32743" lon="-1.46635">
        <ele>71</ele>
        <time>2020-12-24T13:40:38.000Z</time>
      </trkpt>
      <trkpt lat="47.3274" lon="-1.46622">
        <ele>72</ele>
        <time>2020-12-24T13:40:40.000Z</time>
      </trkpt>
      <trkpt lat="47.32736" lon="-1.46609">
        <ele>72</ele>
        <time>2020-12-24T13:40:42.000Z</time>
      </trkpt>
      <trkpt lat="47.3273" lon="-1.46596">
        <ele>73</ele>
        <time>2020-12-24T13:40:44.000Z</time>
      </trkpt>
      <trkpt lat="47.32725" lon="-1.46583">
        <ele>73</ele>
        <time>2020-12-24T13:40:46.000Z</time>
      </trkpt>
      <trkpt lat="47.32719" lon="-1.4657">
        <ele>73</ele>
        <time>2020-12-24T13:40:48.000Z</time>
      </trkpt>
      <trkpt lat="47.32713" lon="-1.46557">
        <ele>74</ele>
        <time>2020-12-24T13:40:50.000Z</time>
      </trkpt>
      <trkpt lat="47.32707" lon="-1.46544">
        <ele>74</ele>
        <time>2020-12-24T13:40:52.000Z</time>
      </trkpt>
      <trkpt lat="47.327" lon="-1.46531">
        <ele>74</ele>
        <time>2020-12-24T13:40:54.000Z</time>
      </trkpt>
      <trkpt lat="47.32694" lon="-1.46519">
        <ele>74</ele>
        <time>2020-12-24T13:40:56.000Z</time>
      </trkpt>
      <trkpt lat="47.32687" lon="-1.46507">
        <ele>75</ele>
        <time>2020-12-24T13:40:58.000Z</time>
      </trkpt>
      <trkpt lat="47.32681" lon="-1.46494">
        <ele>75</ele>
        <time>2020-12-24T13:41:00.000Z</time>
      </trkpt>
      <trkpt lat="47.32675" lon="-1.46483">
        <ele>75</ele>
        <time>2020-12-24T13:41:02.000Z</time>
      </trkpt>
      <trkpt lat="47.32669" lon="-1.46471">
        <ele>75</ele>
        <time>2020-12-24T13:41:04.000Z</time>
      </trkpt>
      <trkpt lat="47.32664" lon="-1.4646">
        <ele>75</ele>
        <time>2020-12-24T13:41:06.000Z</time>
      </trkpt>
      <trkpt lat="47.32656" lon="-1.46445">
        <ele>75</ele>
        <time>2020-12-24T13:41:09.000Z</time>
      </trkpt>
      <trkpt lat="47.32649" lon="-1.46434">
        <ele>75</ele>
        <time>2020-12-24T13:41:12.000Z</time>
      </trkpt>
      <trkpt lat="47.3264" lon="-1.46421">
        <ele>75</ele>
        <time>2020-12-24T13:41:16.000Z</time>
      </trkpt>
      <trkpt lat="47.32641" lon="-1.46402">
        <ele>75</ele>
        <time>2020-12-24T13:41:19.000Z</time>
      </trkpt>
      <trkpt lat="47.32642" lon="-1.46383">
        <ele>76</ele>
        <time>2020-12-24T13:41:22.000Z</time>
      </trkpt>
      <trkpt lat="47.32643" lon="-1.46366">
        <ele>78</ele>
        <time>2020-12-24T13:41:25.000Z</time>
      </trkpt>
      <trkpt lat="47.32643" lon="-1.46349">
        <ele>78</ele>
        <time>2020-12-24T13:41:28.000Z</time>
      </trkpt>
      <trkpt lat="47.32645" lon="-1.46331">
        <ele>79</ele>
        <time>2020-12-24T13:41:31.000Z</time>
      </trkpt>
      <trkpt lat="47.32648" lon="-1.46313">
        <ele>79</ele>
        <time>2020-12-24T13:41:34.000Z</time>
      </trkpt>
      <trkpt lat="47.32653" lon="-1.46296">
        <ele>80</ele>
        <time>2020-12-24T13:41:37.000Z</time>
      </trkpt>
      <trkpt lat="47.32659" lon="-1.46281">
        <ele>81</ele>
        <time>2020-12-24T13:41:40.000Z</time>
      </trkpt>
      <trkpt lat="47.32667" lon="-1.46269">
        <ele>81</ele>
        <time>2020-12-24T13:41:43.000Z</time>
      </trkpt>
      <trkpt lat="47.32675" lon="-1.46257">
        <ele>82</ele>
        <time>2020-12-24T13:41:46.000Z</time>
      </trkpt>
      <trkpt lat="47.32683" lon="-1.46248">
        <ele>82</ele>
        <time>2020-12-24T13:41:49.000Z</time>
      </trkpt>
      <trkpt lat="47.32693" lon="-1.46238">
        <ele>82</ele>
        <time>2020-12-24T13:41:52.000Z</time>
      </trkpt>
      <trkpt lat="47.32702" lon="-1.4623">
        <ele>83</ele>
        <time>2020-12-24T13:41:55.000Z</time>
      </trkpt>
      <trkpt lat="47.32712" lon="-1.46221">
        <ele>84</ele>
        <time>2020-12-24T13:41:58.000Z</time>
      </trkpt>
      <trkpt lat="47.32722" lon="-1.46212">
        <ele>84</ele>
        <time>2020-12-24T13:42:01.000Z</time>
      </trkpt>
      <trkpt lat="47.32732" lon="-1.46203">
        <ele>85</ele>
        <time>2020-12-24T13:42:04.000Z</time>
      </trkpt>
      <trkpt lat="47.32741" lon="-1.46192">
        <ele>84</ele>
        <time>2020-12-24T13:42:07.000Z</time>
      </trkpt>
      <trkpt lat="47.3275" lon="-1.4618">
        <ele>85</ele>
        <time>2020-12-24T13:42:10.000Z</time>
      </trkpt>
      <trkpt lat="47.32757" lon="-1.46167">
        <ele>85</ele>
        <time>2020-12-24T13:42:13.000Z</time>
      </trkpt>
      <trkpt lat="47.32762" lon="-1.46152">
        <ele>86</ele>
        <time>2020-12-24T13:42:16.000Z</time>
      </trkpt>
      <trkpt lat="47.32763" lon="-1.46137">
        <ele>86</ele>
        <time>2020-12-24T13:42:19.000Z</time>
      </trkpt>
      <trkpt lat="47.32764" lon="-1.4612">
        <ele>87</ele>
        <time>2020-12-24T13:42:22.000Z</time>
      </trkpt>
      <trkpt lat="47.32762" lon="-1.46103">
        <ele>89</ele>
        <time>2020-12-24T13:42:25.000Z</time>
      </trkpt>
      <trkpt lat="47.3276" lon="-1.46084">
        <ele>90</ele>
        <time>2020-12-24T13:42:28.000Z</time>
      </trkpt>
      <trkpt lat="47.32758" lon="-1.46067">
        <ele>90</ele>
        <time>2020-12-24T13:42:31.000Z</time>
      </trkpt>
      <trkpt lat="47.32757" lon="-1.46049">
        <ele>91</ele>
        <time>2020-12-24T13:42:34.000Z</time>
      </trkpt>
      <trkpt lat="47.32759" lon="-1.46031">
        <ele>91</ele>
        <time>2020-12-24T13:42:37.000Z</time>
      </trkpt>
      <trkpt lat="47.32763" lon="-1.46014">
        <ele>92</ele>
        <time>2020-12-24T13:42:40.000Z</time>
      </trkpt>
      <trkpt lat="47.32769" lon="-1.45999">
        <ele>92</ele>
        <time>2020-12-24T13:42:43.000Z</time>
      </trkpt>
      <trkpt lat="47.32776" lon="-1.45985">
        <ele>93</ele>
        <time>2020-12-24T13:42:46.000Z</time>
      </trkpt>
      <trkpt lat="47.32784" lon="-1.45972">
        <ele>94</ele>
        <time>2020-12-24T13:42:49.000Z</time>
      </trkpt>
      <trkpt lat="47.32792" lon="-1.4596">
        <ele>94</ele>
        <time>2020-12-24T13:42:52.000Z</time>
      </trkpt>
      <trkpt lat="47.328" lon="-1.45949">
        <ele>95</ele>
        <time>2020-12-24T13:42:55.000Z</time>
      </trkpt>
      <trkpt lat="47.32809" lon="-1.45937">
        <ele>95</ele>
        <time>2020-12-24T13:42:58.000Z</time>
      </trkpt>
      <trkpt lat="47.32818" lon="-1.45925">
        <ele>95</ele>
        <time>2020-12-24T13:43:01.000Z</time>
      </trkpt>
      <trkpt lat="47.32828" lon="-1.45913">
        <ele>96</ele>
        <time>2020-12-24T13:43:04.000Z</time>
      </trkpt>
      <trkpt lat="47.32837" lon="-1.459">
        <ele>96</ele>
        <time>2020-12-24T13:43:07.000Z</time>
      </trkpt>
      <trkpt lat="47.32844" lon="-1.45891">
        <ele>97</ele>
        <time>2020-12-24T13:43:09.000Z</time>
      </trkpt>
      <trkpt lat="47.32851" lon="-1.45881">
        <ele>97</ele>
        <time>2020-12-24T13:43:11.000Z</time>
      </trkpt>
      <trkpt lat="47.32858" lon="-1.45871">
        <ele>97</ele>
        <time>2020-12-24T13:43:13.000Z</time>
      </trkpt>
      <trkpt lat="47.32866" lon="-1.45861">
        <ele>98</ele>
        <time>2020-12-24T13:43:15.000Z</time>
      </trkpt>
      <trkpt lat="47.32874" lon="-1.4585">
        <ele>98</ele>
        <time>2020-12-24T13:43:17.000Z</time>
      </trkpt>
      <trkpt lat="47.32882" lon="-1.4584">
        <ele>98</ele>
        <time>2020-12-24T13:43:19.000Z</time>
      </trkpt>
      <trkpt lat="47.32889" lon="-1.45829">
        <ele>98</ele>
        <time>2020-12-24T13:43:21.000Z</time>
      </trkpt>
      <trkpt lat="47.32897" lon="-1.45819">
        <ele>98</ele>
        <time>2020-12-24T13:43:23.000Z</time>
      </trkpt>
      <trkpt lat="47.32904" lon="-1.45809">
        <ele>98</ele>
        <time>2020-12-24T13:43:25.000Z</time>
      </trkpt>
      <trkpt lat="47.32912" lon="-1.45799">
        <ele>98</ele>
        <time>2020-12-24T13:43:27.000Z</time>
      </trkpt>
      <trkpt lat="47.3292" lon="-1.45788">
        <ele>99</ele>
        <time>2020-12-24T13:43:29.000Z</time>
      </trkpt>
      <trkpt lat="47.32927" lon="-1.45778">
        <ele>99</ele>
        <time>2020-12-24T13:43:31.000Z</time>
      </trkpt>
      <trkpt lat="47.32935" lon="-1.45768">
        <ele>100</ele>
        <time>2020-12-24T13:43:33.000Z</time>
      </trkpt>
      <trkpt lat="47.32943" lon="-1.45758">
        <ele>100</ele>
        <time>2020-12-24T13:43:35.000Z</time>
      </trkpt>
      <trkpt lat="47.3295" lon="-1.45748">
        <ele>100</ele>
        <time>2020-12-24T13:43:37.000Z</time>
      </trkpt>
      <trkpt lat="47.32958" lon="-1.45739">
        <ele>101</ele>
        <time>2020-12-24T13:43:39.000Z</time>
      </trkpt>
      <trkpt lat="47.32965" lon="-1.45728">
        <ele>101</ele>
        <time>2020-12-24T13:43:41.000Z</time>
      </trkpt>
      <trkpt lat="47.32973" lon="-1.45718">
        <ele>101</ele>
        <time>2020-12-24T13:43:43.000Z</time>
      </trkpt>
      <trkpt lat="47.32981" lon="-1.45708">
        <ele>101</ele>
        <time>2020-12-24T13:43:45.000Z</time>
      </trkpt>
      <trkpt lat="47.32988" lon="-1.45698">
        <ele>101</ele>
        <time>2020-12-24T13:43:47.000Z</time>
      </trkpt>
      <trkpt lat="47.32996" lon="-1.45688">
        <ele>101</ele>
        <time>2020-12-24T13:43:49.000Z</time>
      </trkpt>
      <trkpt lat="47.33003" lon="-1.45678">
        <ele>102</ele>
        <time>2020-12-24T13:43:51.000Z</time>
      </trkpt>
      <trkpt lat="47.33011" lon="-1.45668">
        <ele>102</ele>
        <time>2020-12-24T13:43:53.000Z</time>
      </trkpt>
      <trkpt lat="47.33018" lon="-1.45657">
        <ele>102</ele>
        <time>2020-12-24T13:43:55.000Z</time>
      </trkpt>
      <trkpt lat="47.33025" lon="-1.45647">
        <ele>103</ele>
        <time>2020-12-24T13:43:57.000Z</time>
      </trkpt>
      <trkpt lat="47.33033" lon="-1.45638">
        <ele>103</ele>
        <time>2020-12-24T13:43:59.000Z</time>
      </trkpt>
      <trkpt lat="47.3304" lon="-1.45627">
        <ele>103</ele>
        <time>2020-12-24T13:44:01.000Z</time>
      </trkpt>
      <trkpt lat="47.33047" lon="-1.45618">
        <ele>103</ele>
        <time>2020-12-24T13:44:03.000Z</time>
      </trkpt>
      <trkpt lat="47.33055" lon="-1.45608">
        <ele>104</ele>
        <time>2020-12-24T13:44:05.000Z</time>
      </trkpt>
      <trkpt lat="47.33063" lon="-1.45597">
        <ele>104</ele>
        <time>2020-12-24T13:44:07.000Z</time>
      </trkpt>
      <trkpt lat="47.3307" lon="-1.45586">
        <ele>105</ele>
        <time>2020-12-24T13:44:09.000Z</time>
      </trkpt>
      <trkpt lat="47.33078" lon="-1.45575">
        <ele>105</ele>
        <time>2020-12-24T13:44:11.000Z</time>
      </trkpt>
      <trkpt lat="47.33086" lon="-1.45566">
        <ele>105</ele>
        <time>2020-12-24T13:44:13.000Z</time>
      </trkpt>
      <trkpt lat="47.33094" lon="-1.45555">
        <ele>106</ele>
        <time>2020-12-24T13:44:15.000Z</time>
      </trkpt>
      <trkpt lat="47.33101" lon="-1.45544">
        <ele>106</ele>
        <time>2020-12-24T13:44:17.000Z</time>
      </trkpt>
      <trkpt lat="47.33109" lon="-1.45534">
        <ele>106</ele>
        <time>2020-12-24T13:44:19.000Z</time>
      </trkpt>
      <trkpt lat="47.33117" lon="-1.45524">
        <ele>106</ele>
        <time>2020-12-24T13:44:21.000Z</time>
      </trkpt>
      <trkpt lat="47.33124" lon="-1.45514">
        <ele>107</ele>
        <time>2020-12-24T13:44:23.000Z</time>
      </trkpt>
      <trkpt lat="47.33132" lon="-1.45504">
        <ele>107</ele>
        <time>2020-12-24T13:44:25.000Z</time>
      </trkpt>
      <trkpt lat="47.3314" lon="-1.45494">
        <ele>107</ele>
        <time>2020-12-24T13:44:27.000Z</time>
      </trkpt>
      <trkpt lat="47.33149" lon="-1.45485">
        <ele>107</ele>
        <time>2020-12-24T13:44:29.000Z</time>
      </trkpt>
      <trkpt lat="47.33158" lon="-1.45477">
        <ele>107</ele>
        <time>2020-12-24T13:44:31.000Z</time>
      </trkpt>
      <trkpt lat="47.33167" lon="-1.4547">
        <ele>107</ele>
        <time>2020-12-24T13:44:33.000Z</time>
      </trkpt>
      <trkpt lat="47.33176" lon="-1.45463">
        <ele>107</ele>
        <time>2020-12-24T13:44:35.000Z</time>
      </trkpt>
      <trkpt lat="47.33186" lon="-1.45457">
        <ele>107</ele>
        <time>2020-12-24T13:44:37.000Z</time>
      </trkpt>
      <trkpt lat="47.33195" lon="-1.45452">
        <ele>107</ele>
        <time>2020-12-24T13:44:39.000Z</time>
      </trkpt>
      <trkpt lat="47.33205" lon="-1.45447">
        <ele>107</ele>
        <time>2020-12-24T13:44:41.000Z</time>
      </trkpt>
      <trkpt lat="47.33215" lon="-1.45444">
        <ele>107</ele>
        <time>2020-12-24T13:44:43.000Z</time>
      </trkpt>
      <trkpt lat="47.33224" lon="-1.45439">
        <ele>107</ele>
        <time>2020-12-24T13:44:45.000Z</time>
      </trkpt>
      <trkpt lat="47.33233" lon="-1.45435">
        <ele>107</ele>
        <time>2020-12-24T13:44:47.000Z</time>
      </trkpt>
      <trkpt lat="47.33242" lon="-1.45431">
        <ele>107</ele>
        <time>2020-12-24T13:44:49.000Z</time>
      </trkpt>
      <trkpt lat="47.33251" lon="-1.45427">
        <ele>107</ele>
        <time>2020-12-24T13:44:51.000Z</time>
      </trkpt>
      <trkpt lat="47.33261" lon="-1.45423">
        <ele>107</ele>
        <time>2020-12-24T13:44:53.000Z</time>
      </trkpt>
      <trkpt lat="47.3327" lon="-1.4542">
        <ele>107</ele>
        <time>2020-12-24T13:44:55.000Z</time>
      </trkpt>
      <trkpt lat="47.33282" lon="-1.45415">
        <ele>107</ele>
        <time>2020-12-24T13:44:58.000Z</time>
      </trkpt>
      <trkpt lat="47.33292" lon="-1.45411">
        <ele>106</ele>
        <time>2020-12-24T13:45:00.000Z</time>
      </trkpt>
      <trkpt lat="47.33302" lon="-1.45407">
        <ele>106</ele>
        <time>2020-12-24T13:45:02.000Z</time>
      </trkpt>
      <trkpt lat="47.33312" lon="-1.45403">
        <ele>107</ele>
        <time>2020-12-24T13:45:04.000Z</time>
      </trkpt>
      <trkpt lat="47.33321" lon="-1.45399">
        <ele>107</ele>
        <time>2020-12-24T13:45:06.000Z</time>
      </trkpt>
      <trkpt lat="47.33331" lon="-1.45395">
        <ele>107</ele>
        <time>2020-12-24T13:45:08.000Z</time>
      </trkpt>
      <trkpt lat="47.33341" lon="-1.4539">
        <ele>108</ele>
        <time>2020-12-24T13:45:10.000Z</time>
      </trkpt>
      <trkpt lat="47.33351" lon="-1.45386">
        <ele>108</ele>
        <time>2020-12-24T13:45:12.000Z</time>
      </trkpt>
      <trkpt lat="47.33361" lon="-1.45382">
        <ele>108</ele>
        <time>2020-12-24T13:45:14.000Z</time>
      </trkpt>
      <trkpt lat="47.33371" lon="-1.45378">
        <ele>108</ele>
        <time>2020-12-24T13:45:16.000Z</time>
      </trkpt>
      <trkpt lat="47.33381" lon="-1.45374">
        <ele>108</ele>
        <time>2020-12-24T13:45:18.000Z</time>
      </trkpt>
      <trkpt lat="47.33391" lon="-1.4537">
        <ele>108</ele>
        <time>2020-12-24T13:45:20.000Z</time>
      </trkpt>
      <trkpt lat="47.334" lon="-1.45365">
        <ele>108</ele>
        <time>2020-12-24T13:45:22.000Z</time>
      </trkpt>
      <trkpt lat="47.3341" lon="-1.45361">
        <ele>108</ele>
        <time>2020-12-24T13:45:24.000Z</time>
      </trkpt>
      <trkpt lat="47.33419" lon="-1.45358">
        <ele>108</ele>
        <time>2020-12-24T13:45:26.000Z</time>
      </trkpt>
      <trkpt lat="47.33426" lon="-1.45348">
        <ele>107</ele>
        <time>2020-12-24T13:45:29.000Z</time>
      </trkpt>
      <trkpt lat="47.33415" lon="-1.45337">
        <ele>108</ele>
        <time>2020-12-24T13:45:32.000Z</time>
      </trkpt>
      <trkpt lat="47.33404" lon="-1.45333">
        <ele>108</ele>
        <time>2020-12-24T13:45:34.000Z</time>
      </trkpt>
      <trkpt lat="47.33394" lon="-1.45328">
        <ele>108</ele>
        <time>2020-12-24T13:45:36.000Z</time>
      </trkpt>
      <trkpt lat="47.33383" lon="-1.45322">
        <ele>108</ele>
        <time>2020-12-24T13:45:38.000Z</time>
      </trkpt>
      <trkpt lat="47.33372" lon="-1.45315">
        <ele>108</ele>
        <time>2020-12-24T13:45:40.000Z</time>
      </trkpt>
      <trkpt lat="47.33361" lon="-1.45309">
        <ele>108</ele>
        <time>2020-12-24T13:45:42.000Z</time>
      </trkpt>
      <trkpt lat="47.33351" lon="-1.45303">
        <ele>109</ele>
        <time>2020-12-24T13:45:44.000Z</time>
      </trkpt>
      <trkpt lat="47.3334" lon="-1.45297">
        <ele>109</ele>
        <time>2020-12-24T13:45:46.000Z</time>
      </trkpt>
      <trkpt lat="47.33329" lon="-1.45291">
        <ele>109</ele>
        <time>2020-12-24T13:45:48.000Z</time>
      </trkpt>
      <trkpt lat="47.33318" lon="-1.45285">
        <ele>109</ele>
        <time>2020-12-24T13:45:50.000Z</time>
      </trkpt>
      <trkpt lat="47.33307" lon="-1.4528">
        <ele>109</ele>
        <time>2020-12-24T13:45:52.000Z</time>
      </trkpt>
      <trkpt lat="47.33295" lon="-1.45274">
        <ele>109</ele>
        <time>2020-12-24T13:45:54.000Z</time>
      </trkpt>
      <trkpt lat="47.33284" lon="-1.45267">
        <ele>109</ele>
        <time>2020-12-24T13:45:56.000Z</time>
      </trkpt>
      <trkpt lat="47.33273" lon="-1.45261">
        <ele>110</ele>
        <time>2020-12-24T13:45:58.000Z</time>
      </trkpt>
      <trkpt lat="47.33261" lon="-1.45255">
        <ele>109</ele>
        <time>2020-12-24T13:46:00.000Z</time>
      </trkpt>
      <trkpt lat="47.3325" lon="-1.45248">
        <ele>109</ele>
        <time>2020-12-24T13:46:02.000Z</time>
      </trkpt>
      <trkpt lat="47.33239" lon="-1.45242">
        <ele>109</ele>
        <time>2020-12-24T13:46:04.000Z</time>
      </trkpt>
      <trkpt lat="47.33228" lon="-1.45236">
        <ele>110</ele>
        <time>2020-12-24T13:46:06.000Z</time>
      </trkpt>
      <trkpt lat="47.33216" lon="-1.45229">
        <ele>110</ele>
        <time>2020-12-24T13:46:08.000Z</time>
      </trkpt>
      <trkpt lat="47.33205" lon="-1.45222">
        <ele>110</ele>
        <time>2020-12-24T13:46:10.000Z</time>
      </trkpt>
      <trkpt lat="47.33194" lon="-1.45216">
        <ele>110</ele>
        <time>2020-12-24T13:46:12.000Z</time>
      </trkpt>
      <trkpt lat="47.33183" lon="-1.4521">
        <ele>111</ele>
        <time>2020-12-24T13:46:14.000Z</time>
      </trkpt>
      <trkpt lat="47.33172" lon="-1.45204">
        <ele>111</ele>
        <time>2020-12-24T13:46:16.000Z</time>
      </trkpt>
      <trkpt lat="47.33162" lon="-1.45198">
        <ele>111</ele>
        <time>2020-12-24T13:46:18.000Z</time>
      </trkpt>
      <trkpt lat="47.33151" lon="-1.45192">
        <ele>111</ele>
        <time>2020-12-24T13:46:20.000Z</time>
      </trkpt>
      <trkpt lat="47.33141" lon="-1.45186">
        <ele>111</ele>
        <time>2020-12-24T13:46:22.000Z</time>
      </trkpt>
      <trkpt lat="47.3313" lon="-1.45181">
        <ele>112</ele>
        <time>2020-12-24T13:46:24.000Z</time>
      </trkpt>
      <trkpt lat="47.33119" lon="-1.45174">
        <ele>112</ele>
        <time>2020-12-24T13:46:26.000Z</time>
      </trkpt>
      <trkpt lat="47.33108" lon="-1.45168">
        <ele>112</ele>
        <time>2020-12-24T13:46:28.000Z</time>
      </trkpt>
      <trkpt lat="47.33098" lon="-1.45163">
        <ele>112</ele>
        <time>2020-12-24T13:46:30.000Z</time>
      </trkpt>
      <trkpt lat="47.33087" lon="-1.45157">
        <ele>112</ele>
        <time>2020-12-24T13:46:32.000Z</time>
      </trkpt>
      <trkpt lat="47.33076" lon="-1.45151">
        <ele>112</ele>
        <time>2020-12-24T13:46:34.000Z</time>
      </trkpt>
      <trkpt lat="47.33066" lon="-1.45145">
        <ele>113</ele>
        <time>2020-12-24T13:46:36.000Z</time>
      </trkpt>
      <trkpt lat="47.33055" lon="-1.4514">
        <ele>113</ele>
        <time>2020-12-24T13:46:38.000Z</time>
      </trkpt>
      <trkpt lat="47.33045" lon="-1.45134">
        <ele>113</ele>
        <time>2020-12-24T13:46:40.000Z</time>
      </trkpt>
      <trkpt lat="47.33034" lon="-1.45128">
        <ele>113</ele>
        <time>2020-12-24T13:46:42.000Z</time>
      </trkpt>
      <trkpt lat="47.33023" lon="-1.45121">
        <ele>113</ele>
        <time>2020-12-24T13:46:44.000Z</time>
      </trkpt>
      <trkpt lat="47.33012" lon="-1.45115">
        <ele>113</ele>
        <time>2020-12-24T13:46:46.000Z</time>
      </trkpt>
      <trkpt lat="47.33002" lon="-1.45108">
        <ele>113</ele>
        <time>2020-12-24T13:46:48.000Z</time>
      </trkpt>
      <trkpt lat="47.32991" lon="-1.451">
        <ele>113</ele>
        <time>2020-12-24T13:46:50.000Z</time>
      </trkpt>
      <trkpt lat="47.3298" lon="-1.45092">
        <ele>113</ele>
        <time>2020-12-24T13:46:52.000Z</time>
      </trkpt>
      <trkpt lat="47.32969" lon="-1.45084">
        <ele>113</ele>
        <time>2020-12-24T13:46:54.000Z</time>
      </trkpt>
      <trkpt lat="47.32957" lon="-1.45076">
        <ele>113</ele>
        <time>2020-12-24T13:46:56.000Z</time>
      </trkpt>
      <trkpt lat="47.32946" lon="-1.45067">
        <ele>113</ele>
        <time>2020-12-24T13:46:58.000Z</time>
      </trkpt>
      <trkpt lat="47.32934" lon="-1.45058">
        <ele>112</ele>
        <time>2020-12-24T13:47:00.000Z</time>
      </trkpt>
      <trkpt lat="47.32922" lon="-1.45049">
        <ele>112</ele>
        <time>2020-12-24T13:47:02.000Z</time>
      </trkpt>
      <trkpt lat="47.3291" lon="-1.4504">
        <ele>112</ele>
        <time>2020-12-24T13:47:04.000Z</time>
      </trkpt>
      <trkpt lat="47.32898" lon="-1.4503">
        <ele>112</ele>
        <time>2020-12-24T13:47:06.000Z</time>
      </trkpt>
      <trkpt lat="47.32886" lon="-1.45021">
        <ele>112</ele>
        <time>2020-12-24T13:47:08.000Z</time>
      </trkpt>
      <trkpt lat="47.32874" lon="-1.45012">
        <ele>112</ele>
        <time>2020-12-24T13:47:10.000Z</time>
      </trkpt>
      <trkpt lat="47.32862" lon="-1.45003">
        <ele>113</ele>
        <time>2020-12-24T13:47:12.000Z</time>
      </trkpt>
      <trkpt lat="47.3285" lon="-1.44994">
        <ele>113</ele>
        <time>2020-12-24T13:47:14.000Z</time>
      </trkpt>
      <trkpt lat="47.32838" lon="-1.44986">
        <ele>113</ele>
        <time>2020-12-24T13:47:16.000Z</time>
      </trkpt>
      <trkpt lat="47.32826" lon="-1.44976">
        <ele>113</ele>
        <time>2020-12-24T13:47:18.000Z</time>
      </trkpt>
      <trkpt lat="47.32814" lon="-1.44967">
        <ele>113</ele>
        <time>2020-12-24T13:47:20.000Z</time>
      </trkpt>
      <trkpt lat="47.32803" lon="-1.44958">
        <ele>114</ele>
        <time>2020-12-24T13:47:22.000Z</time>
      </trkpt>
      <trkpt lat="47.32791" lon="-1.44949">
        <ele>114</ele>
        <time>2020-12-24T13:47:24.000Z</time>
      </trkpt>
      <trkpt lat="47.32779" lon="-1.4494">
        <ele>113</ele>
        <time>2020-12-24T13:47:26.000Z</time>
      </trkpt>
      <trkpt lat="47.32768" lon="-1.44932">
        <ele>113</ele>
        <time>2020-12-24T13:47:28.000Z</time>
      </trkpt>
      <trkpt lat="47.32756" lon="-1.44923">
        <ele>113</ele>
        <time>2020-12-24T13:47:30.000Z</time>
      </trkpt>
      <trkpt lat="47.32745" lon="-1.44914">
        <ele>113</ele>
        <time>2020-12-24T13:47:32.000Z</time>
      </trkpt>
      <trkpt lat="47.32734" lon="-1.44906">
        <ele>113</ele>
        <time>2020-12-24T13:47:34.000Z</time>
      </trkpt>
      <trkpt lat="47.32722" lon="-1.44898">
        <ele>113</ele>
        <time>2020-12-24T13:47:36.000Z</time>
      </trkpt>
      <trkpt lat="47.32711" lon="-1.44889">
        <ele>114</ele>
        <time>2020-12-24T13:47:38.000Z</time>
      </trkpt>
      <trkpt lat="47.32699" lon="-1.4488">
        <ele>114</ele>
        <time>2020-12-24T13:47:40.000Z</time>
      </trkpt>
      <trkpt lat="47.32688" lon="-1.44871">
        <ele>114</ele>
        <time>2020-12-24T13:47:42.000Z</time>
      </trkpt>
      <trkpt lat="47.32676" lon="-1.44862">
        <ele>114</ele>
        <time>2020-12-24T13:47:44.000Z</time>
      </trkpt>
      <trkpt lat="47.32664" lon="-1.44853">
        <ele>114</ele>
        <time>2020-12-24T13:47:46.000Z</time>
      </trkpt>
      <trkpt lat="47.32653" lon="-1.44844">
        <ele>114</ele>
        <time>2020-12-24T13:47:48.000Z</time>
      </trkpt>
      <trkpt lat="47.32641" lon="-1.44835">
        <ele>115</ele>
        <time>2020-12-24T13:47:50.000Z</time>
      </trkpt>
      <trkpt lat="47.3263" lon="-1.44827">
        <ele>115</ele>
        <time>2020-12-24T13:47:52.000Z</time>
      </trkpt>
      <trkpt lat="47.32618" lon="-1.44819">
        <ele>115</ele>
        <time>2020-12-24T13:47:54.000Z</time>
      </trkpt>
      <trkpt lat="47.32605" lon="-1.44809">
        <ele>115</ele>
        <time>2020-12-24T13:47:56.000Z</time>
      </trkpt>
      <trkpt lat="47.32593" lon="-1.448">
        <ele>115</ele>
        <time>2020-12-24T13:47:58.000Z</time>
      </trkpt>
      <trkpt lat="47.32582" lon="-1.44791">
        <ele>116</ele>
        <time>2020-12-24T13:48:00.000Z</time>
      </trkpt>
      <trkpt lat="47.32569" lon="-1.44783">
        <ele>116</ele>
        <time>2020-12-24T13:48:02.000Z</time>
      </trkpt>
      <trkpt lat="47.32557" lon="-1.44773">
        <ele>117</ele>
        <time>2020-12-24T13:48:04.000Z</time>
      </trkpt>
      <trkpt lat="47.32546" lon="-1.44764">
        <ele>117</ele>
        <time>2020-12-24T13:48:06.000Z</time>
      </trkpt>
      <trkpt lat="47.32535" lon="-1.44755">
        <ele>117</ele>
        <time>2020-12-24T13:48:08.000Z</time>
      </trkpt>
      <trkpt lat="47.32523" lon="-1.44747">
        <ele>116</ele>
        <time>2020-12-24T13:48:10.000Z</time>
      </trkpt>
      <trkpt lat="47.32511" lon="-1.44738">
        <ele>116</ele>
        <time>2020-12-24T13:48:12.000Z</time>
      </trkpt>
      <trkpt lat="47.325" lon="-1.44729">
        <ele>116</ele>
        <time>2020-12-24T13:48:14.000Z</time>
      </trkpt>
      <trkpt lat="47.3249" lon="-1.44721">
        <ele>116</ele>
        <time>2020-12-24T13:48:16.000Z</time>
      </trkpt>
      <trkpt lat="47.32481" lon="-1.44711">
        <ele>116</ele>
        <time>2020-12-24T13:48:18.000Z</time>
      </trkpt>
      <trkpt lat="47.32479" lon="-1.44693">
        <ele>116</ele>
        <time>2020-12-24T13:48:20.000Z</time>
      </trkpt>
      <trkpt lat="47.32481" lon="-1.44675">
        <ele>117</ele>
        <time>2020-12-24T13:48:22.000Z</time>
      </trkpt>
      <trkpt lat="47.32482" lon="-1.44657">
        <ele>117</ele>
        <time>2020-12-24T13:48:24.000Z</time>
      </trkpt>
      <trkpt lat="47.32483" lon="-1.44639">
        <ele>117</ele>
        <time>2020-12-24T13:48:26.000Z</time>
      </trkpt>
      <trkpt lat="47.32485" lon="-1.4462">
        <ele>117</ele>
        <time>2020-12-24T13:48:28.000Z</time>
      </trkpt>
      <trkpt lat="47.32487" lon="-1.44602">
        <ele>117</ele>
        <time>2020-12-24T13:48:30.000Z</time>
      </trkpt>
      <trkpt lat="47.32489" lon="-1.44584">
        <ele>118</ele>
        <time>2020-12-24T13:48:32.000Z</time>
      </trkpt>
      <trkpt lat="47.32491" lon="-1.44566">
        <ele>118</ele>
        <time>2020-12-24T13:48:34.000Z</time>
      </trkpt>
      <trkpt lat="47.32493" lon="-1.44547">
        <ele>118</ele>
        <time>2020-12-24T13:48:36.000Z</time>
      </trkpt>
      <trkpt lat="47.32495" lon="-1.44529">
        <ele>118</ele>
        <time>2020-12-24T13:48:38.000Z</time>
      </trkpt>
      <trkpt lat="47.32497" lon="-1.44511">
        <ele>118</ele>
        <time>2020-12-24T13:48:40.000Z</time>
      </trkpt>
      <trkpt lat="47.32498" lon="-1.44492">
        <ele>118</ele>
        <time>2020-12-24T13:48:42.000Z</time>
      </trkpt>
      <trkpt lat="47.325" lon="-1.44475">
        <ele>118</ele>
        <time>2020-12-24T13:48:44.000Z</time>
      </trkpt>
      <trkpt lat="47.32502" lon="-1.44458">
        <ele>119</ele>
        <time>2020-12-24T13:48:46.000Z</time>
      </trkpt>
      <trkpt lat="47.32504" lon="-1.4444">
        <ele>119</ele>
        <time>2020-12-24T13:48:48.000Z</time>
      </trkpt>
      <trkpt lat="47.32505" lon="-1.44422">
        <ele>119</ele>
        <time>2020-12-24T13:48:50.000Z</time>
      </trkpt>
      <trkpt lat="47.32507" lon="-1.44403">
        <ele>119</ele>
        <time>2020-12-24T13:48:52.000Z</time>
      </trkpt>
      <trkpt lat="47.32509" lon="-1.44385">
        <ele>119</ele>
        <time>2020-12-24T13:48:54.000Z</time>
      </trkpt>
      <trkpt lat="47.32511" lon="-1.44367">
        <ele>119</ele>
        <time>2020-12-24T13:48:56.000Z</time>
      </trkpt>
      <trkpt lat="47.32513" lon="-1.44349">
        <ele>119</ele>
        <time>2020-12-24T13:48:58.000Z</time>
      </trkpt>
      <trkpt lat="47.32514" lon="-1.4433">
        <ele>119</ele>
        <time>2020-12-24T13:49:00.000Z</time>
      </trkpt>
      <trkpt lat="47.32516" lon="-1.44312">
        <ele>119</ele>
        <time>2020-12-24T13:49:02.000Z</time>
      </trkpt>
      <trkpt lat="47.32518" lon="-1.44294">
        <ele>118</ele>
        <time>2020-12-24T13:49:04.000Z</time>
      </trkpt>
      <trkpt lat="47.3252" lon="-1.44275">
        <ele>118</ele>
        <time>2020-12-24T13:49:06.000Z</time>
      </trkpt>
      <trkpt lat="47.32522" lon="-1.44256">
        <ele>118</ele>
        <time>2020-12-24T13:49:08.000Z</time>
      </trkpt>
      <trkpt lat="47.32523" lon="-1.44238">
        <ele>118</ele>
        <time>2020-12-24T13:49:10.000Z</time>
      </trkpt>
      <trkpt lat="47.32525" lon="-1.4422">
        <ele>118</ele>
        <time>2020-12-24T13:49:12.000Z</time>
      </trkpt>
      <trkpt lat="47.32527" lon="-1.44203">
        <ele>118</ele>
        <time>2020-12-24T13:49:14.000Z</time>
      </trkpt>
      <trkpt lat="47.3253" lon="-1.44185">
        <ele>119</ele>
        <time>2020-12-24T13:49:16.000Z</time>
      </trkpt>
      <trkpt lat="47.32532" lon="-1.44167">
        <ele>119</ele>
        <time>2020-12-24T13:49:18.000Z</time>
      </trkpt>
      <trkpt lat="47.32535" lon="-1.4415">
        <ele>119</ele>
        <time>2020-12-24T13:49:20.000Z</time>
      </trkpt>
      <trkpt lat="47.32537" lon="-1.44132">
        <ele>119</ele>
        <time>2020-12-24T13:49:22.000Z</time>
      </trkpt>
      <trkpt lat="47.3254" lon="-1.44114">
        <ele>120</ele>
        <time>2020-12-24T13:49:24.000Z</time>
      </trkpt>
      <trkpt lat="47.32543" lon="-1.44096">
        <ele>120</ele>
        <time>2020-12-24T13:49:26.000Z</time>
      </trkpt>
      <trkpt lat="47.32545" lon="-1.44077">
        <ele>120</ele>
        <time>2020-12-24T13:49:28.000Z</time>
      </trkpt>
      <trkpt lat="47.32547" lon="-1.44059">
        <ele>120</ele>
        <time>2020-12-24T13:49:30.000Z</time>
      </trkpt>
      <trkpt lat="47.3255" lon="-1.44041">
        <ele>119</ele>
        <time>2020-12-24T13:49:32.000Z</time>
      </trkpt>
      <trkpt lat="47.32553" lon="-1.44024">
        <ele>119</ele>
        <time>2020-12-24T13:49:34.000Z</time>
      </trkpt>
      <trkpt lat="47.32556" lon="-1.44006">
        <ele>119</ele>
        <time>2020-12-24T13:49:36.000Z</time>
      </trkpt>
      <trkpt lat="47.32559" lon="-1.43989">
        <ele>119</ele>
        <time>2020-12-24T13:49:38.000Z</time>
      </trkpt>
      <trkpt lat="47.32562" lon="-1.4397">
        <ele>118</ele>
        <time>2020-12-24T13:49:40.000Z</time>
      </trkpt>
      <trkpt lat="47.32564" lon="-1.43953">
        <ele>118</ele>
        <time>2020-12-24T13:49:42.000Z</time>
      </trkpt>
      <trkpt lat="47.32566" lon="-1.43935">
        <ele>118</ele>
        <time>2020-12-24T13:49:44.000Z</time>
      </trkpt>
      <trkpt lat="47.32566" lon="-1.43916">
        <ele>117</ele>
        <time>2020-12-24T13:49:46.000Z</time>
      </trkpt>
      <trkpt lat="47.32561" lon="-1.43899">
        <ele>117</ele>
        <time>2020-12-24T13:49:48.000Z</time>
      </trkpt>
      <trkpt lat="47.32553" lon="-1.43884">
        <ele>117</ele>
        <time>2020-12-24T13:49:50.000Z</time>
      </trkpt>
      <trkpt lat="47.32546" lon="-1.43869">
        <ele>117</ele>
        <time>2020-12-24T13:49:52.000Z</time>
      </trkpt>
      <trkpt lat="47.32539" lon="-1.43853">
        <ele>117</ele>
        <time>2020-12-24T13:49:54.000Z</time>
      </trkpt>
      <trkpt lat="47.32532" lon="-1.43837">
        <ele>117</ele>
        <time>2020-12-24T13:49:56.000Z</time>
      </trkpt>
      <trkpt lat="47.32524" lon="-1.4382">
        <ele>116</ele>
        <time>2020-12-24T13:49:58.000Z</time>
      </trkpt>
      <trkpt lat="47.32516" lon="-1.43803">
        <ele>116</ele>
        <time>2020-12-24T13:50:00.000Z</time>
      </trkpt>
      <trkpt lat="47.32507" lon="-1.43786">
        <ele>116</ele>
        <time>2020-12-24T13:50:02.000Z</time>
      </trkpt>
      <trkpt lat="47.32497" lon="-1.43772">
        <ele>116</ele>
        <time>2020-12-24T13:50:04.000Z</time>
      </trkpt>
      <trkpt lat="47.32485" lon="-1.43758">
        <ele>115</ele>
        <time>2020-12-24T13:50:06.000Z</time>
      </trkpt>
      <trkpt lat="47.32473" lon="-1.43746">
        <ele>115</ele>
        <time>2020-12-24T13:50:08.000Z</time>
      </trkpt>
      <trkpt lat="47.3246" lon="-1.43734">
        <ele>114</ele>
        <time>2020-12-24T13:50:10.000Z</time>
      </trkpt>
      <trkpt lat="47.32448" lon="-1.43721">
        <ele>114</ele>
        <time>2020-12-24T13:50:12.000Z</time>
      </trkpt>
      <trkpt lat="47.32434" lon="-1.43711">
        <ele>114</ele>
        <time>2020-12-24T13:50:14.000Z</time>
      </trkpt>
      <trkpt lat="47.3242" lon="-1.43704">
        <ele>114</ele>
        <time>2020-12-24T13:50:16.000Z</time>
      </trkpt>
      <trkpt lat="47.32406" lon="-1.43699">
        <ele>113</ele>
        <time>2020-12-24T13:50:18.000Z</time>
      </trkpt>
      <trkpt lat="47.32392" lon="-1.43695">
        <ele>113</ele>
        <time>2020-12-24T13:50:20.000Z</time>
      </trkpt>
      <trkpt lat="47.32377" lon="-1.43691">
        <ele>112</ele>
        <time>2020-12-24T13:50:22.000Z</time>
      </trkpt>
      <trkpt lat="47.32362" lon="-1.43686">
        <ele>112</ele>
        <time>2020-12-24T13:50:24.000Z</time>
      </trkpt>
      <trkpt lat="47.32348" lon="-1.43683">
        <ele>112</ele>
        <time>2020-12-24T13:50:26.000Z</time>
      </trkpt>
      <trkpt lat="47.32333" lon="-1.4368">
        <ele>112</ele>
        <time>2020-12-24T13:50:28.000Z</time>
      </trkpt>
      <trkpt lat="47.32319" lon="-1.43676">
        <ele>112</ele>
        <time>2020-12-24T13:50:30.000Z</time>
      </trkpt>
      <trkpt lat="47.32305" lon="-1.43673">
        <ele>111</ele>
        <time>2020-12-24T13:50:32.000Z</time>
      </trkpt>
      <trkpt lat="47.32291" lon="-1.4367">
        <ele>111</ele>
        <time>2020-12-24T13:50:34.000Z</time>
      </trkpt>
      <trkpt lat="47.32278" lon="-1.43666">
        <ele>111</ele>
        <time>2020-12-24T13:50:36.000Z</time>
      </trkpt>
      <trkpt lat="47.32264" lon="-1.43662">
        <ele>112</ele>
        <time>2020-12-24T13:50:38.000Z</time>
      </trkpt>
      <trkpt lat="47.3225" lon="-1.43659">
        <ele>111</ele>
        <time>2020-12-24T13:50:40.000Z</time>
      </trkpt>
      <trkpt lat="47.32237" lon="-1.43656">
        <ele>111</ele>
        <time>2020-12-24T13:50:42.000Z</time>
      </trkpt>
      <trkpt lat="47.32223" lon="-1.43651">
        <ele>111</ele>
        <time>2020-12-24T13:50:44.000Z</time>
      </trkpt>
      <trkpt lat="47.32209" lon="-1.43647">
        <ele>111</ele>
        <time>2020-12-24T13:50:46.000Z</time>
      </trkpt>
      <trkpt lat="47.32195" lon="-1.43644">
        <ele>110</ele>
        <time>2020-12-24T13:50:48.000Z</time>
      </trkpt>
      <trkpt lat="47.32181" lon="-1.4364">
        <ele>110</ele>
        <time>2020-12-24T13:50:50.000Z</time>
      </trkpt>
      <trkpt lat="47.32165" lon="-1.43636">
        <ele>109</ele>
        <time>2020-12-24T13:50:52.000Z</time>
      </trkpt>
      <trkpt lat="47.32149" lon="-1.43632">
        <ele>108</ele>
        <time>2020-12-24T13:50:54.000Z</time>
      </trkpt>
      <trkpt lat="47.32133" lon="-1.43627">
        <ele>107</ele>
        <time>2020-12-24T13:50:56.000Z</time>
      </trkpt>
      <trkpt lat="47.32115" lon="-1.43622">
        <ele>106</ele>
        <time>2020-12-24T13:50:58.000Z</time>
      </trkpt>
      <trkpt lat="47.32106" lon="-1.43619">
        <ele>106</ele>
        <time>2020-12-24T13:50:59.000Z</time>
      </trkpt>
      <trkpt lat="47.32097" lon="-1.43618">
        <ele>106</ele>
        <time>2020-12-24T13:51:00.000Z</time>
      </trkpt>
      <trkpt lat="47.32082" lon="-1.43616">
        <ele>106</ele>
        <time>2020-12-24T13:51:02.000Z</time>
      </trkpt>
      <trkpt lat="47.32067" lon="-1.43617">
        <ele>107</ele>
        <time>2020-12-24T13:51:04.000Z</time>
      </trkpt>
      <trkpt lat="47.32052" lon="-1.43619">
        <ele>107</ele>
        <time>2020-12-24T13:51:06.000Z</time>
      </trkpt>
      <trkpt lat="47.32038" lon="-1.43621">
        <ele>107</ele>
        <time>2020-12-24T13:51:08.000Z</time>
      </trkpt>
      <trkpt lat="47.32024" lon="-1.43622">
        <ele>108</ele>
        <time>2020-12-24T13:51:10.000Z</time>
      </trkpt>
      <trkpt lat="47.3201" lon="-1.43623">
        <ele>108</ele>
        <time>2020-12-24T13:51:12.000Z</time>
      </trkpt>
      <trkpt lat="47.31995" lon="-1.43626">
        <ele>109</ele>
        <time>2020-12-24T13:51:14.000Z</time>
      </trkpt>
      <trkpt lat="47.31981" lon="-1.43629">
        <ele>110</ele>
        <time>2020-12-24T13:51:16.000Z</time>
      </trkpt>
      <trkpt lat="47.31966" lon="-1.43633">
        <ele>110</ele>
        <time>2020-12-24T13:51:18.000Z</time>
      </trkpt>
      <trkpt lat="47.31954" lon="-1.43639">
        <ele>110</ele>
        <time>2020-12-24T13:51:20.000Z</time>
      </trkpt>
      <trkpt lat="47.3194" lon="-1.43645">
        <ele>111</ele>
        <time>2020-12-24T13:51:22.000Z</time>
      </trkpt>
      <trkpt lat="47.31927" lon="-1.43651">
        <ele>111</ele>
        <time>2020-12-24T13:51:24.000Z</time>
      </trkpt>
      <trkpt lat="47.31915" lon="-1.43656">
        <ele>111</ele>
        <time>2020-12-24T13:51:26.000Z</time>
      </trkpt>
      <trkpt lat="47.31902" lon="-1.43662">
        <ele>111</ele>
        <time>2020-12-24T13:51:28.000Z</time>
      </trkpt>
      <trkpt lat="47.31889" lon="-1.43667">
        <ele>112</ele>
        <time>2020-12-24T13:51:30.000Z</time>
      </trkpt>
      <trkpt lat="47.31877" lon="-1.43673">
        <ele>112</ele>
        <time>2020-12-24T13:51:32.000Z</time>
      </trkpt>
      <trkpt lat="47.31864" lon="-1.43679">
        <ele>112</ele>
        <time>2020-12-24T13:51:34.000Z</time>
      </trkpt>
      <trkpt lat="47.31852" lon="-1.43685">
        <ele>113</ele>
        <time>2020-12-24T13:51:36.000Z</time>
      </trkpt>
      <trkpt lat="47.31839" lon="-1.43691">
        <ele>113</ele>
        <time>2020-12-24T13:51:38.000Z</time>
      </trkpt>
      <trkpt lat="47.31826" lon="-1.43697">
        <ele>113</ele>
        <time>2020-12-24T13:51:40.000Z</time>
      </trkpt>
      <trkpt lat="47.31813" lon="-1.43703">
        <ele>113</ele>
        <time>2020-12-24T13:51:42.000Z</time>
      </trkpt>
      <trkpt lat="47.31802" lon="-1.43709">
        <ele>114</ele>
        <time>2020-12-24T13:51:44.000Z</time>
      </trkpt>
      <trkpt lat="47.3179" lon="-1.43714">
        <ele>115</ele>
        <time>2020-12-24T13:51:46.000Z</time>
      </trkpt>
      <trkpt lat="47.31778" lon="-1.4372">
        <ele>115</ele>
        <time>2020-12-24T13:51:48.000Z</time>
      </trkpt>
      <trkpt lat="47.31766" lon="-1.43725">
        <ele>116</ele>
        <time>2020-12-24T13:51:50.000Z</time>
      </trkpt>
      <trkpt lat="47.31754" lon="-1.43731">
        <ele>116</ele>
        <time>2020-12-24T13:51:52.000Z</time>
      </trkpt>
      <trkpt lat="47.31742" lon="-1.43736">
        <ele>116</ele>
        <time>2020-12-24T13:51:54.000Z</time>
      </trkpt>
      <trkpt lat="47.3173" lon="-1.43742">
        <ele>116</ele>
        <time>2020-12-24T13:51:56.000Z</time>
      </trkpt>
      <trkpt lat="47.31717" lon="-1.43748">
        <ele>117</ele>
        <time>2020-12-24T13:51:58.000Z</time>
      </trkpt>
      <trkpt lat="47.31705" lon="-1.43754">
        <ele>117</ele>
        <time>2020-12-24T13:52:00.000Z</time>
      </trkpt>
      <trkpt lat="47.31693" lon="-1.4376">
        <ele>117</ele>
        <time>2020-12-24T13:52:02.000Z</time>
      </trkpt>
      <trkpt lat="47.31681" lon="-1.43766">
        <ele>117</ele>
        <time>2020-12-24T13:52:04.000Z</time>
      </trkpt>
      <trkpt lat="47.31669" lon="-1.43771">
        <ele>118</ele>
        <time>2020-12-24T13:52:06.000Z</time>
      </trkpt>
      <trkpt lat="47.31657" lon="-1.43777">
        <ele>118</ele>
        <time>2020-12-24T13:52:08.000Z</time>
      </trkpt>
      <trkpt lat="47.31645" lon="-1.43783">
        <ele>118</ele>
        <time>2020-12-24T13:52:10.000Z</time>
      </trkpt>
      <trkpt lat="47.31632" lon="-1.43789">
        <ele>119</ele>
        <time>2020-12-24T13:52:12.000Z</time>
      </trkpt>
      <trkpt lat="47.3162" lon="-1.43795">
        <ele>119</ele>
        <time>2020-12-24T13:52:14.000Z</time>
      </trkpt>
      <trkpt lat="47.31607" lon="-1.43801">
        <ele>118</ele>
        <time>2020-12-24T13:52:16.000Z</time>
      </trkpt>
      <trkpt lat="47.31595" lon="-1.43806">
        <ele>119</ele>
        <time>2020-12-24T13:52:18.000Z</time>
      </trkpt>
      <trkpt lat="47.31583" lon="-1.43812">
        <ele>119</ele>
        <time>2020-12-24T13:52:20.000Z</time>
      </trkpt>
      <trkpt lat="47.31571" lon="-1.43817">
        <ele>119</ele>
        <time>2020-12-24T13:52:22.000Z</time>
      </trkpt>
      <trkpt lat="47.31559" lon="-1.43822">
        <ele>119</ele>
        <time>2020-12-24T13:52:24.000Z</time>
      </trkpt>
      <trkpt lat="47.31547" lon="-1.43828">
        <ele>119</ele>
        <time>2020-12-24T13:52:26.000Z</time>
      </trkpt>
      <trkpt lat="47.31536" lon="-1.43834">
        <ele>119</ele>
        <time>2020-12-24T13:52:28.000Z</time>
      </trkpt>
      <trkpt lat="47.31526" lon="-1.43841">
        <ele>119</ele>
        <time>2020-12-24T13:52:30.000Z</time>
      </trkpt>
      <trkpt lat="47.31518" lon="-1.43846">
        <ele>119</ele>
        <time>2020-12-24T13:52:32.000Z</time>
      </trkpt>
      <trkpt lat="47.31506" lon="-1.43845">
        <ele>119</ele>
        <time>2020-12-24T13:52:34.000Z</time>
      </trkpt>
      <trkpt lat="47.31494" lon="-1.4384">
        <ele>119</ele>
        <time>2020-12-24T13:52:36.000Z</time>
      </trkpt>
      <trkpt lat="47.31482" lon="-1.43833">
        <ele>119</ele>
        <time>2020-12-24T13:52:38.000Z</time>
      </trkpt>
      <trkpt lat="47.31469" lon="-1.43826">
        <ele>118</ele>
        <time>2020-12-24T13:52:40.000Z</time>
      </trkpt>
      <trkpt lat="47.31455" lon="-1.43819">
        <ele>118</ele>
        <time>2020-12-24T13:52:42.000Z</time>
      </trkpt>
      <trkpt lat="47.31443" lon="-1.43811">
        <ele>117</ele>
        <time>2020-12-24T13:52:44.000Z</time>
      </trkpt>
      <trkpt lat="47.31429" lon="-1.43804">
        <ele>117</ele>
        <time>2020-12-24T13:52:46.000Z</time>
      </trkpt>
      <trkpt lat="47.31416" lon="-1.43795">
        <ele>117</ele>
        <time>2020-12-24T13:52:48.000Z</time>
      </trkpt>
      <trkpt lat="47.31402" lon="-1.43788">
        <ele>117</ele>
        <time>2020-12-24T13:52:50.000Z</time>
      </trkpt>
      <trkpt lat="47.31388" lon="-1.4378">
        <ele>117</ele>
        <time>2020-12-24T13:52:52.000Z</time>
      </trkpt>
      <trkpt lat="47.31375" lon="-1.43771">
        <ele>118</ele>
        <time>2020-12-24T13:52:54.000Z</time>
      </trkpt>
      <trkpt lat="47.31361" lon="-1.43762">
        <ele>118</ele>
        <time>2020-12-24T13:52:56.000Z</time>
      </trkpt>
      <trkpt lat="47.31347" lon="-1.43752">
        <ele>118</ele>
        <time>2020-12-24T13:52:58.000Z</time>
      </trkpt>
      <trkpt lat="47.31333" lon="-1.43744">
        <ele>117</ele>
        <time>2020-12-24T13:53:00.000Z</time>
      </trkpt>
      <trkpt lat="47.31319" lon="-1.43734">
        <ele>118</ele>
        <time>2020-12-24T13:53:02.000Z</time>
      </trkpt>
      <trkpt lat="47.31305" lon="-1.43726">
        <ele>118</ele>
        <time>2020-12-24T13:53:04.000Z</time>
      </trkpt>
      <trkpt lat="47.31291" lon="-1.43716">
        <ele>118</ele>
        <time>2020-12-24T13:53:06.000Z</time>
      </trkpt>
      <trkpt lat="47.31277" lon="-1.43706">
        <ele>118</ele>
        <time>2020-12-24T13:53:08.000Z</time>
      </trkpt>
      <trkpt lat="47.31262" lon="-1.43697">
        <ele>118</ele>
        <time>2020-12-24T13:53:10.000Z</time>
      </trkpt>
      <trkpt lat="47.31249" lon="-1.43688">
        <ele>119</ele>
        <time>2020-12-24T13:53:12.000Z</time>
      </trkpt>
      <trkpt lat="47.31234" lon="-1.43679">
        <ele>119</ele>
        <time>2020-12-24T13:53:14.000Z</time>
      </trkpt>
      <trkpt lat="47.3122" lon="-1.4367">
        <ele>119</ele>
        <time>2020-12-24T13:53:16.000Z</time>
      </trkpt>
      <trkpt lat="47.31207" lon="-1.43661">
        <ele>119</ele>
        <time>2020-12-24T13:53:18.000Z</time>
      </trkpt>
      <trkpt lat="47.31194" lon="-1.43651">
        <ele>119</ele>
        <time>2020-12-24T13:53:20.000Z</time>
      </trkpt>
      <trkpt lat="47.31181" lon="-1.43642">
        <ele>120</ele>
        <time>2020-12-24T13:53:22.000Z</time>
      </trkpt>
      <trkpt lat="47.31168" lon="-1.43633">
        <ele>119</ele>
        <time>2020-12-24T13:53:24.000Z</time>
      </trkpt>
      <trkpt lat="47.31155" lon="-1.43625">
        <ele>119</ele>
        <time>2020-12-24T13:53:26.000Z</time>
      </trkpt>
      <trkpt lat="47.31141" lon="-1.43615">
        <ele>120</ele>
        <time>2020-12-24T13:53:28.000Z</time>
      </trkpt>
      <trkpt lat="47.31128" lon="-1.43606">
        <ele>120</ele>
        <time>2020-12-24T13:53:30.000Z</time>
      </trkpt>
      <trkpt lat="47.31115" lon="-1.43597">
        <ele>120</ele>
        <time>2020-12-24T13:53:32.000Z</time>
      </trkpt>
      <trkpt lat="47.31102" lon="-1.4359">
        <ele>120</ele>
        <time>2020-12-24T13:53:34.000Z</time>
      </trkpt>
      <trkpt lat="47.31089" lon="-1.4358">
        <ele>120</ele>
        <time>2020-12-24T13:53:36.000Z</time>
      </trkpt>
      <trkpt lat="47.31076" lon="-1.43571">
        <ele>120</ele>
        <time>2020-12-24T13:53:38.000Z</time>
      </trkpt>
      <trkpt lat="47.31062" lon="-1.43561">
        <ele>120</ele>
        <time>2020-12-24T13:53:40.000Z</time>
      </trkpt>
      <trkpt lat="47.31049" lon="-1.43553">
        <ele>120</ele>
        <time>2020-12-24T13:53:42.000Z</time>
      </trkpt>
      <trkpt lat="47.31036" lon="-1.43544">
        <ele>120</ele>
        <time>2020-12-24T13:53:44.000Z</time>
      </trkpt>
      <trkpt lat="47.31022" lon="-1.43536">
        <ele>119</ele>
        <time>2020-12-24T13:53:46.000Z</time>
      </trkpt>
      <trkpt lat="47.31009" lon="-1.43528">
        <ele>119</ele>
        <time>2020-12-24T13:53:48.000Z</time>
      </trkpt>
      <trkpt lat="47.30996" lon="-1.4352">
        <ele>119</ele>
        <time>2020-12-24T13:53:50.000Z</time>
      </trkpt>
      <trkpt lat="47.30982" lon="-1.43513">
        <ele>119</ele>
        <time>2020-12-24T13:53:52.000Z</time>
      </trkpt>
      <trkpt lat="47.30969" lon="-1.43506">
        <ele>119</ele>
        <time>2020-12-24T13:53:54.000Z</time>
      </trkpt>
      <trkpt lat="47.30955" lon="-1.43498">
        <ele>119</ele>
        <time>2020-12-24T13:53:56.000Z</time>
      </trkpt>
      <trkpt lat="47.30942" lon="-1.4349">
        <ele>119</ele>
        <time>2020-12-24T13:53:58.000Z</time>
      </trkpt>
      <trkpt lat="47.30928" lon="-1.43483">
        <ele>119</ele>
        <time>2020-12-24T13:54:00.000Z</time>
      </trkpt>
      <trkpt lat="47.30914" lon="-1.43476">
        <ele>118</ele>
        <time>2020-12-24T13:54:02.000Z</time>
      </trkpt>
      <trkpt lat="47.309" lon="-1.43468">
        <ele>118</ele>
        <time>2020-12-24T13:54:04.000Z</time>
      </trkpt>
      <trkpt lat="47.30887" lon="-1.4346">
        <ele>118</ele>
        <time>2020-12-24T13:54:06.000Z</time>
      </trkpt>
      <trkpt lat="47.30874" lon="-1.43453">
        <ele>118</ele>
        <time>2020-12-24T13:54:08.000Z</time>
      </trkpt>
      <trkpt lat="47.3086" lon="-1.43445">
        <ele>118</ele>
        <time>2020-12-24T13:54:10.000Z</time>
      </trkpt>
      <trkpt lat="47.30847" lon="-1.43436">
        <ele>118</ele>
        <time>2020-12-24T13:54:12.000Z</time>
      </trkpt>
      <trkpt lat="47.30834" lon="-1.43427">
        <ele>118</ele>
        <time>2020-12-24T13:54:14.000Z</time>
      </trkpt>
      <trkpt lat="47.30822" lon="-1.43417">
        <ele>118</ele>
        <time>2020-12-24T13:54:16.000Z</time>
      </trkpt>
      <trkpt lat="47.30809" lon="-1.43407">
        <ele>118</ele>
        <time>2020-12-24T13:54:18.000Z</time>
      </trkpt>
      <trkpt lat="47.30796" lon="-1.43398">
        <ele>118</ele>
        <time>2020-12-24T13:54:20.000Z</time>
      </trkpt>
      <trkpt lat="47.30782" lon="-1.43388">
        <ele>118</ele>
        <time>2020-12-24T13:54:22.000Z</time>
      </trkpt>
      <trkpt lat="47.3077" lon="-1.43377">
        <ele>118</ele>
        <time>2020-12-24T13:54:24.000Z</time>
      </trkpt>
      <trkpt lat="47.30756" lon="-1.43367">
        <ele>117</ele>
        <time>2020-12-24T13:54:26.000Z</time>
      </trkpt>
      <trkpt lat="47.30742" lon="-1.43357">
        <ele>117</ele>
        <time>2020-12-24T13:54:28.000Z</time>
      </trkpt>
      <trkpt lat="47.30729" lon="-1.43347">
        <ele>117</ele>
        <time>2020-12-24T13:54:30.000Z</time>
      </trkpt>
      <trkpt lat="47.30715" lon="-1.43337">
        <ele>116</ele>
        <time>2020-12-24T13:54:32.000Z</time>
      </trkpt>
      <trkpt lat="47.30702" lon="-1.43326">
        <ele>117</ele>
        <time>2020-12-24T13:54:34.000Z</time>
      </trkpt>
      <trkpt lat="47.30689" lon="-1.43316">
        <ele>116</ele>
        <time>2020-12-24T13:54:36.000Z</time>
      </trkpt>
      <trkpt lat="47.30676" lon="-1.43306">
        <ele>115</ele>
        <time>2020-12-24T13:54:38.000Z</time>
      </trkpt>
      <trkpt lat="47.30662" lon="-1.43296">
        <ele>115</ele>
        <time>2020-12-24T13:54:40.000Z</time>
      </trkpt>
      <trkpt lat="47.30648" lon="-1.43287">
        <ele>114</ele>
        <time>2020-12-24T13:54:42.000Z</time>
      </trkpt>
      <trkpt lat="47.30635" lon="-1.4328">
        <ele>114</ele>
        <time>2020-12-24T13:54:44.000Z</time>
      </trkpt>
      <trkpt lat="47.30621" lon="-1.43273">
        <ele>115</ele>
        <time>2020-12-24T13:54:46.000Z</time>
      </trkpt>
      <trkpt lat="47.30608" lon="-1.43266">
        <ele>115</ele>
        <time>2020-12-24T13:54:48.000Z</time>
      </trkpt>
      <trkpt lat="47.30595" lon="-1.43259">
        <ele>115</ele>
        <time>2020-12-24T13:54:50.000Z</time>
      </trkpt>
      <trkpt lat="47.30581" lon="-1.43252">
        <ele>116</ele>
        <time>2020-12-24T13:54:52.000Z</time>
      </trkpt>
      <trkpt lat="47.30568" lon="-1.43245">
        <ele>116</ele>
        <time>2020-12-24T13:54:54.000Z</time>
      </trkpt>
      <trkpt lat="47.30556" lon="-1.43239">
        <ele>116</ele>
        <time>2020-12-24T13:54:56.000Z</time>
      </trkpt>
      <trkpt lat="47.30543" lon="-1.43232">
        <ele>116</ele>
        <time>2020-12-24T13:54:58.000Z</time>
      </trkpt>
      <trkpt lat="47.30531" lon="-1.43225">
        <ele>117</ele>
        <time>2020-12-24T13:55:00.000Z</time>
      </trkpt>
      <trkpt lat="47.30518" lon="-1.43219">
        <ele>117</ele>
        <time>2020-12-24T13:55:02.000Z</time>
      </trkpt>
      <trkpt lat="47.30505" lon="-1.43213">
        <ele>117</ele>
        <time>2020-12-24T13:55:04.000Z</time>
      </trkpt>
      <trkpt lat="47.30493" lon="-1.43206">
        <ele>117</ele>
        <time>2020-12-24T13:55:06.000Z</time>
      </trkpt>
      <trkpt lat="47.3048" lon="-1.432">
        <ele>118</ele>
        <time>2020-12-24T13:55:08.000Z</time>
      </trkpt>
      <trkpt lat="47.30468" lon="-1.43194">
        <ele>118</ele>
        <time>2020-12-24T13:55:10.000Z</time>
      </trkpt>
      <trkpt lat="47.30456" lon="-1.43188">
        <ele>119</ele>
        <time>2020-12-24T13:55:12.000Z</time>
      </trkpt>
      <trkpt lat="47.30443" lon="-1.43182">
        <ele>119</ele>
        <time>2020-12-24T13:55:14.000Z</time>
      </trkpt>
      <trkpt lat="47.30431" lon="-1.43176">
        <ele>119</ele>
        <time>2020-12-24T13:55:16.000Z</time>
      </trkpt>
      <trkpt lat="47.30418" lon="-1.43171">
        <ele>120</ele>
        <time>2020-12-24T13:55:18.000Z</time>
      </trkpt>
      <trkpt lat="47.30406" lon="-1.43165">
        <ele>120</ele>
        <time>2020-12-24T13:55:20.000Z</time>
      </trkpt>
      <trkpt lat="47.30393" lon="-1.4316">
        <ele>120</ele>
        <time>2020-12-24T13:55:22.000Z</time>
      </trkpt>
      <trkpt lat="47.30381" lon="-1.43155">
        <ele>120</ele>
        <time>2020-12-24T13:55:24.000Z</time>
      </trkpt>
      <trkpt lat="47.30368" lon="-1.43151">
        <ele>120</ele>
        <time>2020-12-24T13:55:26.000Z</time>
      </trkpt>
      <trkpt lat="47.30355" lon="-1.43147">
        <ele>120</ele>
        <time>2020-12-24T13:55:28.000Z</time>
      </trkpt>
      <trkpt lat="47.30341" lon="-1.43144">
        <ele>120</ele>
        <time>2020-12-24T13:55:30.000Z</time>
      </trkpt>
      <trkpt lat="47.30327" lon="-1.43141">
        <ele>120</ele>
        <time>2020-12-24T13:55:32.000Z</time>
      </trkpt>
      <trkpt lat="47.30314" lon="-1.4314">
        <ele>120</ele>
        <time>2020-12-24T13:55:34.000Z</time>
      </trkpt>
      <trkpt lat="47.303" lon="-1.4314">
        <ele>119</ele>
        <time>2020-12-24T13:55:36.000Z</time>
      </trkpt>
      <trkpt lat="47.30286" lon="-1.43142">
        <ele>119</ele>
        <time>2020-12-24T13:55:38.000Z</time>
      </trkpt>
      <trkpt lat="47.30272" lon="-1.43146">
        <ele>118</ele>
        <time>2020-12-24T13:55:40.000Z</time>
      </trkpt>
      <trkpt lat="47.30257" lon="-1.43151">
        <ele>117</ele>
        <time>2020-12-24T13:55:42.000Z</time>
      </trkpt>
      <trkpt lat="47.30243" lon="-1.43159">
        <ele>117</ele>
        <time>2020-12-24T13:55:44.000Z</time>
      </trkpt>
      <trkpt lat="47.3023" lon="-1.43168">
        <ele>117</ele>
        <time>2020-12-24T13:55:46.000Z</time>
      </trkpt>
      <trkpt lat="47.30216" lon="-1.4318">
        <ele>116</ele>
        <time>2020-12-24T13:55:48.000Z</time>
      </trkpt>
      <trkpt lat="47.30204" lon="-1.43193">
        <ele>116</ele>
        <time>2020-12-24T13:55:50.000Z</time>
      </trkpt>
      <trkpt lat="47.30192" lon="-1.43207">
        <ele>116</ele>
        <time>2020-12-24T13:55:52.000Z</time>
      </trkpt>
      <trkpt lat="47.3018" lon="-1.43224">
        <ele>116</ele>
        <time>2020-12-24T13:55:54.000Z</time>
      </trkpt>
      <trkpt lat="47.3017" lon="-1.43242">
        <ele>116</ele>
        <time>2020-12-24T13:55:56.000Z</time>
      </trkpt>
      <trkpt lat="47.30162" lon="-1.4326">
        <ele>116</ele>
        <time>2020-12-24T13:55:58.000Z</time>
      </trkpt>
      <trkpt lat="47.30152" lon="-1.4328">
        <ele>116</ele>
        <time>2020-12-24T13:56:00.000Z</time>
      </trkpt>
      <trkpt lat="47.30143" lon="-1.433">
        <ele>116</ele>
        <time>2020-12-24T13:56:02.000Z</time>
      </trkpt>
      <trkpt lat="47.30133" lon="-1.43319">
        <ele>116</ele>
        <time>2020-12-24T13:56:04.000Z</time>
      </trkpt>
      <trkpt lat="47.30124" lon="-1.43337">
        <ele>115</ele>
        <time>2020-12-24T13:56:06.000Z</time>
      </trkpt>
      <trkpt lat="47.30116" lon="-1.43355">
        <ele>115</ele>
        <time>2020-12-24T13:56:08.000Z</time>
      </trkpt>
      <trkpt lat="47.30107" lon="-1.43372">
        <ele>115</ele>
        <time>2020-12-24T13:56:10.000Z</time>
      </trkpt>
      <trkpt lat="47.30099" lon="-1.43389">
        <ele>115</ele>
        <time>2020-12-24T13:56:12.000Z</time>
      </trkpt>
      <trkpt lat="47.30092" lon="-1.43405">
        <ele>115</ele>
        <time>2020-12-24T13:56:14.000Z</time>
      </trkpt>
      <trkpt lat="47.30084" lon="-1.43421">
        <ele>116</ele>
        <time>2020-12-24T13:56:16.000Z</time>
      </trkpt>
      <trkpt lat="47.30076" lon="-1.43436">
        <ele>116</ele>
        <time>2020-12-24T13:56:18.000Z</time>
      </trkpt>
      <trkpt lat="47.30067" lon="-1.43449">
        <ele>117</ele>
        <time>2020-12-24T13:56:20.000Z</time>
      </trkpt>
      <trkpt lat="47.30057" lon="-1.43461">
        <ele>118</ele>
        <time>2020-12-24T13:56:22.000Z</time>
      </trkpt>
      <trkpt lat="47.30046" lon="-1.4347">
        <ele>119</ele>
        <time>2020-12-24T13:56:24.000Z</time>
      </trkpt>
      <trkpt lat="47.30033" lon="-1.43478">
        <ele>119</ele>
        <time>2020-12-24T13:56:26.000Z</time>
      </trkpt>
      <trkpt lat="47.3002" lon="-1.43484">
        <ele>119</ele>
        <time>2020-12-24T13:56:28.000Z</time>
      </trkpt>
      <trkpt lat="47.30007" lon="-1.43487">
        <ele>118</ele>
        <time>2020-12-24T13:56:30.000Z</time>
      </trkpt>
      <trkpt lat="47.29994" lon="-1.43489">
        <ele>118</ele>
        <time>2020-12-24T13:56:32.000Z</time>
      </trkpt>
      <trkpt lat="47.2998" lon="-1.4349">
        <ele>118</ele>
        <time>2020-12-24T13:56:34.000Z</time>
      </trkpt>
      <trkpt lat="47.29966" lon="-1.4349">
        <ele>118</ele>
        <time>2020-12-24T13:56:36.000Z</time>
      </trkpt>
      <trkpt lat="47.29953" lon="-1.43491">
        <ele>118</ele>
        <time>2020-12-24T13:56:38.000Z</time>
      </trkpt>
      <trkpt lat="47.29938" lon="-1.43491">
        <ele>117</ele>
        <time>2020-12-24T13:56:40.000Z</time>
      </trkpt>
      <trkpt lat="47.29924" lon="-1.43492">
        <ele>117</ele>
        <time>2020-12-24T13:56:42.000Z</time>
      </trkpt>
      <trkpt lat="47.29908" lon="-1.43493">
        <ele>116</ele>
        <time>2020-12-24T13:56:44.000Z</time>
      </trkpt>
      <trkpt lat="47.29892" lon="-1.43499">
        <ele>114</ele>
        <time>2020-12-24T13:56:46.000Z</time>
      </trkpt>
      <trkpt lat="47.29876" lon="-1.43508">
        <ele>113</ele>
        <time>2020-12-24T13:56:48.000Z</time>
      </trkpt>
      <trkpt lat="47.29867" lon="-1.43513">
        <ele>113</ele>
        <time>2020-12-24T13:56:49.000Z</time>
      </trkpt>
      <trkpt lat="47.29859" lon="-1.4352">
        <ele>113</ele>
        <time>2020-12-24T13:56:50.000Z</time>
      </trkpt>
      <trkpt lat="47.29852" lon="-1.43527">
        <ele>112</ele>
        <time>2020-12-24T13:56:51.000Z</time>
      </trkpt>
      <trkpt lat="47.29844" lon="-1.43535">
        <ele>112</ele>
        <time>2020-12-24T13:56:52.000Z</time>
      </trkpt>
      <trkpt lat="47.29836" lon="-1.43543">
        <ele>111</ele>
        <time>2020-12-24T13:56:53.000Z</time>
      </trkpt>
      <trkpt lat="47.29828" lon="-1.43551">
        <ele>111</ele>
        <time>2020-12-24T13:56:54.000Z</time>
      </trkpt>
      <trkpt lat="47.29821" lon="-1.43559">
        <ele>110</ele>
        <time>2020-12-24T13:56:55.000Z</time>
      </trkpt>
      <trkpt lat="47.29812" lon="-1.43567">
        <ele>110</ele>
        <time>2020-12-24T13:56:56.000Z</time>
      </trkpt>
      <trkpt lat="47.29803" lon="-1.43574">
        <ele>110</ele>
        <time>2020-12-24T13:56:57.000Z</time>
      </trkpt>
      <trkpt lat="47.29795" lon="-1.43581">
        <ele>109</ele>
        <time>2020-12-24T13:56:58.000Z</time>
      </trkpt>
      <trkpt lat="47.29786" lon="-1.43587">
        <ele>108</ele>
        <time>2020-12-24T13:56:59.000Z</time>
      </trkpt>
      <trkpt lat="47.29777" lon="-1.43594">
        <ele>108</ele>
        <time>2020-12-24T13:57:00.000Z</time>
      </trkpt>
      <trkpt lat="47.29768" lon="-1.43601">
        <ele>107</ele>
        <time>2020-12-24T13:57:01.000Z</time>
      </trkpt>
      <trkpt lat="47.29759" lon="-1.43607">
        <ele>106</ele>
        <time>2020-12-24T13:57:02.000Z</time>
      </trkpt>
      <trkpt lat="47.2975" lon="-1.43614">
        <ele>106</ele>
        <time>2020-12-24T13:57:03.000Z</time>
      </trkpt>
      <trkpt lat="47.2974" lon="-1.4362">
        <ele>105</ele>
        <time>2020-12-24T13:57:04.000Z</time>
      </trkpt>
      <trkpt lat="47.2973" lon="-1.43628">
        <ele>105</ele>
        <time>2020-12-24T13:57:05.000Z</time>
      </trkpt>
      <trkpt lat="47.29721" lon="-1.43634">
        <ele>104</ele>
        <time>2020-12-24T13:57:06.000Z</time>
      </trkpt>
      <trkpt lat="47.29711" lon="-1.43641">
        <ele>103</ele>
        <time>2020-12-24T13:57:07.000Z</time>
      </trkpt>
      <trkpt lat="47.29701" lon="-1.43649">
        <ele>103</ele>
        <time>2020-12-24T13:57:08.000Z</time>
      </trkpt>
      <trkpt lat="47.29692" lon="-1.43655">
        <ele>102</ele>
        <time>2020-12-24T13:57:09.000Z</time>
      </trkpt>
      <trkpt lat="47.29682" lon="-1.43663">
        <ele>101</ele>
        <time>2020-12-24T13:57:10.000Z</time>
      </trkpt>
      <trkpt lat="47.29671" lon="-1.4367">
        <ele>101</ele>
        <time>2020-12-24T13:57:11.000Z</time>
      </trkpt>
      <trkpt lat="47.29661" lon="-1.43678">
        <ele>100</ele>
        <time>2020-12-24T13:57:12.000Z</time>
      </trkpt>
      <trkpt lat="47.29651" lon="-1.43685">
        <ele>99</ele>
        <time>2020-12-24T13:57:13.000Z</time>
      </trkpt>
      <trkpt lat="47.29641" lon="-1.43692">
        <ele>99</ele>
        <time>2020-12-24T13:57:14.000Z</time>
      </trkpt>
      <trkpt lat="47.29631" lon="-1.43699">
        <ele>98</ele>
        <time>2020-12-24T13:57:15.000Z</time>
      </trkpt>
      <trkpt lat="47.29621" lon="-1.43706">
        <ele>98</ele>
        <time>2020-12-24T13:57:16.000Z</time>
      </trkpt>
      <trkpt lat="47.29611" lon="-1.43713">
        <ele>97</ele>
        <time>2020-12-24T13:57:17.000Z</time>
      </trkpt>
      <trkpt lat="47.29601" lon="-1.43721">
        <ele>96</ele>
        <time>2020-12-24T13:57:18.000Z</time>
      </trkpt>
      <trkpt lat="47.29591" lon="-1.43728">
        <ele>96</ele>
        <time>2020-12-24T13:57:19.000Z</time>
      </trkpt>
      <trkpt lat="47.29582" lon="-1.43735">
        <ele>96</ele>
        <time>2020-12-24T13:57:20.000Z</time>
      </trkpt>
      <trkpt lat="47.29572" lon="-1.43743">
        <ele>95</ele>
        <time>2020-12-24T13:57:21.000Z</time>
      </trkpt>
      <trkpt lat="47.29563" lon="-1.43751">
        <ele>95</ele>
        <time>2020-12-24T13:57:22.000Z</time>
      </trkpt>
      <trkpt lat="47.29554" lon="-1.4376">
        <ele>95</ele>
        <time>2020-12-24T13:57:23.000Z</time>
      </trkpt>
      <trkpt lat="47.29545" lon="-1.43769">
        <ele>95</ele>
        <time>2020-12-24T13:57:24.000Z</time>
      </trkpt>
      <trkpt lat="47.29536" lon="-1.43777">
        <ele>94</ele>
        <time>2020-12-24T13:57:25.000Z</time>
      </trkpt>
      <trkpt lat="47.29528" lon="-1.43786">
        <ele>94</ele>
        <time>2020-12-24T13:57:26.000Z</time>
      </trkpt>
      <trkpt lat="47.29519" lon="-1.43795">
        <ele>94</ele>
        <time>2020-12-24T13:57:27.000Z</time>
      </trkpt>
      <trkpt lat="47.29511" lon="-1.43804">
        <ele>94</ele>
        <time>2020-12-24T13:57:28.000Z</time>
      </trkpt>
      <trkpt lat="47.29504" lon="-1.43812">
        <ele>94</ele>
        <time>2020-12-24T13:57:29.000Z</time>
      </trkpt>
      <trkpt lat="47.29496" lon="-1.43821">
        <ele>94</ele>
        <time>2020-12-24T13:57:30.000Z</time>
      </trkpt>
      <trkpt lat="47.29488" lon="-1.4383">
        <ele>94</ele>
        <time>2020-12-24T13:57:31.000Z</time>
      </trkpt>
      <trkpt lat="47.2948" lon="-1.43838">
        <ele>94</ele>
        <time>2020-12-24T13:57:32.000Z</time>
      </trkpt>
      <trkpt lat="47.29473" lon="-1.43846">
        <ele>94</ele>
        <time>2020-12-24T13:57:33.000Z</time>
      </trkpt>
      <trkpt lat="47.29465" lon="-1.43854">
        <ele>94</ele>
        <time>2020-12-24T13:57:34.000Z</time>
      </trkpt>
      <trkpt lat="47.29457" lon="-1.43862">
        <ele>93</ele>
        <time>2020-12-24T13:57:35.000Z</time>
      </trkpt>
      <trkpt lat="47.2945" lon="-1.43871">
        <ele>93</ele>
        <time>2020-12-24T13:57:36.000Z</time>
      </trkpt>
      <trkpt lat="47.29442" lon="-1.43879">
        <ele>92</ele>
        <time>2020-12-24T13:57:37.000Z</time>
      </trkpt>
      <trkpt lat="47.29435" lon="-1.43887">
        <ele>92</ele>
        <time>2020-12-24T13:57:38.000Z</time>
      </trkpt>
      <trkpt lat="47.29428" lon="-1.43894">
        <ele>92</ele>
        <time>2020-12-24T13:57:39.000Z</time>
      </trkpt>
      <trkpt lat="47.29413" lon="-1.4391">
        <ele>91</ele>
        <time>2020-12-24T13:57:41.000Z</time>
      </trkpt>
      <trkpt lat="47.29398" lon="-1.43926">
        <ele>91</ele>
        <time>2020-12-24T13:57:43.000Z</time>
      </trkpt>
      <trkpt lat="47.2939" lon="-1.43934">
        <ele>91</ele>
        <time>2020-12-24T13:57:44.000Z</time>
      </trkpt>
      <trkpt lat="47.29383" lon="-1.43942">
        <ele>91</ele>
        <time>2020-12-24T13:57:45.000Z</time>
      </trkpt>
      <trkpt lat="47.29375" lon="-1.4395">
        <ele>91</ele>
        <time>2020-12-24T13:57:46.000Z</time>
      </trkpt>
      <trkpt lat="47.29368" lon="-1.43957">
        <ele>91</ele>
        <time>2020-12-24T13:57:47.000Z</time>
      </trkpt>
      <trkpt lat="47.2936" lon="-1.43963">
        <ele>91</ele>
        <time>2020-12-24T13:57:48.000Z</time>
      </trkpt>
      <trkpt lat="47.29343" lon="-1.43971">
        <ele>91</ele>
        <time>2020-12-24T13:57:50.000Z</time>
      </trkpt>
      <trkpt lat="47.29325" lon="-1.43972">
        <ele>91</ele>
        <time>2020-12-24T13:57:52.000Z</time>
      </trkpt>
      <trkpt lat="47.29316" lon="-1.43969">
        <ele>90</ele>
        <time>2020-12-24T13:57:53.000Z</time>
      </trkpt>
      <trkpt lat="47.29306" lon="-1.43967">
        <ele>90</ele>
        <time>2020-12-24T13:57:54.000Z</time>
      </trkpt>
      <trkpt lat="47.29297" lon="-1.43965">
        <ele>90</ele>
        <time>2020-12-24T13:57:55.000Z</time>
      </trkpt>
      <trkpt lat="47.29287" lon="-1.43964">
        <ele>89</ele>
        <time>2020-12-24T13:57:56.000Z</time>
      </trkpt>
      <trkpt lat="47.29278" lon="-1.43966">
        <ele>88</ele>
        <time>2020-12-24T13:57:57.000Z</time>
      </trkpt>
      <trkpt lat="47.29268" lon="-1.4397">
        <ele>88</ele>
        <time>2020-12-24T13:57:58.000Z</time>
      </trkpt>
      <trkpt lat="47.29259" lon="-1.43977">
        <ele>87</ele>
        <time>2020-12-24T13:57:59.000Z</time>
      </trkpt>
      <trkpt lat="47.2925" lon="-1.43985">
        <ele>87</ele>
        <time>2020-12-24T13:58:00.000Z</time>
      </trkpt>
      <trkpt lat="47.29242" lon="-1.43993">
        <ele>87</ele>
        <time>2020-12-24T13:58:01.000Z</time>
      </trkpt>
      <trkpt lat="47.29233" lon="-1.44">
        <ele>86</ele>
        <time>2020-12-24T13:58:02.000Z</time>
      </trkpt>
      <trkpt lat="47.29224" lon="-1.44009">
        <ele>86</ele>
        <time>2020-12-24T13:58:03.000Z</time>
      </trkpt>
      <trkpt lat="47.29216" lon="-1.44017">
        <ele>85</ele>
        <time>2020-12-24T13:58:04.000Z</time>
      </trkpt>
      <trkpt lat="47.29207" lon="-1.44025">
        <ele>85</ele>
        <time>2020-12-24T13:58:05.000Z</time>
      </trkpt>
      <trkpt lat="47.29199" lon="-1.44034">
        <ele>85</ele>
        <time>2020-12-24T13:58:06.000Z</time>
      </trkpt>
      <trkpt lat="47.2919" lon="-1.44042">
        <ele>84</ele>
        <time>2020-12-24T13:58:07.000Z</time>
      </trkpt>
      <trkpt lat="47.29182" lon="-1.44051">
        <ele>84</ele>
        <time>2020-12-24T13:58:08.000Z</time>
      </trkpt>
      <trkpt lat="47.29174" lon="-1.44059">
        <ele>84</ele>
        <time>2020-12-24T13:58:09.000Z</time>
      </trkpt>
      <trkpt lat="47.29167" lon="-1.44067">
        <ele>83</ele>
        <time>2020-12-24T13:58:10.000Z</time>
      </trkpt>
      <trkpt lat="47.29158" lon="-1.44076">
        <ele>83</ele>
        <time>2020-12-24T13:58:11.000Z</time>
      </trkpt>
      <trkpt lat="47.29151" lon="-1.44084">
        <ele>83</ele>
        <time>2020-12-24T13:58:12.000Z</time>
      </trkpt>
      <trkpt lat="47.29143" lon="-1.44093">
        <ele>82</ele>
        <time>2020-12-24T13:58:13.000Z</time>
      </trkpt>
      <trkpt lat="47.29136" lon="-1.44101">
        <ele>82</ele>
        <time>2020-12-24T13:58:14.000Z</time>
      </trkpt>
      <trkpt lat="47.29128" lon="-1.44109">
        <ele>82</ele>
        <time>2020-12-24T13:58:15.000Z</time>
      </trkpt>
      <trkpt lat="47.29121" lon="-1.44117">
        <ele>82</ele>
        <time>2020-12-24T13:58:16.000Z</time>
      </trkpt>
      <trkpt lat="47.29113" lon="-1.44125">
        <ele>81</ele>
        <time>2020-12-24T13:58:17.000Z</time>
      </trkpt>
      <trkpt lat="47.29106" lon="-1.44134">
        <ele>81</ele>
        <time>2020-12-24T13:58:18.000Z</time>
      </trkpt>
      <trkpt lat="47.29098" lon="-1.44142">
        <ele>81</ele>
        <time>2020-12-24T13:58:19.000Z</time>
      </trkpt>
      <trkpt lat="47.29084" lon="-1.44158">
        <ele>81</ele>
        <time>2020-12-24T13:58:21.000Z</time>
      </trkpt>
      <trkpt lat="47.29071" lon="-1.44173">
        <ele>81</ele>
        <time>2020-12-24T13:58:23.000Z</time>
      </trkpt>
      <trkpt lat="47.29058" lon="-1.44189">
        <ele>80</ele>
        <time>2020-12-24T13:58:25.000Z</time>
      </trkpt>
      <trkpt lat="47.29045" lon="-1.44204">
        <ele>80</ele>
        <time>2020-12-24T13:58:27.000Z</time>
      </trkpt>
      <trkpt lat="47.29031" lon="-1.44218">
        <ele>80</ele>
        <time>2020-12-24T13:58:29.000Z</time>
      </trkpt>
      <trkpt lat="47.29018" lon="-1.44234">
        <ele>80</ele>
        <time>2020-12-24T13:58:31.000Z</time>
      </trkpt>
      <trkpt lat="47.29005" lon="-1.44248">
        <ele>79</ele>
        <time>2020-12-24T13:58:33.000Z</time>
      </trkpt>
      <trkpt lat="47.28992" lon="-1.44263">
        <ele>79</ele>
        <time>2020-12-24T13:58:35.000Z</time>
      </trkpt>
      <trkpt lat="47.2898" lon="-1.44278">
        <ele>79</ele>
        <time>2020-12-24T13:58:37.000Z</time>
      </trkpt>
      <trkpt lat="47.28967" lon="-1.44294">
        <ele>78</ele>
        <time>2020-12-24T13:58:39.000Z</time>
      </trkpt>
      <trkpt lat="47.28955" lon="-1.44311">
        <ele>77</ele>
        <time>2020-12-24T13:58:41.000Z</time>
      </trkpt>
      <trkpt lat="47.28943" lon="-1.44328">
        <ele>77</ele>
        <time>2020-12-24T13:58:43.000Z</time>
      </trkpt>
      <trkpt lat="47.28932" lon="-1.44346">
        <ele>77</ele>
        <time>2020-12-24T13:58:45.000Z</time>
      </trkpt>
      <trkpt lat="47.2892" lon="-1.44363">
        <ele>77</ele>
        <time>2020-12-24T13:58:47.000Z</time>
      </trkpt>
      <trkpt lat="47.28908" lon="-1.44381">
        <ele>76</ele>
        <time>2020-12-24T13:58:49.000Z</time>
      </trkpt>
      <trkpt lat="47.28897" lon="-1.44399">
        <ele>76</ele>
        <time>2020-12-24T13:58:51.000Z</time>
      </trkpt>
      <trkpt lat="47.28885" lon="-1.44414">
        <ele>76</ele>
        <time>2020-12-24T13:58:53.000Z</time>
      </trkpt>
      <trkpt lat="47.28872" lon="-1.44427">
        <ele>76</ele>
        <time>2020-12-24T13:58:55.000Z</time>
      </trkpt>
      <trkpt lat="47.28857" lon="-1.44437">
        <ele>76</ele>
        <time>2020-12-24T13:58:57.000Z</time>
      </trkpt>
      <trkpt lat="47.28842" lon="-1.44445">
        <ele>76</ele>
        <time>2020-12-24T13:58:59.000Z</time>
      </trkpt>
      <trkpt lat="47.28827" lon="-1.44451">
        <ele>75</ele>
        <time>2020-12-24T13:59:01.000Z</time>
      </trkpt>
      <trkpt lat="47.28812" lon="-1.44457">
        <ele>75</ele>
        <time>2020-12-24T13:59:03.000Z</time>
      </trkpt>
      <trkpt lat="47.28796" lon="-1.44463">
        <ele>75</ele>
        <time>2020-12-24T13:59:05.000Z</time>
      </trkpt>
      <trkpt lat="47.28781" lon="-1.44469">
        <ele>75</ele>
        <time>2020-12-24T13:59:07.000Z</time>
      </trkpt>
      <trkpt lat="47.28766" lon="-1.44475">
        <ele>75</ele>
        <time>2020-12-24T13:59:09.000Z</time>
      </trkpt>
      <trkpt lat="47.28752" lon="-1.44482">
        <ele>75</ele>
        <time>2020-12-24T13:59:11.000Z</time>
      </trkpt>
      <trkpt lat="47.28737" lon="-1.44488">
        <ele>75</ele>
        <time>2020-12-24T13:59:13.000Z</time>
      </trkpt>
      <trkpt lat="47.28724" lon="-1.44493">
        <ele>75</ele>
        <time>2020-12-24T13:59:15.000Z</time>
      </trkpt>
      <trkpt lat="47.28711" lon="-1.44498">
        <ele>74</ele>
        <time>2020-12-24T13:59:17.000Z</time>
      </trkpt>
      <trkpt lat="47.287" lon="-1.44502">
        <ele>74</ele>
        <time>2020-12-24T13:59:19.000Z</time>
      </trkpt>
      <trkpt lat="47.28691" lon="-1.44504">
        <ele>74</ele>
        <time>2020-12-24T13:59:21.000Z</time>
      </trkpt>
      <trkpt lat="47.2868" lon="-1.44508">
        <ele>74</ele>
        <time>2020-12-24T13:59:25.000Z</time>
      </trkpt>
      <trkpt lat="47.28672" lon="-1.44515">
        <ele>74</ele>
        <time>2020-12-24T13:59:30.000Z</time>
      </trkpt>
      <trkpt lat="47.28662" lon="-1.44516">
        <ele>74</ele>
        <time>2020-12-24T13:59:34.000Z</time>
      </trkpt>
      <trkpt lat="47.28653" lon="-1.44507">
        <ele>74</ele>
        <time>2020-12-24T13:59:36.000Z</time>
      </trkpt>
      <trkpt lat="47.28639" lon="-1.44505">
        <ele>74</ele>
        <time>2020-12-24T13:59:38.000Z</time>
      </trkpt>
      <trkpt lat="47.28624" lon="-1.44503">
        <ele>73</ele>
        <time>2020-12-24T13:59:40.000Z</time>
      </trkpt>
      <trkpt lat="47.28609" lon="-1.44502">
        <ele>73</ele>
        <time>2020-12-24T13:59:42.000Z</time>
      </trkpt>
      <trkpt lat="47.28594" lon="-1.44502">
        <ele>73</ele>
        <time>2020-12-24T13:59:44.000Z</time>
      </trkpt>
      <trkpt lat="47.28578" lon="-1.44502">
        <ele>73</ele>
        <time>2020-12-24T13:59:46.000Z</time>
      </trkpt>
      <trkpt lat="47.28561" lon="-1.445">
        <ele>73</ele>
        <time>2020-12-24T13:59:48.000Z</time>
      </trkpt>
      <trkpt lat="47.28545" lon="-1.445">
        <ele>72</ele>
        <time>2020-12-24T13:59:50.000Z</time>
      </trkpt>
      <trkpt lat="47.28529" lon="-1.44498">
        <ele>72</ele>
        <time>2020-12-24T13:59:52.000Z</time>
      </trkpt>
      <trkpt lat="47.28513" lon="-1.44497">
        <ele>72</ele>
        <time>2020-12-24T13:59:54.000Z</time>
      </trkpt>
      <trkpt lat="47.28496" lon="-1.44497">
        <ele>72</ele>
        <time>2020-12-24T13:59:56.000Z</time>
      </trkpt>
      <trkpt lat="47.2848" lon="-1.44495">
        <ele>72</ele>
        <time>2020-12-24T13:59:58.000Z</time>
      </trkpt>
      <trkpt lat="47.28464" lon="-1.44495">
        <ele>73</ele>
        <time>2020-12-24T14:00:00.000Z</time>
      </trkpt>
      <trkpt lat="47.28448" lon="-1.44493">
        <ele>73</ele>
        <time>2020-12-24T14:00:02.000Z</time>
      </trkpt>
      <trkpt lat="47.28432" lon="-1.44492">
        <ele>72</ele>
        <time>2020-12-24T14:00:04.000Z</time>
      </trkpt>
      <trkpt lat="47.28417" lon="-1.44491">
        <ele>72</ele>
        <time>2020-12-24T14:00:06.000Z</time>
      </trkpt>
      <trkpt lat="47.28401" lon="-1.44489">
        <ele>71</ele>
        <time>2020-12-24T14:00:08.000Z</time>
      </trkpt>
      <trkpt lat="47.28385" lon="-1.44488">
        <ele>71</ele>
        <time>2020-12-24T14:00:10.000Z</time>
      </trkpt>
      <trkpt lat="47.2837" lon="-1.44487">
        <ele>71</ele>
        <time>2020-12-24T14:00:12.000Z</time>
      </trkpt>
      <trkpt lat="47.28354" lon="-1.44486">
        <ele>71</ele>
        <time>2020-12-24T14:00:14.000Z</time>
      </trkpt>
      <trkpt lat="47.28339" lon="-1.44485">
        <ele>71</ele>
        <time>2020-12-24T14:00:16.000Z</time>
      </trkpt>
      <trkpt lat="47.28323" lon="-1.44484">
        <ele>71</ele>
        <time>2020-12-24T14:00:18.000Z</time>
      </trkpt>
      <trkpt lat="47.28307" lon="-1.44483">
        <ele>70</ele>
        <time>2020-12-24T14:00:20.000Z</time>
      </trkpt>
      <trkpt lat="47.28291" lon="-1.44481">
        <ele>70</ele>
        <time>2020-12-24T14:00:22.000Z</time>
      </trkpt>
      <trkpt lat="47.28277" lon="-1.4448">
        <ele>70</ele>
        <time>2020-12-24T14:00:24.000Z</time>
      </trkpt>
      <trkpt lat="47.28261" lon="-1.4448">
        <ele>71</ele>
        <time>2020-12-24T14:00:26.000Z</time>
      </trkpt>
      <trkpt lat="47.28246" lon="-1.44479">
        <ele>71</ele>
        <time>2020-12-24T14:00:28.000Z</time>
      </trkpt>
      <trkpt lat="47.2823" lon="-1.44478">
        <ele>71</ele>
        <time>2020-12-24T14:00:30.000Z</time>
      </trkpt>
      <trkpt lat="47.28215" lon="-1.44477">
        <ele>71</ele>
        <time>2020-12-24T14:00:32.000Z</time>
      </trkpt>
      <trkpt lat="47.28202" lon="-1.44478">
        <ele>74</ele>
        <time>2020-12-24T14:00:34.000Z</time>
      </trkpt>
      <trkpt lat="47.28188" lon="-1.44476">
        <ele>75</ele>
        <time>2020-12-24T14:00:36.000Z</time>
      </trkpt>
      <trkpt lat="47.28173" lon="-1.44473">
        <ele>75</ele>
        <time>2020-12-24T14:00:38.000Z</time>
      </trkpt>
      <trkpt lat="47.28159" lon="-1.44471">
        <ele>75</ele>
        <time>2020-12-24T14:00:40.000Z</time>
      </trkpt>
      <trkpt lat="47.28145" lon="-1.44469">
        <ele>75</ele>
        <time>2020-12-24T14:00:42.000Z</time>
      </trkpt>
      <trkpt lat="47.28132" lon="-1.44469">
        <ele>75</ele>
        <time>2020-12-24T14:00:44.000Z</time>
      </trkpt>
      <trkpt lat="47.28118" lon="-1.4447">
        <ele>75</ele>
        <time>2020-12-24T14:00:46.000Z</time>
      </trkpt>
      <trkpt lat="47.28104" lon="-1.44469">
        <ele>75</ele>
        <time>2020-12-24T14:00:48.000Z</time>
      </trkpt>
      <trkpt lat="47.2809" lon="-1.44468">
        <ele>75</ele>
        <time>2020-12-24T14:00:50.000Z</time>
      </trkpt>
      <trkpt lat="47.28075" lon="-1.44467">
        <ele>75</ele>
        <time>2020-12-24T14:00:52.000Z</time>
      </trkpt>
      <trkpt lat="47.28061" lon="-1.44466">
        <ele>75</ele>
        <time>2020-12-24T14:00:54.000Z</time>
      </trkpt>
      <trkpt lat="47.28047" lon="-1.44464">
        <ele>75</ele>
        <time>2020-12-24T14:00:56.000Z</time>
      </trkpt>
      <trkpt lat="47.28033" lon="-1.44463">
        <ele>75</ele>
        <time>2020-12-24T14:00:58.000Z</time>
      </trkpt>
      <trkpt lat="47.2802" lon="-1.44459">
        <ele>75</ele>
        <time>2020-12-24T14:01:00.000Z</time>
      </trkpt>
      <trkpt lat="47.28006" lon="-1.44456">
        <ele>75</ele>
        <time>2020-12-24T14:01:02.000Z</time>
      </trkpt>
      <trkpt lat="47.27993" lon="-1.44451">
        <ele>75</ele>
        <time>2020-12-24T14:01:04.000Z</time>
      </trkpt>
      <trkpt lat="47.27979" lon="-1.44446">
        <ele>75</ele>
        <time>2020-12-24T14:01:06.000Z</time>
      </trkpt>
      <trkpt lat="47.27966" lon="-1.4444">
        <ele>75</ele>
        <time>2020-12-24T14:01:08.000Z</time>
      </trkpt>
      <trkpt lat="47.27953" lon="-1.44434">
        <ele>75</ele>
        <time>2020-12-24T14:01:10.000Z</time>
      </trkpt>
      <trkpt lat="47.27939" lon="-1.44428">
        <ele>74</ele>
        <time>2020-12-24T14:01:12.000Z</time>
      </trkpt>
      <trkpt lat="47.27926" lon="-1.44421">
        <ele>74</ele>
        <time>2020-12-24T14:01:14.000Z</time>
      </trkpt>
      <trkpt lat="47.27912" lon="-1.44413">
        <ele>74</ele>
        <time>2020-12-24T14:01:16.000Z</time>
      </trkpt>
      <trkpt lat="47.27899" lon="-1.44407">
        <ele>75</ele>
        <time>2020-12-24T14:01:18.000Z</time>
      </trkpt>
      <trkpt lat="47.27886" lon="-1.44398">
        <ele>75</ele>
        <time>2020-12-24T14:01:20.000Z</time>
      </trkpt>
      <trkpt lat="47.27873" lon="-1.44391">
        <ele>75</ele>
        <time>2020-12-24T14:01:22.000Z</time>
      </trkpt>
      <trkpt lat="47.2786" lon="-1.44383">
        <ele>75</ele>
        <time>2020-12-24T14:01:24.000Z</time>
      </trkpt>
      <trkpt lat="47.27847" lon="-1.44376">
        <ele>75</ele>
        <time>2020-12-24T14:01:26.000Z</time>
      </trkpt>
      <trkpt lat="47.27833" lon="-1.44368">
        <ele>74</ele>
        <time>2020-12-24T14:01:28.000Z</time>
      </trkpt>
      <trkpt lat="47.27819" lon="-1.44361">
        <ele>74</ele>
        <time>2020-12-24T14:01:30.000Z</time>
      </trkpt>
      <trkpt lat="47.27806" lon="-1.44356">
        <ele>74</ele>
        <time>2020-12-24T14:01:32.000Z</time>
      </trkpt>
      <trkpt lat="47.27792" lon="-1.44352">
        <ele>74</ele>
        <time>2020-12-24T14:01:34.000Z</time>
      </trkpt>
      <trkpt lat="47.27778" lon="-1.4435">
        <ele>74</ele>
        <time>2020-12-24T14:01:36.000Z</time>
      </trkpt>
      <trkpt lat="47.27764" lon="-1.4435">
        <ele>73</ele>
        <time>2020-12-24T14:01:38.000Z</time>
      </trkpt>
      <trkpt lat="47.2775" lon="-1.44348">
        <ele>73</ele>
        <time>2020-12-24T14:01:40.000Z</time>
      </trkpt>
      <trkpt lat="47.27736" lon="-1.44346">
        <ele>73</ele>
        <time>2020-12-24T14:01:42.000Z</time>
      </trkpt>
      <trkpt lat="47.27722" lon="-1.44342">
        <ele>74</ele>
        <time>2020-12-24T14:01:44.000Z</time>
      </trkpt>
      <trkpt lat="47.27708" lon="-1.44336">
        <ele>73</ele>
        <time>2020-12-24T14:01:46.000Z</time>
      </trkpt>
      <trkpt lat="47.27695" lon="-1.4433">
        <ele>74</ele>
        <time>2020-12-24T14:01:48.000Z</time>
      </trkpt>
      <trkpt lat="47.27682" lon="-1.44323">
        <ele>74</ele>
        <time>2020-12-24T14:01:50.000Z</time>
      </trkpt>
      <trkpt lat="47.27669" lon="-1.44316">
        <ele>75</ele>
        <time>2020-12-24T14:01:52.000Z</time>
      </trkpt>
      <trkpt lat="47.27655" lon="-1.4431">
        <ele>76</ele>
        <time>2020-12-24T14:01:54.000Z</time>
      </trkpt>
      <trkpt lat="47.27643" lon="-1.44304">
        <ele>77</ele>
        <time>2020-12-24T14:01:56.000Z</time>
      </trkpt>
      <trkpt lat="47.27631" lon="-1.44297">
        <ele>78</ele>
        <time>2020-12-24T14:01:58.000Z</time>
      </trkpt>
      <trkpt lat="47.27619" lon="-1.44292">
        <ele>78</ele>
        <time>2020-12-24T14:02:00.000Z</time>
      </trkpt>
      <trkpt lat="47.27606" lon="-1.44291">
        <ele>78</ele>
        <time>2020-12-24T14:02:02.000Z</time>
      </trkpt>
      <trkpt lat="47.27593" lon="-1.44294">
        <ele>79</ele>
        <time>2020-12-24T14:02:04.000Z</time>
      </trkpt>
      <trkpt lat="47.27581" lon="-1.443">
        <ele>79</ele>
        <time>2020-12-24T14:02:06.000Z</time>
      </trkpt>
      <trkpt lat="47.2757" lon="-1.44307">
        <ele>79</ele>
        <time>2020-12-24T14:02:08.000Z</time>
      </trkpt>
      <trkpt lat="47.27557" lon="-1.44312">
        <ele>79</ele>
        <time>2020-12-24T14:02:10.000Z</time>
      </trkpt>
      <trkpt lat="47.27544" lon="-1.44316">
        <ele>78</ele>
        <time>2020-12-24T14:02:12.000Z</time>
      </trkpt>
      <trkpt lat="47.27531" lon="-1.44325">
        <ele>79</ele>
        <time>2020-12-24T14:02:14.000Z</time>
      </trkpt>
      <trkpt lat="47.2752" lon="-1.44338">
        <ele>78</ele>
        <time>2020-12-24T14:02:16.000Z</time>
      </trkpt>
      <trkpt lat="47.2751" lon="-1.44354">
        <ele>77</ele>
        <time>2020-12-24T14:02:18.000Z</time>
      </trkpt>
      <trkpt lat="47.275" lon="-1.4437">
        <ele>76</ele>
        <time>2020-12-24T14:02:20.000Z</time>
      </trkpt>
      <trkpt lat="47.27491" lon="-1.44387">
        <ele>76</ele>
        <time>2020-12-24T14:02:22.000Z</time>
      </trkpt>
      <trkpt lat="47.27479" lon="-1.44402">
        <ele>76</ele>
        <time>2020-12-24T14:02:24.000Z</time>
      </trkpt>
      <trkpt lat="47.27466" lon="-1.44414">
        <ele>76</ele>
        <time>2020-12-24T14:02:26.000Z</time>
      </trkpt>
      <trkpt lat="47.27452" lon="-1.44422">
        <ele>77</ele>
        <time>2020-12-24T14:02:28.000Z</time>
      </trkpt>
      <trkpt lat="47.27438" lon="-1.44428">
        <ele>77</ele>
        <time>2020-12-24T14:02:30.000Z</time>
      </trkpt>
      <trkpt lat="47.27423" lon="-1.44434">
        <ele>76</ele>
        <time>2020-12-24T14:02:32.000Z</time>
      </trkpt>
      <trkpt lat="47.27409" lon="-1.4444">
        <ele>76</ele>
        <time>2020-12-24T14:02:34.000Z</time>
      </trkpt>
      <trkpt lat="47.27396" lon="-1.44448">
        <ele>76</ele>
        <time>2020-12-24T14:02:36.000Z</time>
      </trkpt>
      <trkpt lat="47.27386" lon="-1.44462">
        <ele>76</ele>
        <time>2020-12-24T14:02:38.000Z</time>
      </trkpt>
      <trkpt lat="47.27381" lon="-1.44479">
        <ele>75</ele>
        <time>2020-12-24T14:02:40.000Z</time>
      </trkpt>
      <trkpt lat="47.27369" lon="-1.44485">
        <ele>75</ele>
        <time>2020-12-24T14:02:42.000Z</time>
      </trkpt>
      <trkpt lat="47.27358" lon="-1.44472">
        <ele>75</ele>
        <time>2020-12-24T14:02:44.000Z</time>
      </trkpt>
      <trkpt lat="47.27346" lon="-1.44463">
        <ele>76</ele>
        <time>2020-12-24T14:02:46.000Z</time>
      </trkpt>
      <trkpt lat="47.2733" lon="-1.44463">
        <ele>77</ele>
        <time>2020-12-24T14:02:48.000Z</time>
      </trkpt>
      <trkpt lat="47.27314" lon="-1.44462">
        <ele>76</ele>
        <time>2020-12-24T14:02:50.000Z</time>
      </trkpt>
      <trkpt lat="47.27299" lon="-1.44462">
        <ele>77</ele>
        <time>2020-12-24T14:02:52.000Z</time>
      </trkpt>
      <trkpt lat="47.27285" lon="-1.44462">
        <ele>77</ele>
        <time>2020-12-24T14:02:54.000Z</time>
      </trkpt>
      <trkpt lat="47.2727" lon="-1.44462">
        <ele>77</ele>
        <time>2020-12-24T14:02:56.000Z</time>
      </trkpt>
      <trkpt lat="47.27255" lon="-1.44462">
        <ele>77</ele>
        <time>2020-12-24T14:02:58.000Z</time>
      </trkpt>
      <trkpt lat="47.27241" lon="-1.44462">
        <ele>77</ele>
        <time>2020-12-24T14:03:00.000Z</time>
      </trkpt>
      <trkpt lat="47.27227" lon="-1.44463">
        <ele>78</ele>
        <time>2020-12-24T14:03:02.000Z</time>
      </trkpt>
      <trkpt lat="47.27211" lon="-1.44464">
        <ele>78</ele>
        <time>2020-12-24T14:03:04.000Z</time>
      </trkpt>
      <trkpt lat="47.27196" lon="-1.44464">
        <ele>77</ele>
        <time>2020-12-24T14:03:06.000Z</time>
      </trkpt>
      <trkpt lat="47.27181" lon="-1.44464">
        <ele>77</ele>
        <time>2020-12-24T14:03:08.000Z</time>
      </trkpt>
      <trkpt lat="47.27167" lon="-1.44465">
        <ele>78</ele>
        <time>2020-12-24T14:03:10.000Z</time>
      </trkpt>
      <trkpt lat="47.27152" lon="-1.44468">
        <ele>77</ele>
        <time>2020-12-24T14:03:12.000Z</time>
      </trkpt>
      <trkpt lat="47.27138" lon="-1.44466">
        <ele>78</ele>
        <time>2020-12-24T14:03:14.000Z</time>
      </trkpt>
      <trkpt lat="47.27123" lon="-1.44463">
        <ele>77</ele>
        <time>2020-12-24T14:03:16.000Z</time>
      </trkpt>
      <trkpt lat="47.27107" lon="-1.44461">
        <ele>77</ele>
        <time>2020-12-24T14:03:18.000Z</time>
      </trkpt>
      <trkpt lat="47.27091" lon="-1.44457">
        <ele>77</ele>
        <time>2020-12-24T14:03:20.000Z</time>
      </trkpt>
      <trkpt lat="47.27074" lon="-1.4445">
        <ele>75</ele>
        <time>2020-12-24T14:03:22.000Z</time>
      </trkpt>
      <trkpt lat="47.27058" lon="-1.44441">
        <ele>75</ele>
        <time>2020-12-24T14:03:24.000Z</time>
      </trkpt>
      <trkpt lat="47.27041" lon="-1.44432">
        <ele>74</ele>
        <time>2020-12-24T14:03:26.000Z</time>
      </trkpt>
      <trkpt lat="47.27032" lon="-1.44428">
        <ele>73</ele>
        <time>2020-12-24T14:03:27.000Z</time>
      </trkpt>
      <trkpt lat="47.27015" lon="-1.44418">
        <ele>73</ele>
        <time>2020-12-24T14:03:29.000Z</time>
      </trkpt>
      <trkpt lat="47.27007" lon="-1.44413">
        <ele>73</ele>
        <time>2020-12-24T14:03:30.000Z</time>
      </trkpt>
      <trkpt lat="47.26997" lon="-1.44407">
        <ele>72</ele>
        <time>2020-12-24T14:03:31.000Z</time>
      </trkpt>
      <trkpt lat="47.26988" lon="-1.44401">
        <ele>72</ele>
        <time>2020-12-24T14:03:32.000Z</time>
      </trkpt>
      <trkpt lat="47.26979" lon="-1.44394">
        <ele>72</ele>
        <time>2020-12-24T14:03:33.000Z</time>
      </trkpt>
      <trkpt lat="47.26971" lon="-1.44387">
        <ele>71</ele>
        <time>2020-12-24T14:03:34.000Z</time>
      </trkpt>
      <trkpt lat="47.26963" lon="-1.44378">
        <ele>71</ele>
        <time>2020-12-24T14:03:35.000Z</time>
      </trkpt>
      <trkpt lat="47.26956" lon="-1.44368">
        <ele>70</ele>
        <time>2020-12-24T14:03:36.000Z</time>
      </trkpt>
      <trkpt lat="47.26948" lon="-1.44356">
        <ele>70</ele>
        <time>2020-12-24T14:03:37.000Z</time>
      </trkpt>
      <trkpt lat="47.26942" lon="-1.44346">
        <ele>69</ele>
        <time>2020-12-24T14:03:38.000Z</time>
      </trkpt>
      <trkpt lat="47.26934" lon="-1.44339">
        <ele>70</ele>
        <time>2020-12-24T14:03:39.000Z</time>
      </trkpt>
      <trkpt lat="47.26924" lon="-1.44332">
        <ele>69</ele>
        <time>2020-12-24T14:03:40.000Z</time>
      </trkpt>
      <trkpt lat="47.26915" lon="-1.44325">
        <ele>69</ele>
        <time>2020-12-24T14:03:41.000Z</time>
      </trkpt>
      <trkpt lat="47.26907" lon="-1.44316">
        <ele>68</ele>
        <time>2020-12-24T14:03:42.000Z</time>
      </trkpt>
      <trkpt lat="47.26899" lon="-1.44308">
        <ele>68</ele>
        <time>2020-12-24T14:03:43.000Z</time>
      </trkpt>
      <trkpt lat="47.2689" lon="-1.44301">
        <ele>67</ele>
        <time>2020-12-24T14:03:44.000Z</time>
      </trkpt>
      <trkpt lat="47.26882" lon="-1.44292">
        <ele>67</ele>
        <time>2020-12-24T14:03:45.000Z</time>
      </trkpt>
      <trkpt lat="47.26874" lon="-1.44283">
        <ele>67</ele>
        <time>2020-12-24T14:03:46.000Z</time>
      </trkpt>
      <trkpt lat="47.26866" lon="-1.44274">
        <ele>66</ele>
        <time>2020-12-24T14:03:47.000Z</time>
      </trkpt>
      <trkpt lat="47.26858" lon="-1.44265">
        <ele>65</ele>
        <time>2020-12-24T14:03:48.000Z</time>
      </trkpt>
      <trkpt lat="47.26851" lon="-1.44256">
        <ele>65</ele>
        <time>2020-12-24T14:03:49.000Z</time>
      </trkpt>
      <trkpt lat="47.26843" lon="-1.44247">
        <ele>64</ele>
        <time>2020-12-24T14:03:50.000Z</time>
      </trkpt>
      <trkpt lat="47.26836" lon="-1.44238">
        <ele>64</ele>
        <time>2020-12-24T14:03:51.000Z</time>
      </trkpt>
      <trkpt lat="47.26828" lon="-1.4423">
        <ele>64</ele>
        <time>2020-12-24T14:03:52.000Z</time>
      </trkpt>
      <trkpt lat="47.26821" lon="-1.44222">
        <ele>64</ele>
        <time>2020-12-24T14:03:53.000Z</time>
      </trkpt>
      <trkpt lat="47.26807" lon="-1.44206">
        <ele>63</ele>
        <time>2020-12-24T14:03:55.000Z</time>
      </trkpt>
      <trkpt lat="47.26792" lon="-1.44191">
        <ele>63</ele>
        <time>2020-12-24T14:03:57.000Z</time>
      </trkpt>
      <trkpt lat="47.26785" lon="-1.44183">
        <ele>63</ele>
        <time>2020-12-24T14:03:58.000Z</time>
      </trkpt>
      <trkpt lat="47.2677" lon="-1.44171">
        <ele>63</ele>
        <time>2020-12-24T14:04:00.000Z</time>
      </trkpt>
      <trkpt lat="47.26754" lon="-1.4416">
        <ele>64</ele>
        <time>2020-12-24T14:04:02.000Z</time>
      </trkpt>
      <trkpt lat="47.26739" lon="-1.44152">
        <ele>63</ele>
        <time>2020-12-24T14:04:04.000Z</time>
      </trkpt>
      <trkpt lat="47.26724" lon="-1.44142">
        <ele>63</ele>
        <time>2020-12-24T14:04:06.000Z</time>
      </trkpt>
      <trkpt lat="47.2671" lon="-1.44133">
        <ele>63</ele>
        <time>2020-12-24T14:04:08.000Z</time>
      </trkpt>
      <trkpt lat="47.26696" lon="-1.44129">
        <ele>62</ele>
        <time>2020-12-24T14:04:10.000Z</time>
      </trkpt>
      <trkpt lat="47.26685" lon="-1.4413">
        <ele>62</ele>
        <time>2020-12-24T14:04:12.000Z</time>
      </trkpt>
      <trkpt lat="47.26674" lon="-1.44133">
        <ele>64</ele>
        <time>2020-12-24T14:04:14.000Z</time>
      </trkpt>
      <trkpt lat="47.26662" lon="-1.44126">
        <ele>63</ele>
        <time>2020-12-24T14:04:16.000Z</time>
      </trkpt>
      <trkpt lat="47.2665" lon="-1.44121">
        <ele>62</ele>
        <time>2020-12-24T14:04:18.000Z</time>
      </trkpt>
      <trkpt lat="47.26638" lon="-1.44115">
        <ele>62</ele>
        <time>2020-12-24T14:04:20.000Z</time>
      </trkpt>
      <trkpt lat="47.26627" lon="-1.44105">
        <ele>62</ele>
        <time>2020-12-24T14:04:22.000Z</time>
      </trkpt>
      <trkpt lat="47.26616" lon="-1.44092">
        <ele>62</ele>
        <time>2020-12-24T14:04:24.000Z</time>
      </trkpt>
      <trkpt lat="47.26605" lon="-1.44079">
        <ele>62</ele>
        <time>2020-12-24T14:04:26.000Z</time>
      </trkpt>
      <trkpt lat="47.26596" lon="-1.4407">
        <ele>62</ele>
        <time>2020-12-24T14:04:28.000Z</time>
      </trkpt>
      <trkpt lat="47.26587" lon="-1.44068">
        <ele>63</ele>
        <time>2020-12-24T14:04:30.000Z</time>
      </trkpt>
      <trkpt lat="47.26581" lon="-1.44056">
        <ele>64</ele>
        <time>2020-12-24T14:04:32.000Z</time>
      </trkpt>
      <trkpt lat="47.26577" lon="-1.44041">
        <ele>63</ele>
        <time>2020-12-24T14:04:34.000Z</time>
      </trkpt>
      <trkpt lat="47.26567" lon="-1.44029">
        <ele>62</ele>
        <time>2020-12-24T14:04:36.000Z</time>
      </trkpt>
      <trkpt lat="47.26558" lon="-1.44016">
        <ele>62</ele>
        <time>2020-12-24T14:04:38.000Z</time>
      </trkpt>
      <trkpt lat="47.26546" lon="-1.44006">
        <ele>62</ele>
        <time>2020-12-24T14:04:40.000Z</time>
      </trkpt>
      <trkpt lat="47.26533" lon="-1.43996">
        <ele>62</ele>
        <time>2020-12-24T14:04:42.000Z</time>
      </trkpt>
      <trkpt lat="47.2652" lon="-1.43984">
        <ele>61</ele>
        <time>2020-12-24T14:04:44.000Z</time>
      </trkpt>
      <trkpt lat="47.26509" lon="-1.4397">
        <ele>60</ele>
        <time>2020-12-24T14:04:46.000Z</time>
      </trkpt>
      <trkpt lat="47.26505" lon="-1.43949">
        <ele>60</ele>
        <time>2020-12-24T14:04:48.000Z</time>
      </trkpt>
      <trkpt lat="47.26495" lon="-1.43933">
        <ele>60</ele>
        <time>2020-12-24T14:04:50.000Z</time>
      </trkpt>
      <trkpt lat="47.26484" lon="-1.43918">
        <ele>60</ele>
        <time>2020-12-24T14:04:52.000Z</time>
      </trkpt>
      <trkpt lat="47.26474" lon="-1.43903">
        <ele>59</ele>
        <time>2020-12-24T14:04:54.000Z</time>
      </trkpt>
      <trkpt lat="47.26463" lon="-1.43888">
        <ele>60</ele>
        <time>2020-12-24T14:04:56.000Z</time>
      </trkpt>
      <trkpt lat="47.26453" lon="-1.43873">
        <ele>59</ele>
        <time>2020-12-24T14:04:58.000Z</time>
      </trkpt>
      <trkpt lat="47.26441" lon="-1.43857">
        <ele>59</ele>
        <time>2020-12-24T14:05:00.000Z</time>
      </trkpt>
      <trkpt lat="47.2643" lon="-1.43841">
        <ele>59</ele>
        <time>2020-12-24T14:05:02.000Z</time>
      </trkpt>
      <trkpt lat="47.26418" lon="-1.43825">
        <ele>59</ele>
        <time>2020-12-24T14:05:04.000Z</time>
      </trkpt>
      <trkpt lat="47.26406" lon="-1.43809">
        <ele>58</ele>
        <time>2020-12-24T14:05:06.000Z</time>
      </trkpt>
      <trkpt lat="47.26394" lon="-1.43793">
        <ele>58</ele>
        <time>2020-12-24T14:05:08.000Z</time>
      </trkpt>
      <trkpt lat="47.26383" lon="-1.43775">
        <ele>58</ele>
        <time>2020-12-24T14:05:10.000Z</time>
      </trkpt>
      <trkpt lat="47.26371" lon="-1.43759">
        <ele>58</ele>
        <time>2020-12-24T14:05:12.000Z</time>
      </trkpt>
      <trkpt lat="47.26359" lon="-1.43742">
        <ele>58</ele>
        <time>2020-12-24T14:05:14.000Z</time>
      </trkpt>
      <trkpt lat="47.26348" lon="-1.43725">
        <ele>58</ele>
        <time>2020-12-24T14:05:16.000Z</time>
      </trkpt>
      <trkpt lat="47.26337" lon="-1.43708">
        <ele>57</ele>
        <time>2020-12-24T14:05:18.000Z</time>
      </trkpt>
      <trkpt lat="47.26325" lon="-1.43691">
        <ele>57</ele>
        <time>2020-12-24T14:05:20.000Z</time>
      </trkpt>
      <trkpt lat="47.26314" lon="-1.43675">
        <ele>56</ele>
        <time>2020-12-24T14:05:22.000Z</time>
      </trkpt>
      <trkpt lat="47.26302" lon="-1.43658">
        <ele>56</ele>
        <time>2020-12-24T14:05:24.000Z</time>
      </trkpt>
      <trkpt lat="47.26291" lon="-1.43642">
        <ele>56</ele>
        <time>2020-12-24T14:05:26.000Z</time>
      </trkpt>
      <trkpt lat="47.2628" lon="-1.43625">
        <ele>56</ele>
        <time>2020-12-24T14:05:28.000Z</time>
      </trkpt>
      <trkpt lat="47.26269" lon="-1.4361">
        <ele>56</ele>
        <time>2020-12-24T14:05:30.000Z</time>
      </trkpt>
      <trkpt lat="47.26258" lon="-1.43594">
        <ele>56</ele>
        <time>2020-12-24T14:05:32.000Z</time>
      </trkpt>
      <trkpt lat="47.26247" lon="-1.4358">
        <ele>56</ele>
        <time>2020-12-24T14:05:34.000Z</time>
      </trkpt>
      <trkpt lat="47.26237" lon="-1.43564">
        <ele>57</ele>
        <time>2020-12-24T14:05:36.000Z</time>
      </trkpt>
      <trkpt lat="47.26227" lon="-1.43549">
        <ele>57</ele>
        <time>2020-12-24T14:05:38.000Z</time>
      </trkpt>
      <trkpt lat="47.26217" lon="-1.43533">
        <ele>57</ele>
        <time>2020-12-24T14:05:40.000Z</time>
      </trkpt>
      <trkpt lat="47.26206" lon="-1.43518">
        <ele>58</ele>
        <time>2020-12-24T14:05:42.000Z</time>
      </trkpt>
      <trkpt lat="47.26196" lon="-1.43503">
        <ele>58</ele>
        <time>2020-12-24T14:05:44.000Z</time>
      </trkpt>
      <trkpt lat="47.26184" lon="-1.43487">
        <ele>58</ele>
        <time>2020-12-24T14:05:46.000Z</time>
      </trkpt>
      <trkpt lat="47.26173" lon="-1.43472">
        <ele>59</ele>
        <time>2020-12-24T14:05:48.000Z</time>
      </trkpt>
      <trkpt lat="47.26162" lon="-1.43456">
        <ele>59</ele>
        <time>2020-12-24T14:05:50.000Z</time>
      </trkpt>
      <trkpt lat="47.26152" lon="-1.43441">
        <ele>59</ele>
        <time>2020-12-24T14:05:52.000Z</time>
      </trkpt>
      <trkpt lat="47.26141" lon="-1.43426">
        <ele>59</ele>
        <time>2020-12-24T14:05:54.000Z</time>
      </trkpt>
      <trkpt lat="47.26131" lon="-1.4341">
        <ele>59</ele>
        <time>2020-12-24T14:05:56.000Z</time>
      </trkpt>
      <trkpt lat="47.26121" lon="-1.43396">
        <ele>60</ele>
        <time>2020-12-24T14:05:58.000Z</time>
      </trkpt>
      <trkpt lat="47.26111" lon="-1.43381">
        <ele>61</ele>
        <time>2020-12-24T14:06:00.000Z</time>
      </trkpt>
      <trkpt lat="47.261" lon="-1.43366">
        <ele>61</ele>
        <time>2020-12-24T14:06:02.000Z</time>
      </trkpt>
      <trkpt lat="47.26089" lon="-1.4335">
        <ele>61</ele>
        <time>2020-12-24T14:06:04.000Z</time>
      </trkpt>
      <trkpt lat="47.26078" lon="-1.43335">
        <ele>61</ele>
        <time>2020-12-24T14:06:06.000Z</time>
      </trkpt>
      <trkpt lat="47.26068" lon="-1.4332">
        <ele>61</ele>
        <time>2020-12-24T14:06:08.000Z</time>
      </trkpt>
      <trkpt lat="47.26056" lon="-1.43304">
        <ele>60</ele>
        <time>2020-12-24T14:06:10.000Z</time>
      </trkpt>
      <trkpt lat="47.26045" lon="-1.43288">
        <ele>60</ele>
        <time>2020-12-24T14:06:12.000Z</time>
      </trkpt>
      <trkpt lat="47.26034" lon="-1.43272">
        <ele>60</ele>
        <time>2020-12-24T14:06:14.000Z</time>
      </trkpt>
      <trkpt lat="47.26023" lon="-1.43256">
        <ele>61</ele>
        <time>2020-12-24T14:06:16.000Z</time>
      </trkpt>
      <trkpt lat="47.26012" lon="-1.4324">
        <ele>60</ele>
        <time>2020-12-24T14:06:18.000Z</time>
      </trkpt>
      <trkpt lat="47.26001" lon="-1.43224">
        <ele>60</ele>
        <time>2020-12-24T14:06:20.000Z</time>
      </trkpt>
      <trkpt lat="47.2599" lon="-1.43208">
        <ele>59</ele>
        <time>2020-12-24T14:06:22.000Z</time>
      </trkpt>
      <trkpt lat="47.25978" lon="-1.43192">
        <ele>59</ele>
        <time>2020-12-24T14:06:24.000Z</time>
      </trkpt>
      <trkpt lat="47.25966" lon="-1.43174">
        <ele>59</ele>
        <time>2020-12-24T14:06:26.000Z</time>
      </trkpt>
      <trkpt lat="47.25954" lon="-1.43156">
        <ele>58</ele>
        <time>2020-12-24T14:06:28.000Z</time>
      </trkpt>
      <trkpt lat="47.25942" lon="-1.43139">
        <ele>58</ele>
        <time>2020-12-24T14:06:30.000Z</time>
      </trkpt>
      <trkpt lat="47.2593" lon="-1.43121">
        <ele>58</ele>
        <time>2020-12-24T14:06:32.000Z</time>
      </trkpt>
      <trkpt lat="47.2592" lon="-1.43101">
        <ele>57</ele>
        <time>2020-12-24T14:06:34.000Z</time>
      </trkpt>
      <trkpt lat="47.25911" lon="-1.43079">
        <ele>57</ele>
        <time>2020-12-24T14:06:36.000Z</time>
      </trkpt>
      <trkpt lat="47.25903" lon="-1.43058">
        <ele>56</ele>
        <time>2020-12-24T14:06:38.000Z</time>
      </trkpt>
      <trkpt lat="47.25894" lon="-1.43036">
        <ele>56</ele>
        <time>2020-12-24T14:06:40.000Z</time>
      </trkpt>
      <trkpt lat="47.25885" lon="-1.43015">
        <ele>56</ele>
        <time>2020-12-24T14:06:42.000Z</time>
      </trkpt>
      <trkpt lat="47.25877" lon="-1.42995">
        <ele>57</ele>
        <time>2020-12-24T14:06:44.000Z</time>
      </trkpt>
      <trkpt lat="47.25869" lon="-1.42977">
        <ele>57</ele>
        <time>2020-12-24T14:06:46.000Z</time>
      </trkpt>
      <trkpt lat="47.25862" lon="-1.42959">
        <ele>58</ele>
        <time>2020-12-24T14:06:48.000Z</time>
      </trkpt>
      <trkpt lat="47.25855" lon="-1.4294">
        <ele>58</ele>
        <time>2020-12-24T14:06:50.000Z</time>
      </trkpt>
      <trkpt lat="47.25848" lon="-1.42921">
        <ele>58</ele>
        <time>2020-12-24T14:06:52.000Z</time>
      </trkpt>
      <trkpt lat="47.2584" lon="-1.42901">
        <ele>59</ele>
        <time>2020-12-24T14:06:54.000Z</time>
      </trkpt>
      <trkpt lat="47.25833" lon="-1.42882">
        <ele>59</ele>
        <time>2020-12-24T14:06:56.000Z</time>
      </trkpt>
      <trkpt lat="47.25825" lon="-1.42863">
        <ele>59</ele>
        <time>2020-12-24T14:06:58.000Z</time>
      </trkpt>
      <trkpt lat="47.25816" lon="-1.42844">
        <ele>60</ele>
        <time>2020-12-24T14:07:00.000Z</time>
      </trkpt>
      <trkpt lat="47.25808" lon="-1.42825">
        <ele>60</ele>
        <time>2020-12-24T14:07:02.000Z</time>
      </trkpt>
      <trkpt lat="47.258" lon="-1.42805">
        <ele>60</ele>
        <time>2020-12-24T14:07:04.000Z</time>
      </trkpt>
      <trkpt lat="47.25792" lon="-1.42785">
        <ele>60</ele>
        <time>2020-12-24T14:07:06.000Z</time>
      </trkpt>
      <trkpt lat="47.25784" lon="-1.42766">
        <ele>59</ele>
        <time>2020-12-24T14:07:08.000Z</time>
      </trkpt>
      <trkpt lat="47.25776" lon="-1.42745">
        <ele>59</ele>
        <time>2020-12-24T14:07:10.000Z</time>
      </trkpt>
      <trkpt lat="47.25768" lon="-1.42726">
        <ele>59</ele>
        <time>2020-12-24T14:07:12.000Z</time>
      </trkpt>
      <trkpt lat="47.2576" lon="-1.42706">
        <ele>59</ele>
        <time>2020-12-24T14:07:14.000Z</time>
      </trkpt>
      <trkpt lat="47.25752" lon="-1.42686">
        <ele>59</ele>
        <time>2020-12-24T14:07:16.000Z</time>
      </trkpt>
      <trkpt lat="47.25744" lon="-1.42667">
        <ele>59</ele>
        <time>2020-12-24T14:07:18.000Z</time>
      </trkpt>
      <trkpt lat="47.25737" lon="-1.42649">
        <ele>58</ele>
        <time>2020-12-24T14:07:20.000Z</time>
      </trkpt>
      <trkpt lat="47.25731" lon="-1.42634">
        <ele>58</ele>
        <time>2020-12-24T14:07:22.000Z</time>
      </trkpt>
      <trkpt lat="47.2572" lon="-1.42628">
        <ele>58</ele>
        <time>2020-12-24T14:07:24.000Z</time>
      </trkpt>
      <trkpt lat="47.25713" lon="-1.42611">
        <ele>57</ele>
        <time>2020-12-24T14:07:26.000Z</time>
      </trkpt>
      <trkpt lat="47.25711" lon="-1.42591">
        <ele>56</ele>
        <time>2020-12-24T14:07:28.000Z</time>
      </trkpt>
      <trkpt lat="47.25707" lon="-1.42569">
        <ele>56</ele>
        <time>2020-12-24T14:07:30.000Z</time>
      </trkpt>
      <trkpt lat="47.25704" lon="-1.42547">
        <ele>56</ele>
        <time>2020-12-24T14:07:32.000Z</time>
      </trkpt>
      <trkpt lat="47.25702" lon="-1.42524">
        <ele>55</ele>
        <time>2020-12-24T14:07:34.000Z</time>
      </trkpt>
      <trkpt lat="47.25699" lon="-1.42502">
        <ele>55</ele>
        <time>2020-12-24T14:07:36.000Z</time>
      </trkpt>
      <trkpt lat="47.25696" lon="-1.42479">
        <ele>55</ele>
        <time>2020-12-24T14:07:38.000Z</time>
      </trkpt>
      <trkpt lat="47.25694" lon="-1.42458">
        <ele>55</ele>
        <time>2020-12-24T14:07:40.000Z</time>
      </trkpt>
      <trkpt lat="47.25692" lon="-1.42436">
        <ele>55</ele>
        <time>2020-12-24T14:07:42.000Z</time>
      </trkpt>
      <trkpt lat="47.25689" lon="-1.42415">
        <ele>55</ele>
        <time>2020-12-24T14:07:44.000Z</time>
      </trkpt>
      <trkpt lat="47.25686" lon="-1.42394">
        <ele>54</ele>
        <time>2020-12-24T14:07:46.000Z</time>
      </trkpt>
      <trkpt lat="47.25684" lon="-1.42373">
        <ele>55</ele>
        <time>2020-12-24T14:07:48.000Z</time>
      </trkpt>
      <trkpt lat="47.25682" lon="-1.42352">
        <ele>55</ele>
        <time>2020-12-24T14:07:50.000Z</time>
      </trkpt>
      <trkpt lat="47.2568" lon="-1.42331">
        <ele>55</ele>
        <time>2020-12-24T14:07:52.000Z</time>
      </trkpt>
      <trkpt lat="47.25678" lon="-1.42309">
        <ele>55</ele>
        <time>2020-12-24T14:07:54.000Z</time>
      </trkpt>
      <trkpt lat="47.25675" lon="-1.42288">
        <ele>55</ele>
        <time>2020-12-24T14:07:56.000Z</time>
      </trkpt>
      <trkpt lat="47.25673" lon="-1.42267">
        <ele>54</ele>
        <time>2020-12-24T14:07:58.000Z</time>
      </trkpt>
      <trkpt lat="47.25671" lon="-1.42245">
        <ele>54</ele>
        <time>2020-12-24T14:08:00.000Z</time>
      </trkpt>
      <trkpt lat="47.25669" lon="-1.42224">
        <ele>55</ele>
        <time>2020-12-24T14:08:02.000Z</time>
      </trkpt>
      <trkpt lat="47.25666" lon="-1.42202">
        <ele>54</ele>
        <time>2020-12-24T14:08:04.000Z</time>
      </trkpt>
      <trkpt lat="47.25664" lon="-1.4218">
        <ele>54</ele>
        <time>2020-12-24T14:08:06.000Z</time>
      </trkpt>
      <trkpt lat="47.25662" lon="-1.42159">
        <ele>54</ele>
        <time>2020-12-24T14:08:08.000Z</time>
      </trkpt>
      <trkpt lat="47.25659" lon="-1.42139">
        <ele>54</ele>
        <time>2020-12-24T14:08:10.000Z</time>
      </trkpt>
      <trkpt lat="47.25656" lon="-1.42117">
        <ele>54</ele>
        <time>2020-12-24T14:08:12.000Z</time>
      </trkpt>
      <trkpt lat="47.25654" lon="-1.42095">
        <ele>54</ele>
        <time>2020-12-24T14:08:14.000Z</time>
      </trkpt>
      <trkpt lat="47.25651" lon="-1.42073">
        <ele>54</ele>
        <time>2020-12-24T14:08:16.000Z</time>
      </trkpt>
      <trkpt lat="47.25649" lon="-1.4205">
        <ele>54</ele>
        <time>2020-12-24T14:08:18.000Z</time>
      </trkpt>
      <trkpt lat="47.25646" lon="-1.42027">
        <ele>54</ele>
        <time>2020-12-24T14:08:20.000Z</time>
      </trkpt>
      <trkpt lat="47.25644" lon="-1.42004">
        <ele>54</ele>
        <time>2020-12-24T14:08:22.000Z</time>
      </trkpt>
      <trkpt lat="47.25641" lon="-1.41981">
        <ele>54</ele>
        <time>2020-12-24T14:08:24.000Z</time>
      </trkpt>
      <trkpt lat="47.25639" lon="-1.41959">
        <ele>54</ele>
        <time>2020-12-24T14:08:26.000Z</time>
      </trkpt>
      <trkpt lat="47.25637" lon="-1.41937">
        <ele>54</ele>
        <time>2020-12-24T14:08:28.000Z</time>
      </trkpt>
      <trkpt lat="47.25635" lon="-1.41915">
        <ele>53</ele>
        <time>2020-12-24T14:08:30.000Z</time>
      </trkpt>
      <trkpt lat="47.25632" lon="-1.41893">
        <ele>53</ele>
        <time>2020-12-24T14:08:32.000Z</time>
      </trkpt>
      <trkpt lat="47.2563" lon="-1.41871">
        <ele>53</ele>
        <time>2020-12-24T14:08:34.000Z</time>
      </trkpt>
      <trkpt lat="47.25628" lon="-1.41849">
        <ele>53</ele>
        <time>2020-12-24T14:08:36.000Z</time>
      </trkpt>
      <trkpt lat="47.25625" lon="-1.41828">
        <ele>53</ele>
        <time>2020-12-24T14:08:38.000Z</time>
      </trkpt>
      <trkpt lat="47.25623" lon="-1.41807">
        <ele>53</ele>
        <time>2020-12-24T14:08:40.000Z</time>
      </trkpt>
      <trkpt lat="47.2562" lon="-1.41786">
        <ele>53</ele>
        <time>2020-12-24T14:08:42.000Z</time>
      </trkpt>
      <trkpt lat="47.25618" lon="-1.41765">
        <ele>53</ele>
        <time>2020-12-24T14:08:44.000Z</time>
      </trkpt>
      <trkpt lat="47.25616" lon="-1.41745">
        <ele>53</ele>
        <time>2020-12-24T14:08:46.000Z</time>
      </trkpt>
      <trkpt lat="47.25613" lon="-1.41723">
        <ele>53</ele>
        <time>2020-12-24T14:08:48.000Z</time>
      </trkpt>
      <trkpt lat="47.25611" lon="-1.41703">
        <ele>53</ele>
        <time>2020-12-24T14:08:50.000Z</time>
      </trkpt>
      <trkpt lat="47.25609" lon="-1.41683">
        <ele>53</ele>
        <time>2020-12-24T14:08:52.000Z</time>
      </trkpt>
      <trkpt lat="47.25607" lon="-1.41663">
        <ele>52</ele>
        <time>2020-12-24T14:08:54.000Z</time>
      </trkpt>
      <trkpt lat="47.25604" lon="-1.41643">
        <ele>52</ele>
        <time>2020-12-24T14:08:56.000Z</time>
      </trkpt>
      <trkpt lat="47.25602" lon="-1.41623">
        <ele>53</ele>
        <time>2020-12-24T14:08:58.000Z</time>
      </trkpt>
      <trkpt lat="47.256" lon="-1.41603">
        <ele>53</ele>
        <time>2020-12-24T14:09:00.000Z</time>
      </trkpt>
      <trkpt lat="47.25598" lon="-1.41585">
        <ele>53</ele>
        <time>2020-12-24T14:09:02.000Z</time>
      </trkpt>
      <trkpt lat="47.25596" lon="-1.41565">
        <ele>53</ele>
        <time>2020-12-24T14:09:04.000Z</time>
      </trkpt>
      <trkpt lat="47.25594" lon="-1.41546">
        <ele>53</ele>
        <time>2020-12-24T14:09:06.000Z</time>
      </trkpt>
      <trkpt lat="47.25592" lon="-1.41528">
        <ele>53</ele>
        <time>2020-12-24T14:09:08.000Z</time>
      </trkpt>
      <trkpt lat="47.2559" lon="-1.4151">
        <ele>53</ele>
        <time>2020-12-24T14:09:10.000Z</time>
      </trkpt>
      <trkpt lat="47.25587" lon="-1.4149">
        <ele>54</ele>
        <time>2020-12-24T14:09:12.000Z</time>
      </trkpt>
      <trkpt lat="47.25585" lon="-1.41472">
        <ele>54</ele>
        <time>2020-12-24T14:09:14.000Z</time>
      </trkpt>
      <trkpt lat="47.25583" lon="-1.41452">
        <ele>54</ele>
        <time>2020-12-24T14:09:16.000Z</time>
      </trkpt>
      <trkpt lat="47.25581" lon="-1.41432">
        <ele>54</ele>
        <time>2020-12-24T14:09:18.000Z</time>
      </trkpt>
      <trkpt lat="47.25579" lon="-1.41412">
        <ele>54</ele>
        <time>2020-12-24T14:09:20.000Z</time>
      </trkpt>
      <trkpt lat="47.25576" lon="-1.41393">
        <ele>54</ele>
        <time>2020-12-24T14:09:22.000Z</time>
      </trkpt>
      <trkpt lat="47.25574" lon="-1.41373">
        <ele>55</ele>
        <time>2020-12-24T14:09:24.000Z</time>
      </trkpt>
      <trkpt lat="47.25572" lon="-1.41354">
        <ele>54</ele>
        <time>2020-12-24T14:09:26.000Z</time>
      </trkpt>
      <trkpt lat="47.2557" lon="-1.41334">
        <ele>54</ele>
        <time>2020-12-24T14:09:28.000Z</time>
      </trkpt>
      <trkpt lat="47.25568" lon="-1.41315">
        <ele>54</ele>
        <time>2020-12-24T14:09:30.000Z</time>
      </trkpt>
      <trkpt lat="47.25566" lon="-1.41296">
        <ele>54</ele>
        <time>2020-12-24T14:09:32.000Z</time>
      </trkpt>
      <trkpt lat="47.25564" lon="-1.41277">
        <ele>54</ele>
        <time>2020-12-24T14:09:34.000Z</time>
      </trkpt>
      <trkpt lat="47.25562" lon="-1.41257">
        <ele>55</ele>
        <time>2020-12-24T14:09:36.000Z</time>
      </trkpt>
      <trkpt lat="47.2556" lon="-1.41238">
        <ele>55</ele>
        <time>2020-12-24T14:09:38.000Z</time>
      </trkpt>
      <trkpt lat="47.25557" lon="-1.41219">
        <ele>55</ele>
        <time>2020-12-24T14:09:40.000Z</time>
      </trkpt>
      <trkpt lat="47.25555" lon="-1.41199">
        <ele>54</ele>
        <time>2020-12-24T14:09:42.000Z</time>
      </trkpt>
      <trkpt lat="47.25552" lon="-1.4118">
        <ele>54</ele>
        <time>2020-12-24T14:09:44.000Z</time>
      </trkpt>
      <trkpt lat="47.25548" lon="-1.41161">
        <ele>54</ele>
        <time>2020-12-24T14:09:46.000Z</time>
      </trkpt>
      <trkpt lat="47.25544" lon="-1.41142">
        <ele>54</ele>
        <time>2020-12-24T14:09:48.000Z</time>
      </trkpt>
      <trkpt lat="47.2554" lon="-1.41124">
        <ele>54</ele>
        <time>2020-12-24T14:09:50.000Z</time>
      </trkpt>
      <trkpt lat="47.25534" lon="-1.41106">
        <ele>54</ele>
        <time>2020-12-24T14:09:52.000Z</time>
      </trkpt>
      <trkpt lat="47.25528" lon="-1.4109">
        <ele>54</ele>
        <time>2020-12-24T14:09:54.000Z</time>
      </trkpt>
      <trkpt lat="47.25522" lon="-1.41076">
        <ele>54</ele>
        <time>2020-12-24T14:09:56.000Z</time>
      </trkpt>
      <trkpt lat="47.25514" lon="-1.41066">
        <ele>54</ele>
        <time>2020-12-24T14:09:58.000Z</time>
      </trkpt>
      <trkpt lat="47.25504" lon="-1.41054">
        <ele>53</ele>
        <time>2020-12-24T14:10:00.000Z</time>
      </trkpt>
      <trkpt lat="47.25497" lon="-1.41037">
        <ele>53</ele>
        <time>2020-12-24T14:10:02.000Z</time>
      </trkpt>
      <trkpt lat="47.2549" lon="-1.4102">
        <ele>53</ele>
        <time>2020-12-24T14:10:04.000Z</time>
      </trkpt>
      <trkpt lat="47.25479" lon="-1.41006">
        <ele>52</ele>
        <time>2020-12-24T14:10:06.000Z</time>
      </trkpt>
      <trkpt lat="47.25467" lon="-1.40994">
        <ele>52</ele>
        <time>2020-12-24T14:10:08.000Z</time>
      </trkpt>
      <trkpt lat="47.25455" lon="-1.40983">
        <ele>52</ele>
        <time>2020-12-24T14:10:10.000Z</time>
      </trkpt>
      <trkpt lat="47.25443" lon="-1.40972">
        <ele>53</ele>
        <time>2020-12-24T14:10:12.000Z</time>
      </trkpt>
      <trkpt lat="47.25431" lon="-1.40962">
        <ele>52</ele>
        <time>2020-12-24T14:10:14.000Z</time>
      </trkpt>
      <trkpt lat="47.25419" lon="-1.40951">
        <ele>52</ele>
        <time>2020-12-24T14:10:16.000Z</time>
      </trkpt>
      <trkpt lat="47.25408" lon="-1.40939">
        <ele>52</ele>
        <time>2020-12-24T14:10:18.000Z</time>
      </trkpt>
      <trkpt lat="47.25396" lon="-1.40927">
        <ele>52</ele>
        <time>2020-12-24T14:10:20.000Z</time>
      </trkpt>
      <trkpt lat="47.25385" lon="-1.40914">
        <ele>52</ele>
        <time>2020-12-24T14:10:22.000Z</time>
      </trkpt>
      <trkpt lat="47.25374" lon="-1.40902">
        <ele>53</ele>
        <time>2020-12-24T14:10:24.000Z</time>
      </trkpt>
      <trkpt lat="47.25364" lon="-1.4089">
        <ele>53</ele>
        <time>2020-12-24T14:10:26.000Z</time>
      </trkpt>
      <trkpt lat="47.25353" lon="-1.40878">
        <ele>52</ele>
        <time>2020-12-24T14:10:28.000Z</time>
      </trkpt>
      <trkpt lat="47.25342" lon="-1.40865">
        <ele>53</ele>
        <time>2020-12-24T14:10:30.000Z</time>
      </trkpt>
      <trkpt lat="47.25331" lon="-1.40852">
        <ele>53</ele>
        <time>2020-12-24T14:10:32.000Z</time>
      </trkpt>
      <trkpt lat="47.25321" lon="-1.40839">
        <ele>53</ele>
        <time>2020-12-24T14:10:34.000Z</time>
      </trkpt>
      <trkpt lat="47.2531" lon="-1.40826">
        <ele>52</ele>
        <time>2020-12-24T14:10:36.000Z</time>
      </trkpt>
      <trkpt lat="47.253" lon="-1.40814">
        <ele>53</ele>
        <time>2020-12-24T14:10:38.000Z</time>
      </trkpt>
      <trkpt lat="47.2529" lon="-1.408">
        <ele>53</ele>
        <time>2020-12-24T14:10:40.000Z</time>
      </trkpt>
      <trkpt lat="47.25279" lon="-1.40787">
        <ele>53</ele>
        <time>2020-12-24T14:10:42.000Z</time>
      </trkpt>
      <trkpt lat="47.25268" lon="-1.40775">
        <ele>52</ele>
        <time>2020-12-24T14:10:44.000Z</time>
      </trkpt>
      <trkpt lat="47.25258" lon="-1.40762">
        <ele>52</ele>
        <time>2020-12-24T14:10:46.000Z</time>
      </trkpt>
      <trkpt lat="47.25248" lon="-1.4075">
        <ele>52</ele>
        <time>2020-12-24T14:10:48.000Z</time>
      </trkpt>
      <trkpt lat="47.25238" lon="-1.40737">
        <ele>52</ele>
        <time>2020-12-24T14:10:50.000Z</time>
      </trkpt>
      <trkpt lat="47.25228" lon="-1.40726">
        <ele>52</ele>
        <time>2020-12-24T14:10:52.000Z</time>
      </trkpt>
      <trkpt lat="47.25219" lon="-1.40714">
        <ele>53</ele>
        <time>2020-12-24T14:10:54.000Z</time>
      </trkpt>
      <trkpt lat="47.2521" lon="-1.40703">
        <ele>53</ele>
        <time>2020-12-24T14:10:56.000Z</time>
      </trkpt>
      <trkpt lat="47.25198" lon="-1.4069">
        <ele>52</ele>
        <time>2020-12-24T14:10:58.000Z</time>
      </trkpt>
      <trkpt lat="47.25186" lon="-1.40677">
        <ele>52</ele>
        <time>2020-12-24T14:11:00.000Z</time>
      </trkpt>
      <trkpt lat="47.25175" lon="-1.40664">
        <ele>52</ele>
        <time>2020-12-24T14:11:02.000Z</time>
      </trkpt>
      <trkpt lat="47.25165" lon="-1.4065">
        <ele>52</ele>
        <time>2020-12-24T14:11:04.000Z</time>
      </trkpt>
      <trkpt lat="47.25155" lon="-1.40637">
        <ele>52</ele>
        <time>2020-12-24T14:11:06.000Z</time>
      </trkpt>
      <trkpt lat="47.25144" lon="-1.40625">
        <ele>53</ele>
        <time>2020-12-24T14:11:08.000Z</time>
      </trkpt>
      <trkpt lat="47.25134" lon="-1.40612">
        <ele>53</ele>
        <time>2020-12-24T14:11:10.000Z</time>
      </trkpt>
      <trkpt lat="47.25124" lon="-1.40599">
        <ele>53</ele>
        <time>2020-12-24T14:11:12.000Z</time>
      </trkpt>
      <trkpt lat="47.25114" lon="-1.40588">
        <ele>53</ele>
        <time>2020-12-24T14:11:14.000Z</time>
      </trkpt>
      <trkpt lat="47.25104" lon="-1.40575">
        <ele>53</ele>
        <time>2020-12-24T14:11:16.000Z</time>
      </trkpt>
      <trkpt lat="47.25095" lon="-1.40564">
        <ele>53</ele>
        <time>2020-12-24T14:11:18.000Z</time>
      </trkpt>
      <trkpt lat="47.25085" lon="-1.40552">
        <ele>53</ele>
        <time>2020-12-24T14:11:20.000Z</time>
      </trkpt>
      <trkpt lat="47.25076" lon="-1.4054">
        <ele>53</ele>
        <time>2020-12-24T14:11:22.000Z</time>
      </trkpt>
      <trkpt lat="47.25066" lon="-1.40529">
        <ele>53</ele>
        <time>2020-12-24T14:11:24.000Z</time>
      </trkpt>
      <trkpt lat="47.25056" lon="-1.40517">
        <ele>52</ele>
        <time>2020-12-24T14:11:26.000Z</time>
      </trkpt>
      <trkpt lat="47.25045" lon="-1.40505">
        <ele>52</ele>
        <time>2020-12-24T14:11:28.000Z</time>
      </trkpt>
      <trkpt lat="47.25035" lon="-1.40493">
        <ele>53</ele>
        <time>2020-12-24T14:11:30.000Z</time>
      </trkpt>
      <trkpt lat="47.25024" lon="-1.40481">
        <ele>52</ele>
        <time>2020-12-24T14:11:32.000Z</time>
      </trkpt>
      <trkpt lat="47.25014" lon="-1.40468">
        <ele>52</ele>
        <time>2020-12-24T14:11:34.000Z</time>
      </trkpt>
      <trkpt lat="47.25005" lon="-1.40456">
        <ele>52</ele>
        <time>2020-12-24T14:11:36.000Z</time>
      </trkpt>
      <trkpt lat="47.24995" lon="-1.40444">
        <ele>52</ele>
        <time>2020-12-24T14:11:38.000Z</time>
      </trkpt>
      <trkpt lat="47.24986" lon="-1.40433">
        <ele>53</ele>
        <time>2020-12-24T14:11:40.000Z</time>
      </trkpt>
      <trkpt lat="47.24977" lon="-1.40421">
        <ele>53</ele>
        <time>2020-12-24T14:11:42.000Z</time>
      </trkpt>
      <trkpt lat="47.24968" lon="-1.40411">
        <ele>53</ele>
        <time>2020-12-24T14:11:44.000Z</time>
      </trkpt>
      <trkpt lat="47.2496" lon="-1.40402">
        <ele>54</ele>
        <time>2020-12-24T14:11:46.000Z</time>
      </trkpt>
      <trkpt lat="47.24951" lon="-1.40391">
        <ele>54</ele>
        <time>2020-12-24T14:11:48.000Z</time>
      </trkpt>
      <trkpt lat="47.24943" lon="-1.40382">
        <ele>55</ele>
        <time>2020-12-24T14:11:50.000Z</time>
      </trkpt>
      <trkpt lat="47.24935" lon="-1.40371">
        <ele>55</ele>
        <time>2020-12-24T14:11:52.000Z</time>
      </trkpt>
      <trkpt lat="47.24926" lon="-1.40361">
        <ele>55</ele>
        <time>2020-12-24T14:11:54.000Z</time>
      </trkpt>
      <trkpt lat="47.24917" lon="-1.40351">
        <ele>56</ele>
        <time>2020-12-24T14:11:56.000Z</time>
      </trkpt>
      <trkpt lat="47.24909" lon="-1.40341">
        <ele>56</ele>
        <time>2020-12-24T14:11:58.000Z</time>
      </trkpt>
      <trkpt lat="47.24901" lon="-1.40332">
        <ele>57</ele>
        <time>2020-12-24T14:12:00.000Z</time>
      </trkpt>
      <trkpt lat="47.24893" lon="-1.40321">
        <ele>57</ele>
        <time>2020-12-24T14:12:02.000Z</time>
      </trkpt>
      <trkpt lat="47.24885" lon="-1.40312">
        <ele>58</ele>
        <time>2020-12-24T14:12:04.000Z</time>
      </trkpt>
      <trkpt lat="47.24876" lon="-1.40302">
        <ele>58</ele>
        <time>2020-12-24T14:12:06.000Z</time>
      </trkpt>
      <trkpt lat="47.24868" lon="-1.40293">
        <ele>59</ele>
        <time>2020-12-24T14:12:08.000Z</time>
      </trkpt>
      <trkpt lat="47.24859" lon="-1.40282">
        <ele>59</ele>
        <time>2020-12-24T14:12:10.000Z</time>
      </trkpt>
      <trkpt lat="47.24851" lon="-1.40272">
        <ele>59</ele>
        <time>2020-12-24T14:12:12.000Z</time>
      </trkpt>
      <trkpt lat="47.24842" lon="-1.40263">
        <ele>60</ele>
        <time>2020-12-24T14:12:14.000Z</time>
      </trkpt>
      <trkpt lat="47.24834" lon="-1.40253">
        <ele>60</ele>
        <time>2020-12-24T14:12:16.000Z</time>
      </trkpt>
      <trkpt lat="47.24826" lon="-1.40243">
        <ele>60</ele>
        <time>2020-12-24T14:12:18.000Z</time>
      </trkpt>
      <trkpt lat="47.24817" lon="-1.40234">
        <ele>60</ele>
        <time>2020-12-24T14:12:20.000Z</time>
      </trkpt>
      <trkpt lat="47.24809" lon="-1.40224">
        <ele>61</ele>
        <time>2020-12-24T14:12:22.000Z</time>
      </trkpt>
      <trkpt lat="47.248" lon="-1.40213">
        <ele>61</ele>
        <time>2020-12-24T14:12:24.000Z</time>
      </trkpt>
      <trkpt lat="47.24793" lon="-1.40203">
        <ele>62</ele>
        <time>2020-12-24T14:12:26.000Z</time>
      </trkpt>
      <trkpt lat="47.24786" lon="-1.40191">
        <ele>62</ele>
        <time>2020-12-24T14:12:28.000Z</time>
      </trkpt>
      <trkpt lat="47.24779" lon="-1.4018">
        <ele>62</ele>
        <time>2020-12-24T14:12:30.000Z</time>
      </trkpt>
      <trkpt lat="47.24772" lon="-1.40168">
        <ele>62</ele>
        <time>2020-12-24T14:12:32.000Z</time>
      </trkpt>
      <trkpt lat="47.24765" lon="-1.40156">
        <ele>62</ele>
        <time>2020-12-24T14:12:34.000Z</time>
      </trkpt>
      <trkpt lat="47.24758" lon="-1.40144">
        <ele>62</ele>
        <time>2020-12-24T14:12:36.000Z</time>
      </trkpt>
      <trkpt lat="47.2475" lon="-1.40132">
        <ele>62</ele>
        <time>2020-12-24T14:12:38.000Z</time>
      </trkpt>
      <trkpt lat="47.24744" lon="-1.40119">
        <ele>63</ele>
        <time>2020-12-24T14:12:40.000Z</time>
      </trkpt>
      <trkpt lat="47.24737" lon="-1.40107">
        <ele>63</ele>
        <time>2020-12-24T14:12:42.000Z</time>
      </trkpt>
      <trkpt lat="47.24729" lon="-1.40097">
        <ele>63</ele>
        <time>2020-12-24T14:12:44.000Z</time>
      </trkpt>
      <trkpt lat="47.24722" lon="-1.40089">
        <ele>63</ele>
        <time>2020-12-24T14:12:46.000Z</time>
      </trkpt>
      <trkpt lat="47.24714" lon="-1.4008">
        <ele>63</ele>
        <time>2020-12-24T14:12:49.000Z</time>
      </trkpt>
      <trkpt lat="47.24705" lon="-1.40064">
        <ele>64</ele>
        <time>2020-12-24T14:12:52.000Z</time>
      </trkpt>
      <trkpt lat="47.24699" lon="-1.4005">
        <ele>65</ele>
        <time>2020-12-24T14:12:54.000Z</time>
      </trkpt>
      <trkpt lat="47.24693" lon="-1.40035">
        <ele>65</ele>
        <time>2020-12-24T14:12:56.000Z</time>
      </trkpt>
      <trkpt lat="47.24685" lon="-1.40021">
        <ele>65</ele>
        <time>2020-12-24T14:12:58.000Z</time>
      </trkpt>
      <trkpt lat="47.24675" lon="-1.40006">
        <ele>65</ele>
        <time>2020-12-24T14:13:00.000Z</time>
      </trkpt>
      <trkpt lat="47.24667" lon="-1.39992">
        <ele>65</ele>
        <time>2020-12-24T14:13:02.000Z</time>
      </trkpt>
      <trkpt lat="47.24658" lon="-1.39978">
        <ele>65</ele>
        <time>2020-12-24T14:13:04.000Z</time>
      </trkpt>
      <trkpt lat="47.24649" lon="-1.39964">
        <ele>65</ele>
        <time>2020-12-24T14:13:06.000Z</time>
      </trkpt>
      <trkpt lat="47.24641" lon="-1.39949">
        <ele>65</ele>
        <time>2020-12-24T14:13:08.000Z</time>
      </trkpt>
      <trkpt lat="47.24633" lon="-1.39934">
        <ele>66</ele>
        <time>2020-12-24T14:13:10.000Z</time>
      </trkpt>
      <trkpt lat="47.24625" lon="-1.39918">
        <ele>66</ele>
        <time>2020-12-24T14:13:12.000Z</time>
      </trkpt>
      <trkpt lat="47.24618" lon="-1.39902">
        <ele>66</ele>
        <time>2020-12-24T14:13:14.000Z</time>
      </trkpt>
      <trkpt lat="47.24611" lon="-1.39885">
        <ele>66</ele>
        <time>2020-12-24T14:13:16.000Z</time>
      </trkpt>
      <trkpt lat="47.24604" lon="-1.39868">
        <ele>66</ele>
        <time>2020-12-24T14:13:18.000Z</time>
      </trkpt>
      <trkpt lat="47.24597" lon="-1.39852">
        <ele>66</ele>
        <time>2020-12-24T14:13:20.000Z</time>
      </trkpt>
      <trkpt lat="47.24589" lon="-1.39836">
        <ele>66</ele>
        <time>2020-12-24T14:13:22.000Z</time>
      </trkpt>
      <trkpt lat="47.24582" lon="-1.39819">
        <ele>66</ele>
        <time>2020-12-24T14:13:24.000Z</time>
      </trkpt>
      <trkpt lat="47.24575" lon="-1.39803">
        <ele>67</ele>
        <time>2020-12-24T14:13:26.000Z</time>
      </trkpt>
      <trkpt lat="47.24568" lon="-1.39787">
        <ele>67</ele>
        <time>2020-12-24T14:13:28.000Z</time>
      </trkpt>
      <trkpt lat="47.24561" lon="-1.39772">
        <ele>67</ele>
        <time>2020-12-24T14:13:30.000Z</time>
      </trkpt>
      <trkpt lat="47.24554" lon="-1.39756">
        <ele>67</ele>
        <time>2020-12-24T14:13:32.000Z</time>
      </trkpt>
      <trkpt lat="47.24548" lon="-1.3974">
        <ele>67</ele>
        <time>2020-12-24T14:13:34.000Z</time>
      </trkpt>
      <trkpt lat="47.24541" lon="-1.39726">
        <ele>67</ele>
        <time>2020-12-24T14:13:36.000Z</time>
      </trkpt>
      <trkpt lat="47.24536" lon="-1.39711">
        <ele>67</ele>
        <time>2020-12-24T14:13:38.000Z</time>
      </trkpt>
      <trkpt lat="47.24526" lon="-1.397">
        <ele>66</ele>
        <time>2020-12-24T14:13:41.000Z</time>
      </trkpt>
      <trkpt lat="47.24517" lon="-1.39707">
        <ele>66</ele>
        <time>2020-12-24T14:13:43.000Z</time>
      </trkpt>
      <trkpt lat="47.24507" lon="-1.39717">
        <ele>66</ele>
        <time>2020-12-24T14:13:45.000Z</time>
      </trkpt>
      <trkpt lat="47.24497" lon="-1.39728">
        <ele>66</ele>
        <time>2020-12-24T14:13:47.000Z</time>
      </trkpt>
      <trkpt lat="47.24487" lon="-1.39739">
        <ele>67</ele>
        <time>2020-12-24T14:13:49.000Z</time>
      </trkpt>
      <trkpt lat="47.24476" lon="-1.39751">
        <ele>67</ele>
        <time>2020-12-24T14:13:51.000Z</time>
      </trkpt>
      <trkpt lat="47.24465" lon="-1.39762">
        <ele>66</ele>
        <time>2020-12-24T14:13:53.000Z</time>
      </trkpt>
      <trkpt lat="47.24455" lon="-1.39773">
        <ele>67</ele>
        <time>2020-12-24T14:13:55.000Z</time>
      </trkpt>
      <trkpt lat="47.24444" lon="-1.39785">
        <ele>66</ele>
        <time>2020-12-24T14:13:57.000Z</time>
      </trkpt>
      <trkpt lat="47.24432" lon="-1.39796">
        <ele>66</ele>
        <time>2020-12-24T14:13:59.000Z</time>
      </trkpt>
      <trkpt lat="47.24421" lon="-1.39807">
        <ele>66</ele>
        <time>2020-12-24T14:14:01.000Z</time>
      </trkpt>
      <trkpt lat="47.24409" lon="-1.39818">
        <ele>66</ele>
        <time>2020-12-24T14:14:03.000Z</time>
      </trkpt>
      <trkpt lat="47.24398" lon="-1.3983">
        <ele>66</ele>
        <time>2020-12-24T14:14:05.000Z</time>
      </trkpt>
      <trkpt lat="47.24387" lon="-1.3984">
        <ele>66</ele>
        <time>2020-12-24T14:14:07.000Z</time>
      </trkpt>
      <trkpt lat="47.24376" lon="-1.39852">
        <ele>66</ele>
        <time>2020-12-24T14:14:09.000Z</time>
      </trkpt>
      <trkpt lat="47.24366" lon="-1.39863">
        <ele>65</ele>
        <time>2020-12-24T14:14:11.000Z</time>
      </trkpt>
      <trkpt lat="47.24355" lon="-1.39874">
        <ele>66</ele>
        <time>2020-12-24T14:14:13.000Z</time>
      </trkpt>
      <trkpt lat="47.24345" lon="-1.39886">
        <ele>66</ele>
        <time>2020-12-24T14:14:15.000Z</time>
      </trkpt>
      <trkpt lat="47.24334" lon="-1.39897">
        <ele>66</ele>
        <time>2020-12-24T14:14:17.000Z</time>
      </trkpt>
      <trkpt lat="47.24323" lon="-1.39908">
        <ele>66</ele>
        <time>2020-12-24T14:14:19.000Z</time>
      </trkpt>
      <trkpt lat="47.24312" lon="-1.3992">
        <ele>66</ele>
        <time>2020-12-24T14:14:21.000Z</time>
      </trkpt>
      <trkpt lat="47.24301" lon="-1.39931">
        <ele>67</ele>
        <time>2020-12-24T14:14:23.000Z</time>
      </trkpt>
      <trkpt lat="47.2429" lon="-1.39942">
        <ele>67</ele>
        <time>2020-12-24T14:14:25.000Z</time>
      </trkpt>
      <trkpt lat="47.2428" lon="-1.39953">
        <ele>67</ele>
        <time>2020-12-24T14:14:27.000Z</time>
      </trkpt>
      <trkpt lat="47.24268" lon="-1.39962">
        <ele>67</ele>
        <time>2020-12-24T14:14:29.000Z</time>
      </trkpt>
      <trkpt lat="47.24259" lon="-1.39973">
        <ele>68</ele>
        <time>2020-12-24T14:14:31.000Z</time>
      </trkpt>
      <trkpt lat="47.24249" lon="-1.39987">
        <ele>68</ele>
        <time>2020-12-24T14:14:33.000Z</time>
      </trkpt>
      <trkpt lat="47.24238" lon="-1.39996">
        <ele>68</ele>
        <time>2020-12-24T14:14:35.000Z</time>
      </trkpt>
      <trkpt lat="47.24227" lon="-1.40007">
        <ele>68</ele>
        <time>2020-12-24T14:14:37.000Z</time>
      </trkpt>
      <trkpt lat="47.24216" lon="-1.4002">
        <ele>68</ele>
        <time>2020-12-24T14:14:39.000Z</time>
      </trkpt>
      <trkpt lat="47.24205" lon="-1.40033">
        <ele>68</ele>
        <time>2020-12-24T14:14:41.000Z</time>
      </trkpt>
      <trkpt lat="47.24194" lon="-1.40047">
        <ele>69</ele>
        <time>2020-12-24T14:14:43.000Z</time>
      </trkpt>
      <trkpt lat="47.24183" lon="-1.4006">
        <ele>69</ele>
        <time>2020-12-24T14:14:45.000Z</time>
      </trkpt>
      <trkpt lat="47.24172" lon="-1.40073">
        <ele>69</ele>
        <time>2020-12-24T14:14:47.000Z</time>
      </trkpt>
      <trkpt lat="47.24161" lon="-1.40086">
        <ele>69</ele>
        <time>2020-12-24T14:14:49.000Z</time>
      </trkpt>
      <trkpt lat="47.24151" lon="-1.40102">
        <ele>69</ele>
        <time>2020-12-24T14:14:51.000Z</time>
      </trkpt>
      <trkpt lat="47.24142" lon="-1.4012">
        <ele>69</ele>
        <time>2020-12-24T14:14:53.000Z</time>
      </trkpt>
      <trkpt lat="47.24137" lon="-1.40139">
        <ele>68</ele>
        <time>2020-12-24T14:14:55.000Z</time>
      </trkpt>
      <trkpt lat="47.24133" lon="-1.40158">
        <ele>68</ele>
        <time>2020-12-24T14:14:57.000Z</time>
      </trkpt>
      <trkpt lat="47.2413" lon="-1.40178">
        <ele>68</ele>
        <time>2020-12-24T14:14:59.000Z</time>
      </trkpt>
      <trkpt lat="47.24127" lon="-1.40198">
        <ele>68</ele>
        <time>2020-12-24T14:15:01.000Z</time>
      </trkpt>
      <trkpt lat="47.24125" lon="-1.40218">
        <ele>67</ele>
        <time>2020-12-24T14:15:03.000Z</time>
      </trkpt>
      <trkpt lat="47.24118" lon="-1.40246">
        <ele>68</ele>
        <time>2020-12-24T14:15:06.000Z</time>
      </trkpt>
      <trkpt lat="47.24112" lon="-1.40262">
        <ele>68</ele>
        <time>2020-12-24T14:15:08.000Z</time>
      </trkpt>
      <trkpt lat="47.24105" lon="-1.40278">
        <ele>68</ele>
        <time>2020-12-24T14:15:10.000Z</time>
      </trkpt>
      <trkpt lat="47.24095" lon="-1.40293">
        <ele>68</ele>
        <time>2020-12-24T14:15:12.000Z</time>
      </trkpt>
      <trkpt lat="47.24086" lon="-1.40307">
        <ele>68</ele>
        <time>2020-12-24T14:15:14.000Z</time>
      </trkpt>
      <trkpt lat="47.24075" lon="-1.40321">
        <ele>68</ele>
        <time>2020-12-24T14:15:16.000Z</time>
      </trkpt>
      <trkpt lat="47.24058" lon="-1.4034">
        <ele>67</ele>
        <time>2020-12-24T14:15:19.000Z</time>
      </trkpt>
      <trkpt lat="47.24047" lon="-1.40353">
        <ele>67</ele>
        <time>2020-12-24T14:15:21.000Z</time>
      </trkpt>
      <trkpt lat="47.24037" lon="-1.40366">
        <ele>67</ele>
        <time>2020-12-24T14:15:23.000Z</time>
      </trkpt>
      <trkpt lat="47.24027" lon="-1.40378">
        <ele>67</ele>
        <time>2020-12-24T14:15:25.000Z</time>
      </trkpt>
      <trkpt lat="47.24017" lon="-1.40391">
        <ele>67</ele>
        <time>2020-12-24T14:15:27.000Z</time>
      </trkpt>
      <trkpt lat="47.24007" lon="-1.40403">
        <ele>67</ele>
        <time>2020-12-24T14:15:29.000Z</time>
      </trkpt>
      <trkpt lat="47.23996" lon="-1.40415">
        <ele>67</ele>
        <time>2020-12-24T14:15:31.000Z</time>
      </trkpt>
      <trkpt lat="47.23981" lon="-1.40433">
        <ele>67</ele>
        <time>2020-12-24T14:15:34.000Z</time>
      </trkpt>
      <trkpt lat="47.23971" lon="-1.40444">
        <ele>67</ele>
        <time>2020-12-24T14:15:36.000Z</time>
      </trkpt>
      <trkpt lat="47.23961" lon="-1.40456">
        <ele>67</ele>
        <time>2020-12-24T14:15:38.000Z</time>
      </trkpt>
      <trkpt lat="47.23945" lon="-1.40473">
        <ele>68</ele>
        <time>2020-12-24T14:15:41.000Z</time>
      </trkpt>
      <trkpt lat="47.23935" lon="-1.40486">
        <ele>68</ele>
        <time>2020-12-24T14:15:43.000Z</time>
      </trkpt>
      <trkpt lat="47.23925" lon="-1.40498">
        <ele>68</ele>
        <time>2020-12-24T14:15:45.000Z</time>
      </trkpt>
      <trkpt lat="47.23915" lon="-1.40511">
        <ele>68</ele>
        <time>2020-12-24T14:15:47.000Z</time>
      </trkpt>
      <trkpt lat="47.23905" lon="-1.40523">
        <ele>68</ele>
        <time>2020-12-24T14:15:49.000Z</time>
      </trkpt>
      <trkpt lat="47.23894" lon="-1.40536">
        <ele>67</ele>
        <time>2020-12-24T14:15:51.000Z</time>
      </trkpt>
      <trkpt lat="47.23879" lon="-1.40554">
        <ele>67</ele>
        <time>2020-12-24T14:15:54.000Z</time>
      </trkpt>
      <trkpt lat="47.23868" lon="-1.40567">
        <ele>67</ele>
        <time>2020-12-24T14:15:56.000Z</time>
      </trkpt>
      <trkpt lat="47.23859" lon="-1.40579">
        <ele>67</ele>
        <time>2020-12-24T14:15:58.000Z</time>
      </trkpt>
      <trkpt lat="47.23843" lon="-1.40598">
        <ele>67</ele>
        <time>2020-12-24T14:16:01.000Z</time>
      </trkpt>
      <trkpt lat="47.23833" lon="-1.4061">
        <ele>67</ele>
        <time>2020-12-24T14:16:03.000Z</time>
      </trkpt>
      <trkpt lat="47.23823" lon="-1.40623">
        <ele>67</ele>
        <time>2020-12-24T14:16:05.000Z</time>
      </trkpt>
      <trkpt lat="47.23812" lon="-1.40635">
        <ele>67</ele>
        <time>2020-12-24T14:16:07.000Z</time>
      </trkpt>
      <trkpt lat="47.23797" lon="-1.40653">
        <ele>67</ele>
        <time>2020-12-24T14:16:10.000Z</time>
      </trkpt>
      <trkpt lat="47.23783" lon="-1.40672">
        <ele>68</ele>
        <time>2020-12-24T14:16:13.000Z</time>
      </trkpt>
      <trkpt lat="47.23769" lon="-1.4069">
        <ele>69</ele>
        <time>2020-12-24T14:16:16.000Z</time>
      </trkpt>
      <trkpt lat="47.23753" lon="-1.40707">
        <ele>69</ele>
        <time>2020-12-24T14:16:19.000Z</time>
      </trkpt>
      <trkpt lat="47.23742" lon="-1.40719">
        <ele>68</ele>
        <time>2020-12-24T14:16:21.000Z</time>
      </trkpt>
      <trkpt lat="47.23726" lon="-1.40734">
        <ele>68</ele>
        <time>2020-12-24T14:16:24.000Z</time>
      </trkpt>
      <trkpt lat="47.23714" lon="-1.40738">
        <ele>69</ele>
        <time>2020-12-24T14:16:26.000Z</time>
      </trkpt>
      <trkpt lat="47.23701" lon="-1.40738">
        <ele>69</ele>
        <time>2020-12-24T14:16:28.000Z</time>
      </trkpt>
      <trkpt lat="47.23688" lon="-1.40734">
        <ele>69</ele>
        <time>2020-12-24T14:16:30.000Z</time>
      </trkpt>
      <trkpt lat="47.23668" lon="-1.40727">
        <ele>69</ele>
        <time>2020-12-24T14:16:33.000Z</time>
      </trkpt>
      <trkpt lat="47.23649" lon="-1.40719">
        <ele>68</ele>
        <time>2020-12-24T14:16:36.000Z</time>
      </trkpt>
      <trkpt lat="47.23629" lon="-1.40714">
        <ele>68</ele>
        <time>2020-12-24T14:16:39.000Z</time>
      </trkpt>
      <trkpt lat="47.23616" lon="-1.40714">
        <ele>68</ele>
        <time>2020-12-24T14:16:41.000Z</time>
      </trkpt>
      <trkpt lat="47.23602" lon="-1.40715">
        <ele>68</ele>
        <time>2020-12-24T14:16:43.000Z</time>
      </trkpt>
      <trkpt lat="47.23588" lon="-1.40718">
        <ele>68</ele>
        <time>2020-12-24T14:16:45.000Z</time>
      </trkpt>
      <trkpt lat="47.23566" lon="-1.40725">
        <ele>68</ele>
        <time>2020-12-24T14:16:48.000Z</time>
      </trkpt>
      <trkpt lat="47.23552" lon="-1.40731">
        <ele>68</ele>
        <time>2020-12-24T14:16:50.000Z</time>
      </trkpt>
      <trkpt lat="47.23538" lon="-1.40736">
        <ele>68</ele>
        <time>2020-12-24T14:16:52.000Z</time>
      </trkpt>
      <trkpt lat="47.23524" lon="-1.40741">
        <ele>68</ele>
        <time>2020-12-24T14:16:54.000Z</time>
      </trkpt>
      <trkpt lat="47.23509" lon="-1.40747">
        <ele>67</ele>
        <time>2020-12-24T14:16:56.000Z</time>
      </trkpt>
      <trkpt lat="47.23495" lon="-1.40752">
        <ele>67</ele>
        <time>2020-12-24T14:16:58.000Z</time>
      </trkpt>
      <trkpt lat="47.2348" lon="-1.40757">
        <ele>67</ele>
        <time>2020-12-24T14:17:00.000Z</time>
      </trkpt>
      <trkpt lat="47.23466" lon="-1.40763">
        <ele>67</ele>
        <time>2020-12-24T14:17:02.000Z</time>
      </trkpt>
      <trkpt lat="47.23451" lon="-1.40769">
        <ele>66</ele>
        <time>2020-12-24T14:17:04.000Z</time>
      </trkpt>
      <trkpt lat="47.23437" lon="-1.40774">
        <ele>66</ele>
        <time>2020-12-24T14:17:06.000Z</time>
      </trkpt>
      <trkpt lat="47.23422" lon="-1.40779">
        <ele>66</ele>
        <time>2020-12-24T14:17:08.000Z</time>
      </trkpt>
      <trkpt lat="47.23408" lon="-1.40784">
        <ele>67</ele>
        <time>2020-12-24T14:17:10.000Z</time>
      </trkpt>
      <trkpt lat="47.23394" lon="-1.40789">
        <ele>67</ele>
        <time>2020-12-24T14:17:12.000Z</time>
      </trkpt>
      <trkpt lat="47.23379" lon="-1.40794">
        <ele>66</ele>
        <time>2020-12-24T14:17:14.000Z</time>
      </trkpt>
      <trkpt lat="47.23365" lon="-1.408">
        <ele>66</ele>
        <time>2020-12-24T14:17:16.000Z</time>
      </trkpt>
      <trkpt lat="47.2335" lon="-1.40806">
        <ele>67</ele>
        <time>2020-12-24T14:17:18.000Z</time>
      </trkpt>
      <trkpt lat="47.23336" lon="-1.40812">
        <ele>67</ele>
        <time>2020-12-24T14:17:20.000Z</time>
      </trkpt>
      <trkpt lat="47.23322" lon="-1.40817">
        <ele>67</ele>
        <time>2020-12-24T14:17:22.000Z</time>
      </trkpt>
      <trkpt lat="47.23308" lon="-1.40822">
        <ele>67</ele>
        <time>2020-12-24T14:17:24.000Z</time>
      </trkpt>
      <trkpt lat="47.23294" lon="-1.40828">
        <ele>67</ele>
        <time>2020-12-24T14:17:26.000Z</time>
      </trkpt>
      <trkpt lat="47.2328" lon="-1.40834">
        <ele>66</ele>
        <time>2020-12-24T14:17:28.000Z</time>
      </trkpt>
      <trkpt lat="47.23267" lon="-1.40839">
        <ele>67</ele>
        <time>2020-12-24T14:17:30.000Z</time>
      </trkpt>
      <trkpt lat="47.23253" lon="-1.40845">
        <ele>66</ele>
        <time>2020-12-24T14:17:32.000Z</time>
      </trkpt>
      <trkpt lat="47.23239" lon="-1.4085">
        <ele>66</ele>
        <time>2020-12-24T14:17:34.000Z</time>
      </trkpt>
      <trkpt lat="47.23226" lon="-1.40856">
        <ele>66</ele>
        <time>2020-12-24T14:17:36.000Z</time>
      </trkpt>
      <trkpt lat="47.23212" lon="-1.4086">
        <ele>66</ele>
        <time>2020-12-24T14:17:38.000Z</time>
      </trkpt>
      <trkpt lat="47.23198" lon="-1.40865">
        <ele>66</ele>
        <time>2020-12-24T14:17:40.000Z</time>
      </trkpt>
      <trkpt lat="47.23184" lon="-1.40869">
        <ele>66</ele>
        <time>2020-12-24T14:17:42.000Z</time>
      </trkpt>
      <trkpt lat="47.23169" lon="-1.40874">
        <ele>65</ele>
        <time>2020-12-24T14:17:44.000Z</time>
      </trkpt>
      <trkpt lat="47.23155" lon="-1.40879">
        <ele>65</ele>
        <time>2020-12-24T14:17:46.000Z</time>
      </trkpt>
      <trkpt lat="47.23142" lon="-1.40884">
        <ele>64</ele>
        <time>2020-12-24T14:17:48.000Z</time>
      </trkpt>
      <trkpt lat="47.23128" lon="-1.4089">
        <ele>64</ele>
        <time>2020-12-24T14:17:50.000Z</time>
      </trkpt>
      <trkpt lat="47.23107" lon="-1.40898">
        <ele>64</ele>
        <time>2020-12-24T14:17:53.000Z</time>
      </trkpt>
      <trkpt lat="47.23092" lon="-1.40902">
        <ele>64</ele>
        <time>2020-12-24T14:17:55.000Z</time>
      </trkpt>
      <trkpt lat="47.23078" lon="-1.40902">
        <ele>63</ele>
        <time>2020-12-24T14:17:57.000Z</time>
      </trkpt>
      <trkpt lat="47.23064" lon="-1.409">
        <ele>63</ele>
        <time>2020-12-24T14:17:59.000Z</time>
      </trkpt>
      <trkpt lat="47.2305" lon="-1.40893">
        <ele>64</ele>
        <time>2020-12-24T14:18:01.000Z</time>
      </trkpt>
      <trkpt lat="47.23037" lon="-1.40886">
        <ele>63</ele>
        <time>2020-12-24T14:18:03.000Z</time>
      </trkpt>
      <trkpt lat="47.23024" lon="-1.40877">
        <ele>63</ele>
        <time>2020-12-24T14:18:05.000Z</time>
      </trkpt>
      <trkpt lat="47.23012" lon="-1.40868">
        <ele>62</ele>
        <time>2020-12-24T14:18:07.000Z</time>
      </trkpt>
      <trkpt lat="47.23001" lon="-1.4086">
        <ele>62</ele>
        <time>2020-12-24T14:18:09.000Z</time>
      </trkpt>
      <trkpt lat="47.2299" lon="-1.40862">
        <ele>62</ele>
        <time>2020-12-24T14:18:12.000Z</time>
      </trkpt>
      <trkpt lat="47.22984" lon="-1.40872">
        <ele>62</ele>
        <time>2020-12-24T14:18:14.000Z</time>
      </trkpt>
      <trkpt lat="47.22979" lon="-1.40888">
        <ele>62</ele>
        <time>2020-12-24T14:18:16.000Z</time>
      </trkpt>
      <trkpt lat="47.22972" lon="-1.40905">
        <ele>62</ele>
        <time>2020-12-24T14:18:18.000Z</time>
      </trkpt>
      <trkpt lat="47.22965" lon="-1.40922">
        <ele>62</ele>
        <time>2020-12-24T14:18:20.000Z</time>
      </trkpt>
      <trkpt lat="47.22957" lon="-1.40938">
        <ele>62</ele>
        <time>2020-12-24T14:18:22.000Z</time>
      </trkpt>
      <trkpt lat="47.22949" lon="-1.40956">
        <ele>61</ele>
        <time>2020-12-24T14:18:24.000Z</time>
      </trkpt>
      <trkpt lat="47.22942" lon="-1.40974">
        <ele>61</ele>
        <time>2020-12-24T14:18:26.000Z</time>
      </trkpt>
      <trkpt lat="47.22934" lon="-1.40992">
        <ele>61</ele>
        <time>2020-12-24T14:18:28.000Z</time>
      </trkpt>
      <trkpt lat="47.22927" lon="-1.4101">
        <ele>61</ele>
        <time>2020-12-24T14:18:30.000Z</time>
      </trkpt>
      <trkpt lat="47.2292" lon="-1.41029">
        <ele>61</ele>
        <time>2020-12-24T14:18:32.000Z</time>
      </trkpt>
      <trkpt lat="47.22913" lon="-1.41047">
        <ele>61</ele>
        <time>2020-12-24T14:18:34.000Z</time>
      </trkpt>
      <trkpt lat="47.22906" lon="-1.41065">
        <ele>62</ele>
        <time>2020-12-24T14:18:36.000Z</time>
      </trkpt>
      <trkpt lat="47.22899" lon="-1.41083">
        <ele>62</ele>
        <time>2020-12-24T14:18:38.000Z</time>
      </trkpt>
      <trkpt lat="47.22892" lon="-1.411">
        <ele>62</ele>
        <time>2020-12-24T14:18:40.000Z</time>
      </trkpt>
      <trkpt lat="47.22885" lon="-1.41118">
        <ele>61</ele>
        <time>2020-12-24T14:18:42.000Z</time>
      </trkpt>
      <trkpt lat="47.22879" lon="-1.41136">
        <ele>61</ele>
        <time>2020-12-24T14:18:44.000Z</time>
      </trkpt>
      <trkpt lat="47.22872" lon="-1.41153">
        <ele>62</ele>
        <time>2020-12-24T14:18:46.000Z</time>
      </trkpt>
      <trkpt lat="47.22865" lon="-1.41171">
        <ele>62</ele>
        <time>2020-12-24T14:18:48.000Z</time>
      </trkpt>
      <trkpt lat="47.22857" lon="-1.4119">
        <ele>62</ele>
        <time>2020-12-24T14:18:50.000Z</time>
      </trkpt>
      <trkpt lat="47.22851" lon="-1.41207">
        <ele>62</ele>
        <time>2020-12-24T14:18:52.000Z</time>
      </trkpt>
      <trkpt lat="47.22845" lon="-1.41224">
        <ele>63</ele>
        <time>2020-12-24T14:18:54.000Z</time>
      </trkpt>
      <trkpt lat="47.22837" lon="-1.41241">
        <ele>62</ele>
        <time>2020-12-24T14:18:56.000Z</time>
      </trkpt>
      <trkpt lat="47.22831" lon="-1.41257">
        <ele>62</ele>
        <time>2020-12-24T14:18:58.000Z</time>
      </trkpt>
      <trkpt lat="47.22824" lon="-1.41273">
        <ele>62</ele>
        <time>2020-12-24T14:19:00.000Z</time>
      </trkpt>
      <trkpt lat="47.22817" lon="-1.4129">
        <ele>61</ele>
        <time>2020-12-24T14:19:02.000Z</time>
      </trkpt>
      <trkpt lat="47.22811" lon="-1.41306">
        <ele>61</ele>
        <time>2020-12-24T14:19:04.000Z</time>
      </trkpt>
      <trkpt lat="47.22804" lon="-1.41322">
        <ele>61</ele>
        <time>2020-12-24T14:19:06.000Z</time>
      </trkpt>
      <trkpt lat="47.22798" lon="-1.41339">
        <ele>61</ele>
        <time>2020-12-24T14:19:08.000Z</time>
      </trkpt>
      <trkpt lat="47.22791" lon="-1.41355">
        <ele>61</ele>
        <time>2020-12-24T14:19:10.000Z</time>
      </trkpt>
      <trkpt lat="47.22784" lon="-1.41371">
        <ele>61</ele>
        <time>2020-12-24T14:19:12.000Z</time>
      </trkpt>
      <trkpt lat="47.22778" lon="-1.41387">
        <ele>60</ele>
        <time>2020-12-24T14:19:14.000Z</time>
      </trkpt>
      <trkpt lat="47.22772" lon="-1.41403">
        <ele>61</ele>
        <time>2020-12-24T14:19:16.000Z</time>
      </trkpt>
      <trkpt lat="47.22766" lon="-1.41419">
        <ele>61</ele>
        <time>2020-12-24T14:19:18.000Z</time>
      </trkpt>
      <trkpt lat="47.22759" lon="-1.41435">
        <ele>61</ele>
        <time>2020-12-24T14:19:20.000Z</time>
      </trkpt>
      <trkpt lat="47.22753" lon="-1.41451">
        <ele>61</ele>
        <time>2020-12-24T14:19:22.000Z</time>
      </trkpt>
      <trkpt lat="47.22747" lon="-1.41468">
        <ele>62</ele>
        <time>2020-12-24T14:19:24.000Z</time>
      </trkpt>
      <trkpt lat="47.22741" lon="-1.41484">
        <ele>62</ele>
        <time>2020-12-24T14:19:26.000Z</time>
      </trkpt>
      <trkpt lat="47.22736" lon="-1.41499">
        <ele>63</ele>
        <time>2020-12-24T14:19:28.000Z</time>
      </trkpt>
      <trkpt lat="47.2273" lon="-1.41515">
        <ele>63</ele>
        <time>2020-12-24T14:19:30.000Z</time>
      </trkpt>
      <trkpt lat="47.22724" lon="-1.41531">
        <ele>64</ele>
        <time>2020-12-24T14:19:32.000Z</time>
      </trkpt>
      <trkpt lat="47.22718" lon="-1.41547">
        <ele>64</ele>
        <time>2020-12-24T14:19:34.000Z</time>
      </trkpt>
      <trkpt lat="47.22712" lon="-1.41562">
        <ele>64</ele>
        <time>2020-12-24T14:19:36.000Z</time>
      </trkpt>
      <trkpt lat="47.22706" lon="-1.41577">
        <ele>64</ele>
        <time>2020-12-24T14:19:38.000Z</time>
      </trkpt>
      <trkpt lat="47.227" lon="-1.41593">
        <ele>64</ele>
        <time>2020-12-24T14:19:40.000Z</time>
      </trkpt>
      <trkpt lat="47.22693" lon="-1.4161">
        <ele>64</ele>
        <time>2020-12-24T14:19:42.000Z</time>
      </trkpt>
      <trkpt lat="47.22687" lon="-1.41626">
        <ele>64</ele>
        <time>2020-12-24T14:19:44.000Z</time>
      </trkpt>
      <trkpt lat="47.2268" lon="-1.41643">
        <ele>64</ele>
        <time>2020-12-24T14:19:46.000Z</time>
      </trkpt>
      <trkpt lat="47.22673" lon="-1.41659">
        <ele>64</ele>
        <time>2020-12-24T14:19:48.000Z</time>
      </trkpt>
      <trkpt lat="47.22667" lon="-1.41676">
        <ele>64</ele>
        <time>2020-12-24T14:19:50.000Z</time>
      </trkpt>
      <trkpt lat="47.22661" lon="-1.41693">
        <ele>64</ele>
        <time>2020-12-24T14:19:52.000Z</time>
      </trkpt>
      <trkpt lat="47.22654" lon="-1.4171">
        <ele>64</ele>
        <time>2020-12-24T14:19:54.000Z</time>
      </trkpt>
      <trkpt lat="47.22648" lon="-1.41727">
        <ele>65</ele>
        <time>2020-12-24T14:19:56.000Z</time>
      </trkpt>
      <trkpt lat="47.22642" lon="-1.41743">
        <ele>65</ele>
        <time>2020-12-24T14:19:58.000Z</time>
      </trkpt>
      <trkpt lat="47.22636" lon="-1.4176">
        <ele>65</ele>
        <time>2020-12-24T14:20:00.000Z</time>
      </trkpt>
      <trkpt lat="47.22628" lon="-1.41777">
        <ele>65</ele>
        <time>2020-12-24T14:20:02.000Z</time>
      </trkpt>
      <trkpt lat="47.22621" lon="-1.41795">
        <ele>65</ele>
        <time>2020-12-24T14:20:04.000Z</time>
      </trkpt>
      <trkpt lat="47.22614" lon="-1.41812">
        <ele>65</ele>
        <time>2020-12-24T14:20:06.000Z</time>
      </trkpt>
      <trkpt lat="47.22608" lon="-1.4183">
        <ele>65</ele>
        <time>2020-12-24T14:20:08.000Z</time>
      </trkpt>
      <trkpt lat="47.226" lon="-1.41847">
        <ele>64</ele>
        <time>2020-12-24T14:20:10.000Z</time>
      </trkpt>
      <trkpt lat="47.22593" lon="-1.41864">
        <ele>64</ele>
        <time>2020-12-24T14:20:12.000Z</time>
      </trkpt>
      <trkpt lat="47.22587" lon="-1.41882">
        <ele>63</ele>
        <time>2020-12-24T14:20:14.000Z</time>
      </trkpt>
      <trkpt lat="47.22579" lon="-1.41901">
        <ele>62</ele>
        <time>2020-12-24T14:20:16.000Z</time>
      </trkpt>
      <trkpt lat="47.22572" lon="-1.41918">
        <ele>62</ele>
        <time>2020-12-24T14:20:18.000Z</time>
      </trkpt>
      <trkpt lat="47.22566" lon="-1.41937">
        <ele>62</ele>
        <time>2020-12-24T14:20:20.000Z</time>
      </trkpt>
      <trkpt lat="47.22559" lon="-1.41954">
        <ele>63</ele>
        <time>2020-12-24T14:20:22.000Z</time>
      </trkpt>
      <trkpt lat="47.22552" lon="-1.4197">
        <ele>63</ele>
        <time>2020-12-24T14:20:24.000Z</time>
      </trkpt>
      <trkpt lat="47.22545" lon="-1.41987">
        <ele>64</ele>
        <time>2020-12-24T14:20:26.000Z</time>
      </trkpt>
      <trkpt lat="47.22538" lon="-1.42003">
        <ele>64</ele>
        <time>2020-12-24T14:20:28.000Z</time>
      </trkpt>
      <trkpt lat="47.22532" lon="-1.42021">
        <ele>65</ele>
        <time>2020-12-24T14:20:30.000Z</time>
      </trkpt>
      <trkpt lat="47.22526" lon="-1.42038">
        <ele>65</ele>
        <time>2020-12-24T14:20:32.000Z</time>
      </trkpt>
      <trkpt lat="47.2252" lon="-1.42056">
        <ele>64</ele>
        <time>2020-12-24T14:20:34.000Z</time>
      </trkpt>
      <trkpt lat="47.22513" lon="-1.42072">
        <ele>64</ele>
        <time>2020-12-24T14:20:36.000Z</time>
      </trkpt>
      <trkpt lat="47.22507" lon="-1.42089">
        <ele>64</ele>
        <time>2020-12-24T14:20:38.000Z</time>
      </trkpt>
      <trkpt lat="47.22501" lon="-1.42105">
        <ele>64</ele>
        <time>2020-12-24T14:20:40.000Z</time>
      </trkpt>
      <trkpt lat="47.22494" lon="-1.42122">
        <ele>64</ele>
        <time>2020-12-24T14:20:42.000Z</time>
      </trkpt>
      <trkpt lat="47.22488" lon="-1.42139">
        <ele>63</ele>
        <time>2020-12-24T14:20:44.000Z</time>
      </trkpt>
      <trkpt lat="47.22481" lon="-1.42156">
        <ele>62</ele>
        <time>2020-12-24T14:20:46.000Z</time>
      </trkpt>
      <trkpt lat="47.22475" lon="-1.42173">
        <ele>62</ele>
        <time>2020-12-24T14:20:48.000Z</time>
      </trkpt>
      <trkpt lat="47.22469" lon="-1.42191">
        <ele>61</ele>
        <time>2020-12-24T14:20:50.000Z</time>
      </trkpt>
      <trkpt lat="47.22462" lon="-1.42209">
        <ele>61</ele>
        <time>2020-12-24T14:20:52.000Z</time>
      </trkpt>
      <trkpt lat="47.22456" lon="-1.42228">
        <ele>60</ele>
        <time>2020-12-24T14:20:54.000Z</time>
      </trkpt>
      <trkpt lat="47.22449" lon="-1.42246">
        <ele>60</ele>
        <time>2020-12-24T14:20:56.000Z</time>
      </trkpt>
      <trkpt lat="47.22443" lon="-1.42264">
        <ele>60</ele>
        <time>2020-12-24T14:20:58.000Z</time>
      </trkpt>
      <trkpt lat="47.22436" lon="-1.42283">
        <ele>59</ele>
        <time>2020-12-24T14:21:00.000Z</time>
      </trkpt>
      <trkpt lat="47.22429" lon="-1.42301">
        <ele>59</ele>
        <time>2020-12-24T14:21:02.000Z</time>
      </trkpt>
      <trkpt lat="47.22422" lon="-1.42319">
        <ele>58</ele>
        <time>2020-12-24T14:21:04.000Z</time>
      </trkpt>
      <trkpt lat="47.22416" lon="-1.42337">
        <ele>57</ele>
        <time>2020-12-24T14:21:06.000Z</time>
      </trkpt>
      <trkpt lat="47.22409" lon="-1.42356">
        <ele>57</ele>
        <time>2020-12-24T14:21:08.000Z</time>
      </trkpt>
      <trkpt lat="47.22402" lon="-1.42374">
        <ele>57</ele>
        <time>2020-12-24T14:21:10.000Z</time>
      </trkpt>
      <trkpt lat="47.22395" lon="-1.42393">
        <ele>56</ele>
        <time>2020-12-24T14:21:12.000Z</time>
      </trkpt>
      <trkpt lat="47.22389" lon="-1.4241">
        <ele>56</ele>
        <time>2020-12-24T14:21:14.000Z</time>
      </trkpt>
      <trkpt lat="47.22382" lon="-1.42428">
        <ele>56</ele>
        <time>2020-12-24T14:21:16.000Z</time>
      </trkpt>
      <trkpt lat="47.22375" lon="-1.42446">
        <ele>55</ele>
        <time>2020-12-24T14:21:18.000Z</time>
      </trkpt>
      <trkpt lat="47.22369" lon="-1.42463">
        <ele>55</ele>
        <time>2020-12-24T14:21:20.000Z</time>
      </trkpt>
      <trkpt lat="47.22362" lon="-1.4248">
        <ele>55</ele>
        <time>2020-12-24T14:21:22.000Z</time>
      </trkpt>
      <trkpt lat="47.22356" lon="-1.42498">
        <ele>55</ele>
        <time>2020-12-24T14:21:24.000Z</time>
      </trkpt>
      <trkpt lat="47.22349" lon="-1.42515">
        <ele>54</ele>
        <time>2020-12-24T14:21:26.000Z</time>
      </trkpt>
      <trkpt lat="47.22343" lon="-1.42532">
        <ele>54</ele>
        <time>2020-12-24T14:21:28.000Z</time>
      </trkpt>
      <trkpt lat="47.22337" lon="-1.42548">
        <ele>54</ele>
        <time>2020-12-24T14:21:30.000Z</time>
      </trkpt>
      <trkpt lat="47.22332" lon="-1.42564">
        <ele>55</ele>
        <time>2020-12-24T14:21:32.000Z</time>
      </trkpt>
      <trkpt lat="47.22326" lon="-1.42579">
        <ele>55</ele>
        <time>2020-12-24T14:21:34.000Z</time>
      </trkpt>
      <trkpt lat="47.22321" lon="-1.42594">
        <ele>56</ele>
        <time>2020-12-24T14:21:36.000Z</time>
      </trkpt>
      <trkpt lat="47.22315" lon="-1.42611">
        <ele>57</ele>
        <time>2020-12-24T14:21:38.000Z</time>
      </trkpt>
      <trkpt lat="47.22309" lon="-1.42627">
        <ele>57</ele>
        <time>2020-12-24T14:21:40.000Z</time>
      </trkpt>
      <trkpt lat="47.22303" lon="-1.42643">
        <ele>58</ele>
        <time>2020-12-24T14:21:42.000Z</time>
      </trkpt>
      <trkpt lat="47.22297" lon="-1.4266">
        <ele>58</ele>
        <time>2020-12-24T14:21:44.000Z</time>
      </trkpt>
      <trkpt lat="47.22292" lon="-1.42676">
        <ele>58</ele>
        <time>2020-12-24T14:21:46.000Z</time>
      </trkpt>
      <trkpt lat="47.22286" lon="-1.42693">
        <ele>58</ele>
        <time>2020-12-24T14:21:48.000Z</time>
      </trkpt>
      <trkpt lat="47.2228" lon="-1.42709">
        <ele>58</ele>
        <time>2020-12-24T14:21:50.000Z</time>
      </trkpt>
      <trkpt lat="47.22275" lon="-1.42725">
        <ele>58</ele>
        <time>2020-12-24T14:21:52.000Z</time>
      </trkpt>
      <trkpt lat="47.22269" lon="-1.4274">
        <ele>58</ele>
        <time>2020-12-24T14:21:54.000Z</time>
      </trkpt>
      <trkpt lat="47.22264" lon="-1.42756">
        <ele>58</ele>
        <time>2020-12-24T14:21:56.000Z</time>
      </trkpt>
      <trkpt lat="47.22258" lon="-1.42772">
        <ele>58</ele>
        <time>2020-12-24T14:21:58.000Z</time>
      </trkpt>
      <trkpt lat="47.22252" lon="-1.42788">
        <ele>58</ele>
        <time>2020-12-24T14:22:00.000Z</time>
      </trkpt>
      <trkpt lat="47.22246" lon="-1.42804">
        <ele>58</ele>
        <time>2020-12-24T14:22:02.000Z</time>
      </trkpt>
      <trkpt lat="47.22241" lon="-1.4282">
        <ele>59</ele>
        <time>2020-12-24T14:22:04.000Z</time>
      </trkpt>
      <trkpt lat="47.22235" lon="-1.42837">
        <ele>59</ele>
        <time>2020-12-24T14:22:06.000Z</time>
      </trkpt>
      <trkpt lat="47.2223" lon="-1.42854">
        <ele>59</ele>
        <time>2020-12-24T14:22:08.000Z</time>
      </trkpt>
      <trkpt lat="47.22223" lon="-1.4287">
        <ele>59</ele>
        <time>2020-12-24T14:22:10.000Z</time>
      </trkpt>
      <trkpt lat="47.22217" lon="-1.42886">
        <ele>59</ele>
        <time>2020-12-24T14:22:12.000Z</time>
      </trkpt>
      <trkpt lat="47.22211" lon="-1.42903">
        <ele>59</ele>
        <time>2020-12-24T14:22:14.000Z</time>
      </trkpt>
      <trkpt lat="47.22204" lon="-1.4292">
        <ele>59</ele>
        <time>2020-12-24T14:22:16.000Z</time>
      </trkpt>
      <trkpt lat="47.22198" lon="-1.42937">
        <ele>59</ele>
        <time>2020-12-24T14:22:18.000Z</time>
      </trkpt>
      <trkpt lat="47.22192" lon="-1.42954">
        <ele>59</ele>
        <time>2020-12-24T14:22:20.000Z</time>
      </trkpt>
      <trkpt lat="47.22186" lon="-1.4297">
        <ele>58</ele>
        <time>2020-12-24T14:22:22.000Z</time>
      </trkpt>
      <trkpt lat="47.2218" lon="-1.42988">
        <ele>58</ele>
        <time>2020-12-24T14:22:24.000Z</time>
      </trkpt>
      <trkpt lat="47.22173" lon="-1.43005">
        <ele>58</ele>
        <time>2020-12-24T14:22:26.000Z</time>
      </trkpt>
      <trkpt lat="47.22167" lon="-1.43022">
        <ele>58</ele>
        <time>2020-12-24T14:22:28.000Z</time>
      </trkpt>
      <trkpt lat="47.22161" lon="-1.43039">
        <ele>58</ele>
        <time>2020-12-24T14:22:30.000Z</time>
      </trkpt>
      <trkpt lat="47.22155" lon="-1.43056">
        <ele>58</ele>
        <time>2020-12-24T14:22:32.000Z</time>
      </trkpt>
      <trkpt lat="47.22148" lon="-1.43073">
        <ele>58</ele>
        <time>2020-12-24T14:22:34.000Z</time>
      </trkpt>
      <trkpt lat="47.22142" lon="-1.4309">
        <ele>58</ele>
        <time>2020-12-24T14:22:36.000Z</time>
      </trkpt>
      <trkpt lat="47.22134" lon="-1.43107">
        <ele>58</ele>
        <time>2020-12-24T14:22:38.000Z</time>
      </trkpt>
      <trkpt lat="47.22127" lon="-1.43123">
        <ele>59</ele>
        <time>2020-12-24T14:22:40.000Z</time>
      </trkpt>
      <trkpt lat="47.22118" lon="-1.43138">
        <ele>59</ele>
        <time>2020-12-24T14:22:42.000Z</time>
      </trkpt>
      <trkpt lat="47.22109" lon="-1.43153">
        <ele>59</ele>
        <time>2020-12-24T14:22:44.000Z</time>
      </trkpt>
      <trkpt lat="47.22099" lon="-1.43168">
        <ele>58</ele>
        <time>2020-12-24T14:22:46.000Z</time>
      </trkpt>
      <trkpt lat="47.22089" lon="-1.43182">
        <ele>58</ele>
        <time>2020-12-24T14:22:48.000Z</time>
      </trkpt>
      <trkpt lat="47.22081" lon="-1.43197">
        <ele>58</ele>
        <time>2020-12-24T14:22:50.000Z</time>
      </trkpt>
      <trkpt lat="47.22072" lon="-1.43212">
        <ele>58</ele>
        <time>2020-12-24T14:22:52.000Z</time>
      </trkpt>
      <trkpt lat="47.22064" lon="-1.43227">
        <ele>58</ele>
        <time>2020-12-24T14:22:54.000Z</time>
      </trkpt>
      <trkpt lat="47.22055" lon="-1.43241">
        <ele>58</ele>
        <time>2020-12-24T14:22:56.000Z</time>
      </trkpt>
      <trkpt lat="47.22045" lon="-1.43255">
        <ele>58</ele>
        <time>2020-12-24T14:22:58.000Z</time>
      </trkpt>
      <trkpt lat="47.22036" lon="-1.4327">
        <ele>58</ele>
        <time>2020-12-24T14:23:00.000Z</time>
      </trkpt>
      <trkpt lat="47.22026" lon="-1.43285">
        <ele>58</ele>
        <time>2020-12-24T14:23:02.000Z</time>
      </trkpt>
      <trkpt lat="47.22016" lon="-1.43301">
        <ele>58</ele>
        <time>2020-12-24T14:23:04.000Z</time>
      </trkpt>
      <trkpt lat="47.22007" lon="-1.43317">
        <ele>58</ele>
        <time>2020-12-24T14:23:06.000Z</time>
      </trkpt>
      <trkpt lat="47.21997" lon="-1.43332">
        <ele>58</ele>
        <time>2020-12-24T14:23:08.000Z</time>
      </trkpt>
      <trkpt lat="47.21987" lon="-1.43347">
        <ele>57</ele>
        <time>2020-12-24T14:23:10.000Z</time>
      </trkpt>
      <trkpt lat="47.21977" lon="-1.43362">
        <ele>57</ele>
        <time>2020-12-24T14:23:12.000Z</time>
      </trkpt>
      <trkpt lat="47.21966" lon="-1.43378">
        <ele>58</ele>
        <time>2020-12-24T14:23:14.000Z</time>
      </trkpt>
      <trkpt lat="47.21956" lon="-1.43394">
        <ele>57</ele>
        <time>2020-12-24T14:23:16.000Z</time>
      </trkpt>
      <trkpt lat="47.21944" lon="-1.43408">
        <ele>57</ele>
        <time>2020-12-24T14:23:18.000Z</time>
      </trkpt>
      <trkpt lat="47.21933" lon="-1.4342">
        <ele>57</ele>
        <time>2020-12-24T14:23:20.000Z</time>
      </trkpt>
      <trkpt lat="47.21921" lon="-1.43433">
        <ele>58</ele>
        <time>2020-12-24T14:23:22.000Z</time>
      </trkpt>
      <trkpt lat="47.21909" lon="-1.43443">
        <ele>57</ele>
        <time>2020-12-24T14:23:24.000Z</time>
      </trkpt>
      <trkpt lat="47.21897" lon="-1.43453">
        <ele>57</ele>
        <time>2020-12-24T14:23:26.000Z</time>
      </trkpt>
      <trkpt lat="47.21885" lon="-1.43463">
        <ele>57</ele>
        <time>2020-12-24T14:23:28.000Z</time>
      </trkpt>
      <trkpt lat="47.21873" lon="-1.43472">
        <ele>57</ele>
        <time>2020-12-24T14:23:30.000Z</time>
      </trkpt>
      <trkpt lat="47.2186" lon="-1.43482">
        <ele>57</ele>
        <time>2020-12-24T14:23:32.000Z</time>
      </trkpt>
      <trkpt lat="47.21847" lon="-1.4349">
        <ele>57</ele>
        <time>2020-12-24T14:23:34.000Z</time>
      </trkpt>
      <trkpt lat="47.21835" lon="-1.435">
        <ele>57</ele>
        <time>2020-12-24T14:23:36.000Z</time>
      </trkpt>
      <trkpt lat="47.21822" lon="-1.43509">
        <ele>57</ele>
        <time>2020-12-24T14:23:38.000Z</time>
      </trkpt>
      <trkpt lat="47.2181" lon="-1.43518">
        <ele>57</ele>
        <time>2020-12-24T14:23:40.000Z</time>
      </trkpt>
      <trkpt lat="47.21798" lon="-1.43528">
        <ele>57</ele>
        <time>2020-12-24T14:23:42.000Z</time>
      </trkpt>
      <trkpt lat="47.21787" lon="-1.43537">
        <ele>59</ele>
        <time>2020-12-24T14:23:44.000Z</time>
      </trkpt>
      <trkpt lat="47.21776" lon="-1.43547">
        <ele>60</ele>
        <time>2020-12-24T14:23:46.000Z</time>
      </trkpt>
      <trkpt lat="47.21764" lon="-1.43556">
        <ele>60</ele>
        <time>2020-12-24T14:23:48.000Z</time>
      </trkpt>
      <trkpt lat="47.21751" lon="-1.43565">
        <ele>60</ele>
        <time>2020-12-24T14:23:50.000Z</time>
      </trkpt>
      <trkpt lat="47.21738" lon="-1.43574">
        <ele>59</ele>
        <time>2020-12-24T14:23:52.000Z</time>
      </trkpt>
      <trkpt lat="47.21726" lon="-1.43583">
        <ele>59</ele>
        <time>2020-12-24T14:23:54.000Z</time>
      </trkpt>
      <trkpt lat="47.21714" lon="-1.43592">
        <ele>59</ele>
        <time>2020-12-24T14:23:56.000Z</time>
      </trkpt>
      <trkpt lat="47.21702" lon="-1.43601">
        <ele>59</ele>
        <time>2020-12-24T14:23:58.000Z</time>
      </trkpt>
      <trkpt lat="47.21689" lon="-1.4361">
        <ele>58</ele>
        <time>2020-12-24T14:24:00.000Z</time>
      </trkpt>
      <trkpt lat="47.21678" lon="-1.4362">
        <ele>58</ele>
        <time>2020-12-24T14:24:02.000Z</time>
      </trkpt>
      <trkpt lat="47.21667" lon="-1.4363">
        <ele>58</ele>
        <time>2020-12-24T14:24:04.000Z</time>
      </trkpt>
      <trkpt lat="47.21656" lon="-1.43639">
        <ele>58</ele>
        <time>2020-12-24T14:24:06.000Z</time>
      </trkpt>
      <trkpt lat="47.21645" lon="-1.4365">
        <ele>57</ele>
        <time>2020-12-24T14:24:08.000Z</time>
      </trkpt>
      <trkpt lat="47.21636" lon="-1.43662">
        <ele>57</ele>
        <time>2020-12-24T14:24:10.000Z</time>
      </trkpt>
      <trkpt lat="47.21631" lon="-1.43679">
        <ele>58</ele>
        <time>2020-12-24T14:24:12.000Z</time>
      </trkpt>
      <trkpt lat="47.21627" lon="-1.43698">
        <ele>58</ele>
        <time>2020-12-24T14:24:14.000Z</time>
      </trkpt>
      <trkpt lat="47.21626" lon="-1.43718">
        <ele>57</ele>
        <time>2020-12-24T14:24:16.000Z</time>
      </trkpt>
      <trkpt lat="47.21624" lon="-1.43739">
        <ele>56</ele>
        <time>2020-12-24T14:24:18.000Z</time>
      </trkpt>
      <trkpt lat="47.21622" lon="-1.43761">
        <ele>55</ele>
        <time>2020-12-24T14:24:20.000Z</time>
      </trkpt>
      <trkpt lat="47.2162" lon="-1.43782">
        <ele>55</ele>
        <time>2020-12-24T14:24:22.000Z</time>
      </trkpt>
      <trkpt lat="47.21618" lon="-1.43803">
        <ele>55</ele>
        <time>2020-12-24T14:24:24.000Z</time>
      </trkpt>
      <trkpt lat="47.21616" lon="-1.43823">
        <ele>55</ele>
        <time>2020-12-24T14:24:26.000Z</time>
      </trkpt>
      <trkpt lat="47.21615" lon="-1.43842">
        <ele>54</ele>
        <time>2020-12-24T14:24:28.000Z</time>
      </trkpt>
      <trkpt lat="47.21613" lon="-1.43862">
        <ele>54</ele>
        <time>2020-12-24T14:24:30.000Z</time>
      </trkpt>
      <trkpt lat="47.21611" lon="-1.43884">
        <ele>54</ele>
        <time>2020-12-24T14:24:32.000Z</time>
      </trkpt>
      <trkpt lat="47.2161" lon="-1.43907">
        <ele>54</ele>
        <time>2020-12-24T14:24:34.000Z</time>
      </trkpt>
      <trkpt lat="47.21609" lon="-1.43931">
        <ele>55</ele>
        <time>2020-12-24T14:24:36.000Z</time>
      </trkpt>
      <trkpt lat="47.21607" lon="-1.43954">
        <ele>55</ele>
        <time>2020-12-24T14:24:38.000Z</time>
      </trkpt>
      <trkpt lat="47.21606" lon="-1.43977">
        <ele>54</ele>
        <time>2020-12-24T14:24:40.000Z</time>
      </trkpt>
      <trkpt lat="47.21602" lon="-1.43999">
        <ele>54</ele>
        <time>2020-12-24T14:24:42.000Z</time>
      </trkpt>
      <trkpt lat="47.21598" lon="-1.4402">
        <ele>54</ele>
        <time>2020-12-24T14:24:44.000Z</time>
      </trkpt>
      <trkpt lat="47.21593" lon="-1.44041">
        <ele>54</ele>
        <time>2020-12-24T14:24:46.000Z</time>
      </trkpt>
      <trkpt lat="47.21589" lon="-1.44062">
        <ele>54</ele>
        <time>2020-12-24T14:24:48.000Z</time>
      </trkpt>
      <trkpt lat="47.21586" lon="-1.44083">
        <ele>54</ele>
        <time>2020-12-24T14:24:50.000Z</time>
      </trkpt>
      <trkpt lat="47.21584" lon="-1.44105">
        <ele>53</ele>
        <time>2020-12-24T14:24:52.000Z</time>
      </trkpt>
      <trkpt lat="47.21586" lon="-1.44126">
        <ele>53</ele>
        <time>2020-12-24T14:24:54.000Z</time>
      </trkpt>
      <trkpt lat="47.2159" lon="-1.44146">
        <ele>53</ele>
        <time>2020-12-24T14:24:56.000Z</time>
      </trkpt>
      <trkpt lat="47.21596" lon="-1.44164">
        <ele>53</ele>
        <time>2020-12-24T14:24:58.000Z</time>
      </trkpt>
      <trkpt lat="47.21604" lon="-1.44181">
        <ele>53</ele>
        <time>2020-12-24T14:25:00.000Z</time>
      </trkpt>
      <trkpt lat="47.21611" lon="-1.44199">
        <ele>53</ele>
        <time>2020-12-24T14:25:02.000Z</time>
      </trkpt>
      <trkpt lat="47.21619" lon="-1.44217">
        <ele>53</ele>
        <time>2020-12-24T14:25:04.000Z</time>
      </trkpt>
      <trkpt lat="47.21626" lon="-1.44234">
        <ele>53</ele>
        <time>2020-12-24T14:25:06.000Z</time>
      </trkpt>
      <trkpt lat="47.21633" lon="-1.4425">
        <ele>53</ele>
        <time>2020-12-24T14:25:08.000Z</time>
      </trkpt>
      <trkpt lat="47.2164" lon="-1.44267">
        <ele>53</ele>
        <time>2020-12-24T14:25:10.000Z</time>
      </trkpt>
      <trkpt lat="47.21647" lon="-1.44283">
        <ele>52</ele>
        <time>2020-12-24T14:25:12.000Z</time>
      </trkpt>
      <trkpt lat="47.21654" lon="-1.443">
        <ele>52</ele>
        <time>2020-12-24T14:25:14.000Z</time>
      </trkpt>
      <trkpt lat="47.21663" lon="-1.44314">
        <ele>52</ele>
        <time>2020-12-24T14:25:16.000Z</time>
      </trkpt>
      <trkpt lat="47.21672" lon="-1.44327">
        <ele>52</ele>
        <time>2020-12-24T14:25:18.000Z</time>
      </trkpt>
      <trkpt lat="47.21682" lon="-1.44338">
        <ele>52</ele>
        <time>2020-12-24T14:25:20.000Z</time>
      </trkpt>
      <trkpt lat="47.21694" lon="-1.44348">
        <ele>52</ele>
        <time>2020-12-24T14:25:22.000Z</time>
      </trkpt>
      <trkpt lat="47.21707" lon="-1.44356">
        <ele>52</ele>
        <time>2020-12-24T14:25:24.000Z</time>
      </trkpt>
      <trkpt lat="47.21719" lon="-1.44365">
        <ele>52</ele>
        <time>2020-12-24T14:25:26.000Z</time>
      </trkpt>
      <trkpt lat="47.21731" lon="-1.44373">
        <ele>52</ele>
        <time>2020-12-24T14:25:28.000Z</time>
      </trkpt>
      <trkpt lat="47.21742" lon="-1.44382">
        <ele>53</ele>
        <time>2020-12-24T14:25:30.000Z</time>
      </trkpt>
      <trkpt lat="47.21752" lon="-1.44392">
        <ele>53</ele>
        <time>2020-12-24T14:25:32.000Z</time>
      </trkpt>
      <trkpt lat="47.21763" lon="-1.44405">
        <ele>53</ele>
        <time>2020-12-24T14:25:34.000Z</time>
      </trkpt>
      <trkpt lat="47.21772" lon="-1.4442">
        <ele>54</ele>
        <time>2020-12-24T14:25:36.000Z</time>
      </trkpt>
      <trkpt lat="47.21779" lon="-1.44437">
        <ele>54</ele>
        <time>2020-12-24T14:25:38.000Z</time>
      </trkpt>
      <trkpt lat="47.21785" lon="-1.44456">
        <ele>54</ele>
        <time>2020-12-24T14:25:40.000Z</time>
      </trkpt>
      <trkpt lat="47.21788" lon="-1.44476">
        <ele>54</ele>
        <time>2020-12-24T14:25:42.000Z</time>
      </trkpt>
      <trkpt lat="47.2179" lon="-1.44496">
        <ele>54</ele>
        <time>2020-12-24T14:25:44.000Z</time>
      </trkpt>
      <trkpt lat="47.21791" lon="-1.44517">
        <ele>54</ele>
        <time>2020-12-24T14:25:46.000Z</time>
      </trkpt>
      <trkpt lat="47.21792" lon="-1.44537">
        <ele>53</ele>
        <time>2020-12-24T14:25:48.000Z</time>
      </trkpt>
      <trkpt lat="47.21793" lon="-1.44556">
        <ele>53</ele>
        <time>2020-12-24T14:25:50.000Z</time>
      </trkpt>
      <trkpt lat="47.21795" lon="-1.44575">
        <ele>53</ele>
        <time>2020-12-24T14:25:52.000Z</time>
      </trkpt>
      <trkpt lat="47.218" lon="-1.44593">
        <ele>52</ele>
        <time>2020-12-24T14:25:54.000Z</time>
      </trkpt>
      <trkpt lat="47.21807" lon="-1.4461">
        <ele>52</ele>
        <time>2020-12-24T14:25:56.000Z</time>
      </trkpt>
      <trkpt lat="47.21816" lon="-1.44625">
        <ele>51</ele>
        <time>2020-12-24T14:25:58.000Z</time>
      </trkpt>
      <trkpt lat="47.21826" lon="-1.44637">
        <ele>51</ele>
        <time>2020-12-24T14:26:00.000Z</time>
      </trkpt>
      <trkpt lat="47.21838" lon="-1.44641">
        <ele>52</ele>
        <time>2020-12-24T14:26:02.000Z</time>
      </trkpt>
      <trkpt lat="47.21849" lon="-1.4465">
        <ele>53</ele>
        <time>2020-12-24T14:26:04.000Z</time>
      </trkpt>
      <trkpt lat="47.21858" lon="-1.44662">
        <ele>53</ele>
        <time>2020-12-24T14:26:06.000Z</time>
      </trkpt>
      <trkpt lat="47.21871" lon="-1.4467">
        <ele>52</ele>
        <time>2020-12-24T14:26:08.000Z</time>
      </trkpt>
      <trkpt lat="47.21883" lon="-1.44679">
        <ele>52</ele>
        <time>2020-12-24T14:26:10.000Z</time>
      </trkpt>
      <trkpt lat="47.21895" lon="-1.44688">
        <ele>52</ele>
        <time>2020-12-24T14:26:12.000Z</time>
      </trkpt>
      <trkpt lat="47.21906" lon="-1.44697">
        <ele>51</ele>
        <time>2020-12-24T14:26:14.000Z</time>
      </trkpt>
      <trkpt lat="47.21918" lon="-1.44706">
        <ele>52</ele>
        <time>2020-12-24T14:26:16.000Z</time>
      </trkpt>
      <trkpt lat="47.2193" lon="-1.44716">
        <ele>52</ele>
        <time>2020-12-24T14:26:18.000Z</time>
      </trkpt>
      <trkpt lat="47.21941" lon="-1.44725">
        <ele>52</ele>
        <time>2020-12-24T14:26:20.000Z</time>
      </trkpt>
      <trkpt lat="47.21953" lon="-1.44734">
        <ele>52</ele>
        <time>2020-12-24T14:26:22.000Z</time>
      </trkpt>
      <trkpt lat="47.21964" lon="-1.44742">
        <ele>52</ele>
        <time>2020-12-24T14:26:24.000Z</time>
      </trkpt>
      <trkpt lat="47.21975" lon="-1.44751">
        <ele>51</ele>
        <time>2020-12-24T14:26:26.000Z</time>
      </trkpt>
      <trkpt lat="47.21985" lon="-1.44763">
        <ele>51</ele>
        <time>2020-12-24T14:26:28.000Z</time>
      </trkpt>
      <trkpt lat="47.21995" lon="-1.44775">
        <ele>52</ele>
        <time>2020-12-24T14:26:30.000Z</time>
      </trkpt>
      <trkpt lat="47.22004" lon="-1.4479">
        <ele>52</ele>
        <time>2020-12-24T14:26:32.000Z</time>
      </trkpt>
      <trkpt lat="47.22011" lon="-1.44807">
        <ele>52</ele>
        <time>2020-12-24T14:26:34.000Z</time>
      </trkpt>
      <trkpt lat="47.22016" lon="-1.44827">
        <ele>52</ele>
        <time>2020-12-24T14:26:36.000Z</time>
      </trkpt>
      <trkpt lat="47.22019" lon="-1.44848">
        <ele>52</ele>
        <time>2020-12-24T14:26:38.000Z</time>
      </trkpt>
      <trkpt lat="47.22018" lon="-1.4487">
        <ele>53</ele>
        <time>2020-12-24T14:26:40.000Z</time>
      </trkpt>
      <trkpt lat="47.22017" lon="-1.44892">
        <ele>52</ele>
        <time>2020-12-24T14:26:42.000Z</time>
      </trkpt>
      <trkpt lat="47.22015" lon="-1.44913">
        <ele>52</ele>
        <time>2020-12-24T14:26:44.000Z</time>
      </trkpt>
      <trkpt lat="47.22013" lon="-1.44933">
        <ele>52</ele>
        <time>2020-12-24T14:26:46.000Z</time>
      </trkpt>
      <trkpt lat="47.22011" lon="-1.44953">
        <ele>52</ele>
        <time>2020-12-24T14:26:48.000Z</time>
      </trkpt>
      <trkpt lat="47.2201" lon="-1.44974">
        <ele>52</ele>
        <time>2020-12-24T14:26:50.000Z</time>
      </trkpt>
      <trkpt lat="47.22009" lon="-1.44996">
        <ele>52</ele>
        <time>2020-12-24T14:26:52.000Z</time>
      </trkpt>
      <trkpt lat="47.22009" lon="-1.45017">
        <ele>52</ele>
        <time>2020-12-24T14:26:54.000Z</time>
      </trkpt>
      <trkpt lat="47.22009" lon="-1.45038">
        <ele>52</ele>
        <time>2020-12-24T14:26:56.000Z</time>
      </trkpt>
      <trkpt lat="47.22008" lon="-1.45058">
        <ele>52</ele>
        <time>2020-12-24T14:26:58.000Z</time>
      </trkpt>
      <trkpt lat="47.22007" lon="-1.45078">
        <ele>52</ele>
        <time>2020-12-24T14:27:00.000Z</time>
      </trkpt>
      <trkpt lat="47.22008" lon="-1.45098">
        <ele>52</ele>
        <time>2020-12-24T14:27:02.000Z</time>
      </trkpt>
      <trkpt lat="47.22007" lon="-1.45116">
        <ele>52</ele>
        <time>2020-12-24T14:27:04.000Z</time>
      </trkpt>
      <trkpt lat="47.22004" lon="-1.45132">
        <ele>53</ele>
        <time>2020-12-24T14:27:06.000Z</time>
      </trkpt>
      <trkpt lat="47.22" lon="-1.45149">
        <ele>53</ele>
        <time>2020-12-24T14:27:08.000Z</time>
      </trkpt>
      <trkpt lat="47.21996" lon="-1.45165">
        <ele>53</ele>
        <time>2020-12-24T14:27:10.000Z</time>
      </trkpt>
      <trkpt lat="47.21985" lon="-1.45177">
        <ele>53</ele>
        <time>2020-12-24T14:27:12.000Z</time>
      </trkpt>
      <trkpt lat="47.2198" lon="-1.45194">
        <ele>52</ele>
        <time>2020-12-24T14:27:14.000Z</time>
      </trkpt>
      <trkpt lat="47.21979" lon="-1.45214">
        <ele>52</ele>
        <time>2020-12-24T14:27:16.000Z</time>
      </trkpt>
      <trkpt lat="47.21977" lon="-1.45232">
        <ele>53</ele>
        <time>2020-12-24T14:27:18.000Z</time>
      </trkpt>
      <trkpt lat="47.21973" lon="-1.45251">
        <ele>53</ele>
        <time>2020-12-24T14:27:20.000Z</time>
      </trkpt>
      <trkpt lat="47.21967" lon="-1.45266">
        <ele>53</ele>
        <time>2020-12-24T14:27:22.000Z</time>
      </trkpt>
      <trkpt lat="47.21957" lon="-1.45277">
        <ele>53</ele>
        <time>2020-12-24T14:27:24.000Z</time>
      </trkpt>
      <trkpt lat="47.21947" lon="-1.45288">
        <ele>53</ele>
        <time>2020-12-24T14:27:26.000Z</time>
      </trkpt>
      <trkpt lat="47.21941" lon="-1.45304">
        <ele>52</ele>
        <time>2020-12-24T14:27:28.000Z</time>
      </trkpt>
      <trkpt lat="47.21939" lon="-1.45322">
        <ele>52</ele>
        <time>2020-12-24T14:27:30.000Z</time>
      </trkpt>
      <trkpt lat="47.21934" lon="-1.45339">
        <ele>52</ele>
        <time>2020-12-24T14:27:32.000Z</time>
      </trkpt>
      <trkpt lat="47.21935" lon="-1.45358">
        <ele>53</ele>
        <time>2020-12-24T14:27:34.000Z</time>
      </trkpt>
      <trkpt lat="47.21939" lon="-1.45376">
        <ele>54</ele>
        <time>2020-12-24T14:27:36.000Z</time>
      </trkpt>
      <trkpt lat="47.21943" lon="-1.45393">
        <ele>54</ele>
        <time>2020-12-24T14:27:38.000Z</time>
      </trkpt>
      <trkpt lat="47.21944" lon="-1.45408">
        <ele>54</ele>
        <time>2020-12-24T14:27:40.000Z</time>
      </trkpt>
      <trkpt lat="47.21938" lon="-1.45418">
        <ele>54</ele>
        <time>2020-12-24T14:27:42.000Z</time>
      </trkpt>
      <trkpt lat="47.21928" lon="-1.45422">
        <ele>55</ele>
        <time>2020-12-24T14:27:44.000Z</time>
      </trkpt>
      <trkpt lat="47.21919" lon="-1.45429">
        <ele>55</ele>
        <time>2020-12-24T14:27:46.000Z</time>
      </trkpt>
      <trkpt lat="47.21912" lon="-1.45439">
        <ele>56</ele>
        <time>2020-12-24T14:27:48.000Z</time>
      </trkpt>
      <trkpt lat="47.21905" lon="-1.45453">
        <ele>58</ele>
        <time>2020-12-24T14:27:50.000Z</time>
      </trkpt>
      <trkpt lat="47.21898" lon="-1.45466">
        <ele>59</ele>
        <time>2020-12-24T14:27:52.000Z</time>
      </trkpt>
      <trkpt lat="47.21892" lon="-1.45479">
        <ele>59</ele>
        <time>2020-12-24T14:27:54.000Z</time>
      </trkpt>
      <trkpt lat="47.21886" lon="-1.45491">
        <ele>59</ele>
        <time>2020-12-24T14:27:56.000Z</time>
      </trkpt>
      <trkpt lat="47.2188" lon="-1.45503">
        <ele>60</ele>
        <time>2020-12-24T14:27:58.000Z</time>
      </trkpt>
      <trkpt lat="47.21874" lon="-1.45516">
        <ele>60</ele>
        <time>2020-12-24T14:28:00.000Z</time>
      </trkpt>
      <trkpt lat="47.21867" lon="-1.45528">
        <ele>59</ele>
        <time>2020-12-24T14:28:02.000Z</time>
      </trkpt>
      <trkpt lat="47.2186" lon="-1.45542">
        <ele>59</ele>
        <time>2020-12-24T14:28:04.000Z</time>
      </trkpt>
      <trkpt lat="47.21852" lon="-1.45556">
        <ele>59</ele>
        <time>2020-12-24T14:28:06.000Z</time>
      </trkpt>
      <trkpt lat="47.21845" lon="-1.45571">
        <ele>58</ele>
        <time>2020-12-24T14:28:08.000Z</time>
      </trkpt>
      <trkpt lat="47.21837" lon="-1.45586">
        <ele>57</ele>
        <time>2020-12-24T14:28:10.000Z</time>
      </trkpt>
      <trkpt lat="47.21829" lon="-1.45601">
        <ele>57</ele>
        <time>2020-12-24T14:28:12.000Z</time>
      </trkpt>
      <trkpt lat="47.21821" lon="-1.45616">
        <ele>56</ele>
        <time>2020-12-24T14:28:14.000Z</time>
      </trkpt>
      <trkpt lat="47.21812" lon="-1.45632">
        <ele>55</ele>
        <time>2020-12-24T14:28:16.000Z</time>
      </trkpt>
      <trkpt lat="47.21804" lon="-1.45647">
        <ele>55</ele>
        <time>2020-12-24T14:28:18.000Z</time>
      </trkpt>
      <trkpt lat="47.21796" lon="-1.45662">
        <ele>55</ele>
        <time>2020-12-24T14:28:20.000Z</time>
      </trkpt>
      <trkpt lat="47.21788" lon="-1.45678">
        <ele>54</ele>
        <time>2020-12-24T14:28:22.000Z</time>
      </trkpt>
      <trkpt lat="47.2178" lon="-1.45694">
        <ele>54</ele>
        <time>2020-12-24T14:28:24.000Z</time>
      </trkpt>
      <trkpt lat="47.21772" lon="-1.45709">
        <ele>53</ele>
        <time>2020-12-24T14:28:26.000Z</time>
      </trkpt>
      <trkpt lat="47.21765" lon="-1.45725">
        <ele>53</ele>
        <time>2020-12-24T14:28:28.000Z</time>
      </trkpt>
      <trkpt lat="47.21761" lon="-1.45743">
        <ele>52</ele>
        <time>2020-12-24T14:28:30.000Z</time>
      </trkpt>
      <trkpt lat="47.2176" lon="-1.45763">
        <ele>52</ele>
        <time>2020-12-24T14:28:32.000Z</time>
      </trkpt>
      <trkpt lat="47.21758" lon="-1.45785">
        <ele>51</ele>
        <time>2020-12-24T14:28:34.000Z</time>
      </trkpt>
      <trkpt lat="47.21757" lon="-1.45807">
        <ele>52</ele>
        <time>2020-12-24T14:28:36.000Z</time>
      </trkpt>
      <trkpt lat="47.21756" lon="-1.45828">
        <ele>52</ele>
        <time>2020-12-24T14:28:38.000Z</time>
      </trkpt>
      <trkpt lat="47.21754" lon="-1.4585">
        <ele>52</ele>
        <time>2020-12-24T14:28:40.000Z</time>
      </trkpt>
      <trkpt lat="47.21753" lon="-1.4587">
        <ele>53</ele>
        <time>2020-12-24T14:28:42.000Z</time>
      </trkpt>
      <trkpt lat="47.21751" lon="-1.45891">
        <ele>53</ele>
        <time>2020-12-24T14:28:44.000Z</time>
      </trkpt>
      <trkpt lat="47.21748" lon="-1.4591">
        <ele>53</ele>
        <time>2020-12-24T14:28:46.000Z</time>
      </trkpt>
      <trkpt lat="47.21746" lon="-1.45929">
        <ele>52</ele>
        <time>2020-12-24T14:28:48.000Z</time>
      </trkpt>
      <trkpt lat="47.21746" lon="-1.45949">
        <ele>52</ele>
        <time>2020-12-24T14:28:50.000Z</time>
      </trkpt>
      <trkpt lat="47.21744" lon="-1.45969">
        <ele>52</ele>
        <time>2020-12-24T14:28:52.000Z</time>
      </trkpt>
      <trkpt lat="47.21742" lon="-1.45988">
        <ele>52</ele>
        <time>2020-12-24T14:28:54.000Z</time>
      </trkpt>
      <trkpt lat="47.2174" lon="-1.46008">
        <ele>52</ele>
        <time>2020-12-24T14:28:56.000Z</time>
      </trkpt>
      <trkpt lat="47.21736" lon="-1.46026">
        <ele>52</ele>
        <time>2020-12-24T14:28:58.000Z</time>
      </trkpt>
      <trkpt lat="47.21733" lon="-1.46045">
        <ele>52</ele>
        <time>2020-12-24T14:29:00.000Z</time>
      </trkpt>
      <trkpt lat="47.21729" lon="-1.46063">
        <ele>52</ele>
        <time>2020-12-24T14:29:02.000Z</time>
      </trkpt>
      <trkpt lat="47.21724" lon="-1.4608">
        <ele>52</ele>
        <time>2020-12-24T14:29:04.000Z</time>
      </trkpt>
      <trkpt lat="47.21719" lon="-1.46098">
        <ele>52</ele>
        <time>2020-12-24T14:29:06.000Z</time>
      </trkpt>
      <trkpt lat="47.21714" lon="-1.46115">
        <ele>52</ele>
        <time>2020-12-24T14:29:08.000Z</time>
      </trkpt>
      <trkpt lat="47.21708" lon="-1.46133">
        <ele>52</ele>
        <time>2020-12-24T14:29:10.000Z</time>
      </trkpt>
      <trkpt lat="47.21702" lon="-1.46149">
        <ele>52</ele>
        <time>2020-12-24T14:29:12.000Z</time>
      </trkpt>
      <trkpt lat="47.21697" lon="-1.46166">
        <ele>52</ele>
        <time>2020-12-24T14:29:14.000Z</time>
      </trkpt>
      <trkpt lat="47.21694" lon="-1.46183">
        <ele>53</ele>
        <time>2020-12-24T14:29:16.000Z</time>
      </trkpt>
      <trkpt lat="47.21691" lon="-1.46199">
        <ele>53</ele>
        <time>2020-12-24T14:29:18.000Z</time>
      </trkpt>
      <trkpt lat="47.21689" lon="-1.46216">
        <ele>53</ele>
        <time>2020-12-24T14:29:20.000Z</time>
      </trkpt>
      <trkpt lat="47.21688" lon="-1.46234">
        <ele>53</ele>
        <time>2020-12-24T14:29:22.000Z</time>
      </trkpt>
      <trkpt lat="47.21688" lon="-1.46254">
        <ele>53</ele>
        <time>2020-12-24T14:29:24.000Z</time>
      </trkpt>
      <trkpt lat="47.21688" lon="-1.46274">
        <ele>53</ele>
        <time>2020-12-24T14:29:26.000Z</time>
      </trkpt>
      <trkpt lat="47.21688" lon="-1.46292">
        <ele>55</ele>
        <time>2020-12-24T14:29:28.000Z</time>
      </trkpt>
      <trkpt lat="47.21687" lon="-1.46311">
        <ele>56</ele>
        <time>2020-12-24T14:29:30.000Z</time>
      </trkpt>
      <trkpt lat="47.21682" lon="-1.46329">
        <ele>56</ele>
        <time>2020-12-24T14:29:32.000Z</time>
      </trkpt>
      <trkpt lat="47.21678" lon="-1.46348">
        <ele>55</ele>
        <time>2020-12-24T14:29:34.000Z</time>
      </trkpt>
      <trkpt lat="47.21677" lon="-1.46368">
        <ele>54</ele>
        <time>2020-12-24T14:29:36.000Z</time>
      </trkpt>
      <trkpt lat="47.21675" lon="-1.46387">
        <ele>54</ele>
        <time>2020-12-24T14:29:38.000Z</time>
      </trkpt>
      <trkpt lat="47.21674" lon="-1.46404">
        <ele>54</ele>
        <time>2020-12-24T14:29:40.000Z</time>
      </trkpt>
      <trkpt lat="47.21673" lon="-1.46422">
        <ele>54</ele>
        <time>2020-12-24T14:29:42.000Z</time>
      </trkpt>
      <trkpt lat="47.21673" lon="-1.46439">
        <ele>54</ele>
        <time>2020-12-24T14:29:44.000Z</time>
      </trkpt>
      <trkpt lat="47.21672" lon="-1.46457">
        <ele>54</ele>
        <time>2020-12-24T14:29:46.000Z</time>
      </trkpt>
      <trkpt lat="47.21674" lon="-1.46476">
        <ele>54</ele>
        <time>2020-12-24T14:29:48.000Z</time>
      </trkpt>
      <trkpt lat="47.21674" lon="-1.46495">
        <ele>53</ele>
        <time>2020-12-24T14:29:50.000Z</time>
      </trkpt>
      <trkpt lat="47.21673" lon="-1.46514">
        <ele>53</ele>
        <time>2020-12-24T14:29:52.000Z</time>
      </trkpt>
      <trkpt lat="47.2167" lon="-1.46532">
        <ele>53</ele>
        <time>2020-12-24T14:29:54.000Z</time>
      </trkpt>
      <trkpt lat="47.21665" lon="-1.46551">
        <ele>53</ele>
        <time>2020-12-24T14:29:56.000Z</time>
      </trkpt>
      <trkpt lat="47.21661" lon="-1.4657">
        <ele>53</ele>
        <time>2020-12-24T14:29:58.000Z</time>
      </trkpt>
      <trkpt lat="47.21657" lon="-1.4659">
        <ele>53</ele>
        <time>2020-12-24T14:30:00.000Z</time>
      </trkpt>
      <trkpt lat="47.21654" lon="-1.46609">
        <ele>52</ele>
        <time>2020-12-24T14:30:02.000Z</time>
      </trkpt>
      <trkpt lat="47.2165" lon="-1.46627">
        <ele>52</ele>
        <time>2020-12-24T14:30:04.000Z</time>
      </trkpt>
      <trkpt lat="47.21646" lon="-1.46645">
        <ele>52</ele>
        <time>2020-12-24T14:30:06.000Z</time>
      </trkpt>
      <trkpt lat="47.21642" lon="-1.46663">
        <ele>52</ele>
        <time>2020-12-24T14:30:08.000Z</time>
      </trkpt>
      <trkpt lat="47.21639" lon="-1.46682">
        <ele>52</ele>
        <time>2020-12-24T14:30:10.000Z</time>
      </trkpt>
      <trkpt lat="47.21634" lon="-1.467">
        <ele>53</ele>
        <time>2020-12-24T14:30:12.000Z</time>
      </trkpt>
      <trkpt lat="47.21631" lon="-1.46718">
        <ele>53</ele>
        <time>2020-12-24T14:30:14.000Z</time>
      </trkpt>
      <trkpt lat="47.21629" lon="-1.46736">
        <ele>53</ele>
        <time>2020-12-24T14:30:16.000Z</time>
      </trkpt>
      <trkpt lat="47.21628" lon="-1.46755">
        <ele>53</ele>
        <time>2020-12-24T14:30:18.000Z</time>
      </trkpt>
      <trkpt lat="47.21628" lon="-1.46773">
        <ele>53</ele>
        <time>2020-12-24T14:30:20.000Z</time>
      </trkpt>
      <trkpt lat="47.2163" lon="-1.46791">
        <ele>53</ele>
        <time>2020-12-24T14:30:22.000Z</time>
      </trkpt>
      <trkpt lat="47.21631" lon="-1.46809">
        <ele>53</ele>
        <time>2020-12-24T14:30:24.000Z</time>
      </trkpt>
      <trkpt lat="47.21634" lon="-1.46826">
        <ele>53</ele>
        <time>2020-12-24T14:30:26.000Z</time>
      </trkpt>
      <trkpt lat="47.21639" lon="-1.46842">
        <ele>53</ele>
        <time>2020-12-24T14:30:28.000Z</time>
      </trkpt>
      <trkpt lat="47.21641" lon="-1.4686">
        <ele>53</ele>
        <time>2020-12-24T14:30:30.000Z</time>
      </trkpt>
      <trkpt lat="47.21643" lon="-1.46878">
        <ele>53</ele>
        <time>2020-12-24T14:30:32.000Z</time>
      </trkpt>
      <trkpt lat="47.21646" lon="-1.46895">
        <ele>53</ele>
        <time>2020-12-24T14:30:34.000Z</time>
      </trkpt>
      <trkpt lat="47.21648" lon="-1.46914">
        <ele>53</ele>
        <time>2020-12-24T14:30:36.000Z</time>
      </trkpt>
      <trkpt lat="47.2165" lon="-1.46932">
        <ele>53</ele>
        <time>2020-12-24T14:30:38.000Z</time>
      </trkpt>
      <trkpt lat="47.21655" lon="-1.4695">
        <ele>53</ele>
        <time>2020-12-24T14:30:40.000Z</time>
      </trkpt>
      <trkpt lat="47.21656" lon="-1.46968">
        <ele>53</ele>
        <time>2020-12-24T14:30:42.000Z</time>
      </trkpt>
      <trkpt lat="47.21657" lon="-1.46986">
        <ele>53</ele>
        <time>2020-12-24T14:30:44.000Z</time>
      </trkpt>
      <trkpt lat="47.21657" lon="-1.47005">
        <ele>53</ele>
        <time>2020-12-24T14:30:46.000Z</time>
      </trkpt>
      <trkpt lat="47.21656" lon="-1.47024">
        <ele>53</ele>
        <time>2020-12-24T14:30:48.000Z</time>
      </trkpt>
      <trkpt lat="47.21656" lon="-1.47043">
        <ele>53</ele>
        <time>2020-12-24T14:30:50.000Z</time>
      </trkpt>
      <trkpt lat="47.21655" lon="-1.4706">
        <ele>53</ele>
        <time>2020-12-24T14:30:52.000Z</time>
      </trkpt>
      <trkpt lat="47.21653" lon="-1.47076">
        <ele>52</ele>
        <time>2020-12-24T14:30:54.000Z</time>
      </trkpt>
      <trkpt lat="47.21649" lon="-1.47092">
        <ele>53</ele>
        <time>2020-12-24T14:30:56.000Z</time>
      </trkpt>
      <trkpt lat="47.21644" lon="-1.47109">
        <ele>54</ele>
        <time>2020-12-24T14:30:58.000Z</time>
      </trkpt>
      <trkpt lat="47.21643" lon="-1.47129">
        <ele>54</ele>
        <time>2020-12-24T14:31:00.000Z</time>
      </trkpt>
      <trkpt lat="47.21641" lon="-1.47148">
        <ele>54</ele>
        <time>2020-12-24T14:31:02.000Z</time>
      </trkpt>
      <trkpt lat="47.21638" lon="-1.47167">
        <ele>53</ele>
        <time>2020-12-24T14:31:04.000Z</time>
      </trkpt>
      <trkpt lat="47.21633" lon="-1.47185">
        <ele>53</ele>
        <time>2020-12-24T14:31:06.000Z</time>
      </trkpt>
      <trkpt lat="47.2163" lon="-1.47203">
        <ele>53</ele>
        <time>2020-12-24T14:31:08.000Z</time>
      </trkpt>
      <trkpt lat="47.21627" lon="-1.47221">
        <ele>53</ele>
        <time>2020-12-24T14:31:10.000Z</time>
      </trkpt>
      <trkpt lat="47.21622" lon="-1.4724">
        <ele>52</ele>
        <time>2020-12-24T14:31:12.000Z</time>
      </trkpt>
      <trkpt lat="47.21614" lon="-1.47254">
        <ele>52</ele>
        <time>2020-12-24T14:31:14.000Z</time>
      </trkpt>
      <trkpt lat="47.21607" lon="-1.4727">
        <ele>53</ele>
        <time>2020-12-24T14:31:16.000Z</time>
      </trkpt>
      <trkpt lat="47.216" lon="-1.47286">
        <ele>52</ele>
        <time>2020-12-24T14:31:18.000Z</time>
      </trkpt>
      <trkpt lat="47.21596" lon="-1.47303">
        <ele>53</ele>
        <time>2020-12-24T14:31:20.000Z</time>
      </trkpt>
      <trkpt lat="47.21593" lon="-1.47322">
        <ele>54</ele>
        <time>2020-12-24T14:31:22.000Z</time>
      </trkpt>
      <trkpt lat="47.21589" lon="-1.47341">
        <ele>55</ele>
        <time>2020-12-24T14:31:24.000Z</time>
      </trkpt>
      <trkpt lat="47.21586" lon="-1.47358">
        <ele>56</ele>
        <time>2020-12-24T14:31:26.000Z</time>
      </trkpt>
      <trkpt lat="47.21583" lon="-1.47376">
        <ele>56</ele>
        <time>2020-12-24T14:31:28.000Z</time>
      </trkpt>
      <trkpt lat="47.21579" lon="-1.47393">
        <ele>57</ele>
        <time>2020-12-24T14:31:30.000Z</time>
      </trkpt>
      <trkpt lat="47.21576" lon="-1.47411">
        <ele>56</ele>
        <time>2020-12-24T14:31:32.000Z</time>
      </trkpt>
      <trkpt lat="47.21573" lon="-1.4743">
        <ele>56</ele>
        <time>2020-12-24T14:31:34.000Z</time>
      </trkpt>
      <trkpt lat="47.21569" lon="-1.47448">
        <ele>55</ele>
        <time>2020-12-24T14:31:36.000Z</time>
      </trkpt>
      <trkpt lat="47.21565" lon="-1.47466">
        <ele>55</ele>
        <time>2020-12-24T14:31:38.000Z</time>
      </trkpt>
      <trkpt lat="47.2156" lon="-1.47482">
        <ele>55</ele>
        <time>2020-12-24T14:31:40.000Z</time>
      </trkpt>
      <trkpt lat="47.21555" lon="-1.47498">
        <ele>55</ele>
        <time>2020-12-24T14:31:42.000Z</time>
      </trkpt>
      <trkpt lat="47.21549" lon="-1.47514">
        <ele>55</ele>
        <time>2020-12-24T14:31:44.000Z</time>
      </trkpt>
      <trkpt lat="47.21544" lon="-1.4753">
        <ele>55</ele>
        <time>2020-12-24T14:31:46.000Z</time>
      </trkpt>
      <trkpt lat="47.21539" lon="-1.47547">
        <ele>55</ele>
        <time>2020-12-24T14:31:48.000Z</time>
      </trkpt>
      <trkpt lat="47.21539" lon="-1.47564">
        <ele>56</ele>
        <time>2020-12-24T14:31:50.000Z</time>
      </trkpt>
      <trkpt lat="47.21539" lon="-1.47581">
        <ele>57</ele>
        <time>2020-12-24T14:31:52.000Z</time>
      </trkpt>
      <trkpt lat="47.21534" lon="-1.47601">
        <ele>57</ele>
        <time>2020-12-24T14:31:54.000Z</time>
      </trkpt>
      <trkpt lat="47.21526" lon="-1.47618">
        <ele>56</ele>
        <time>2020-12-24T14:31:56.000Z</time>
      </trkpt>
      <trkpt lat="47.21519" lon="-1.47635">
        <ele>56</ele>
        <time>2020-12-24T14:31:58.000Z</time>
      </trkpt>
      <trkpt lat="47.21513" lon="-1.47652">
        <ele>55</ele>
        <time>2020-12-24T14:32:00.000Z</time>
      </trkpt>
      <trkpt lat="47.21507" lon="-1.47669">
        <ele>54</ele>
        <time>2020-12-24T14:32:02.000Z</time>
      </trkpt>
      <trkpt lat="47.21501" lon="-1.47686">
        <ele>54</ele>
        <time>2020-12-24T14:32:04.000Z</time>
      </trkpt>
      <trkpt lat="47.21494" lon="-1.47702">
        <ele>54</ele>
        <time>2020-12-24T14:32:06.000Z</time>
      </trkpt>
      <trkpt lat="47.21485" lon="-1.47714">
        <ele>55</ele>
        <time>2020-12-24T14:32:08.000Z</time>
      </trkpt>
      <trkpt lat="47.21475" lon="-1.47724">
        <ele>55</ele>
        <time>2020-12-24T14:32:10.000Z</time>
      </trkpt>
      <trkpt lat="47.21468" lon="-1.47736">
        <ele>55</ele>
        <time>2020-12-24T14:32:12.000Z</time>
      </trkpt>
      <trkpt lat="47.21461" lon="-1.4775">
        <ele>55</ele>
        <time>2020-12-24T14:32:14.000Z</time>
      </trkpt>
      <trkpt lat="47.21453" lon="-1.47763">
        <ele>54</ele>
        <time>2020-12-24T14:32:16.000Z</time>
      </trkpt>
      <trkpt lat="47.21449" lon="-1.4778">
        <ele>54</ele>
        <time>2020-12-24T14:32:18.000Z</time>
      </trkpt>
      <trkpt lat="47.21445" lon="-1.47797">
        <ele>54</ele>
        <time>2020-12-24T14:32:20.000Z</time>
      </trkpt>
      <trkpt lat="47.21443" lon="-1.47816">
        <ele>54</ele>
        <time>2020-12-24T14:32:22.000Z</time>
      </trkpt>
      <trkpt lat="47.2144" lon="-1.47834">
        <ele>54</ele>
        <time>2020-12-24T14:32:24.000Z</time>
      </trkpt>
      <trkpt lat="47.21437" lon="-1.47853">
        <ele>54</ele>
        <time>2020-12-24T14:32:26.000Z</time>
      </trkpt>
      <trkpt lat="47.21435" lon="-1.47873">
        <ele>54</ele>
        <time>2020-12-24T14:32:28.000Z</time>
      </trkpt>
      <trkpt lat="47.21432" lon="-1.47892">
        <ele>54</ele>
        <time>2020-12-24T14:32:30.000Z</time>
      </trkpt>
      <trkpt lat="47.21429" lon="-1.47909">
        <ele>53</ele>
        <time>2020-12-24T14:32:32.000Z</time>
      </trkpt>
      <trkpt lat="47.21428" lon="-1.47927">
        <ele>53</ele>
        <time>2020-12-24T14:32:34.000Z</time>
      </trkpt>
      <trkpt lat="47.21426" lon="-1.47945">
        <ele>53</ele>
        <time>2020-12-24T14:32:36.000Z</time>
      </trkpt>
      <trkpt lat="47.21423" lon="-1.47963">
        <ele>53</ele>
        <time>2020-12-24T14:32:38.000Z</time>
      </trkpt>
      <trkpt lat="47.21421" lon="-1.47982">
        <ele>54</ele>
        <time>2020-12-24T14:32:40.000Z</time>
      </trkpt>
      <trkpt lat="47.21419" lon="-1.47999">
        <ele>54</ele>
        <time>2020-12-24T14:32:42.000Z</time>
      </trkpt>
      <trkpt lat="47.21415" lon="-1.48016">
        <ele>54</ele>
        <time>2020-12-24T14:32:44.000Z</time>
      </trkpt>
      <trkpt lat="47.2141" lon="-1.48032">
        <ele>54</ele>
        <time>2020-12-24T14:32:46.000Z</time>
      </trkpt>
      <trkpt lat="47.21405" lon="-1.48047">
        <ele>54</ele>
        <time>2020-12-24T14:32:48.000Z</time>
      </trkpt>
      <trkpt lat="47.21399" lon="-1.48063">
        <ele>54</ele>
        <time>2020-12-24T14:32:50.000Z</time>
      </trkpt>
      <trkpt lat="47.21393" lon="-1.48078">
        <ele>55</ele>
        <time>2020-12-24T14:32:52.000Z</time>
      </trkpt>
      <trkpt lat="47.21386" lon="-1.48094">
        <ele>55</ele>
        <time>2020-12-24T14:32:54.000Z</time>
      </trkpt>
      <trkpt lat="47.21378" lon="-1.48107">
        <ele>56</ele>
        <time>2020-12-24T14:32:56.000Z</time>
      </trkpt>
      <trkpt lat="47.2137" lon="-1.48121">
        <ele>56</ele>
        <time>2020-12-24T14:32:58.000Z</time>
      </trkpt>
      <trkpt lat="47.21362" lon="-1.48133">
        <ele>56</ele>
        <time>2020-12-24T14:33:00.000Z</time>
      </trkpt>
      <trkpt lat="47.21353" lon="-1.48144">
        <ele>55</ele>
        <time>2020-12-24T14:33:02.000Z</time>
      </trkpt>
      <trkpt lat="47.21344" lon="-1.48155">
        <ele>55</ele>
        <time>2020-12-24T14:33:04.000Z</time>
      </trkpt>
      <trkpt lat="47.21335" lon="-1.48165">
        <ele>55</ele>
        <time>2020-12-24T14:33:06.000Z</time>
      </trkpt>
      <trkpt lat="47.21325" lon="-1.48175">
        <ele>55</ele>
        <time>2020-12-24T14:33:08.000Z</time>
      </trkpt>
      <trkpt lat="47.21315" lon="-1.48184">
        <ele>55</ele>
        <time>2020-12-24T14:33:10.000Z</time>
      </trkpt>
      <trkpt lat="47.21304" lon="-1.48194">
        <ele>55</ele>
        <time>2020-12-24T14:33:12.000Z</time>
      </trkpt>
      <trkpt lat="47.21294" lon="-1.48203">
        <ele>56</ele>
        <time>2020-12-24T14:33:14.000Z</time>
      </trkpt>
      <trkpt lat="47.21283" lon="-1.48213">
        <ele>56</ele>
        <time>2020-12-24T14:33:16.000Z</time>
      </trkpt>
      <trkpt lat="47.21272" lon="-1.48223">
        <ele>56</ele>
        <time>2020-12-24T14:33:18.000Z</time>
      </trkpt>
      <trkpt lat="47.21261" lon="-1.48231">
        <ele>56</ele>
        <time>2020-12-24T14:33:20.000Z</time>
      </trkpt>
      <trkpt lat="47.21251" lon="-1.4824">
        <ele>56</ele>
        <time>2020-12-24T14:33:22.000Z</time>
      </trkpt>
      <trkpt lat="47.21242" lon="-1.4825">
        <ele>56</ele>
        <time>2020-12-24T14:33:24.000Z</time>
      </trkpt>
      <trkpt lat="47.21232" lon="-1.48262">
        <ele>56</ele>
        <time>2020-12-24T14:33:26.000Z</time>
      </trkpt>
      <trkpt lat="47.21225" lon="-1.48275">
        <ele>56</ele>
        <time>2020-12-24T14:33:28.000Z</time>
      </trkpt>
      <trkpt lat="47.21221" lon="-1.4829">
        <ele>56</ele>
        <time>2020-12-24T14:33:30.000Z</time>
      </trkpt>
      <trkpt lat="47.21222" lon="-1.48305">
        <ele>55</ele>
        <time>2020-12-24T14:33:32.000Z</time>
      </trkpt>
      <trkpt lat="47.21228" lon="-1.48315">
        <ele>55</ele>
        <time>2020-12-24T14:33:34.000Z</time>
      </trkpt>
      <trkpt lat="47.21236" lon="-1.48324">
        <ele>55</ele>
        <time>2020-12-24T14:33:36.000Z</time>
      </trkpt>
      <trkpt lat="47.21237" lon="-1.48342">
        <ele>55</ele>
        <time>2020-12-24T14:33:39.000Z</time>
      </trkpt>
      <trkpt lat="47.21229" lon="-1.48354">
        <ele>55</ele>
        <time>2020-12-24T14:33:41.000Z</time>
      </trkpt>
      <trkpt lat="47.21222" lon="-1.48368">
        <ele>54</ele>
        <time>2020-12-24T14:33:43.000Z</time>
      </trkpt>
      <trkpt lat="47.21221" lon="-1.48386">
        <ele>53</ele>
        <time>2020-12-24T14:33:45.000Z</time>
      </trkpt>
      <trkpt lat="47.21225" lon="-1.48403">
        <ele>53</ele>
        <time>2020-12-24T14:33:47.000Z</time>
      </trkpt>
      <trkpt lat="47.2123" lon="-1.48419">
        <ele>53</ele>
        <time>2020-12-24T14:33:49.000Z</time>
      </trkpt>
      <trkpt lat="47.21236" lon="-1.48433">
        <ele>53</ele>
        <time>2020-12-24T14:33:51.000Z</time>
      </trkpt>
      <trkpt lat="47.2124" lon="-1.48448">
        <ele>54</ele>
        <time>2020-12-24T14:33:53.000Z</time>
      </trkpt>
      <trkpt lat="47.21248" lon="-1.48458">
        <ele>54</ele>
        <time>2020-12-24T14:33:55.000Z</time>
      </trkpt>
      <trkpt lat="47.21258" lon="-1.48462">
        <ele>54</ele>
        <time>2020-12-24T14:33:57.000Z</time>
      </trkpt>
      <trkpt lat="47.21268" lon="-1.48458">
        <ele>54</ele>
        <time>2020-12-24T14:34:00.000Z</time>
      </trkpt>
      <trkpt lat="47.21279" lon="-1.48467">
        <ele>54</ele>
        <time>2020-12-24T14:34:06.000Z</time>
      </trkpt>
      <trkpt lat="47.2128" lon="-1.48486">
        <ele>54</ele>
        <time>2020-12-24T14:34:08.000Z</time>
      </trkpt>
      <trkpt lat="47.21278" lon="-1.48503">
        <ele>53</ele>
        <time>2020-12-24T14:34:10.000Z</time>
      </trkpt>
      <trkpt lat="47.21272" lon="-1.4852">
        <ele>53</ele>
        <time>2020-12-24T14:34:12.000Z</time>
      </trkpt>
      <trkpt lat="47.21266" lon="-1.4854">
        <ele>53</ele>
        <time>2020-12-24T14:34:14.000Z</time>
      </trkpt>
      <trkpt lat="47.2126" lon="-1.4856">
        <ele>54</ele>
        <time>2020-12-24T14:34:16.000Z</time>
      </trkpt>
      <trkpt lat="47.21255" lon="-1.48579">
        <ele>54</ele>
        <time>2020-12-24T14:34:18.000Z</time>
      </trkpt>
      <trkpt lat="47.2125" lon="-1.48598">
        <ele>53</ele>
        <time>2020-12-24T14:34:20.000Z</time>
      </trkpt>
      <trkpt lat="47.21246" lon="-1.48616">
        <ele>54</ele>
        <time>2020-12-24T14:34:22.000Z</time>
      </trkpt>
      <trkpt lat="47.2124" lon="-1.48635">
        <ele>54</ele>
        <time>2020-12-24T14:34:24.000Z</time>
      </trkpt>
      <trkpt lat="47.21235" lon="-1.48653">
        <ele>53</ele>
        <time>2020-12-24T14:34:26.000Z</time>
      </trkpt>
      <trkpt lat="47.21231" lon="-1.4867">
        <ele>53</ele>
        <time>2020-12-24T14:34:28.000Z</time>
      </trkpt>
      <trkpt lat="47.21226" lon="-1.48688">
        <ele>54</ele>
        <time>2020-12-24T14:34:30.000Z</time>
      </trkpt>
      <trkpt lat="47.21221" lon="-1.48705">
        <ele>54</ele>
        <time>2020-12-24T14:34:32.000Z</time>
      </trkpt>
      <trkpt lat="47.21217" lon="-1.48723">
        <ele>55</ele>
        <time>2020-12-24T14:34:34.000Z</time>
      </trkpt>
      <trkpt lat="47.21212" lon="-1.4874">
        <ele>56</ele>
        <time>2020-12-24T14:34:36.000Z</time>
      </trkpt>
      <trkpt lat="47.21207" lon="-1.48758">
        <ele>58</ele>
        <time>2020-12-24T14:34:38.000Z</time>
      </trkpt>
      <trkpt lat="47.21202" lon="-1.48776">
        <ele>59</ele>
        <time>2020-12-24T14:34:40.000Z</time>
      </trkpt>
      <trkpt lat="47.21199" lon="-1.48794">
        <ele>59</ele>
        <time>2020-12-24T14:34:42.000Z</time>
      </trkpt>
      <trkpt lat="47.21195" lon="-1.48813">
        <ele>59</ele>
        <time>2020-12-24T14:34:44.000Z</time>
      </trkpt>
      <trkpt lat="47.21191" lon="-1.48831">
        <ele>59</ele>
        <time>2020-12-24T14:34:46.000Z</time>
      </trkpt>
      <trkpt lat="47.21189" lon="-1.48849">
        <ele>59</ele>
        <time>2020-12-24T14:34:48.000Z</time>
      </trkpt>
      <trkpt lat="47.21188" lon="-1.48867">
        <ele>59</ele>
        <time>2020-12-24T14:34:50.000Z</time>
      </trkpt>
      <trkpt lat="47.21187" lon="-1.48887">
        <ele>59</ele>
        <time>2020-12-24T14:34:52.000Z</time>
      </trkpt>
      <trkpt lat="47.2118" lon="-1.48903">
        <ele>58</ele>
        <time>2020-12-24T14:34:54.000Z</time>
      </trkpt>
      <trkpt lat="47.21174" lon="-1.48919">
        <ele>57</ele>
        <time>2020-12-24T14:34:56.000Z</time>
      </trkpt>
      <trkpt lat="47.2117" lon="-1.48938">
        <ele>58</ele>
        <time>2020-12-24T14:34:58.000Z</time>
      </trkpt>
      <trkpt lat="47.21167" lon="-1.48956">
        <ele>58</ele>
        <time>2020-12-24T14:35:00.000Z</time>
      </trkpt>
      <trkpt lat="47.21163" lon="-1.48973">
        <ele>59</ele>
        <time>2020-12-24T14:35:02.000Z</time>
      </trkpt>
      <trkpt lat="47.21161" lon="-1.48991">
        <ele>59</ele>
        <time>2020-12-24T14:35:04.000Z</time>
      </trkpt>
      <trkpt lat="47.21158" lon="-1.49012">
        <ele>58</ele>
        <time>2020-12-24T14:35:06.000Z</time>
      </trkpt>
      <trkpt lat="47.21155" lon="-1.49031">
        <ele>56</ele>
        <time>2020-12-24T14:35:08.000Z</time>
      </trkpt>
      <trkpt lat="47.21154" lon="-1.4905">
        <ele>55</ele>
        <time>2020-12-24T14:35:10.000Z</time>
      </trkpt>
      <trkpt lat="47.2116" lon="-1.49066">
        <ele>54</ele>
        <time>2020-12-24T14:35:12.000Z</time>
      </trkpt>
      <trkpt lat="47.21163" lon="-1.49085">
        <ele>54</ele>
        <time>2020-12-24T14:35:14.000Z</time>
      </trkpt>
      <trkpt lat="47.21158" lon="-1.49103">
        <ele>54</ele>
        <time>2020-12-24T14:35:16.000Z</time>
      </trkpt>
      <trkpt lat="47.21152" lon="-1.49118">
        <ele>54</ele>
        <time>2020-12-24T14:35:18.000Z</time>
      </trkpt>
      <trkpt lat="47.2115" lon="-1.49135">
        <ele>55</ele>
        <time>2020-12-24T14:35:20.000Z</time>
      </trkpt>
      <trkpt lat="47.21147" lon="-1.49154">
        <ele>55</ele>
        <time>2020-12-24T14:35:22.000Z</time>
      </trkpt>
      <trkpt lat="47.21144" lon="-1.49173">
        <ele>55</ele>
        <time>2020-12-24T14:35:24.000Z</time>
      </trkpt>
      <trkpt lat="47.21142" lon="-1.49193">
        <ele>56</ele>
        <time>2020-12-24T14:35:26.000Z</time>
      </trkpt>
      <trkpt lat="47.21141" lon="-1.49213">
        <ele>57</ele>
        <time>2020-12-24T14:35:28.000Z</time>
      </trkpt>
      <trkpt lat="47.2114" lon="-1.49232">
        <ele>57</ele>
        <time>2020-12-24T14:35:30.000Z</time>
      </trkpt>
      <trkpt lat="47.21138" lon="-1.4925">
        <ele>58</ele>
        <time>2020-12-24T14:35:32.000Z</time>
      </trkpt>
      <trkpt lat="47.21136" lon="-1.4927">
        <ele>58</ele>
        <time>2020-12-24T14:35:34.000Z</time>
      </trkpt>
      <trkpt lat="47.21135" lon="-1.49289">
        <ele>57</ele>
        <time>2020-12-24T14:35:36.000Z</time>
      </trkpt>
      <trkpt lat="47.21135" lon="-1.49308">
        <ele>57</ele>
        <time>2020-12-24T14:35:38.000Z</time>
      </trkpt>
      <trkpt lat="47.21134" lon="-1.49327">
        <ele>57</ele>
        <time>2020-12-24T14:35:40.000Z</time>
      </trkpt>
      <trkpt lat="47.21132" lon="-1.49348">
        <ele>57</ele>
        <time>2020-12-24T14:35:42.000Z</time>
      </trkpt>
      <trkpt lat="47.21132" lon="-1.49366">
        <ele>57</ele>
        <time>2020-12-24T14:35:44.000Z</time>
      </trkpt>
      <trkpt lat="47.21131" lon="-1.49384">
        <ele>57</ele>
        <time>2020-12-24T14:35:46.000Z</time>
      </trkpt>
      <trkpt lat="47.2113" lon="-1.49402">
        <ele>57</ele>
        <time>2020-12-24T14:35:48.000Z</time>
      </trkpt>
      <trkpt lat="47.21128" lon="-1.49421">
        <ele>57</ele>
        <time>2020-12-24T14:35:50.000Z</time>
      </trkpt>
      <trkpt lat="47.21128" lon="-1.4944">
        <ele>57</ele>
        <time>2020-12-24T14:35:52.000Z</time>
      </trkpt>
      <trkpt lat="47.21127" lon="-1.49458">
        <ele>57</ele>
        <time>2020-12-24T14:35:54.000Z</time>
      </trkpt>
      <trkpt lat="47.21127" lon="-1.49476">
        <ele>57</ele>
        <time>2020-12-24T14:35:56.000Z</time>
      </trkpt>
      <trkpt lat="47.21126" lon="-1.49495">
        <ele>56</ele>
        <time>2020-12-24T14:35:58.000Z</time>
      </trkpt>
      <trkpt lat="47.21126" lon="-1.49514">
        <ele>56</ele>
        <time>2020-12-24T14:36:00.000Z</time>
      </trkpt>
      <trkpt lat="47.21127" lon="-1.49533">
        <ele>55</ele>
        <time>2020-12-24T14:36:02.000Z</time>
      </trkpt>
      <trkpt lat="47.21131" lon="-1.49551">
        <ele>55</ele>
        <time>2020-12-24T14:36:04.000Z</time>
      </trkpt>
      <trkpt lat="47.21135" lon="-1.49567">
        <ele>55</ele>
        <time>2020-12-24T14:36:06.000Z</time>
      </trkpt>
      <trkpt lat="47.21136" lon="-1.49585">
        <ele>54</ele>
        <time>2020-12-24T14:36:08.000Z</time>
      </trkpt>
      <trkpt lat="47.2113" lon="-1.49602">
        <ele>54</ele>
        <time>2020-12-24T14:36:10.000Z</time>
      </trkpt>
      <trkpt lat="47.21124" lon="-1.49617">
        <ele>53</ele>
        <time>2020-12-24T14:36:12.000Z</time>
      </trkpt>
      <trkpt lat="47.21123" lon="-1.49635">
        <ele>54</ele>
        <time>2020-12-24T14:36:14.000Z</time>
      </trkpt>
      <trkpt lat="47.21122" lon="-1.49653">
        <ele>53</ele>
        <time>2020-12-24T14:36:16.000Z</time>
      </trkpt>
      <trkpt lat="47.2112" lon="-1.4967">
        <ele>53</ele>
        <time>2020-12-24T14:36:18.000Z</time>
      </trkpt>
      <trkpt lat="47.21119" lon="-1.49689">
        <ele>54</ele>
        <time>2020-12-24T14:36:20.000Z</time>
      </trkpt>
      <trkpt lat="47.21118" lon="-1.49706">
        <ele>54</ele>
        <time>2020-12-24T14:36:22.000Z</time>
      </trkpt>
      <trkpt lat="47.21117" lon="-1.49724">
        <ele>54</ele>
        <time>2020-12-24T14:36:24.000Z</time>
      </trkpt>
      <trkpt lat="47.21115" lon="-1.49742">
        <ele>55</ele>
        <time>2020-12-24T14:36:26.000Z</time>
      </trkpt>
      <trkpt lat="47.21113" lon="-1.49761">
        <ele>54</ele>
        <time>2020-12-24T14:36:28.000Z</time>
      </trkpt>
      <trkpt lat="47.21111" lon="-1.49781">
        <ele>54</ele>
        <time>2020-12-24T14:36:30.000Z</time>
      </trkpt>
      <trkpt lat="47.21109" lon="-1.498">
        <ele>54</ele>
        <time>2020-12-24T14:36:32.000Z</time>
      </trkpt>
      <trkpt lat="47.21106" lon="-1.49818">
        <ele>54</ele>
        <time>2020-12-24T14:36:34.000Z</time>
      </trkpt>
      <trkpt lat="47.21103" lon="-1.49836">
        <ele>54</ele>
        <time>2020-12-24T14:36:36.000Z</time>
      </trkpt>
      <trkpt lat="47.211" lon="-1.49852">
        <ele>53</ele>
        <time>2020-12-24T14:36:38.000Z</time>
      </trkpt>
      <trkpt lat="47.21099" lon="-1.4987">
        <ele>53</ele>
        <time>2020-12-24T14:36:40.000Z</time>
      </trkpt>
      <trkpt lat="47.21094" lon="-1.49887">
        <ele>54</ele>
        <time>2020-12-24T14:36:42.000Z</time>
      </trkpt>
      <trkpt lat="47.21088" lon="-1.49903">
        <ele>54</ele>
        <time>2020-12-24T14:36:44.000Z</time>
      </trkpt>
      <trkpt lat="47.21083" lon="-1.49921">
        <ele>54</ele>
        <time>2020-12-24T14:36:46.000Z</time>
      </trkpt>
      <trkpt lat="47.21078" lon="-1.49939">
        <ele>54</ele>
        <time>2020-12-24T14:36:48.000Z</time>
      </trkpt>
      <trkpt lat="47.21074" lon="-1.49957">
        <ele>54</ele>
        <time>2020-12-24T14:36:50.000Z</time>
      </trkpt>
      <trkpt lat="47.2107" lon="-1.49974">
        <ele>54</ele>
        <time>2020-12-24T14:36:52.000Z</time>
      </trkpt>
      <trkpt lat="47.21065" lon="-1.49991">
        <ele>54</ele>
        <time>2020-12-24T14:36:54.000Z</time>
      </trkpt>
      <trkpt lat="47.2106" lon="-1.50009">
        <ele>54</ele>
        <time>2020-12-24T14:36:56.000Z</time>
      </trkpt>
      <trkpt lat="47.21056" lon="-1.50026">
        <ele>54</ele>
        <time>2020-12-24T14:36:58.000Z</time>
      </trkpt>
      <trkpt lat="47.21053" lon="-1.50044">
        <ele>55</ele>
        <time>2020-12-24T14:37:00.000Z</time>
      </trkpt>
      <trkpt lat="47.21047" lon="-1.50061">
        <ele>55</ele>
        <time>2020-12-24T14:37:02.000Z</time>
      </trkpt>
      <trkpt lat="47.21043" lon="-1.50078">
        <ele>55</ele>
        <time>2020-12-24T14:37:04.000Z</time>
      </trkpt>
      <trkpt lat="47.21038" lon="-1.50096">
        <ele>55</ele>
        <time>2020-12-24T14:37:06.000Z</time>
      </trkpt>
      <trkpt lat="47.21034" lon="-1.50114">
        <ele>55</ele>
        <time>2020-12-24T14:37:08.000Z</time>
      </trkpt>
      <trkpt lat="47.2103" lon="-1.50131">
        <ele>55</ele>
        <time>2020-12-24T14:37:10.000Z</time>
      </trkpt>
      <trkpt lat="47.21026" lon="-1.50149">
        <ele>54</ele>
        <time>2020-12-24T14:37:12.000Z</time>
      </trkpt>
      <trkpt lat="47.21022" lon="-1.50167">
        <ele>55</ele>
        <time>2020-12-24T14:37:14.000Z</time>
      </trkpt>
      <trkpt lat="47.21018" lon="-1.50184">
        <ele>54</ele>
        <time>2020-12-24T14:37:16.000Z</time>
      </trkpt>
      <trkpt lat="47.21015" lon="-1.50201">
        <ele>54</ele>
        <time>2020-12-24T14:37:18.000Z</time>
      </trkpt>
      <trkpt lat="47.21017" lon="-1.50217">
        <ele>54</ele>
        <time>2020-12-24T14:37:20.000Z</time>
      </trkpt>
      <trkpt lat="47.21019" lon="-1.50233">
        <ele>54</ele>
        <time>2020-12-24T14:37:22.000Z</time>
      </trkpt>
      <trkpt lat="47.21015" lon="-1.50249">
        <ele>55</ele>
        <time>2020-12-24T14:37:24.000Z</time>
      </trkpt>
      <trkpt lat="47.21007" lon="-1.50264">
        <ele>55</ele>
        <time>2020-12-24T14:37:26.000Z</time>
      </trkpt>
      <trkpt lat="47.21004" lon="-1.50281">
        <ele>55</ele>
        <time>2020-12-24T14:37:28.000Z</time>
      </trkpt>
      <trkpt lat="47.21003" lon="-1.50302">
        <ele>55</ele>
        <time>2020-12-24T14:37:30.000Z</time>
      </trkpt>
      <trkpt lat="47.21002" lon="-1.50322">
        <ele>55</ele>
        <time>2020-12-24T14:37:32.000Z</time>
      </trkpt>
      <trkpt lat="47.21001" lon="-1.50342">
        <ele>54</ele>
        <time>2020-12-24T14:37:34.000Z</time>
      </trkpt>
      <trkpt lat="47.21" lon="-1.50363">
        <ele>53</ele>
        <time>2020-12-24T14:37:36.000Z</time>
      </trkpt>
      <trkpt lat="47.21" lon="-1.50383">
        <ele>54</ele>
        <time>2020-12-24T14:37:38.000Z</time>
      </trkpt>
      <trkpt lat="47.21" lon="-1.50403">
        <ele>54</ele>
        <time>2020-12-24T14:37:40.000Z</time>
      </trkpt>
      <trkpt lat="47.21001" lon="-1.50422">
        <ele>54</ele>
        <time>2020-12-24T14:37:42.000Z</time>
      </trkpt>
      <trkpt lat="47.21001" lon="-1.50441">
        <ele>54</ele>
        <time>2020-12-24T14:37:44.000Z</time>
      </trkpt>
      <trkpt lat="47.21002" lon="-1.5046">
        <ele>54</ele>
        <time>2020-12-24T14:37:46.000Z</time>
      </trkpt>
      <trkpt lat="47.21002" lon="-1.50478">
        <ele>55</ele>
        <time>2020-12-24T14:37:48.000Z</time>
      </trkpt>
      <trkpt lat="47.21003" lon="-1.50497">
        <ele>55</ele>
        <time>2020-12-24T14:37:50.000Z</time>
      </trkpt>
      <trkpt lat="47.21003" lon="-1.50516">
        <ele>55</ele>
        <time>2020-12-24T14:37:52.000Z</time>
      </trkpt>
      <trkpt lat="47.21003" lon="-1.50535">
        <ele>55</ele>
        <time>2020-12-24T14:37:54.000Z</time>
      </trkpt>
      <trkpt lat="47.21003" lon="-1.50554">
        <ele>56</ele>
        <time>2020-12-24T14:37:56.000Z</time>
      </trkpt>
      <trkpt lat="47.21004" lon="-1.50573">
        <ele>56</ele>
        <time>2020-12-24T14:37:58.000Z</time>
      </trkpt>
      <trkpt lat="47.21004" lon="-1.50592">
        <ele>56</ele>
        <time>2020-12-24T14:38:00.000Z</time>
      </trkpt>
      <trkpt lat="47.21004" lon="-1.50611">
        <ele>56</ele>
        <time>2020-12-24T14:38:02.000Z</time>
      </trkpt>
      <trkpt lat="47.21003" lon="-1.50629">
        <ele>56</ele>
        <time>2020-12-24T14:38:04.000Z</time>
      </trkpt>
      <trkpt lat="47.21002" lon="-1.50648">
        <ele>56</ele>
        <time>2020-12-24T14:38:06.000Z</time>
      </trkpt>
      <trkpt lat="47.21001" lon="-1.50665">
        <ele>56</ele>
        <time>2020-12-24T14:38:08.000Z</time>
      </trkpt>
      <trkpt lat="47.21" lon="-1.50684">
        <ele>57</ele>
        <time>2020-12-24T14:38:10.000Z</time>
      </trkpt>
      <trkpt lat="47.20999" lon="-1.50702">
        <ele>57</ele>
        <time>2020-12-24T14:38:12.000Z</time>
      </trkpt>
      <trkpt lat="47.20997" lon="-1.5072">
        <ele>57</ele>
        <time>2020-12-24T14:38:14.000Z</time>
      </trkpt>
      <trkpt lat="47.20995" lon="-1.50739">
        <ele>57</ele>
        <time>2020-12-24T14:38:16.000Z</time>
      </trkpt>
      <trkpt lat="47.20994" lon="-1.50757">
        <ele>56</ele>
        <time>2020-12-24T14:38:18.000Z</time>
      </trkpt>
      <trkpt lat="47.20991" lon="-1.50776">
        <ele>56</ele>
        <time>2020-12-24T14:38:20.000Z</time>
      </trkpt>
      <trkpt lat="47.2099" lon="-1.50794">
        <ele>56</ele>
        <time>2020-12-24T14:38:22.000Z</time>
      </trkpt>
      <trkpt lat="47.20988" lon="-1.50812">
        <ele>57</ele>
        <time>2020-12-24T14:38:24.000Z</time>
      </trkpt>
      <trkpt lat="47.20985" lon="-1.50833">
        <ele>58</ele>
        <time>2020-12-24T14:38:26.000Z</time>
      </trkpt>
      <trkpt lat="47.20983" lon="-1.50851">
        <ele>59</ele>
        <time>2020-12-24T14:38:28.000Z</time>
      </trkpt>
      <trkpt lat="47.20981" lon="-1.50872">
        <ele>58</ele>
        <time>2020-12-24T14:38:30.000Z</time>
      </trkpt>
      <trkpt lat="47.20978" lon="-1.50891">
        <ele>58</ele>
        <time>2020-12-24T14:38:32.000Z</time>
      </trkpt>
      <trkpt lat="47.20976" lon="-1.5091">
        <ele>58</ele>
        <time>2020-12-24T14:38:34.000Z</time>
      </trkpt>
      <trkpt lat="47.20973" lon="-1.50929">
        <ele>58</ele>
        <time>2020-12-24T14:38:36.000Z</time>
      </trkpt>
      <trkpt lat="47.20971" lon="-1.50947">
        <ele>58</ele>
        <time>2020-12-24T14:38:38.000Z</time>
      </trkpt>
      <trkpt lat="47.20968" lon="-1.50965">
        <ele>57</ele>
        <time>2020-12-24T14:38:40.000Z</time>
      </trkpt>
      <trkpt lat="47.20967" lon="-1.50985">
        <ele>57</ele>
        <time>2020-12-24T14:38:42.000Z</time>
      </trkpt>
      <trkpt lat="47.20963" lon="-1.51003">
        <ele>57</ele>
        <time>2020-12-24T14:38:44.000Z</time>
      </trkpt>
      <trkpt lat="47.20958" lon="-1.5102">
        <ele>57</ele>
        <time>2020-12-24T14:38:46.000Z</time>
      </trkpt>
      <trkpt lat="47.20953" lon="-1.51037">
        <ele>57</ele>
        <time>2020-12-24T14:38:48.000Z</time>
      </trkpt>
      <trkpt lat="47.2095" lon="-1.51056">
        <ele>57</ele>
        <time>2020-12-24T14:38:50.000Z</time>
      </trkpt>
      <trkpt lat="47.20948" lon="-1.51075">
        <ele>56</ele>
        <time>2020-12-24T14:38:52.000Z</time>
      </trkpt>
      <trkpt lat="47.20944" lon="-1.51093">
        <ele>56</ele>
        <time>2020-12-24T14:38:54.000Z</time>
      </trkpt>
      <trkpt lat="47.20939" lon="-1.5111">
        <ele>56</ele>
        <time>2020-12-24T14:38:56.000Z</time>
      </trkpt>
      <trkpt lat="47.20934" lon="-1.51127">
        <ele>56</ele>
        <time>2020-12-24T14:38:58.000Z</time>
      </trkpt>
      <trkpt lat="47.20929" lon="-1.51144">
        <ele>55</ele>
        <time>2020-12-24T14:39:00.000Z</time>
      </trkpt>
      <trkpt lat="47.20923" lon="-1.5116">
        <ele>56</ele>
        <time>2020-12-24T14:39:02.000Z</time>
      </trkpt>
      <trkpt lat="47.20917" lon="-1.51176">
        <ele>57</ele>
        <time>2020-12-24T14:39:04.000Z</time>
      </trkpt>
      <trkpt lat="47.20911" lon="-1.51192">
        <ele>56</ele>
        <time>2020-12-24T14:39:06.000Z</time>
      </trkpt>
      <trkpt lat="47.20905" lon="-1.51208">
        <ele>57</ele>
        <time>2020-12-24T14:39:08.000Z</time>
      </trkpt>
      <trkpt lat="47.20899" lon="-1.51225">
        <ele>57</ele>
        <time>2020-12-24T14:39:10.000Z</time>
      </trkpt>
      <trkpt lat="47.20893" lon="-1.51241">
        <ele>57</ele>
        <time>2020-12-24T14:39:12.000Z</time>
      </trkpt>
      <trkpt lat="47.20887" lon="-1.51258">
        <ele>57</ele>
        <time>2020-12-24T14:39:14.000Z</time>
      </trkpt>
      <trkpt lat="47.20881" lon="-1.51274">
        <ele>56</ele>
        <time>2020-12-24T14:39:16.000Z</time>
      </trkpt>
      <trkpt lat="47.20874" lon="-1.51289">
        <ele>56</ele>
        <time>2020-12-24T14:39:18.000Z</time>
      </trkpt>
      <trkpt lat="47.20866" lon="-1.51304">
        <ele>57</ele>
        <time>2020-12-24T14:39:20.000Z</time>
      </trkpt>
      <trkpt lat="47.20859" lon="-1.5132">
        <ele>57</ele>
        <time>2020-12-24T14:39:22.000Z</time>
      </trkpt>
      <trkpt lat="47.20853" lon="-1.51335">
        <ele>57</ele>
        <time>2020-12-24T14:39:24.000Z</time>
      </trkpt>
      <trkpt lat="47.20848" lon="-1.51351">
        <ele>58</ele>
        <time>2020-12-24T14:39:26.000Z</time>
      </trkpt>
      <trkpt lat="47.20845" lon="-1.51368">
        <ele>58</ele>
        <time>2020-12-24T14:39:28.000Z</time>
      </trkpt>
      <trkpt lat="47.2084" lon="-1.51385">
        <ele>58</ele>
        <time>2020-12-24T14:39:30.000Z</time>
      </trkpt>
      <trkpt lat="47.20837" lon="-1.51402">
        <ele>58</ele>
        <time>2020-12-24T14:39:32.000Z</time>
      </trkpt>
      <trkpt lat="47.20833" lon="-1.5142">
        <ele>58</ele>
        <time>2020-12-24T14:39:34.000Z</time>
      </trkpt>
      <trkpt lat="47.2083" lon="-1.51439">
        <ele>58</ele>
        <time>2020-12-24T14:39:36.000Z</time>
      </trkpt>
      <trkpt lat="47.20827" lon="-1.51456">
        <ele>57</ele>
        <time>2020-12-24T14:39:38.000Z</time>
      </trkpt>
      <trkpt lat="47.20824" lon="-1.51474">
        <ele>56</ele>
        <time>2020-12-24T14:39:40.000Z</time>
      </trkpt>
      <trkpt lat="47.20821" lon="-1.51492">
        <ele>56</ele>
        <time>2020-12-24T14:39:42.000Z</time>
      </trkpt>
      <trkpt lat="47.20817" lon="-1.5151">
        <ele>56</ele>
        <time>2020-12-24T14:39:44.000Z</time>
      </trkpt>
      <trkpt lat="47.20814" lon="-1.51529">
        <ele>56</ele>
        <time>2020-12-24T14:39:46.000Z</time>
      </trkpt>
      <trkpt lat="47.20812" lon="-1.51547">
        <ele>56</ele>
        <time>2020-12-24T14:39:48.000Z</time>
      </trkpt>
      <trkpt lat="47.20809" lon="-1.51565">
        <ele>57</ele>
        <time>2020-12-24T14:39:50.000Z</time>
      </trkpt>
      <trkpt lat="47.20807" lon="-1.51583">
        <ele>57</ele>
        <time>2020-12-24T14:39:52.000Z</time>
      </trkpt>
      <trkpt lat="47.20806" lon="-1.516">
        <ele>58</ele>
        <time>2020-12-24T14:39:54.000Z</time>
      </trkpt>
      <trkpt lat="47.20804" lon="-1.51619">
        <ele>58</ele>
        <time>2020-12-24T14:39:56.000Z</time>
      </trkpt>
      <trkpt lat="47.20801" lon="-1.51637">
        <ele>58</ele>
        <time>2020-12-24T14:39:58.000Z</time>
      </trkpt>
      <trkpt lat="47.20798" lon="-1.51655">
        <ele>57</ele>
        <time>2020-12-24T14:40:00.000Z</time>
      </trkpt>
      <trkpt lat="47.20795" lon="-1.51673">
        <ele>58</ele>
        <time>2020-12-24T14:40:02.000Z</time>
      </trkpt>
      <trkpt lat="47.20792" lon="-1.5169">
        <ele>58</ele>
        <time>2020-12-24T14:40:04.000Z</time>
      </trkpt>
      <trkpt lat="47.20789" lon="-1.51707">
        <ele>57</ele>
        <time>2020-12-24T14:40:06.000Z</time>
      </trkpt>
      <trkpt lat="47.20785" lon="-1.51726">
        <ele>56</ele>
        <time>2020-12-24T14:40:08.000Z</time>
      </trkpt>
      <trkpt lat="47.20781" lon="-1.51743">
        <ele>56</ele>
        <time>2020-12-24T14:40:10.000Z</time>
      </trkpt>
      <trkpt lat="47.20776" lon="-1.51761">
        <ele>56</ele>
        <time>2020-12-24T14:40:12.000Z</time>
      </trkpt>
      <trkpt lat="47.20772" lon="-1.51778">
        <ele>57</ele>
        <time>2020-12-24T14:40:14.000Z</time>
      </trkpt>
      <trkpt lat="47.20768" lon="-1.51795">
        <ele>57</ele>
        <time>2020-12-24T14:40:16.000Z</time>
      </trkpt>
      <trkpt lat="47.20764" lon="-1.51814">
        <ele>57</ele>
        <time>2020-12-24T14:40:18.000Z</time>
      </trkpt>
      <trkpt lat="47.2076" lon="-1.51831">
        <ele>57</ele>
        <time>2020-12-24T14:40:20.000Z</time>
      </trkpt>
      <trkpt lat="47.20754" lon="-1.51848">
        <ele>57</ele>
        <time>2020-12-24T14:40:22.000Z</time>
      </trkpt>
      <trkpt lat="47.20747" lon="-1.51863">
        <ele>57</ele>
        <time>2020-12-24T14:40:24.000Z</time>
      </trkpt>
      <trkpt lat="47.2074" lon="-1.51878">
        <ele>56</ele>
        <time>2020-12-24T14:40:26.000Z</time>
      </trkpt>
      <trkpt lat="47.20733" lon="-1.51894">
        <ele>56</ele>
        <time>2020-12-24T14:40:28.000Z</time>
      </trkpt>
      <trkpt lat="47.20727" lon="-1.51911">
        <ele>55</ele>
        <time>2020-12-24T14:40:30.000Z</time>
      </trkpt>
      <trkpt lat="47.20719" lon="-1.51927">
        <ele>55</ele>
        <time>2020-12-24T14:40:32.000Z</time>
      </trkpt>
      <trkpt lat="47.20712" lon="-1.51943">
        <ele>55</ele>
        <time>2020-12-24T14:40:34.000Z</time>
      </trkpt>
      <trkpt lat="47.20704" lon="-1.51958">
        <ele>55</ele>
        <time>2020-12-24T14:40:36.000Z</time>
      </trkpt>
      <trkpt lat="47.20696" lon="-1.51973">
        <ele>55</ele>
        <time>2020-12-24T14:40:38.000Z</time>
      </trkpt>
      <trkpt lat="47.20688" lon="-1.51987">
        <ele>56</ele>
        <time>2020-12-24T14:40:40.000Z</time>
      </trkpt>
      <trkpt lat="47.20679" lon="-1.52002">
        <ele>56</ele>
        <time>2020-12-24T14:40:42.000Z</time>
      </trkpt>
      <trkpt lat="47.20671" lon="-1.52017">
        <ele>56</ele>
        <time>2020-12-24T14:40:44.000Z</time>
      </trkpt>
      <trkpt lat="47.20663" lon="-1.52032">
        <ele>56</ele>
        <time>2020-12-24T14:40:46.000Z</time>
      </trkpt>
      <trkpt lat="47.20654" lon="-1.52046">
        <ele>55</ele>
        <time>2020-12-24T14:40:48.000Z</time>
      </trkpt>
      <trkpt lat="47.20644" lon="-1.52059">
        <ele>55</ele>
        <time>2020-12-24T14:40:50.000Z</time>
      </trkpt>
      <trkpt lat="47.20635" lon="-1.52071">
        <ele>55</ele>
        <time>2020-12-24T14:40:52.000Z</time>
      </trkpt>
      <trkpt lat="47.20627" lon="-1.52086">
        <ele>55</ele>
        <time>2020-12-24T14:40:54.000Z</time>
      </trkpt>
      <trkpt lat="47.20619" lon="-1.521">
        <ele>55</ele>
        <time>2020-12-24T14:40:56.000Z</time>
      </trkpt>
      <trkpt lat="47.20611" lon="-1.52114">
        <ele>55</ele>
        <time>2020-12-24T14:40:58.000Z</time>
      </trkpt>
      <trkpt lat="47.20603" lon="-1.52128">
        <ele>56</ele>
        <time>2020-12-24T14:41:00.000Z</time>
      </trkpt>
      <trkpt lat="47.20596" lon="-1.52143">
        <ele>56</ele>
        <time>2020-12-24T14:41:02.000Z</time>
      </trkpt>
      <trkpt lat="47.20589" lon="-1.52158">
        <ele>55</ele>
        <time>2020-12-24T14:41:04.000Z</time>
      </trkpt>
      <trkpt lat="47.2058" lon="-1.52173">
        <ele>56</ele>
        <time>2020-12-24T14:41:06.000Z</time>
      </trkpt>
      <trkpt lat="47.20572" lon="-1.52187">
        <ele>56</ele>
        <time>2020-12-24T14:41:08.000Z</time>
      </trkpt>
      <trkpt lat="47.20564" lon="-1.52201">
        <ele>56</ele>
        <time>2020-12-24T14:41:10.000Z</time>
      </trkpt>
      <trkpt lat="47.20555" lon="-1.52215">
        <ele>55</ele>
        <time>2020-12-24T14:41:12.000Z</time>
      </trkpt>
      <trkpt lat="47.20548" lon="-1.5223">
        <ele>55</ele>
        <time>2020-12-24T14:41:14.000Z</time>
      </trkpt>
      <trkpt lat="47.2054" lon="-1.52245">
        <ele>55</ele>
        <time>2020-12-24T14:41:16.000Z</time>
      </trkpt>
      <trkpt lat="47.20533" lon="-1.52261">
        <ele>55</ele>
        <time>2020-12-24T14:41:18.000Z</time>
      </trkpt>
      <trkpt lat="47.20527" lon="-1.52277">
        <ele>55</ele>
        <time>2020-12-24T14:41:20.000Z</time>
      </trkpt>
      <trkpt lat="47.20521" lon="-1.52294">
        <ele>55</ele>
        <time>2020-12-24T14:41:22.000Z</time>
      </trkpt>
      <trkpt lat="47.20516" lon="-1.52311">
        <ele>55</ele>
        <time>2020-12-24T14:41:24.000Z</time>
      </trkpt>
      <trkpt lat="47.2051" lon="-1.52328">
        <ele>55</ele>
        <time>2020-12-24T14:41:26.000Z</time>
      </trkpt>
      <trkpt lat="47.20505" lon="-1.52343">
        <ele>56</ele>
        <time>2020-12-24T14:41:28.000Z</time>
      </trkpt>
      <trkpt lat="47.20502" lon="-1.52356">
        <ele>56</ele>
        <time>2020-12-24T14:41:30.000Z</time>
      </trkpt>
      <trkpt lat="47.20498" lon="-1.52369">
        <ele>56</ele>
        <time>2020-12-24T14:41:35.000Z</time>
      </trkpt>
      <trkpt lat="47.20491" lon="-1.52388">
        <ele>56</ele>
        <time>2020-12-24T14:41:38.000Z</time>
      </trkpt>
      <trkpt lat="47.20485" lon="-1.52405">
        <ele>56</ele>
        <time>2020-12-24T14:41:40.000Z</time>
      </trkpt>
      <trkpt lat="47.20478" lon="-1.52425">
        <ele>56</ele>
        <time>2020-12-24T14:41:42.000Z</time>
      </trkpt>
      <trkpt lat="47.20471" lon="-1.52444">
        <ele>55</ele>
        <time>2020-12-24T14:41:44.000Z</time>
      </trkpt>
      <trkpt lat="47.20465" lon="-1.52465">
        <ele>55</ele>
        <time>2020-12-24T14:41:46.000Z</time>
      </trkpt>
      <trkpt lat="47.20459" lon="-1.52484">
        <ele>55</ele>
        <time>2020-12-24T14:41:48.000Z</time>
      </trkpt>
      <trkpt lat="47.20452" lon="-1.52504">
        <ele>55</ele>
        <time>2020-12-24T14:41:50.000Z</time>
      </trkpt>
      <trkpt lat="47.20444" lon="-1.52523">
        <ele>55</ele>
        <time>2020-12-24T14:41:52.000Z</time>
      </trkpt>
      <trkpt lat="47.20437" lon="-1.52542">
        <ele>55</ele>
        <time>2020-12-24T14:41:54.000Z</time>
      </trkpt>
      <trkpt lat="47.2043" lon="-1.52561">
        <ele>55</ele>
        <time>2020-12-24T14:41:56.000Z</time>
      </trkpt>
      <trkpt lat="47.20425" lon="-1.5258">
        <ele>55</ele>
        <time>2020-12-24T14:41:58.000Z</time>
      </trkpt>
      <trkpt lat="47.2042" lon="-1.52599">
        <ele>55</ele>
        <time>2020-12-24T14:42:00.000Z</time>
      </trkpt>
      <trkpt lat="47.20414" lon="-1.52618">
        <ele>55</ele>
        <time>2020-12-24T14:42:02.000Z</time>
      </trkpt>
      <trkpt lat="47.20409" lon="-1.52636">
        <ele>55</ele>
        <time>2020-12-24T14:42:04.000Z</time>
      </trkpt>
      <trkpt lat="47.20401" lon="-1.52653">
        <ele>55</ele>
        <time>2020-12-24T14:42:06.000Z</time>
      </trkpt>
      <trkpt lat="47.20394" lon="-1.5267">
        <ele>55</ele>
        <time>2020-12-24T14:42:08.000Z</time>
      </trkpt>
      <trkpt lat="47.20387" lon="-1.52687">
        <ele>55</ele>
        <time>2020-12-24T14:42:10.000Z</time>
      </trkpt>
      <trkpt lat="47.20378" lon="-1.52703">
        <ele>55</ele>
        <time>2020-12-24T14:42:12.000Z</time>
      </trkpt>
      <trkpt lat="47.20369" lon="-1.52719">
        <ele>55</ele>
        <time>2020-12-24T14:42:14.000Z</time>
      </trkpt>
      <trkpt lat="47.20361" lon="-1.52734">
        <ele>55</ele>
        <time>2020-12-24T14:42:16.000Z</time>
      </trkpt>
      <trkpt lat="47.20353" lon="-1.52749">
        <ele>55</ele>
        <time>2020-12-24T14:42:18.000Z</time>
      </trkpt>
      <trkpt lat="47.20346" lon="-1.52765">
        <ele>55</ele>
        <time>2020-12-24T14:42:20.000Z</time>
      </trkpt>
      <trkpt lat="47.20338" lon="-1.52782">
        <ele>55</ele>
        <time>2020-12-24T14:42:22.000Z</time>
      </trkpt>
      <trkpt lat="47.20331" lon="-1.52798">
        <ele>55</ele>
        <time>2020-12-24T14:42:24.000Z</time>
      </trkpt>
      <trkpt lat="47.20323" lon="-1.52814">
        <ele>56</ele>
        <time>2020-12-24T14:42:26.000Z</time>
      </trkpt>
      <trkpt lat="47.20315" lon="-1.52829">
        <ele>56</ele>
        <time>2020-12-24T14:42:28.000Z</time>
      </trkpt>
      <trkpt lat="47.20308" lon="-1.52845">
        <ele>56</ele>
        <time>2020-12-24T14:42:30.000Z</time>
      </trkpt>
      <trkpt lat="47.203" lon="-1.52861">
        <ele>56</ele>
        <time>2020-12-24T14:42:32.000Z</time>
      </trkpt>
      <trkpt lat="47.20294" lon="-1.52879">
        <ele>56</ele>
        <time>2020-12-24T14:42:34.000Z</time>
      </trkpt>
      <trkpt lat="47.20288" lon="-1.52895">
        <ele>56</ele>
        <time>2020-12-24T14:42:36.000Z</time>
      </trkpt>
      <trkpt lat="47.20282" lon="-1.52911">
        <ele>56</ele>
        <time>2020-12-24T14:42:38.000Z</time>
      </trkpt>
      <trkpt lat="47.20274" lon="-1.52926">
        <ele>55</ele>
        <time>2020-12-24T14:42:40.000Z</time>
      </trkpt>
      <trkpt lat="47.20266" lon="-1.52941">
        <ele>56</ele>
        <time>2020-12-24T14:42:42.000Z</time>
      </trkpt>
      <trkpt lat="47.20258" lon="-1.52955">
        <ele>56</ele>
        <time>2020-12-24T14:42:44.000Z</time>
      </trkpt>
      <trkpt lat="47.2025" lon="-1.5297">
        <ele>56</ele>
        <time>2020-12-24T14:42:46.000Z</time>
      </trkpt>
      <trkpt lat="47.20242" lon="-1.52984">
        <ele>56</ele>
        <time>2020-12-24T14:42:48.000Z</time>
      </trkpt>
      <trkpt lat="47.20234" lon="-1.52999">
        <ele>56</ele>
        <time>2020-12-24T14:42:50.000Z</time>
      </trkpt>
      <trkpt lat="47.20224" lon="-1.53012">
        <ele>56</ele>
        <time>2020-12-24T14:42:52.000Z</time>
      </trkpt>
      <trkpt lat="47.20215" lon="-1.53025">
        <ele>56</ele>
        <time>2020-12-24T14:42:54.000Z</time>
      </trkpt>
      <trkpt lat="47.20204" lon="-1.53036">
        <ele>56</ele>
        <time>2020-12-24T14:42:56.000Z</time>
      </trkpt>
      <trkpt lat="47.20194" lon="-1.53048">
        <ele>56</ele>
        <time>2020-12-24T14:42:58.000Z</time>
      </trkpt>
      <trkpt lat="47.20185" lon="-1.5306">
        <ele>55</ele>
        <time>2020-12-24T14:43:00.000Z</time>
      </trkpt>
      <trkpt lat="47.20176" lon="-1.53074">
        <ele>56</ele>
        <time>2020-12-24T14:43:02.000Z</time>
      </trkpt>
      <trkpt lat="47.20168" lon="-1.53089">
        <ele>56</ele>
        <time>2020-12-24T14:43:04.000Z</time>
      </trkpt>
      <trkpt lat="47.2016" lon="-1.53105">
        <ele>56</ele>
        <time>2020-12-24T14:43:06.000Z</time>
      </trkpt>
      <trkpt lat="47.20153" lon="-1.53121">
        <ele>56</ele>
        <time>2020-12-24T14:43:08.000Z</time>
      </trkpt>
      <trkpt lat="47.20146" lon="-1.53137">
        <ele>56</ele>
        <time>2020-12-24T14:43:10.000Z</time>
      </trkpt>
      <trkpt lat="47.2014" lon="-1.53153">
        <ele>56</ele>
        <time>2020-12-24T14:43:12.000Z</time>
      </trkpt>
      <trkpt lat="47.20134" lon="-1.53169">
        <ele>55</ele>
        <time>2020-12-24T14:43:14.000Z</time>
      </trkpt>
      <trkpt lat="47.20129" lon="-1.53186">
        <ele>55</ele>
        <time>2020-12-24T14:43:16.000Z</time>
      </trkpt>
      <trkpt lat="47.20125" lon="-1.53204">
        <ele>55</ele>
        <time>2020-12-24T14:43:18.000Z</time>
      </trkpt>
      <trkpt lat="47.20121" lon="-1.53222">
        <ele>55</ele>
        <time>2020-12-24T14:43:20.000Z</time>
      </trkpt>
      <trkpt lat="47.20116" lon="-1.53239">
        <ele>55</ele>
        <time>2020-12-24T14:43:22.000Z</time>
      </trkpt>
      <trkpt lat="47.20111" lon="-1.53256">
        <ele>55</ele>
        <time>2020-12-24T14:43:24.000Z</time>
      </trkpt>
      <trkpt lat="47.20107" lon="-1.53274">
        <ele>55</ele>
        <time>2020-12-24T14:43:26.000Z</time>
      </trkpt>
      <trkpt lat="47.20101" lon="-1.5329">
        <ele>56</ele>
        <time>2020-12-24T14:43:28.000Z</time>
      </trkpt>
      <trkpt lat="47.20096" lon="-1.53306">
        <ele>56</ele>
        <time>2020-12-24T14:43:30.000Z</time>
      </trkpt>
      <trkpt lat="47.20089" lon="-1.53322">
        <ele>56</ele>
        <time>2020-12-24T14:43:32.000Z</time>
      </trkpt>
      <trkpt lat="47.20083" lon="-1.53337">
        <ele>57</ele>
        <time>2020-12-24T14:43:34.000Z</time>
      </trkpt>
      <trkpt lat="47.20076" lon="-1.53353">
        <ele>57</ele>
        <time>2020-12-24T14:43:36.000Z</time>
      </trkpt>
      <trkpt lat="47.2007" lon="-1.53369">
        <ele>57</ele>
        <time>2020-12-24T14:43:38.000Z</time>
      </trkpt>
      <trkpt lat="47.20063" lon="-1.53385">
        <ele>57</ele>
        <time>2020-12-24T14:43:40.000Z</time>
      </trkpt>
      <trkpt lat="47.20057" lon="-1.53401">
        <ele>57</ele>
        <time>2020-12-24T14:43:42.000Z</time>
      </trkpt>
      <trkpt lat="47.20049" lon="-1.53414">
        <ele>57</ele>
        <time>2020-12-24T14:43:44.000Z</time>
      </trkpt>
      <trkpt lat="47.20044" lon="-1.53428">
        <ele>57</ele>
        <time>2020-12-24T14:43:46.000Z</time>
      </trkpt>
      <trkpt lat="47.20039" lon="-1.53444">
        <ele>57</ele>
        <time>2020-12-24T14:43:48.000Z</time>
      </trkpt>
      <trkpt lat="47.20033" lon="-1.53462">
        <ele>57</ele>
        <time>2020-12-24T14:43:50.000Z</time>
      </trkpt>
      <trkpt lat="47.20026" lon="-1.53479">
        <ele>57</ele>
        <time>2020-12-24T14:43:52.000Z</time>
      </trkpt>
      <trkpt lat="47.20019" lon="-1.53493">
        <ele>56</ele>
        <time>2020-12-24T14:43:54.000Z</time>
      </trkpt>
      <trkpt lat="47.2001" lon="-1.53506">
        <ele>57</ele>
        <time>2020-12-24T14:43:56.000Z</time>
      </trkpt>
      <trkpt lat="47.2" lon="-1.53518">
        <ele>57</ele>
        <time>2020-12-24T14:43:58.000Z</time>
      </trkpt>
      <trkpt lat="47.19991" lon="-1.5353">
        <ele>56</ele>
        <time>2020-12-24T14:44:00.000Z</time>
      </trkpt>
      <trkpt lat="47.19984" lon="-1.53543">
        <ele>56</ele>
        <time>2020-12-24T14:44:02.000Z</time>
      </trkpt>
      <trkpt lat="47.19981" lon="-1.53558">
        <ele>56</ele>
        <time>2020-12-24T14:44:04.000Z</time>
      </trkpt>
      <trkpt lat="47.19978" lon="-1.53574">
        <ele>56</ele>
        <time>2020-12-24T14:44:06.000Z</time>
      </trkpt>
      <trkpt lat="47.19975" lon="-1.53588">
        <ele>56</ele>
        <time>2020-12-24T14:44:08.000Z</time>
      </trkpt>
      <trkpt lat="47.19972" lon="-1.53604">
        <ele>56</ele>
        <time>2020-12-24T14:44:10.000Z</time>
      </trkpt>
      <trkpt lat="47.19968" lon="-1.53621">
        <ele>56</ele>
        <time>2020-12-24T14:44:12.000Z</time>
      </trkpt>
      <trkpt lat="47.19964" lon="-1.53639">
        <ele>55</ele>
        <time>2020-12-24T14:44:14.000Z</time>
      </trkpt>
      <trkpt lat="47.19959" lon="-1.53657">
        <ele>55</ele>
        <time>2020-12-24T14:44:16.000Z</time>
      </trkpt>
      <trkpt lat="47.19955" lon="-1.53676">
        <ele>55</ele>
        <time>2020-12-24T14:44:18.000Z</time>
      </trkpt>
      <trkpt lat="47.1995" lon="-1.53695">
        <ele>56</ele>
        <time>2020-12-24T14:44:20.000Z</time>
      </trkpt>
      <trkpt lat="47.19947" lon="-1.53713">
        <ele>56</ele>
        <time>2020-12-24T14:44:22.000Z</time>
      </trkpt>
      <trkpt lat="47.19943" lon="-1.53731">
        <ele>56</ele>
        <time>2020-12-24T14:44:24.000Z</time>
      </trkpt>
      <trkpt lat="47.19939" lon="-1.5375">
        <ele>57</ele>
        <time>2020-12-24T14:44:26.000Z</time>
      </trkpt>
      <trkpt lat="47.19934" lon="-1.53768">
        <ele>56</ele>
        <time>2020-12-24T14:44:28.000Z</time>
      </trkpt>
      <trkpt lat="47.19932" lon="-1.53785">
        <ele>56</ele>
        <time>2020-12-24T14:44:30.000Z</time>
      </trkpt>
      <trkpt lat="47.1993" lon="-1.53802">
        <ele>56</ele>
        <time>2020-12-24T14:44:32.000Z</time>
      </trkpt>
      <trkpt lat="47.19927" lon="-1.53821">
        <ele>57</ele>
        <time>2020-12-24T14:44:34.000Z</time>
      </trkpt>
      <trkpt lat="47.19924" lon="-1.53839">
        <ele>58</ele>
        <time>2020-12-24T14:44:36.000Z</time>
      </trkpt>
      <trkpt lat="47.19922" lon="-1.53856">
        <ele>58</ele>
        <time>2020-12-24T14:44:38.000Z</time>
      </trkpt>
      <trkpt lat="47.19919" lon="-1.53873">
        <ele>58</ele>
        <time>2020-12-24T14:44:40.000Z</time>
      </trkpt>
      <trkpt lat="47.19915" lon="-1.5389">
        <ele>59</ele>
        <time>2020-12-24T14:44:42.000Z</time>
      </trkpt>
      <trkpt lat="47.1991" lon="-1.53905">
        <ele>58</ele>
        <time>2020-12-24T14:44:44.000Z</time>
      </trkpt>
      <trkpt lat="47.19906" lon="-1.53925">
        <ele>57</ele>
        <time>2020-12-24T14:44:46.000Z</time>
      </trkpt>
      <trkpt lat="47.199" lon="-1.53944">
        <ele>57</ele>
        <time>2020-12-24T14:44:48.000Z</time>
      </trkpt>
      <trkpt lat="47.19894" lon="-1.53964">
        <ele>58</ele>
        <time>2020-12-24T14:44:50.000Z</time>
      </trkpt>
      <trkpt lat="47.19887" lon="-1.53987">
        <ele>59</ele>
        <time>2020-12-24T14:44:52.000Z</time>
      </trkpt>
      <trkpt lat="47.19878" lon="-1.5401">
        <ele>59</ele>
        <time>2020-12-24T14:44:54.000Z</time>
      </trkpt>
      <trkpt lat="47.19871" lon="-1.54031">
        <ele>59</ele>
        <time>2020-12-24T14:44:56.000Z</time>
      </trkpt>
      <trkpt lat="47.19865" lon="-1.54048">
        <ele>59</ele>
        <time>2020-12-24T14:44:58.000Z</time>
      </trkpt>
      <trkpt lat="47.19859" lon="-1.54068">
        <ele>59</ele>
        <time>2020-12-24T14:45:00.000Z</time>
      </trkpt>
      <trkpt lat="47.19852" lon="-1.5409">
        <ele>59</ele>
        <time>2020-12-24T14:45:02.000Z</time>
      </trkpt>
      <trkpt lat="47.19843" lon="-1.54109">
        <ele>58</ele>
        <time>2020-12-24T14:45:04.000Z</time>
      </trkpt>
      <trkpt lat="47.19834" lon="-1.54124">
        <ele>57</ele>
        <time>2020-12-24T14:45:06.000Z</time>
      </trkpt>
      <trkpt lat="47.19829" lon="-1.5414">
        <ele>58</ele>
        <time>2020-12-24T14:45:08.000Z</time>
      </trkpt>
      <trkpt lat="47.19822" lon="-1.54154">
        <ele>58</ele>
        <time>2020-12-24T14:45:10.000Z</time>
      </trkpt>
      <trkpt lat="47.19813" lon="-1.54166">
        <ele>59</ele>
        <time>2020-12-24T14:45:12.000Z</time>
      </trkpt>
      <trkpt lat="47.19805" lon="-1.54183">
        <ele>59</ele>
        <time>2020-12-24T14:45:14.000Z</time>
      </trkpt>
      <trkpt lat="47.19798" lon="-1.54204">
        <ele>59</ele>
        <time>2020-12-24T14:45:16.000Z</time>
      </trkpt>
      <trkpt lat="47.19791" lon="-1.54225">
        <ele>59</ele>
        <time>2020-12-24T14:45:18.000Z</time>
      </trkpt>
      <trkpt lat="47.19782" lon="-1.54246">
        <ele>59</ele>
        <time>2020-12-24T14:45:20.000Z</time>
      </trkpt>
      <trkpt lat="47.19771" lon="-1.54264">
        <ele>58</ele>
        <time>2020-12-24T14:45:22.000Z</time>
      </trkpt>
      <trkpt lat="47.19759" lon="-1.54281">
        <ele>58</ele>
        <time>2020-12-24T14:45:24.000Z</time>
      </trkpt>
      <trkpt lat="47.19746" lon="-1.54297">
        <ele>57</ele>
        <time>2020-12-24T14:45:26.000Z</time>
      </trkpt>
      <trkpt lat="47.19733" lon="-1.54309">
        <ele>56</ele>
        <time>2020-12-24T14:45:28.000Z</time>
      </trkpt>
      <trkpt lat="47.19718" lon="-1.54319">
        <ele>56</ele>
        <time>2020-12-24T14:45:30.000Z</time>
      </trkpt>
      <trkpt lat="47.19704" lon="-1.54329">
        <ele>56</ele>
        <time>2020-12-24T14:45:32.000Z</time>
      </trkpt>
      <trkpt lat="47.1969" lon="-1.54339">
        <ele>56</ele>
        <time>2020-12-24T14:45:34.000Z</time>
      </trkpt>
      <trkpt lat="47.19677" lon="-1.54349">
        <ele>57</ele>
        <time>2020-12-24T14:45:36.000Z</time>
      </trkpt>
      <trkpt lat="47.19665" lon="-1.54359">
        <ele>57</ele>
        <time>2020-12-24T14:45:38.000Z</time>
      </trkpt>
      <trkpt lat="47.19652" lon="-1.54369">
        <ele>57</ele>
        <time>2020-12-24T14:45:40.000Z</time>
      </trkpt>
      <trkpt lat="47.19639" lon="-1.5438">
        <ele>56</ele>
        <time>2020-12-24T14:45:42.000Z</time>
      </trkpt>
      <trkpt lat="47.19628" lon="-1.54391">
        <ele>57</ele>
        <time>2020-12-24T14:45:44.000Z</time>
      </trkpt>
      <trkpt lat="47.19617" lon="-1.54401">
        <ele>57</ele>
        <time>2020-12-24T14:45:46.000Z</time>
      </trkpt>
      <trkpt lat="47.19606" lon="-1.54411">
        <ele>58</ele>
        <time>2020-12-24T14:45:48.000Z</time>
      </trkpt>
      <trkpt lat="47.19596" lon="-1.54423">
        <ele>58</ele>
        <time>2020-12-24T14:45:50.000Z</time>
      </trkpt>
      <trkpt lat="47.19585" lon="-1.54434">
        <ele>58</ele>
        <time>2020-12-24T14:45:52.000Z</time>
      </trkpt>
      <trkpt lat="47.19574" lon="-1.54444">
        <ele>59</ele>
        <time>2020-12-24T14:45:54.000Z</time>
      </trkpt>
      <trkpt lat="47.19563" lon="-1.54455">
        <ele>59</ele>
        <time>2020-12-24T14:45:56.000Z</time>
      </trkpt>
      <trkpt lat="47.19552" lon="-1.54466">
        <ele>59</ele>
        <time>2020-12-24T14:45:58.000Z</time>
      </trkpt>
      <trkpt lat="47.19541" lon="-1.54476">
        <ele>59</ele>
        <time>2020-12-24T14:46:00.000Z</time>
      </trkpt>
      <trkpt lat="47.19531" lon="-1.54486">
        <ele>58</ele>
        <time>2020-12-24T14:46:02.000Z</time>
      </trkpt>
      <trkpt lat="47.19521" lon="-1.54495">
        <ele>58</ele>
        <time>2020-12-24T14:46:04.000Z</time>
      </trkpt>
      <trkpt lat="47.19511" lon="-1.54504">
        <ele>58</ele>
        <time>2020-12-24T14:46:06.000Z</time>
      </trkpt>
      <trkpt lat="47.19499" lon="-1.54513">
        <ele>58</ele>
        <time>2020-12-24T14:46:08.000Z</time>
      </trkpt>
      <trkpt lat="47.19489" lon="-1.54522">
        <ele>58</ele>
        <time>2020-12-24T14:46:10.000Z</time>
      </trkpt>
      <trkpt lat="47.1948" lon="-1.54534">
        <ele>58</ele>
        <time>2020-12-24T14:46:12.000Z</time>
      </trkpt>
      <trkpt lat="47.19475" lon="-1.5455">
        <ele>58</ele>
        <time>2020-12-24T14:46:14.000Z</time>
      </trkpt>
      <trkpt lat="47.1947" lon="-1.54565">
        <ele>57</ele>
        <time>2020-12-24T14:46:16.000Z</time>
      </trkpt>
      <trkpt lat="47.19474" lon="-1.54583">
        <ele>57</ele>
        <time>2020-12-24T14:46:19.000Z</time>
      </trkpt>
      <trkpt lat="47.19474" lon="-1.54599">
        <ele>57</ele>
        <time>2020-12-24T14:46:21.000Z</time>
      </trkpt>
      <trkpt lat="47.1947" lon="-1.54614">
        <ele>57</ele>
        <time>2020-12-24T14:46:23.000Z</time>
      </trkpt>
      <trkpt lat="47.19464" lon="-1.54629">
        <ele>57</ele>
        <time>2020-12-24T14:46:25.000Z</time>
      </trkpt>
      <trkpt lat="47.19454" lon="-1.54635">
        <ele>58</ele>
        <time>2020-12-24T14:46:27.000Z</time>
      </trkpt>
      <trkpt lat="47.19445" lon="-1.54644">
        <ele>58</ele>
        <time>2020-12-24T14:46:29.000Z</time>
      </trkpt>
      <trkpt lat="47.19442" lon="-1.54663">
        <ele>58</ele>
        <time>2020-12-24T14:46:31.000Z</time>
      </trkpt>
      <trkpt lat="47.19439" lon="-1.54684">
        <ele>59</ele>
        <time>2020-12-24T14:46:33.000Z</time>
      </trkpt>
      <trkpt lat="47.19433" lon="-1.54703">
        <ele>60</ele>
        <time>2020-12-24T14:46:35.000Z</time>
      </trkpt>
      <trkpt lat="47.19424" lon="-1.54721">
        <ele>60</ele>
        <time>2020-12-24T14:46:37.000Z</time>
      </trkpt>
      <trkpt lat="47.19419" lon="-1.54741">
        <ele>60</ele>
        <time>2020-12-24T14:46:39.000Z</time>
      </trkpt>
      <trkpt lat="47.19414" lon="-1.5476">
        <ele>60</ele>
        <time>2020-12-24T14:46:41.000Z</time>
      </trkpt>
      <trkpt lat="47.19409" lon="-1.5478">
        <ele>60</ele>
        <time>2020-12-24T14:46:43.000Z</time>
      </trkpt>
      <trkpt lat="47.19403" lon="-1.54798">
        <ele>61</ele>
        <time>2020-12-24T14:46:45.000Z</time>
      </trkpt>
      <trkpt lat="47.19399" lon="-1.54817">
        <ele>61</ele>
        <time>2020-12-24T14:46:47.000Z</time>
      </trkpt>
      <trkpt lat="47.19395" lon="-1.54834">
        <ele>61</ele>
        <time>2020-12-24T14:46:49.000Z</time>
      </trkpt>
      <trkpt lat="47.1939" lon="-1.5485">
        <ele>62</ele>
        <time>2020-12-24T14:46:51.000Z</time>
      </trkpt>
      <trkpt lat="47.19386" lon="-1.54867">
        <ele>63</ele>
        <time>2020-12-24T14:46:53.000Z</time>
      </trkpt>
      <trkpt lat="47.19382" lon="-1.54885">
        <ele>63</ele>
        <time>2020-12-24T14:46:55.000Z</time>
      </trkpt>
      <trkpt lat="47.19379" lon="-1.54901">
        <ele>63</ele>
        <time>2020-12-24T14:46:57.000Z</time>
      </trkpt>
      <trkpt lat="47.19375" lon="-1.54917">
        <ele>64</ele>
        <time>2020-12-24T14:46:59.000Z</time>
      </trkpt>
      <trkpt lat="47.19371" lon="-1.54932">
        <ele>64</ele>
        <time>2020-12-24T14:47:01.000Z</time>
      </trkpt>
      <trkpt lat="47.19368" lon="-1.54948">
        <ele>64</ele>
        <time>2020-12-24T14:47:03.000Z</time>
      </trkpt>
      <trkpt lat="47.19364" lon="-1.54963">
        <ele>64</ele>
        <time>2020-12-24T14:47:05.000Z</time>
      </trkpt>
      <trkpt lat="47.1936" lon="-1.54979">
        <ele>64</ele>
        <time>2020-12-24T14:47:07.000Z</time>
      </trkpt>
      <trkpt lat="47.19356" lon="-1.54995">
        <ele>64</ele>
        <time>2020-12-24T14:47:09.000Z</time>
      </trkpt>
      <trkpt lat="47.19351" lon="-1.55012">
        <ele>64</ele>
        <time>2020-12-24T14:47:11.000Z</time>
      </trkpt>
      <trkpt lat="47.19347" lon="-1.55029">
        <ele>63</ele>
        <time>2020-12-24T14:47:13.000Z</time>
      </trkpt>
      <trkpt lat="47.19343" lon="-1.55046">
        <ele>63</ele>
        <time>2020-12-24T14:47:15.000Z</time>
      </trkpt>
      <trkpt lat="47.19338" lon="-1.55063">
        <ele>62</ele>
        <time>2020-12-24T14:47:17.000Z</time>
      </trkpt>
      <trkpt lat="47.19334" lon="-1.55081">
        <ele>61</ele>
        <time>2020-12-24T14:47:19.000Z</time>
      </trkpt>
      <trkpt lat="47.1933" lon="-1.551">
        <ele>61</ele>
        <time>2020-12-24T14:47:21.000Z</time>
      </trkpt>
      <trkpt lat="47.19325" lon="-1.55118">
        <ele>60</ele>
        <time>2020-12-24T14:47:23.000Z</time>
      </trkpt>
      <trkpt lat="47.19321" lon="-1.55137">
        <ele>61</ele>
        <time>2020-12-24T14:47:25.000Z</time>
      </trkpt>
      <trkpt lat="47.19316" lon="-1.55155">
        <ele>60</ele>
        <time>2020-12-24T14:47:27.000Z</time>
      </trkpt>
      <trkpt lat="47.19311" lon="-1.55175">
        <ele>59</ele>
        <time>2020-12-24T14:47:29.000Z</time>
      </trkpt>
      <trkpt lat="47.19306" lon="-1.55196">
        <ele>59</ele>
        <time>2020-12-24T14:47:31.000Z</time>
      </trkpt>
      <trkpt lat="47.19301" lon="-1.55215">
        <ele>58</ele>
        <time>2020-12-24T14:47:33.000Z</time>
      </trkpt>
      <trkpt lat="47.19296" lon="-1.55235">
        <ele>58</ele>
        <time>2020-12-24T14:47:35.000Z</time>
      </trkpt>
      <trkpt lat="47.19291" lon="-1.55254">
        <ele>58</ele>
        <time>2020-12-24T14:47:37.000Z</time>
      </trkpt>
      <trkpt lat="47.19286" lon="-1.55274">
        <ele>58</ele>
        <time>2020-12-24T14:47:39.000Z</time>
      </trkpt>
      <trkpt lat="47.19281" lon="-1.55295">
        <ele>57</ele>
        <time>2020-12-24T14:47:41.000Z</time>
      </trkpt>
      <trkpt lat="47.19278" lon="-1.55314">
        <ele>57</ele>
        <time>2020-12-24T14:47:43.000Z</time>
      </trkpt>
      <trkpt lat="47.19274" lon="-1.55334">
        <ele>57</ele>
        <time>2020-12-24T14:47:45.000Z</time>
      </trkpt>
      <trkpt lat="47.19269" lon="-1.55353">
        <ele>57</ele>
        <time>2020-12-24T14:47:47.000Z</time>
      </trkpt>
      <trkpt lat="47.19264" lon="-1.55372">
        <ele>58</ele>
        <time>2020-12-24T14:47:49.000Z</time>
      </trkpt>
      <trkpt lat="47.19258" lon="-1.5539">
        <ele>58</ele>
        <time>2020-12-24T14:47:51.000Z</time>
      </trkpt>
      <trkpt lat="47.19254" lon="-1.55409">
        <ele>58</ele>
        <time>2020-12-24T14:47:53.000Z</time>
      </trkpt>
      <trkpt lat="47.19256" lon="-1.55429">
        <ele>58</ele>
        <time>2020-12-24T14:47:55.000Z</time>
      </trkpt>
      <trkpt lat="47.19254" lon="-1.5545">
        <ele>58</ele>
        <time>2020-12-24T14:47:57.000Z</time>
      </trkpt>
      <trkpt lat="47.19249" lon="-1.55471">
        <ele>58</ele>
        <time>2020-12-24T14:47:59.000Z</time>
      </trkpt>
      <trkpt lat="47.19248" lon="-1.55492">
        <ele>57</ele>
        <time>2020-12-24T14:48:01.000Z</time>
      </trkpt>
      <trkpt lat="47.19247" lon="-1.55514">
        <ele>57</ele>
        <time>2020-12-24T14:48:03.000Z</time>
      </trkpt>
      <trkpt lat="47.19246" lon="-1.55537">
        <ele>57</ele>
        <time>2020-12-24T14:48:05.000Z</time>
      </trkpt>
      <trkpt lat="47.19245" lon="-1.55559">
        <ele>57</ele>
        <time>2020-12-24T14:48:07.000Z</time>
      </trkpt>
      <trkpt lat="47.19244" lon="-1.55581">
        <ele>58</ele>
        <time>2020-12-24T14:48:09.000Z</time>
      </trkpt>
      <trkpt lat="47.19242" lon="-1.55604">
        <ele>59</ele>
        <time>2020-12-24T14:48:11.000Z</time>
      </trkpt>
      <trkpt lat="47.19241" lon="-1.55627">
        <ele>58</ele>
        <time>2020-12-24T14:48:13.000Z</time>
      </trkpt>
      <trkpt lat="47.1924" lon="-1.55649">
        <ele>58</ele>
        <time>2020-12-24T14:48:15.000Z</time>
      </trkpt>
      <trkpt lat="47.19239" lon="-1.55671">
        <ele>58</ele>
        <time>2020-12-24T14:48:17.000Z</time>
      </trkpt>
      <trkpt lat="47.19237" lon="-1.55693">
        <ele>58</ele>
        <time>2020-12-24T14:48:19.000Z</time>
      </trkpt>
      <trkpt lat="47.19237" lon="-1.55716">
        <ele>57</ele>
        <time>2020-12-24T14:48:21.000Z</time>
      </trkpt>
      <trkpt lat="47.19237" lon="-1.55737">
        <ele>57</ele>
        <time>2020-12-24T14:48:23.000Z</time>
      </trkpt>
      <trkpt lat="47.19237" lon="-1.55758">
        <ele>57</ele>
        <time>2020-12-24T14:48:25.000Z</time>
      </trkpt>
      <trkpt lat="47.19238" lon="-1.55779">
        <ele>57</ele>
        <time>2020-12-24T14:48:27.000Z</time>
      </trkpt>
      <trkpt lat="47.19238" lon="-1.558">
        <ele>58</ele>
        <time>2020-12-24T14:48:29.000Z</time>
      </trkpt>
      <trkpt lat="47.19238" lon="-1.55821">
        <ele>57</ele>
        <time>2020-12-24T14:48:31.000Z</time>
      </trkpt>
      <trkpt lat="47.19239" lon="-1.55842">
        <ele>57</ele>
        <time>2020-12-24T14:48:33.000Z</time>
      </trkpt>
      <trkpt lat="47.1924" lon="-1.55863">
        <ele>57</ele>
        <time>2020-12-24T14:48:35.000Z</time>
      </trkpt>
      <trkpt lat="47.19241" lon="-1.55884">
        <ele>57</ele>
        <time>2020-12-24T14:48:37.000Z</time>
      </trkpt>
      <trkpt lat="47.19242" lon="-1.55905">
        <ele>57</ele>
        <time>2020-12-24T14:48:39.000Z</time>
      </trkpt>
      <trkpt lat="47.19244" lon="-1.55925">
        <ele>57</ele>
        <time>2020-12-24T14:48:41.000Z</time>
      </trkpt>
      <trkpt lat="47.19246" lon="-1.55946">
        <ele>57</ele>
        <time>2020-12-24T14:48:43.000Z</time>
      </trkpt>
      <trkpt lat="47.19248" lon="-1.55966">
        <ele>57</ele>
        <time>2020-12-24T14:48:45.000Z</time>
      </trkpt>
      <trkpt lat="47.19249" lon="-1.55986">
        <ele>57</ele>
        <time>2020-12-24T14:48:47.000Z</time>
      </trkpt>
      <trkpt lat="47.19251" lon="-1.56007">
        <ele>57</ele>
        <time>2020-12-24T14:48:49.000Z</time>
      </trkpt>
      <trkpt lat="47.19253" lon="-1.56026">
        <ele>57</ele>
        <time>2020-12-24T14:48:51.000Z</time>
      </trkpt>
      <trkpt lat="47.19256" lon="-1.56047">
        <ele>57</ele>
        <time>2020-12-24T14:48:53.000Z</time>
      </trkpt>
      <trkpt lat="47.19259" lon="-1.56067">
        <ele>57</ele>
        <time>2020-12-24T14:48:55.000Z</time>
      </trkpt>
      <trkpt lat="47.1926" lon="-1.56087">
        <ele>57</ele>
        <time>2020-12-24T14:48:57.000Z</time>
      </trkpt>
      <trkpt lat="47.19261" lon="-1.56107">
        <ele>57</ele>
        <time>2020-12-24T14:48:59.000Z</time>
      </trkpt>
      <trkpt lat="47.19262" lon="-1.56126">
        <ele>57</ele>
        <time>2020-12-24T14:49:01.000Z</time>
      </trkpt>
      <trkpt lat="47.19263" lon="-1.56145">
        <ele>57</ele>
        <time>2020-12-24T14:49:03.000Z</time>
      </trkpt>
      <trkpt lat="47.19264" lon="-1.56163">
        <ele>57</ele>
        <time>2020-12-24T14:49:05.000Z</time>
      </trkpt>
      <trkpt lat="47.19265" lon="-1.56181">
        <ele>57</ele>
        <time>2020-12-24T14:49:07.000Z</time>
      </trkpt>
      <trkpt lat="47.19266" lon="-1.56199">
        <ele>58</ele>
        <time>2020-12-24T14:49:09.000Z</time>
      </trkpt>
      <trkpt lat="47.19267" lon="-1.56216">
        <ele>57</ele>
        <time>2020-12-24T14:49:11.000Z</time>
      </trkpt>
      <trkpt lat="47.1927" lon="-1.56231">
        <ele>57</ele>
        <time>2020-12-24T14:49:13.000Z</time>
      </trkpt>
      <trkpt lat="47.19274" lon="-1.56246">
        <ele>57</ele>
        <time>2020-12-24T14:49:15.000Z</time>
      </trkpt>
      <trkpt lat="47.19283" lon="-1.56258">
        <ele>57</ele>
        <time>2020-12-24T14:49:17.000Z</time>
      </trkpt>
      <trkpt lat="47.1929" lon="-1.56274">
        <ele>57</ele>
        <time>2020-12-24T14:49:19.000Z</time>
      </trkpt>
      <trkpt lat="47.19292" lon="-1.56293">
        <ele>57</ele>
        <time>2020-12-24T14:49:21.000Z</time>
      </trkpt>
      <trkpt lat="47.19289" lon="-1.56311">
        <ele>58</ele>
        <time>2020-12-24T14:49:23.000Z</time>
      </trkpt>
      <trkpt lat="47.19282" lon="-1.56328">
        <ele>58</ele>
        <time>2020-12-24T14:49:25.000Z</time>
      </trkpt>
      <trkpt lat="47.1928" lon="-1.56348">
        <ele>57</ele>
        <time>2020-12-24T14:49:27.000Z</time>
      </trkpt>
      <trkpt lat="47.19284" lon="-1.56367">
        <ele>57</ele>
        <time>2020-12-24T14:49:29.000Z</time>
      </trkpt>
      <trkpt lat="47.19287" lon="-1.56385">
        <ele>57</ele>
        <time>2020-12-24T14:49:31.000Z</time>
      </trkpt>
      <trkpt lat="47.19289" lon="-1.56406">
        <ele>57</ele>
        <time>2020-12-24T14:49:33.000Z</time>
      </trkpt>
      <trkpt lat="47.1929" lon="-1.56425">
        <ele>57</ele>
        <time>2020-12-24T14:49:35.000Z</time>
      </trkpt>
      <trkpt lat="47.19292" lon="-1.56444">
        <ele>57</ele>
        <time>2020-12-24T14:49:37.000Z</time>
      </trkpt>
      <trkpt lat="47.19293" lon="-1.56463">
        <ele>57</ele>
        <time>2020-12-24T14:49:39.000Z</time>
      </trkpt>
      <trkpt lat="47.19295" lon="-1.56481">
        <ele>57</ele>
        <time>2020-12-24T14:49:41.000Z</time>
      </trkpt>
      <trkpt lat="47.19296" lon="-1.565">
        <ele>57</ele>
        <time>2020-12-24T14:49:43.000Z</time>
      </trkpt>
      <trkpt lat="47.19298" lon="-1.56517">
        <ele>57</ele>
        <time>2020-12-24T14:49:45.000Z</time>
      </trkpt>
      <trkpt lat="47.193" lon="-1.56535">
        <ele>57</ele>
        <time>2020-12-24T14:49:47.000Z</time>
      </trkpt>
      <trkpt lat="47.19302" lon="-1.56554">
        <ele>57</ele>
        <time>2020-12-24T14:49:49.000Z</time>
      </trkpt>
      <trkpt lat="47.19303" lon="-1.56571">
        <ele>57</ele>
        <time>2020-12-24T14:49:51.000Z</time>
      </trkpt>
      <trkpt lat="47.19305" lon="-1.56589">
        <ele>57</ele>
        <time>2020-12-24T14:49:53.000Z</time>
      </trkpt>
      <trkpt lat="47.19306" lon="-1.56608">
        <ele>57</ele>
        <time>2020-12-24T14:49:55.000Z</time>
      </trkpt>
      <trkpt lat="47.19308" lon="-1.56626">
        <ele>57</ele>
        <time>2020-12-24T14:49:57.000Z</time>
      </trkpt>
      <trkpt lat="47.1931" lon="-1.56645">
        <ele>57</ele>
        <time>2020-12-24T14:49:59.000Z</time>
      </trkpt>
      <trkpt lat="47.19311" lon="-1.56664">
        <ele>57</ele>
        <time>2020-12-24T14:50:01.000Z</time>
      </trkpt>
      <trkpt lat="47.19313" lon="-1.56683">
        <ele>57</ele>
        <time>2020-12-24T14:50:03.000Z</time>
      </trkpt>
      <trkpt lat="47.19315" lon="-1.56701">
        <ele>57</ele>
        <time>2020-12-24T14:50:05.000Z</time>
      </trkpt>
      <trkpt lat="47.19317" lon="-1.56719">
        <ele>57</ele>
        <time>2020-12-24T14:50:07.000Z</time>
      </trkpt>
      <trkpt lat="47.19318" lon="-1.56737">
        <ele>57</ele>
        <time>2020-12-24T14:50:09.000Z</time>
      </trkpt>
      <trkpt lat="47.1932" lon="-1.56755">
        <ele>57</ele>
        <time>2020-12-24T14:50:11.000Z</time>
      </trkpt>
      <trkpt lat="47.19322" lon="-1.56773">
        <ele>57</ele>
        <time>2020-12-24T14:50:13.000Z</time>
      </trkpt>
      <trkpt lat="47.19324" lon="-1.5679">
        <ele>57</ele>
        <time>2020-12-24T14:50:15.000Z</time>
      </trkpt>
      <trkpt lat="47.19325" lon="-1.56808">
        <ele>57</ele>
        <time>2020-12-24T14:50:17.000Z</time>
      </trkpt>
      <trkpt lat="47.19326" lon="-1.56826">
        <ele>57</ele>
        <time>2020-12-24T14:50:19.000Z</time>
      </trkpt>
      <trkpt lat="47.19328" lon="-1.56844">
        <ele>58</ele>
        <time>2020-12-24T14:50:21.000Z</time>
      </trkpt>
      <trkpt lat="47.19328" lon="-1.56862">
        <ele>58</ele>
        <time>2020-12-24T14:50:23.000Z</time>
      </trkpt>
      <trkpt lat="47.19329" lon="-1.5688">
        <ele>57</ele>
        <time>2020-12-24T14:50:25.000Z</time>
      </trkpt>
      <trkpt lat="47.1933" lon="-1.56899">
        <ele>57</ele>
        <time>2020-12-24T14:50:27.000Z</time>
      </trkpt>
      <trkpt lat="47.19329" lon="-1.56918">
        <ele>57</ele>
        <time>2020-12-24T14:50:29.000Z</time>
      </trkpt>
      <trkpt lat="47.19329" lon="-1.56937">
        <ele>57</ele>
        <time>2020-12-24T14:50:31.000Z</time>
      </trkpt>
      <trkpt lat="47.19329" lon="-1.56956">
        <ele>57</ele>
        <time>2020-12-24T14:50:33.000Z</time>
      </trkpt>
      <trkpt lat="47.19327" lon="-1.56975">
        <ele>57</ele>
        <time>2020-12-24T14:50:35.000Z</time>
      </trkpt>
      <trkpt lat="47.19325" lon="-1.56993">
        <ele>57</ele>
        <time>2020-12-24T14:50:37.000Z</time>
      </trkpt>
      <trkpt lat="47.19323" lon="-1.57009">
        <ele>57</ele>
        <time>2020-12-24T14:50:39.000Z</time>
      </trkpt>
      <trkpt lat="47.19322" lon="-1.57025">
        <ele>57</ele>
        <time>2020-12-24T14:50:41.000Z</time>
      </trkpt>
      <trkpt lat="47.19328" lon="-1.57037">
        <ele>57</ele>
        <time>2020-12-24T14:50:43.000Z</time>
      </trkpt>
      <trkpt lat="47.19336" lon="-1.57048">
        <ele>58</ele>
        <time>2020-12-24T14:50:45.000Z</time>
      </trkpt>
      <trkpt lat="47.1934" lon="-1.57067">
        <ele>57</ele>
        <time>2020-12-24T14:50:47.000Z</time>
      </trkpt>
      <trkpt lat="47.19333" lon="-1.57082">
        <ele>58</ele>
        <time>2020-12-24T14:50:49.000Z</time>
      </trkpt>
      <trkpt lat="47.1932" lon="-1.57089">
        <ele>57</ele>
        <time>2020-12-24T14:50:51.000Z</time>
      </trkpt>
      <trkpt lat="47.19312" lon="-1.57103">
        <ele>58</ele>
        <time>2020-12-24T14:50:53.000Z</time>
      </trkpt>
      <trkpt lat="47.19311" lon="-1.57123">
        <ele>58</ele>
        <time>2020-12-24T14:50:55.000Z</time>
      </trkpt>
      <trkpt lat="47.19308" lon="-1.57143">
        <ele>58</ele>
        <time>2020-12-24T14:50:57.000Z</time>
      </trkpt>
      <trkpt lat="47.19305" lon="-1.57162">
        <ele>58</ele>
        <time>2020-12-24T14:50:59.000Z</time>
      </trkpt>
      <trkpt lat="47.19303" lon="-1.57182">
        <ele>58</ele>
        <time>2020-12-24T14:51:01.000Z</time>
      </trkpt>
      <trkpt lat="47.19299" lon="-1.57201">
        <ele>57</ele>
        <time>2020-12-24T14:51:03.000Z</time>
      </trkpt>
      <trkpt lat="47.19295" lon="-1.5722">
        <ele>57</ele>
        <time>2020-12-24T14:51:05.000Z</time>
      </trkpt>
      <trkpt lat="47.19291" lon="-1.57239">
        <ele>57</ele>
        <time>2020-12-24T14:51:07.000Z</time>
      </trkpt>
      <trkpt lat="47.19286" lon="-1.57259">
        <ele>57</ele>
        <time>2020-12-24T14:51:09.000Z</time>
      </trkpt>
      <trkpt lat="47.19282" lon="-1.57278">
        <ele>58</ele>
        <time>2020-12-24T14:51:11.000Z</time>
      </trkpt>
      <trkpt lat="47.19276" lon="-1.57296">
        <ele>58</ele>
        <time>2020-12-24T14:51:13.000Z</time>
      </trkpt>
      <trkpt lat="47.19271" lon="-1.57315">
        <ele>58</ele>
        <time>2020-12-24T14:51:15.000Z</time>
      </trkpt>
      <trkpt lat="47.19265" lon="-1.57333">
        <ele>58</ele>
        <time>2020-12-24T14:51:17.000Z</time>
      </trkpt>
      <trkpt lat="47.19259" lon="-1.57351">
        <ele>57</ele>
        <time>2020-12-24T14:51:19.000Z</time>
      </trkpt>
      <trkpt lat="47.19254" lon="-1.5737">
        <ele>58</ele>
        <time>2020-12-24T14:51:21.000Z</time>
      </trkpt>
      <trkpt lat="47.19248" lon="-1.57388">
        <ele>58</ele>
        <time>2020-12-24T14:51:23.000Z</time>
      </trkpt>
      <trkpt lat="47.19242" lon="-1.57407">
        <ele>58</ele>
        <time>2020-12-24T14:51:25.000Z</time>
      </trkpt>
      <trkpt lat="47.19235" lon="-1.57425">
        <ele>58</ele>
        <time>2020-12-24T14:51:27.000Z</time>
      </trkpt>
      <trkpt lat="47.19229" lon="-1.57444">
        <ele>59</ele>
        <time>2020-12-24T14:51:29.000Z</time>
      </trkpt>
      <trkpt lat="47.19222" lon="-1.57462">
        <ele>58</ele>
        <time>2020-12-24T14:51:31.000Z</time>
      </trkpt>
      <trkpt lat="47.19216" lon="-1.57481">
        <ele>58</ele>
        <time>2020-12-24T14:51:33.000Z</time>
      </trkpt>
      <trkpt lat="47.19209" lon="-1.57499">
        <ele>58</ele>
        <time>2020-12-24T14:51:35.000Z</time>
      </trkpt>
      <trkpt lat="47.19202" lon="-1.57517">
        <ele>59</ele>
        <time>2020-12-24T14:51:37.000Z</time>
      </trkpt>
      <trkpt lat="47.19195" lon="-1.57534">
        <ele>59</ele>
        <time>2020-12-24T14:51:39.000Z</time>
      </trkpt>
      <trkpt lat="47.19188" lon="-1.57551">
        <ele>58</ele>
        <time>2020-12-24T14:51:41.000Z</time>
      </trkpt>
      <trkpt lat="47.19183" lon="-1.57569">
        <ele>58</ele>
        <time>2020-12-24T14:51:43.000Z</time>
      </trkpt>
      <trkpt lat="47.19177" lon="-1.57587">
        <ele>58</ele>
        <time>2020-12-24T14:51:45.000Z</time>
      </trkpt>
      <trkpt lat="47.1917" lon="-1.57604">
        <ele>58</ele>
        <time>2020-12-24T14:51:47.000Z</time>
      </trkpt>
      <trkpt lat="47.19164" lon="-1.57621">
        <ele>58</ele>
        <time>2020-12-24T14:51:49.000Z</time>
      </trkpt>
      <trkpt lat="47.19157" lon="-1.57639">
        <ele>59</ele>
        <time>2020-12-24T14:51:51.000Z</time>
      </trkpt>
      <trkpt lat="47.19152" lon="-1.57655">
        <ele>58</ele>
        <time>2020-12-24T14:51:53.000Z</time>
      </trkpt>
      <trkpt lat="47.19145" lon="-1.57673">
        <ele>58</ele>
        <time>2020-12-24T14:51:55.000Z</time>
      </trkpt>
      <trkpt lat="47.19139" lon="-1.5769">
        <ele>59</ele>
        <time>2020-12-24T14:51:57.000Z</time>
      </trkpt>
      <trkpt lat="47.19132" lon="-1.57707">
        <ele>59</ele>
        <time>2020-12-24T14:51:59.000Z</time>
      </trkpt>
      <trkpt lat="47.19126" lon="-1.57724">
        <ele>59</ele>
        <time>2020-12-24T14:52:01.000Z</time>
      </trkpt>
      <trkpt lat="47.1912" lon="-1.57741">
        <ele>59</ele>
        <time>2020-12-24T14:52:03.000Z</time>
      </trkpt>
      <trkpt lat="47.19115" lon="-1.57758">
        <ele>58</ele>
        <time>2020-12-24T14:52:05.000Z</time>
      </trkpt>
      <trkpt lat="47.19109" lon="-1.57775">
        <ele>58</ele>
        <time>2020-12-24T14:52:07.000Z</time>
      </trkpt>
      <trkpt lat="47.19103" lon="-1.57792">
        <ele>58</ele>
        <time>2020-12-24T14:52:09.000Z</time>
      </trkpt>
      <trkpt lat="47.19097" lon="-1.57809">
        <ele>57</ele>
        <time>2020-12-24T14:52:11.000Z</time>
      </trkpt>
      <trkpt lat="47.19091" lon="-1.57826">
        <ele>58</ele>
        <time>2020-12-24T14:52:13.000Z</time>
      </trkpt>
      <trkpt lat="47.19084" lon="-1.57842">
        <ele>58</ele>
        <time>2020-12-24T14:52:15.000Z</time>
      </trkpt>
      <trkpt lat="47.19079" lon="-1.57859">
        <ele>58</ele>
        <time>2020-12-24T14:52:17.000Z</time>
      </trkpt>
      <trkpt lat="47.19073" lon="-1.57877">
        <ele>58</ele>
        <time>2020-12-24T14:52:19.000Z</time>
      </trkpt>
      <trkpt lat="47.19066" lon="-1.57894">
        <ele>58</ele>
        <time>2020-12-24T14:52:21.000Z</time>
      </trkpt>
      <trkpt lat="47.1906" lon="-1.57911">
        <ele>58</ele>
        <time>2020-12-24T14:52:23.000Z</time>
      </trkpt>
      <trkpt lat="47.19054" lon="-1.57929">
        <ele>58</ele>
        <time>2020-12-24T14:52:25.000Z</time>
      </trkpt>
      <trkpt lat="47.19048" lon="-1.57945">
        <ele>57</ele>
        <time>2020-12-24T14:52:27.000Z</time>
      </trkpt>
      <trkpt lat="47.19042" lon="-1.57962">
        <ele>57</ele>
        <time>2020-12-24T14:52:29.000Z</time>
      </trkpt>
      <trkpt lat="47.19036" lon="-1.57978">
        <ele>58</ele>
        <time>2020-12-24T14:52:31.000Z</time>
      </trkpt>
      <trkpt lat="47.19027" lon="-1.58003">
        <ele>58</ele>
        <time>2020-12-24T14:52:34.000Z</time>
      </trkpt>
      <trkpt lat="47.19021" lon="-1.5802">
        <ele>58</ele>
        <time>2020-12-24T14:52:36.000Z</time>
      </trkpt>
      <trkpt lat="47.19015" lon="-1.58037">
        <ele>58</ele>
        <time>2020-12-24T14:52:38.000Z</time>
      </trkpt>
      <trkpt lat="47.19008" lon="-1.58054">
        <ele>58</ele>
        <time>2020-12-24T14:52:40.000Z</time>
      </trkpt>
      <trkpt lat="47.19003" lon="-1.58072">
        <ele>58</ele>
        <time>2020-12-24T14:52:42.000Z</time>
      </trkpt>
      <trkpt lat="47.18997" lon="-1.58088">
        <ele>58</ele>
        <time>2020-12-24T14:52:44.000Z</time>
      </trkpt>
      <trkpt lat="47.18991" lon="-1.58105">
        <ele>58</ele>
        <time>2020-12-24T14:52:46.000Z</time>
      </trkpt>
      <trkpt lat="47.18984" lon="-1.58123">
        <ele>58</ele>
        <time>2020-12-24T14:52:48.000Z</time>
      </trkpt>
      <trkpt lat="47.18978" lon="-1.58139">
        <ele>58</ele>
        <time>2020-12-24T14:52:50.000Z</time>
      </trkpt>
      <trkpt lat="47.1897" lon="-1.58164">
        <ele>58</ele>
        <time>2020-12-24T14:52:53.000Z</time>
      </trkpt>
      <trkpt lat="47.1896" lon="-1.5819">
        <ele>58</ele>
        <time>2020-12-24T14:52:56.000Z</time>
      </trkpt>
      <trkpt lat="47.18955" lon="-1.58207">
        <ele>58</ele>
        <time>2020-12-24T14:52:58.000Z</time>
      </trkpt>
      <trkpt lat="47.18949" lon="-1.58224">
        <ele>58</ele>
        <time>2020-12-24T14:53:00.000Z</time>
      </trkpt>
      <trkpt lat="47.1894" lon="-1.5825">
        <ele>58</ele>
        <time>2020-12-24T14:53:03.000Z</time>
      </trkpt>
      <trkpt lat="47.18933" lon="-1.58267">
        <ele>58</ele>
        <time>2020-12-24T14:53:05.000Z</time>
      </trkpt>
      <trkpt lat="47.18927" lon="-1.58284">
        <ele>58</ele>
        <time>2020-12-24T14:53:07.000Z</time>
      </trkpt>
      <trkpt lat="47.18918" lon="-1.58309">
        <ele>58</ele>
        <time>2020-12-24T14:53:10.000Z</time>
      </trkpt>
      <trkpt lat="47.18912" lon="-1.58326">
        <ele>58</ele>
        <time>2020-12-24T14:53:12.000Z</time>
      </trkpt>
      <trkpt lat="47.18903" lon="-1.58352">
        <ele>57</ele>
        <time>2020-12-24T14:53:15.000Z</time>
      </trkpt>
      <trkpt lat="47.18895" lon="-1.58377">
        <ele>57</ele>
        <time>2020-12-24T14:53:18.000Z</time>
      </trkpt>
      <trkpt lat="47.18886" lon="-1.58403">
        <ele>57</ele>
        <time>2020-12-24T14:53:21.000Z</time>
      </trkpt>
      <trkpt lat="47.18881" lon="-1.5842">
        <ele>57</ele>
        <time>2020-12-24T14:53:23.000Z</time>
      </trkpt>
      <trkpt lat="47.18873" lon="-1.58445">
        <ele>57</ele>
        <time>2020-12-24T14:53:26.000Z</time>
      </trkpt>
      <trkpt lat="47.18868" lon="-1.58462">
        <ele>57</ele>
        <time>2020-12-24T14:53:28.000Z</time>
      </trkpt>
      <trkpt lat="47.1886" lon="-1.58487">
        <ele>57</ele>
        <time>2020-12-24T14:53:31.000Z</time>
      </trkpt>
      <trkpt lat="47.18853" lon="-1.58513">
        <ele>57</ele>
        <time>2020-12-24T14:53:34.000Z</time>
      </trkpt>
      <trkpt lat="47.18845" lon="-1.58539">
        <ele>56</ele>
        <time>2020-12-24T14:53:37.000Z</time>
      </trkpt>
      <trkpt lat="47.18841" lon="-1.58556">
        <ele>57</ele>
        <time>2020-12-24T14:53:39.000Z</time>
      </trkpt>
      <trkpt lat="47.18836" lon="-1.58574">
        <ele>57</ele>
        <time>2020-12-24T14:53:41.000Z</time>
      </trkpt>
      <trkpt lat="47.18832" lon="-1.58591">
        <ele>57</ele>
        <time>2020-12-24T14:53:43.000Z</time>
      </trkpt>
      <trkpt lat="47.18828" lon="-1.58608">
        <ele>56</ele>
        <time>2020-12-24T14:53:45.000Z</time>
      </trkpt>
      <trkpt lat="47.18825" lon="-1.58625">
        <ele>57</ele>
        <time>2020-12-24T14:53:47.000Z</time>
      </trkpt>
      <trkpt lat="47.18821" lon="-1.58642">
        <ele>57</ele>
        <time>2020-12-24T14:53:49.000Z</time>
      </trkpt>
      <trkpt lat="47.18818" lon="-1.58659">
        <ele>56</ele>
        <time>2020-12-24T14:53:51.000Z</time>
      </trkpt>
      <trkpt lat="47.18816" lon="-1.58675">
        <ele>56</ele>
        <time>2020-12-24T14:53:53.000Z</time>
      </trkpt>
      <trkpt lat="47.18814" lon="-1.58692">
        <ele>57</ele>
        <time>2020-12-24T14:53:55.000Z</time>
      </trkpt>
      <trkpt lat="47.18818" lon="-1.58716">
        <ele>56</ele>
        <time>2020-12-24T14:53:58.000Z</time>
      </trkpt>
      <trkpt lat="47.18826" lon="-1.58732">
        <ele>56</ele>
        <time>2020-12-24T14:54:00.000Z</time>
      </trkpt>
      <trkpt lat="47.18829" lon="-1.58751">
        <ele>57</ele>
        <time>2020-12-24T14:54:02.000Z</time>
      </trkpt>
      <trkpt lat="47.18827" lon="-1.58771">
        <ele>57</ele>
        <time>2020-12-24T14:54:04.000Z</time>
      </trkpt>
      <trkpt lat="47.18819" lon="-1.58788">
        <ele>58</ele>
        <time>2020-12-24T14:54:06.000Z</time>
      </trkpt>
      <trkpt lat="47.18809" lon="-1.58799">
        <ele>59</ele>
        <time>2020-12-24T14:54:08.000Z</time>
      </trkpt>
      <trkpt lat="47.18797" lon="-1.58809">
        <ele>59</ele>
        <time>2020-12-24T14:54:10.000Z</time>
      </trkpt>
      <trkpt lat="47.18789" lon="-1.58826">
        <ele>58</ele>
        <time>2020-12-24T14:54:12.000Z</time>
      </trkpt>
      <trkpt lat="47.18786" lon="-1.58846">
        <ele>58</ele>
        <time>2020-12-24T14:54:14.000Z</time>
      </trkpt>
      <trkpt lat="47.18783" lon="-1.58866">
        <ele>58</ele>
        <time>2020-12-24T14:54:16.000Z</time>
      </trkpt>
      <trkpt lat="47.18779" lon="-1.58885">
        <ele>58</ele>
        <time>2020-12-24T14:54:18.000Z</time>
      </trkpt>
      <trkpt lat="47.18776" lon="-1.58905">
        <ele>58</ele>
        <time>2020-12-24T14:54:20.000Z</time>
      </trkpt>
      <trkpt lat="47.18774" lon="-1.58926">
        <ele>58</ele>
        <time>2020-12-24T14:54:22.000Z</time>
      </trkpt>
      <trkpt lat="47.18772" lon="-1.58945">
        <ele>58</ele>
        <time>2020-12-24T14:54:24.000Z</time>
      </trkpt>
      <trkpt lat="47.18769" lon="-1.58964">
        <ele>57</ele>
        <time>2020-12-24T14:54:26.000Z</time>
      </trkpt>
      <trkpt lat="47.18767" lon="-1.58983">
        <ele>57</ele>
        <time>2020-12-24T14:54:28.000Z</time>
      </trkpt>
      <trkpt lat="47.18765" lon="-1.59002">
        <ele>57</ele>
        <time>2020-12-24T14:54:30.000Z</time>
      </trkpt>
      <trkpt lat="47.18763" lon="-1.59021">
        <ele>57</ele>
        <time>2020-12-24T14:54:32.000Z</time>
      </trkpt>
      <trkpt lat="47.18761" lon="-1.5904">
        <ele>57</ele>
        <time>2020-12-24T14:54:34.000Z</time>
      </trkpt>
      <trkpt lat="47.1876" lon="-1.5906">
        <ele>57</ele>
        <time>2020-12-24T14:54:36.000Z</time>
      </trkpt>
      <trkpt lat="47.18758" lon="-1.59079">
        <ele>57</ele>
        <time>2020-12-24T14:54:38.000Z</time>
      </trkpt>
      <trkpt lat="47.18754" lon="-1.59108">
        <ele>57</ele>
        <time>2020-12-24T14:54:41.000Z</time>
      </trkpt>
      <trkpt lat="47.18752" lon="-1.59128">
        <ele>57</ele>
        <time>2020-12-24T14:54:43.000Z</time>
      </trkpt>
      <trkpt lat="47.18749" lon="-1.59147">
        <ele>58</ele>
        <time>2020-12-24T14:54:45.000Z</time>
      </trkpt>
      <trkpt lat="47.18748" lon="-1.59165">
        <ele>57</ele>
        <time>2020-12-24T14:54:47.000Z</time>
      </trkpt>
      <trkpt lat="47.18746" lon="-1.59184">
        <ele>57</ele>
        <time>2020-12-24T14:54:49.000Z</time>
      </trkpt>
      <trkpt lat="47.18743" lon="-1.59204">
        <ele>57</ele>
        <time>2020-12-24T14:54:51.000Z</time>
      </trkpt>
      <trkpt lat="47.18741" lon="-1.59223">
        <ele>57</ele>
        <time>2020-12-24T14:54:53.000Z</time>
      </trkpt>
      <trkpt lat="47.18739" lon="-1.59241">
        <ele>57</ele>
        <time>2020-12-24T14:54:55.000Z</time>
      </trkpt>
      <trkpt lat="47.18737" lon="-1.5926">
        <ele>57</ele>
        <time>2020-12-24T14:54:57.000Z</time>
      </trkpt>
      <trkpt lat="47.18735" lon="-1.59279">
        <ele>57</ele>
        <time>2020-12-24T14:54:59.000Z</time>
      </trkpt>
      <trkpt lat="47.18733" lon="-1.59298">
        <ele>57</ele>
        <time>2020-12-24T14:55:01.000Z</time>
      </trkpt>
      <trkpt lat="47.18731" lon="-1.59317">
        <ele>57</ele>
        <time>2020-12-24T14:55:03.000Z</time>
      </trkpt>
      <trkpt lat="47.18729" lon="-1.59335">
        <ele>57</ele>
        <time>2020-12-24T14:55:05.000Z</time>
      </trkpt>
      <trkpt lat="47.18727" lon="-1.59354">
        <ele>57</ele>
        <time>2020-12-24T14:55:07.000Z</time>
      </trkpt>
      <trkpt lat="47.18725" lon="-1.59372">
        <ele>56</ele>
        <time>2020-12-24T14:55:09.000Z</time>
      </trkpt>
      <trkpt lat="47.18723" lon="-1.59391">
        <ele>56</ele>
        <time>2020-12-24T14:55:11.000Z</time>
      </trkpt>
      <trkpt lat="47.18721" lon="-1.59409">
        <ele>56</ele>
        <time>2020-12-24T14:55:13.000Z</time>
      </trkpt>
      <trkpt lat="47.18719" lon="-1.59427">
        <ele>56</ele>
        <time>2020-12-24T14:55:15.000Z</time>
      </trkpt>
      <trkpt lat="47.18717" lon="-1.59446">
        <ele>56</ele>
        <time>2020-12-24T14:55:17.000Z</time>
      </trkpt>
      <trkpt lat="47.18715" lon="-1.59464">
        <ele>56</ele>
        <time>2020-12-24T14:55:19.000Z</time>
      </trkpt>
      <trkpt lat="47.18713" lon="-1.59482">
        <ele>56</ele>
        <time>2020-12-24T14:55:21.000Z</time>
      </trkpt>
      <trkpt lat="47.18711" lon="-1.595">
        <ele>56</ele>
        <time>2020-12-24T14:55:23.000Z</time>
      </trkpt>
      <trkpt lat="47.18709" lon="-1.59517">
        <ele>56</ele>
        <time>2020-12-24T14:55:25.000Z</time>
      </trkpt>
      <trkpt lat="47.18707" lon="-1.59534">
        <ele>56</ele>
        <time>2020-12-24T14:55:27.000Z</time>
      </trkpt>
      <trkpt lat="47.18705" lon="-1.59553">
        <ele>57</ele>
        <time>2020-12-24T14:55:29.000Z</time>
      </trkpt>
      <trkpt lat="47.18703" lon="-1.59571">
        <ele>57</ele>
        <time>2020-12-24T14:55:31.000Z</time>
      </trkpt>
      <trkpt lat="47.18701" lon="-1.5959">
        <ele>57</ele>
        <time>2020-12-24T14:55:33.000Z</time>
      </trkpt>
      <trkpt lat="47.18699" lon="-1.59608">
        <ele>57</ele>
        <time>2020-12-24T14:55:35.000Z</time>
      </trkpt>
      <trkpt lat="47.18696" lon="-1.59626">
        <ele>57</ele>
        <time>2020-12-24T14:55:37.000Z</time>
      </trkpt>
      <trkpt lat="47.18695" lon="-1.59644">
        <ele>57</ele>
        <time>2020-12-24T14:55:39.000Z</time>
      </trkpt>
      <trkpt lat="47.18692" lon="-1.59662">
        <ele>57</ele>
        <time>2020-12-24T14:55:41.000Z</time>
      </trkpt>
      <trkpt lat="47.18689" lon="-1.5968">
        <ele>57</ele>
        <time>2020-12-24T14:55:43.000Z</time>
      </trkpt>
      <trkpt lat="47.18687" lon="-1.59698">
        <ele>57</ele>
        <time>2020-12-24T14:55:45.000Z</time>
      </trkpt>
      <trkpt lat="47.18685" lon="-1.59716">
        <ele>57</ele>
        <time>2020-12-24T14:55:47.000Z</time>
      </trkpt>
      <trkpt lat="47.18685" lon="-1.59734">
        <ele>57</ele>
        <time>2020-12-24T14:55:49.000Z</time>
      </trkpt>
      <trkpt lat="47.18685" lon="-1.59751">
        <ele>56</ele>
        <time>2020-12-24T14:55:51.000Z</time>
      </trkpt>
      <trkpt lat="47.18686" lon="-1.59766">
        <ele>56</ele>
        <time>2020-12-24T14:55:53.000Z</time>
      </trkpt>
      <trkpt lat="47.18692" lon="-1.5978">
        <ele>56</ele>
        <time>2020-12-24T14:55:55.000Z</time>
      </trkpt>
      <trkpt lat="47.18692" lon="-1.59799">
        <ele>56</ele>
        <time>2020-12-24T14:55:57.000Z</time>
      </trkpt>
      <trkpt lat="47.18683" lon="-1.59819">
        <ele>57</ele>
        <time>2020-12-24T14:55:59.000Z</time>
      </trkpt>
      <trkpt lat="47.18672" lon="-1.59838">
        <ele>57</ele>
        <time>2020-12-24T14:56:01.000Z</time>
      </trkpt>
      <trkpt lat="47.18657" lon="-1.59846">
        <ele>57</ele>
        <time>2020-12-24T14:56:03.000Z</time>
      </trkpt>
      <trkpt lat="47.18643" lon="-1.59841">
        <ele>57</ele>
        <time>2020-12-24T14:56:05.000Z</time>
      </trkpt>
      <trkpt lat="47.18629" lon="-1.59831">
        <ele>57</ele>
        <time>2020-12-24T14:56:07.000Z</time>
      </trkpt>
      <trkpt lat="47.18619" lon="-1.59838">
        <ele>56</ele>
        <time>2020-12-24T14:56:09.000Z</time>
      </trkpt>
      <trkpt lat="47.1862" lon="-1.59852">
        <ele>56</ele>
        <time>2020-12-24T14:56:11.000Z</time>
      </trkpt>
      <trkpt lat="47.18625" lon="-1.59868">
        <ele>56</ele>
        <time>2020-12-24T14:56:13.000Z</time>
      </trkpt>
      <trkpt lat="47.18621" lon="-1.59885">
        <ele>57</ele>
        <time>2020-12-24T14:56:15.000Z</time>
      </trkpt>
      <trkpt lat="47.18618" lon="-1.59902">
        <ele>57</ele>
        <time>2020-12-24T14:56:17.000Z</time>
      </trkpt>
      <trkpt lat="47.18613" lon="-1.5992">
        <ele>58</ele>
        <time>2020-12-24T14:56:19.000Z</time>
      </trkpt>
      <trkpt lat="47.18608" lon="-1.59939">
        <ele>58</ele>
        <time>2020-12-24T14:56:21.000Z</time>
      </trkpt>
      <trkpt lat="47.18602" lon="-1.59956">
        <ele>57</ele>
        <time>2020-12-24T14:56:23.000Z</time>
      </trkpt>
      <trkpt lat="47.18597" lon="-1.59974">
        <ele>57</ele>
        <time>2020-12-24T14:56:25.000Z</time>
      </trkpt>
      <trkpt lat="47.18592" lon="-1.59991">
        <ele>57</ele>
        <time>2020-12-24T14:56:27.000Z</time>
      </trkpt>
      <trkpt lat="47.18586" lon="-1.60008">
        <ele>57</ele>
        <time>2020-12-24T14:56:29.000Z</time>
      </trkpt>
      <trkpt lat="47.18581" lon="-1.60025">
        <ele>57</ele>
        <time>2020-12-24T14:56:31.000Z</time>
      </trkpt>
      <trkpt lat="47.18575" lon="-1.60042">
        <ele>57</ele>
        <time>2020-12-24T14:56:33.000Z</time>
      </trkpt>
      <trkpt lat="47.18569" lon="-1.60058">
        <ele>57</ele>
        <time>2020-12-24T14:56:35.000Z</time>
      </trkpt>
      <trkpt lat="47.18562" lon="-1.60075">
        <ele>57</ele>
        <time>2020-12-24T14:56:37.000Z</time>
      </trkpt>
      <trkpt lat="47.18556" lon="-1.6009">
        <ele>57</ele>
        <time>2020-12-24T14:56:39.000Z</time>
      </trkpt>
      <trkpt lat="47.18549" lon="-1.60106">
        <ele>57</ele>
        <time>2020-12-24T14:56:41.000Z</time>
      </trkpt>
      <trkpt lat="47.18542" lon="-1.60122">
        <ele>57</ele>
        <time>2020-12-24T14:56:43.000Z</time>
      </trkpt>
      <trkpt lat="47.18535" lon="-1.60139">
        <ele>56</ele>
        <time>2020-12-24T14:56:45.000Z</time>
      </trkpt>
      <trkpt lat="47.18528" lon="-1.60154">
        <ele>56</ele>
        <time>2020-12-24T14:56:47.000Z</time>
      </trkpt>
      <trkpt lat="47.18521" lon="-1.6017">
        <ele>56</ele>
        <time>2020-12-24T14:56:49.000Z</time>
      </trkpt>
      <trkpt lat="47.18513" lon="-1.60185">
        <ele>57</ele>
        <time>2020-12-24T14:56:51.000Z</time>
      </trkpt>
      <trkpt lat="47.18505" lon="-1.602">
        <ele>56</ele>
        <time>2020-12-24T14:56:53.000Z</time>
      </trkpt>
      <trkpt lat="47.18497" lon="-1.60215">
        <ele>57</ele>
        <time>2020-12-24T14:56:55.000Z</time>
      </trkpt>
      <trkpt lat="47.18489" lon="-1.6023">
        <ele>57</ele>
        <time>2020-12-24T14:56:57.000Z</time>
      </trkpt>
      <trkpt lat="47.18482" lon="-1.60245">
        <ele>57</ele>
        <time>2020-12-24T14:56:59.000Z</time>
      </trkpt>
      <trkpt lat="47.18473" lon="-1.6026">
        <ele>57</ele>
        <time>2020-12-24T14:57:01.000Z</time>
      </trkpt>
      <trkpt lat="47.18465" lon="-1.60275">
        <ele>57</ele>
        <time>2020-12-24T14:57:03.000Z</time>
      </trkpt>
      <trkpt lat="47.18457" lon="-1.6029">
        <ele>57</ele>
        <time>2020-12-24T14:57:05.000Z</time>
      </trkpt>
      <trkpt lat="47.18449" lon="-1.60304">
        <ele>57</ele>
        <time>2020-12-24T14:57:07.000Z</time>
      </trkpt>
      <trkpt lat="47.1844" lon="-1.60318">
        <ele>57</ele>
        <time>2020-12-24T14:57:09.000Z</time>
      </trkpt>
      <trkpt lat="47.18431" lon="-1.60332">
        <ele>57</ele>
        <time>2020-12-24T14:57:11.000Z</time>
      </trkpt>
      <trkpt lat="47.18422" lon="-1.60346">
        <ele>56</ele>
        <time>2020-12-24T14:57:13.000Z</time>
      </trkpt>
      <trkpt lat="47.18412" lon="-1.60359">
        <ele>56</ele>
        <time>2020-12-24T14:57:15.000Z</time>
      </trkpt>
      <trkpt lat="47.18402" lon="-1.60373">
        <ele>56</ele>
        <time>2020-12-24T14:57:17.000Z</time>
      </trkpt>
      <trkpt lat="47.18392" lon="-1.60386">
        <ele>55</ele>
        <time>2020-12-24T14:57:19.000Z</time>
      </trkpt>
      <trkpt lat="47.18382" lon="-1.60399">
        <ele>55</ele>
        <time>2020-12-24T14:57:21.000Z</time>
      </trkpt>
      <trkpt lat="47.18372" lon="-1.60413">
        <ele>56</ele>
        <time>2020-12-24T14:57:23.000Z</time>
      </trkpt>
      <trkpt lat="47.18362" lon="-1.60426">
        <ele>56</ele>
        <time>2020-12-24T14:57:25.000Z</time>
      </trkpt>
      <trkpt lat="47.18352" lon="-1.60439">
        <ele>56</ele>
        <time>2020-12-24T14:57:27.000Z</time>
      </trkpt>
      <trkpt lat="47.18342" lon="-1.60452">
        <ele>56</ele>
        <time>2020-12-24T14:57:29.000Z</time>
      </trkpt>
      <trkpt lat="47.18332" lon="-1.60464">
        <ele>57</ele>
        <time>2020-12-24T14:57:31.000Z</time>
      </trkpt>
      <trkpt lat="47.18321" lon="-1.60477">
        <ele>57</ele>
        <time>2020-12-24T14:57:33.000Z</time>
      </trkpt>
      <trkpt lat="47.1831" lon="-1.60489">
        <ele>57</ele>
        <time>2020-12-24T14:57:35.000Z</time>
      </trkpt>
      <trkpt lat="47.18299" lon="-1.60501">
        <ele>57</ele>
        <time>2020-12-24T14:57:37.000Z</time>
      </trkpt>
      <trkpt lat="47.18288" lon="-1.60512">
        <ele>58</ele>
        <time>2020-12-24T14:57:39.000Z</time>
      </trkpt>
      <trkpt lat="47.18277" lon="-1.60523">
        <ele>58</ele>
        <time>2020-12-24T14:57:41.000Z</time>
      </trkpt>
      <trkpt lat="47.18266" lon="-1.60534">
        <ele>57</ele>
        <time>2020-12-24T14:57:43.000Z</time>
      </trkpt>
      <trkpt lat="47.18255" lon="-1.60544">
        <ele>57</ele>
        <time>2020-12-24T14:57:45.000Z</time>
      </trkpt>
      <trkpt lat="47.18243" lon="-1.60552">
        <ele>57</ele>
        <time>2020-12-24T14:57:47.000Z</time>
      </trkpt>
      <trkpt lat="47.18232" lon="-1.60561">
        <ele>57</ele>
        <time>2020-12-24T14:57:49.000Z</time>
      </trkpt>
      <trkpt lat="47.1822" lon="-1.60568">
        <ele>58</ele>
        <time>2020-12-24T14:57:51.000Z</time>
      </trkpt>
      <trkpt lat="47.18209" lon="-1.60573">
        <ele>58</ele>
        <time>2020-12-24T14:57:53.000Z</time>
      </trkpt>
      <trkpt lat="47.18199" lon="-1.60576">
        <ele>58</ele>
        <time>2020-12-24T14:57:55.000Z</time>
      </trkpt>
      <trkpt lat="47.18191" lon="-1.60584">
        <ele>59</ele>
        <time>2020-12-24T14:57:58.000Z</time>
      </trkpt>
      <trkpt lat="47.18186" lon="-1.60601">
        <ele>59</ele>
        <time>2020-12-24T14:58:01.000Z</time>
      </trkpt>
      <trkpt lat="47.18175" lon="-1.60606">
        <ele>59</ele>
        <time>2020-12-24T14:58:03.000Z</time>
      </trkpt>
      <trkpt lat="47.18162" lon="-1.60606">
        <ele>59</ele>
        <time>2020-12-24T14:58:05.000Z</time>
      </trkpt>
      <trkpt lat="47.18149" lon="-1.60606">
        <ele>59</ele>
        <time>2020-12-24T14:58:07.000Z</time>
      </trkpt>
      <trkpt lat="47.18135" lon="-1.60603">
        <ele>57</ele>
        <time>2020-12-24T14:58:09.000Z</time>
      </trkpt>
      <trkpt lat="47.18122" lon="-1.606">
        <ele>57</ele>
        <time>2020-12-24T14:58:11.000Z</time>
      </trkpt>
      <trkpt lat="47.18109" lon="-1.60595">
        <ele>57</ele>
        <time>2020-12-24T14:58:13.000Z</time>
      </trkpt>
      <trkpt lat="47.18096" lon="-1.6059">
        <ele>57</ele>
        <time>2020-12-24T14:58:15.000Z</time>
      </trkpt>
      <trkpt lat="47.18083" lon="-1.60583">
        <ele>57</ele>
        <time>2020-12-24T14:58:17.000Z</time>
      </trkpt>
      <trkpt lat="47.1807" lon="-1.60577">
        <ele>57</ele>
        <time>2020-12-24T14:58:19.000Z</time>
      </trkpt>
      <trkpt lat="47.18058" lon="-1.60569">
        <ele>57</ele>
        <time>2020-12-24T14:58:21.000Z</time>
      </trkpt>
      <trkpt lat="47.18046" lon="-1.60562">
        <ele>58</ele>
        <time>2020-12-24T14:58:23.000Z</time>
      </trkpt>
      <trkpt lat="47.18033" lon="-1.60557">
        <ele>58</ele>
        <time>2020-12-24T14:58:25.000Z</time>
      </trkpt>
      <trkpt lat="47.1802" lon="-1.60554">
        <ele>58</ele>
        <time>2020-12-24T14:58:27.000Z</time>
      </trkpt>
      <trkpt lat="47.18008" lon="-1.60556">
        <ele>58</ele>
        <time>2020-12-24T14:58:29.000Z</time>
      </trkpt>
      <trkpt lat="47.17995" lon="-1.60559">
        <ele>58</ele>
        <time>2020-12-24T14:58:31.000Z</time>
      </trkpt>
      <trkpt lat="47.17983" lon="-1.60564">
        <ele>58</ele>
        <time>2020-12-24T14:58:33.000Z</time>
      </trkpt>
      <trkpt lat="47.1797" lon="-1.60568">
        <ele>58</ele>
        <time>2020-12-24T14:58:35.000Z</time>
      </trkpt>
      <trkpt lat="47.17957" lon="-1.60572">
        <ele>58</ele>
        <time>2020-12-24T14:58:37.000Z</time>
      </trkpt>
      <trkpt lat="47.17946" lon="-1.60579">
        <ele>58</ele>
        <time>2020-12-24T14:58:39.000Z</time>
      </trkpt>
      <trkpt lat="47.17935" lon="-1.60587">
        <ele>59</ele>
        <time>2020-12-24T14:58:41.000Z</time>
      </trkpt>
      <trkpt lat="47.17925" lon="-1.60591">
        <ele>61</ele>
        <time>2020-12-24T14:58:44.000Z</time>
      </trkpt>
      <trkpt lat="47.17913" lon="-1.60595">
        <ele>61</ele>
        <time>2020-12-24T14:58:54.000Z</time>
      </trkpt>
      <trkpt lat="47.17908" lon="-1.60609">
        <ele>61</ele>
        <time>2020-12-24T14:58:56.000Z</time>
      </trkpt>
      <trkpt lat="47.17903" lon="-1.60626">
        <ele>60</ele>
        <time>2020-12-24T14:58:58.000Z</time>
      </trkpt>
      <trkpt lat="47.17896" lon="-1.60644">
        <ele>59</ele>
        <time>2020-12-24T14:59:00.000Z</time>
      </trkpt>
      <trkpt lat="47.1789" lon="-1.60661">
        <ele>59</ele>
        <time>2020-12-24T14:59:02.000Z</time>
      </trkpt>
      <trkpt lat="47.17883" lon="-1.6068">
        <ele>58</ele>
        <time>2020-12-24T14:59:04.000Z</time>
      </trkpt>
      <trkpt lat="47.17877" lon="-1.60699">
        <ele>57</ele>
        <time>2020-12-24T14:59:06.000Z</time>
      </trkpt>
      <trkpt lat="47.17872" lon="-1.60718">
        <ele>57</ele>
        <time>2020-12-24T14:59:08.000Z</time>
      </trkpt>
      <trkpt lat="47.17867" lon="-1.60736">
        <ele>57</ele>
        <time>2020-12-24T14:59:10.000Z</time>
      </trkpt>
      <trkpt lat="47.17864" lon="-1.60755">
        <ele>56</ele>
        <time>2020-12-24T14:59:12.000Z</time>
      </trkpt>
      <trkpt lat="47.1786" lon="-1.60773">
        <ele>56</ele>
        <time>2020-12-24T14:59:14.000Z</time>
      </trkpt>
      <trkpt lat="47.17855" lon="-1.60792">
        <ele>56</ele>
        <time>2020-12-24T14:59:16.000Z</time>
      </trkpt>
      <trkpt lat="47.17851" lon="-1.6081">
        <ele>56</ele>
        <time>2020-12-24T14:59:18.000Z</time>
      </trkpt>
      <trkpt lat="47.17847" lon="-1.60828">
        <ele>57</ele>
        <time>2020-12-24T14:59:20.000Z</time>
      </trkpt>
      <trkpt lat="47.17841" lon="-1.60845">
        <ele>57</ele>
        <time>2020-12-24T14:59:22.000Z</time>
      </trkpt>
      <trkpt lat="47.17832" lon="-1.6086">
        <ele>57</ele>
        <time>2020-12-24T14:59:24.000Z</time>
      </trkpt>
      <trkpt lat="47.17823" lon="-1.60875">
        <ele>57</ele>
        <time>2020-12-24T14:59:26.000Z</time>
      </trkpt>
      <trkpt lat="47.17814" lon="-1.60889">
        <ele>57</ele>
        <time>2020-12-24T14:59:28.000Z</time>
      </trkpt>
      <trkpt lat="47.17803" lon="-1.609">
        <ele>57</ele>
        <time>2020-12-24T14:59:30.000Z</time>
      </trkpt>
      <trkpt lat="47.17792" lon="-1.60908">
        <ele>57</ele>
        <time>2020-12-24T14:59:32.000Z</time>
      </trkpt>
      <trkpt lat="47.1778" lon="-1.60917">
        <ele>57</ele>
        <time>2020-12-24T14:59:34.000Z</time>
      </trkpt>
      <trkpt lat="47.17769" lon="-1.60927">
        <ele>57</ele>
        <time>2020-12-24T14:59:36.000Z</time>
      </trkpt>
      <trkpt lat="47.17758" lon="-1.60936">
        <ele>57</ele>
        <time>2020-12-24T14:59:38.000Z</time>
      </trkpt>
      <trkpt lat="47.17747" lon="-1.60944">
        <ele>56</ele>
        <time>2020-12-24T14:59:40.000Z</time>
      </trkpt>
      <trkpt lat="47.17736" lon="-1.60953">
        <ele>55</ele>
        <time>2020-12-24T14:59:42.000Z</time>
      </trkpt>
      <trkpt lat="47.17724" lon="-1.60961">
        <ele>55</ele>
        <time>2020-12-24T14:59:44.000Z</time>
      </trkpt>
      <trkpt lat="47.17713" lon="-1.6097">
        <ele>55</ele>
        <time>2020-12-24T14:59:46.000Z</time>
      </trkpt>
      <trkpt lat="47.17701" lon="-1.60976">
        <ele>55</ele>
        <time>2020-12-24T14:59:48.000Z</time>
      </trkpt>
      <trkpt lat="47.17688" lon="-1.60977">
        <ele>55</ele>
        <time>2020-12-24T14:59:50.000Z</time>
      </trkpt>
      <trkpt lat="47.17673" lon="-1.60973">
        <ele>55</ele>
        <time>2020-12-24T14:59:52.000Z</time>
      </trkpt>
      <trkpt lat="47.17659" lon="-1.60976">
        <ele>55</ele>
        <time>2020-12-24T14:59:54.000Z</time>
      </trkpt>
      <trkpt lat="47.17646" lon="-1.60985">
        <ele>55</ele>
        <time>2020-12-24T14:59:56.000Z</time>
      </trkpt>
      <trkpt lat="47.17635" lon="-1.60996">
        <ele>56</ele>
        <time>2020-12-24T14:59:58.000Z</time>
      </trkpt>
      <trkpt lat="47.17623" lon="-1.61006">
        <ele>56</ele>
        <time>2020-12-24T15:00:00.000Z</time>
      </trkpt>
      <trkpt lat="47.17611" lon="-1.61016">
        <ele>56</ele>
        <time>2020-12-24T15:00:02.000Z</time>
      </trkpt>
      <trkpt lat="47.176" lon="-1.61026">
        <ele>56</ele>
        <time>2020-12-24T15:00:04.000Z</time>
      </trkpt>
      <trkpt lat="47.17588" lon="-1.61036">
        <ele>56</ele>
        <time>2020-12-24T15:00:06.000Z</time>
      </trkpt>
      <trkpt lat="47.17577" lon="-1.61046">
        <ele>56</ele>
        <time>2020-12-24T15:00:08.000Z</time>
      </trkpt>
      <trkpt lat="47.17565" lon="-1.61056">
        <ele>57</ele>
        <time>2020-12-24T15:00:10.000Z</time>
      </trkpt>
      <trkpt lat="47.17554" lon="-1.61067">
        <ele>57</ele>
        <time>2020-12-24T15:00:12.000Z</time>
      </trkpt>
      <trkpt lat="47.17542" lon="-1.61076">
        <ele>57</ele>
        <time>2020-12-24T15:00:14.000Z</time>
      </trkpt>
      <trkpt lat="47.17531" lon="-1.61086">
        <ele>57</ele>
        <time>2020-12-24T15:00:16.000Z</time>
      </trkpt>
      <trkpt lat="47.1752" lon="-1.61097">
        <ele>57</ele>
        <time>2020-12-24T15:00:18.000Z</time>
      </trkpt>
      <trkpt lat="47.17508" lon="-1.61104">
        <ele>57</ele>
        <time>2020-12-24T15:00:20.000Z</time>
      </trkpt>
      <trkpt lat="47.17496" lon="-1.61107">
        <ele>58</ele>
        <time>2020-12-24T15:00:22.000Z</time>
      </trkpt>
      <trkpt lat="47.17483" lon="-1.61106">
        <ele>58</ele>
        <time>2020-12-24T15:00:24.000Z</time>
      </trkpt>
      <trkpt lat="47.17471" lon="-1.61099">
        <ele>59</ele>
        <time>2020-12-24T15:00:26.000Z</time>
      </trkpt>
      <trkpt lat="47.17461" lon="-1.61091">
        <ele>59</ele>
        <time>2020-12-24T15:00:28.000Z</time>
      </trkpt>
      <trkpt lat="47.17452" lon="-1.6108">
        <ele>60</ele>
        <time>2020-12-24T15:00:30.000Z</time>
      </trkpt>
      <trkpt lat="47.17445" lon="-1.61067">
        <ele>60</ele>
        <time>2020-12-24T15:00:32.000Z</time>
      </trkpt>
      <trkpt lat="47.17438" lon="-1.61054">
        <ele>60</ele>
        <time>2020-12-24T15:00:34.000Z</time>
      </trkpt>
      <trkpt lat="47.17432" lon="-1.6104">
        <ele>60</ele>
        <time>2020-12-24T15:00:36.000Z</time>
      </trkpt>
      <trkpt lat="47.17427" lon="-1.61024">
        <ele>61</ele>
        <time>2020-12-24T15:00:39.000Z</time>
      </trkpt>
      <trkpt lat="47.17423" lon="-1.61037">
        <ele>61</ele>
        <time>2020-12-24T15:00:44.000Z</time>
      </trkpt>
      <trkpt lat="47.17426" lon="-1.61049">
        <ele>61</ele>
        <time>2020-12-24T15:00:46.000Z</time>
      </trkpt>
      <trkpt lat="47.17431" lon="-1.61062">
        <ele>61</ele>
        <time>2020-12-24T15:00:48.000Z</time>
      </trkpt>
      <trkpt lat="47.17436" lon="-1.61074">
        <ele>61</ele>
        <time>2020-12-24T15:00:50.000Z</time>
      </trkpt>
      <trkpt lat="47.17442" lon="-1.61088">
        <ele>60</ele>
        <time>2020-12-24T15:00:52.000Z</time>
      </trkpt>
      <trkpt lat="47.17447" lon="-1.61102">
        <ele>60</ele>
        <time>2020-12-24T15:00:54.000Z</time>
      </trkpt>
      <trkpt lat="47.17453" lon="-1.61116">
        <ele>60</ele>
        <time>2020-12-24T15:00:56.000Z</time>
      </trkpt>
      <trkpt lat="47.17458" lon="-1.61131">
        <ele>61</ele>
        <time>2020-12-24T15:00:58.000Z</time>
      </trkpt>
      <trkpt lat="47.17464" lon="-1.61145">
        <ele>62</ele>
        <time>2020-12-24T15:01:00.000Z</time>
      </trkpt>
      <trkpt lat="47.1747" lon="-1.6116">
        <ele>62</ele>
        <time>2020-12-24T15:01:02.000Z</time>
      </trkpt>
      <trkpt lat="47.17476" lon="-1.61174">
        <ele>62</ele>
        <time>2020-12-24T15:01:04.000Z</time>
      </trkpt>
      <trkpt lat="47.17482" lon="-1.61188">
        <ele>62</ele>
        <time>2020-12-24T15:01:06.000Z</time>
      </trkpt>
      <trkpt lat="47.17487" lon="-1.61201">
        <ele>62</ele>
        <time>2020-12-24T15:01:08.000Z</time>
      </trkpt>
      <trkpt lat="47.17493" lon="-1.61213">
        <ele>61</ele>
        <time>2020-12-24T15:01:10.000Z</time>
      </trkpt>
      <trkpt lat="47.17498" lon="-1.61225">
        <ele>61</ele>
        <time>2020-12-24T15:01:12.000Z</time>
      </trkpt>
      <trkpt lat="47.17504" lon="-1.61238">
        <ele>61</ele>
        <time>2020-12-24T15:01:14.000Z</time>
      </trkpt>
      <trkpt lat="47.17509" lon="-1.6125">
        <ele>62</ele>
        <time>2020-12-24T15:01:16.000Z</time>
      </trkpt>
      <trkpt lat="47.17515" lon="-1.61261">
        <ele>62</ele>
        <time>2020-12-24T15:01:18.000Z</time>
      </trkpt>
      <trkpt lat="47.17522" lon="-1.61272">
        <ele>62</ele>
        <time>2020-12-24T15:01:20.000Z</time>
      </trkpt>
      <trkpt lat="47.17531" lon="-1.61282">
        <ele>62</ele>
        <time>2020-12-24T15:01:22.000Z</time>
      </trkpt>
      <trkpt lat="47.1754" lon="-1.61288">
        <ele>61</ele>
        <time>2020-12-24T15:01:24.000Z</time>
      </trkpt>
      <trkpt lat="47.1755" lon="-1.61295">
        <ele>61</ele>
        <time>2020-12-24T15:01:26.000Z</time>
      </trkpt>
      <trkpt lat="47.1756" lon="-1.61306">
        <ele>60</ele>
        <time>2020-12-24T15:01:28.000Z</time>
      </trkpt>
      <trkpt lat="47.17562" lon="-1.61325">
        <ele>61</ele>
        <time>2020-12-24T15:01:30.000Z</time>
      </trkpt>
      <trkpt lat="47.17558" lon="-1.61344">
        <ele>61</ele>
        <time>2020-12-24T15:01:32.000Z</time>
      </trkpt>
      <trkpt lat="47.17547" lon="-1.61357">
        <ele>62</ele>
        <time>2020-12-24T15:01:34.000Z</time>
      </trkpt>
      <trkpt lat="47.17536" lon="-1.61367">
        <ele>61</ele>
        <time>2020-12-24T15:01:36.000Z</time>
      </trkpt>
      <trkpt lat="47.1753" lon="-1.61382">
        <ele>62</ele>
        <time>2020-12-24T15:01:38.000Z</time>
      </trkpt>
      <trkpt lat="47.17526" lon="-1.61399">
        <ele>62</ele>
        <time>2020-12-24T15:01:40.000Z</time>
      </trkpt>
      <trkpt lat="47.17522" lon="-1.61415">
        <ele>63</ele>
        <time>2020-12-24T15:01:42.000Z</time>
      </trkpt>
      <trkpt lat="47.17519" lon="-1.61431">
        <ele>64</ele>
        <time>2020-12-24T15:01:44.000Z</time>
      </trkpt>
      <trkpt lat="47.17516" lon="-1.61446">
        <ele>65</ele>
        <time>2020-12-24T15:01:46.000Z</time>
      </trkpt>
      <trkpt lat="47.17509" lon="-1.61458">
        <ele>66</ele>
        <time>2020-12-24T15:01:48.000Z</time>
      </trkpt>
      <trkpt lat="47.17499" lon="-1.61466">
        <ele>67</ele>
        <time>2020-12-24T15:01:50.000Z</time>
      </trkpt>
      <trkpt lat="47.17488" lon="-1.61471">
        <ele>67</ele>
        <time>2020-12-24T15:01:52.000Z</time>
      </trkpt>
      <trkpt lat="47.17476" lon="-1.61476">
        <ele>67</ele>
        <time>2020-12-24T15:01:54.000Z</time>
      </trkpt>
      <trkpt lat="47.17465" lon="-1.6148">
        <ele>68</ele>
        <time>2020-12-24T15:01:56.000Z</time>
      </trkpt>
      <trkpt lat="47.17454" lon="-1.61485">
        <ele>69</ele>
        <time>2020-12-24T15:01:58.000Z</time>
      </trkpt>
      <trkpt lat="47.17443" lon="-1.61491">
        <ele>69</ele>
        <time>2020-12-24T15:02:00.000Z</time>
      </trkpt>
      <trkpt lat="47.17433" lon="-1.61498">
        <ele>69</ele>
        <time>2020-12-24T15:02:02.000Z</time>
      </trkpt>
      <trkpt lat="47.17423" lon="-1.61505">
        <ele>71</ele>
        <time>2020-12-24T15:02:04.000Z</time>
      </trkpt>
      <trkpt lat="47.17413" lon="-1.61512">
        <ele>71</ele>
        <time>2020-12-24T15:02:06.000Z</time>
      </trkpt>
      <trkpt lat="47.17404" lon="-1.61519">
        <ele>71</ele>
        <time>2020-12-24T15:02:08.000Z</time>
      </trkpt>
      <trkpt lat="47.17395" lon="-1.61526">
        <ele>72</ele>
        <time>2020-12-24T15:02:10.000Z</time>
      </trkpt>
      <trkpt lat="47.17385" lon="-1.61533">
        <ele>72</ele>
        <time>2020-12-24T15:02:12.000Z</time>
      </trkpt>
      <trkpt lat="47.17377" lon="-1.61542">
        <ele>73</ele>
        <time>2020-12-24T15:02:14.000Z</time>
      </trkpt>
      <trkpt lat="47.17368" lon="-1.61551">
        <ele>74</ele>
        <time>2020-12-24T15:02:16.000Z</time>
      </trkpt>
      <trkpt lat="47.17359" lon="-1.6156">
        <ele>74</ele>
        <time>2020-12-24T15:02:18.000Z</time>
      </trkpt>
      <trkpt lat="47.17351" lon="-1.61569">
        <ele>74</ele>
        <time>2020-12-24T15:02:20.000Z</time>
      </trkpt>
      <trkpt lat="47.17342" lon="-1.61579">
        <ele>74</ele>
        <time>2020-12-24T15:02:22.000Z</time>
      </trkpt>
      <trkpt lat="47.17334" lon="-1.6159">
        <ele>74</ele>
        <time>2020-12-24T15:02:24.000Z</time>
      </trkpt>
      <trkpt lat="47.17325" lon="-1.616">
        <ele>74</ele>
        <time>2020-12-24T15:02:26.000Z</time>
      </trkpt>
      <trkpt lat="47.17317" lon="-1.61612">
        <ele>73</ele>
        <time>2020-12-24T15:02:28.000Z</time>
      </trkpt>
      <trkpt lat="47.1731" lon="-1.61623">
        <ele>73</ele>
        <time>2020-12-24T15:02:30.000Z</time>
      </trkpt>
      <trkpt lat="47.17302" lon="-1.61636">
        <ele>72</ele>
        <time>2020-12-24T15:02:32.000Z</time>
      </trkpt>
      <trkpt lat="47.17294" lon="-1.6165">
        <ele>72</ele>
        <time>2020-12-24T15:02:34.000Z</time>
      </trkpt>
      <trkpt lat="47.17287" lon="-1.61664">
        <ele>72</ele>
        <time>2020-12-24T15:02:36.000Z</time>
      </trkpt>
      <trkpt lat="47.1728" lon="-1.61679">
        <ele>72</ele>
        <time>2020-12-24T15:02:38.000Z</time>
      </trkpt>
      <trkpt lat="47.17272" lon="-1.61694">
        <ele>72</ele>
        <time>2020-12-24T15:02:40.000Z</time>
      </trkpt>
      <trkpt lat="47.17265" lon="-1.61708">
        <ele>72</ele>
        <time>2020-12-24T15:02:42.000Z</time>
      </trkpt>
      <trkpt lat="47.17258" lon="-1.61723">
        <ele>72</ele>
        <time>2020-12-24T15:02:44.000Z</time>
      </trkpt>
      <trkpt lat="47.17252" lon="-1.61737">
        <ele>72</ele>
        <time>2020-12-24T15:02:46.000Z</time>
      </trkpt>
      <trkpt lat="47.17247" lon="-1.61755">
        <ele>72</ele>
        <time>2020-12-24T15:02:48.000Z</time>
      </trkpt>
      <trkpt lat="47.17244" lon="-1.61772">
        <ele>72</ele>
        <time>2020-12-24T15:02:50.000Z</time>
      </trkpt>
      <trkpt lat="47.17234" lon="-1.61786">
        <ele>72</ele>
        <time>2020-12-24T15:02:52.000Z</time>
      </trkpt>
      <trkpt lat="47.17224" lon="-1.61796">
        <ele>71</ele>
        <time>2020-12-24T15:02:54.000Z</time>
      </trkpt>
      <trkpt lat="47.17213" lon="-1.61805">
        <ele>71</ele>
        <time>2020-12-24T15:02:56.000Z</time>
      </trkpt>
      <trkpt lat="47.17202" lon="-1.61815">
        <ele>71</ele>
        <time>2020-12-24T15:02:58.000Z</time>
      </trkpt>
      <trkpt lat="47.17191" lon="-1.61824">
        <ele>72</ele>
        <time>2020-12-24T15:03:00.000Z</time>
      </trkpt>
      <trkpt lat="47.17181" lon="-1.61834">
        <ele>72</ele>
        <time>2020-12-24T15:03:02.000Z</time>
      </trkpt>
      <trkpt lat="47.1717" lon="-1.61844">
        <ele>72</ele>
        <time>2020-12-24T15:03:04.000Z</time>
      </trkpt>
      <trkpt lat="47.17159" lon="-1.61854">
        <ele>72</ele>
        <time>2020-12-24T15:03:06.000Z</time>
      </trkpt>
      <trkpt lat="47.17149" lon="-1.61864">
        <ele>72</ele>
        <time>2020-12-24T15:03:08.000Z</time>
      </trkpt>
      <trkpt lat="47.17138" lon="-1.61874">
        <ele>72</ele>
        <time>2020-12-24T15:03:10.000Z</time>
      </trkpt>
      <trkpt lat="47.17128" lon="-1.61884">
        <ele>72</ele>
        <time>2020-12-24T15:03:12.000Z</time>
      </trkpt>
      <trkpt lat="47.17117" lon="-1.61895">
        <ele>72</ele>
        <time>2020-12-24T15:03:14.000Z</time>
      </trkpt>
      <trkpt lat="47.17107" lon="-1.61906">
        <ele>72</ele>
        <time>2020-12-24T15:03:16.000Z</time>
      </trkpt>
      <trkpt lat="47.17096" lon="-1.61916">
        <ele>71</ele>
        <time>2020-12-24T15:03:18.000Z</time>
      </trkpt>
      <trkpt lat="47.17085" lon="-1.61927">
        <ele>71</ele>
        <time>2020-12-24T15:03:20.000Z</time>
      </trkpt>
      <trkpt lat="47.17075" lon="-1.61937">
        <ele>71</ele>
        <time>2020-12-24T15:03:22.000Z</time>
      </trkpt>
      <trkpt lat="47.17064" lon="-1.61949">
        <ele>72</ele>
        <time>2020-12-24T15:03:24.000Z</time>
      </trkpt>
      <trkpt lat="47.17053" lon="-1.61963">
        <ele>72</ele>
        <time>2020-12-24T15:03:26.000Z</time>
      </trkpt>
      <trkpt lat="47.17043" lon="-1.61977">
        <ele>72</ele>
        <time>2020-12-24T15:03:28.000Z</time>
      </trkpt>
      <trkpt lat="47.17033" lon="-1.61991">
        <ele>72</ele>
        <time>2020-12-24T15:03:30.000Z</time>
      </trkpt>
      <trkpt lat="47.17024" lon="-1.62005">
        <ele>72</ele>
        <time>2020-12-24T15:03:32.000Z</time>
      </trkpt>
      <trkpt lat="47.17014" lon="-1.62019">
        <ele>72</ele>
        <time>2020-12-24T15:03:34.000Z</time>
      </trkpt>
      <trkpt lat="47.17005" lon="-1.62034">
        <ele>71</ele>
        <time>2020-12-24T15:03:36.000Z</time>
      </trkpt>
      <trkpt lat="47.16996" lon="-1.62049">
        <ele>71</ele>
        <time>2020-12-24T15:03:38.000Z</time>
      </trkpt>
      <trkpt lat="47.16988" lon="-1.62065">
        <ele>71</ele>
        <time>2020-12-24T15:03:40.000Z</time>
      </trkpt>
      <trkpt lat="47.1698" lon="-1.6208">
        <ele>71</ele>
        <time>2020-12-24T15:03:42.000Z</time>
      </trkpt>
      <trkpt lat="47.16971" lon="-1.62094">
        <ele>72</ele>
        <time>2020-12-24T15:03:44.000Z</time>
      </trkpt>
      <trkpt lat="47.16964" lon="-1.62109">
        <ele>72</ele>
        <time>2020-12-24T15:03:46.000Z</time>
      </trkpt>
      <trkpt lat="47.16955" lon="-1.62124">
        <ele>72</ele>
        <time>2020-12-24T15:03:48.000Z</time>
      </trkpt>
      <trkpt lat="47.16948" lon="-1.62139">
        <ele>72</ele>
        <time>2020-12-24T15:03:50.000Z</time>
      </trkpt>
      <trkpt lat="47.1694" lon="-1.62154">
        <ele>72</ele>
        <time>2020-12-24T15:03:52.000Z</time>
      </trkpt>
      <trkpt lat="47.16933" lon="-1.6217">
        <ele>71</ele>
        <time>2020-12-24T15:03:54.000Z</time>
      </trkpt>
      <trkpt lat="47.16927" lon="-1.62186">
        <ele>72</ele>
        <time>2020-12-24T15:03:56.000Z</time>
      </trkpt>
      <trkpt lat="47.16919" lon="-1.622">
        <ele>72</ele>
        <time>2020-12-24T15:03:58.000Z</time>
      </trkpt>
      <trkpt lat="47.16909" lon="-1.62214">
        <ele>72</ele>
        <time>2020-12-24T15:04:00.000Z</time>
      </trkpt>
      <trkpt lat="47.16899" lon="-1.62226">
        <ele>72</ele>
        <time>2020-12-24T15:04:02.000Z</time>
      </trkpt>
      <trkpt lat="47.16889" lon="-1.62239">
        <ele>72</ele>
        <time>2020-12-24T15:04:04.000Z</time>
      </trkpt>
      <trkpt lat="47.16879" lon="-1.62251">
        <ele>72</ele>
        <time>2020-12-24T15:04:06.000Z</time>
      </trkpt>
      <trkpt lat="47.16869" lon="-1.62263">
        <ele>72</ele>
        <time>2020-12-24T15:04:08.000Z</time>
      </trkpt>
      <trkpt lat="47.16859" lon="-1.62275">
        <ele>72</ele>
        <time>2020-12-24T15:04:10.000Z</time>
      </trkpt>
      <trkpt lat="47.1685" lon="-1.62287">
        <ele>72</ele>
        <time>2020-12-24T15:04:12.000Z</time>
      </trkpt>
      <trkpt lat="47.1684" lon="-1.62299">
        <ele>72</ele>
        <time>2020-12-24T15:04:14.000Z</time>
      </trkpt>
      <trkpt lat="47.16829" lon="-1.6231">
        <ele>73</ele>
        <time>2020-12-24T15:04:16.000Z</time>
      </trkpt>
      <trkpt lat="47.16818" lon="-1.62319">
        <ele>73</ele>
        <time>2020-12-24T15:04:18.000Z</time>
      </trkpt>
      <trkpt lat="47.16807" lon="-1.62327">
        <ele>73</ele>
        <time>2020-12-24T15:04:20.000Z</time>
      </trkpt>
      <trkpt lat="47.16795" lon="-1.62334">
        <ele>72</ele>
        <time>2020-12-24T15:04:22.000Z</time>
      </trkpt>
      <trkpt lat="47.16783" lon="-1.6234">
        <ele>72</ele>
        <time>2020-12-24T15:04:24.000Z</time>
      </trkpt>
      <trkpt lat="47.16771" lon="-1.62346">
        <ele>72</ele>
        <time>2020-12-24T15:04:26.000Z</time>
      </trkpt>
      <trkpt lat="47.16759" lon="-1.62354">
        <ele>72</ele>
        <time>2020-12-24T15:04:28.000Z</time>
      </trkpt>
      <trkpt lat="47.16748" lon="-1.62366">
        <ele>72</ele>
        <time>2020-12-24T15:04:30.000Z</time>
      </trkpt>
      <trkpt lat="47.16739" lon="-1.62381">
        <ele>71</ele>
        <time>2020-12-24T15:04:32.000Z</time>
      </trkpt>
      <trkpt lat="47.16734" lon="-1.62399">
        <ele>70</ele>
        <time>2020-12-24T15:04:34.000Z</time>
      </trkpt>
      <trkpt lat="47.1673" lon="-1.62418">
        <ele>71</ele>
        <time>2020-12-24T15:04:36.000Z</time>
      </trkpt>
      <trkpt lat="47.16728" lon="-1.62436">
        <ele>71</ele>
        <time>2020-12-24T15:04:38.000Z</time>
      </trkpt>
      <trkpt lat="47.16722" lon="-1.62453">
        <ele>71</ele>
        <time>2020-12-24T15:04:40.000Z</time>
      </trkpt>
      <trkpt lat="47.16718" lon="-1.62471">
        <ele>70</ele>
        <time>2020-12-24T15:04:42.000Z</time>
      </trkpt>
      <trkpt lat="47.16716" lon="-1.62488">
        <ele>70</ele>
        <time>2020-12-24T15:04:44.000Z</time>
      </trkpt>
      <trkpt lat="47.16726" lon="-1.62497">
        <ele>69</ele>
        <time>2020-12-24T15:04:46.000Z</time>
      </trkpt>
      <trkpt lat="47.16738" lon="-1.62503">
        <ele>69</ele>
        <time>2020-12-24T15:04:48.000Z</time>
      </trkpt>
      <trkpt lat="47.16749" lon="-1.62508">
        <ele>70</ele>
        <time>2020-12-24T15:04:50.000Z</time>
      </trkpt>
      <trkpt lat="47.1676" lon="-1.62513">
        <ele>70</ele>
        <time>2020-12-24T15:04:52.000Z</time>
      </trkpt>
      <trkpt lat="47.16771" lon="-1.6252">
        <ele>70</ele>
        <time>2020-12-24T15:04:54.000Z</time>
      </trkpt>
      <trkpt lat="47.16781" lon="-1.62527">
        <ele>71</ele>
        <time>2020-12-24T15:04:56.000Z</time>
      </trkpt>
      <trkpt lat="47.16791" lon="-1.62533">
        <ele>71</ele>
        <time>2020-12-24T15:04:58.000Z</time>
      </trkpt>
      <trkpt lat="47.16801" lon="-1.6254">
        <ele>71</ele>
        <time>2020-12-24T15:05:00.000Z</time>
      </trkpt>
      <trkpt lat="47.16811" lon="-1.62546">
        <ele>71</ele>
        <time>2020-12-24T15:05:02.000Z</time>
      </trkpt>
      <trkpt lat="47.1682" lon="-1.62556">
        <ele>72</ele>
        <time>2020-12-24T15:05:04.000Z</time>
      </trkpt>
      <trkpt lat="47.16828" lon="-1.62567">
        <ele>72</ele>
        <time>2020-12-24T15:05:06.000Z</time>
      </trkpt>
      <trkpt lat="47.16833" lon="-1.62583">
        <ele>72</ele>
        <time>2020-12-24T15:05:08.000Z</time>
      </trkpt>
      <trkpt lat="47.16826" lon="-1.62599">
        <ele>73</ele>
        <time>2020-12-24T15:05:10.000Z</time>
      </trkpt>
      <trkpt lat="47.16818" lon="-1.62613">
        <ele>72</ele>
        <time>2020-12-24T15:05:12.000Z</time>
      </trkpt>
      <trkpt lat="47.1681" lon="-1.62625">
        <ele>72</ele>
        <time>2020-12-24T15:05:14.000Z</time>
      </trkpt>
      <trkpt lat="47.16802" lon="-1.62637">
        <ele>72</ele>
        <time>2020-12-24T15:05:16.000Z</time>
      </trkpt>
      <trkpt lat="47.16795" lon="-1.62648">
        <ele>72</ele>
        <time>2020-12-24T15:05:18.000Z</time>
      </trkpt>
      <trkpt lat="47.1679" lon="-1.62658">
        <ele>73</ele>
        <time>2020-12-24T15:05:20.000Z</time>
      </trkpt>
      <trkpt lat="47.16779" lon="-1.62657">
        <ele>73</ele>
        <time>2020-12-24T15:05:24.000Z</time>
      </trkpt>
    </trkseg>
  </trk>
</gpx>